<?xml version="1.0" encoding="UTF-8" standalone="no" ?>
<gpx xmlns="http://www.topografix.com/GPX/1/1" xmlns:xsi="http://www.w3.org/2001/XMLSchema-instance" xsi:schemaLocation="http://www.topografix.com/GPX/1/1 http://www.topografix.com/GPX/1/1/gpx.xsd" version="1.1" creator="VisuGPX - https://www.visugpx.com">
  <metadata>
    <name>Turquant 22 km</name>
    <desc><![CDATA[Coteau Turquant]]></desc>
  </metadata>
  <trk>
    <name><![CDATA[Sequence 1]]></name>
    <trkseg>
      <trkpt lat="47.22367" lon="0.02891">
        <ele>-22</ele>
        <time>2016-04-20T07:24:54Z</time>
      </trkpt>
      <trkpt lat="47.22365" lon="0.02889">
        <ele>-26</ele>
        <time>2016-04-20T07:25:12Z</time>
      </trkpt>
      <trkpt lat="47.22372" lon="0.02891">
        <ele>-28</ele>
        <time>2016-04-20T07:25:23Z</time>
      </trkpt>
      <trkpt lat="47.22372" lon="0.02892">
        <ele>-28</ele>
        <time>2016-04-20T07:25:25Z</time>
      </trkpt>
      <trkpt lat="47.22373" lon="0.02892">
        <ele>-27</ele>
        <time>2016-04-20T07:25:31Z</time>
      </trkpt>
      <trkpt lat="47.22373" lon="0.02892">
        <ele>-27</ele>
        <time>2016-04-20T07:25:33Z</time>
      </trkpt>
      <trkpt lat="47.22373" lon="0.02892">
        <ele>-27</ele>
        <time>2016-04-20T07:25:38Z</time>
      </trkpt>
      <trkpt lat="47.22373" lon="0.02892">
        <ele>-27</ele>
        <time>2016-04-20T07:25:39Z</time>
      </trkpt>
      <trkpt lat="47.22373" lon="0.02892">
        <ele>-27</ele>
        <time>2016-04-20T07:25:43Z</time>
      </trkpt>
      <trkpt lat="47.22373" lon="0.02892">
        <ele>-27</ele>
        <time>2016-04-20T07:25:45Z</time>
      </trkpt>
      <trkpt lat="47.22373" lon="0.02892">
        <ele>-27</ele>
        <time>2016-04-20T07:25:48Z</time>
      </trkpt>
      <trkpt lat="47.22373" lon="0.02892">
        <ele>-27</ele>
        <time>2016-04-20T07:25:51Z</time>
      </trkpt>
      <trkpt lat="47.22373" lon="0.02892">
        <ele>-27</ele>
        <time>2016-04-20T07:25:56Z</time>
      </trkpt>
      <trkpt lat="47.22373" lon="0.02892">
        <ele>-27</ele>
        <time>2016-04-20T07:25:59Z</time>
      </trkpt>
      <trkpt lat="47.22373" lon="0.02892">
        <ele>-27</ele>
        <time>2016-04-20T07:26:00Z</time>
      </trkpt>
      <trkpt lat="47.22373" lon="0.02892">
        <ele>-27</ele>
        <time>2016-04-20T07:26:04Z</time>
      </trkpt>
      <trkpt lat="47.22373" lon="0.02892">
        <ele>-27</ele>
        <time>2016-04-20T07:26:06Z</time>
      </trkpt>
      <trkpt lat="47.22373" lon="0.02892">
        <ele>-27</ele>
        <time>2016-04-20T07:26:09Z</time>
      </trkpt>
      <trkpt lat="47.22373" lon="0.02892">
        <ele>-27</ele>
        <time>2016-04-20T07:26:12Z</time>
      </trkpt>
      <trkpt lat="47.22373" lon="0.02892">
        <ele>-27</ele>
        <time>2016-04-20T07:26:17Z</time>
      </trkpt>
      <trkpt lat="47.22373" lon="0.02892">
        <ele>-27</ele>
        <time>2016-04-20T07:26:18Z</time>
      </trkpt>
      <trkpt lat="47.22373" lon="0.02892">
        <ele>-27</ele>
        <time>2016-04-20T07:26:22Z</time>
      </trkpt>
      <trkpt lat="47.22373" lon="0.02892">
        <ele>-27</ele>
        <time>2016-04-20T07:26:24Z</time>
      </trkpt>
      <trkpt lat="47.22373" lon="0.02892">
        <ele>-27</ele>
        <time>2016-04-20T07:26:27Z</time>
      </trkpt>
      <trkpt lat="47.22373" lon="0.02892">
        <ele>-27</ele>
        <time>2016-04-20T07:26:30Z</time>
      </trkpt>
      <trkpt lat="47.22373" lon="0.02892">
        <ele>-27</ele>
        <time>2016-04-20T07:26:34Z</time>
      </trkpt>
      <trkpt lat="47.22373" lon="0.02892">
        <ele>-27</ele>
        <time>2016-04-20T07:26:36Z</time>
      </trkpt>
      <trkpt lat="47.22373" lon="0.02892">
        <ele>-27</ele>
        <time>2016-04-20T07:26:40Z</time>
      </trkpt>
      <trkpt lat="47.22373" lon="0.02892">
        <ele>-27</ele>
        <time>2016-04-20T07:26:42Z</time>
      </trkpt>
      <trkpt lat="47.22373" lon="0.02892">
        <ele>-26</ele>
        <time>2016-04-20T07:26:47Z</time>
      </trkpt>
      <trkpt lat="47.22373" lon="0.02892">
        <ele>-26</ele>
        <time>2016-04-20T07:26:48Z</time>
      </trkpt>
      <trkpt lat="47.22373" lon="0.02892">
        <ele>-26</ele>
        <time>2016-04-20T07:26:51Z</time>
      </trkpt>
      <trkpt lat="47.22373" lon="0.02892">
        <ele>-26</ele>
        <time>2016-04-20T07:26:54Z</time>
      </trkpt>
      <trkpt lat="47.22373" lon="0.02892">
        <ele>-26</ele>
        <time>2016-04-20T07:26:58Z</time>
      </trkpt>
      <trkpt lat="47.22373" lon="0.02892">
        <ele>-26</ele>
        <time>2016-04-20T07:27:00Z</time>
      </trkpt>
      <trkpt lat="47.22373" lon="0.02892">
        <ele>-26</ele>
        <time>2016-04-20T07:27:03Z</time>
      </trkpt>
      <trkpt lat="47.22373" lon="0.02892">
        <ele>-26</ele>
        <time>2016-04-20T07:27:06Z</time>
      </trkpt>
      <trkpt lat="47.22373" lon="0.02892">
        <ele>-26</ele>
        <time>2016-04-20T07:27:09Z</time>
      </trkpt>
      <trkpt lat="47.22373" lon="0.02892">
        <ele>-26</ele>
        <time>2016-04-20T07:27:12Z</time>
      </trkpt>
      <trkpt lat="47.22373" lon="0.02892">
        <ele>-26</ele>
        <time>2016-04-20T07:27:15Z</time>
      </trkpt>
      <trkpt lat="47.22373" lon="0.02892">
        <ele>-26</ele>
        <time>2016-04-20T07:27:18Z</time>
      </trkpt>
      <trkpt lat="47.22373" lon="0.02892">
        <ele>-26</ele>
        <time>2016-04-20T07:27:21Z</time>
      </trkpt>
      <trkpt lat="47.22373" lon="0.02892">
        <ele>-26</ele>
        <time>2016-04-20T07:27:25Z</time>
      </trkpt>
      <trkpt lat="47.22373" lon="0.02892">
        <ele>-26</ele>
        <time>2016-04-20T07:27:27Z</time>
      </trkpt>
      <trkpt lat="47.22373" lon="0.02892">
        <ele>-26</ele>
        <time>2016-04-20T07:27:30Z</time>
      </trkpt>
      <trkpt lat="47.22373" lon="0.02892">
        <ele>-26</ele>
        <time>2016-04-20T07:27:33Z</time>
      </trkpt>
      <trkpt lat="47.22373" lon="0.02892">
        <ele>-26</ele>
        <time>2016-04-20T07:27:36Z</time>
      </trkpt>
      <trkpt lat="47.22373" lon="0.02892">
        <ele>-26</ele>
        <time>2016-04-20T07:27:39Z</time>
      </trkpt>
      <trkpt lat="47.22374" lon="0.02892">
        <ele>-28</ele>
        <time>2016-04-20T07:27:45Z</time>
      </trkpt>
      <trkpt lat="47.22374" lon="0.02892">
        <ele>-28</ele>
        <time>2016-04-20T07:27:49Z</time>
      </trkpt>
      <trkpt lat="47.22374" lon="0.02892">
        <ele>-28</ele>
        <time>2016-04-20T07:27:51Z</time>
      </trkpt>
      <trkpt lat="47.22373" lon="0.02894">
        <ele>-21</ele>
        <time>2016-04-20T07:28:02Z</time>
      </trkpt>
      <trkpt lat="47.22373" lon="0.02894">
        <ele>-21</ele>
        <time>2016-04-20T07:28:05Z</time>
      </trkpt>
      <trkpt lat="47.22369" lon="0.02894">
        <ele>-13</ele>
        <time>2016-04-20T07:28:14Z</time>
      </trkpt>
      <trkpt lat="47.22367" lon="0.02895">
        <ele>-12</ele>
        <time>2016-04-20T07:28:28Z</time>
      </trkpt>
      <trkpt lat="47.22366" lon="0.02896">
        <ele>-9</ele>
        <time>2016-04-20T07:28:34Z</time>
      </trkpt>
      <trkpt lat="47.22366" lon="0.02897">
        <ele>-6</ele>
        <time>2016-04-20T07:28:41Z</time>
      </trkpt>
      <trkpt lat="47.22366" lon="0.02897">
        <ele>-6</ele>
        <time>2016-04-20T07:28:46Z</time>
      </trkpt>
      <trkpt lat="47.22366" lon="0.02897">
        <ele>-6</ele>
        <time>2016-04-20T07:28:47Z</time>
      </trkpt>
      <trkpt lat="47.22366" lon="0.02897">
        <ele>-6</ele>
        <time>2016-04-20T07:28:50Z</time>
      </trkpt>
      <trkpt lat="47.22366" lon="0.02897">
        <ele>-6</ele>
        <time>2016-04-20T07:28:54Z</time>
      </trkpt>
      <trkpt lat="47.22367" lon="0.02898">
        <ele>-7</ele>
        <time>2016-04-20T07:28:58Z</time>
      </trkpt>
      <trkpt lat="47.22367" lon="0.02896">
        <ele>-5</ele>
        <time>2016-04-20T07:29:11Z</time>
      </trkpt>
      <trkpt lat="47.22367" lon="0.02896">
        <ele>-5</ele>
        <time>2016-04-20T07:29:13Z</time>
      </trkpt>
      <trkpt lat="47.22367" lon="0.02896">
        <ele>-6</ele>
        <time>2016-04-20T07:29:16Z</time>
      </trkpt>
      <trkpt lat="47.22367" lon="0.02896">
        <ele>-6</ele>
        <time>2016-04-20T07:29:19Z</time>
      </trkpt>
      <trkpt lat="47.22367" lon="0.02896">
        <ele>-6</ele>
        <time>2016-04-20T07:29:22Z</time>
      </trkpt>
      <trkpt lat="47.22367" lon="0.02896">
        <ele>-6</ele>
        <time>2016-04-20T07:29:25Z</time>
      </trkpt>
      <trkpt lat="47.22367" lon="0.02896">
        <ele>-6</ele>
        <time>2016-04-20T07:29:30Z</time>
      </trkpt>
      <trkpt lat="47.22367" lon="0.02896">
        <ele>-6</ele>
        <time>2016-04-20T07:29:31Z</time>
      </trkpt>
      <trkpt lat="47.22367" lon="0.02896">
        <ele>-6</ele>
        <time>2016-04-20T07:29:34Z</time>
      </trkpt>
      <trkpt lat="47.22367" lon="0.02896">
        <ele>-6</ele>
        <time>2016-04-20T07:29:37Z</time>
      </trkpt>
      <trkpt lat="47.22367" lon="0.02896">
        <ele>-6</ele>
        <time>2016-04-20T07:29:40Z</time>
      </trkpt>
      <trkpt lat="47.22367" lon="0.02896">
        <ele>-6</ele>
        <time>2016-04-20T07:29:43Z</time>
      </trkpt>
      <trkpt lat="47.22367" lon="0.02896">
        <ele>-6</ele>
        <time>2016-04-20T07:29:47Z</time>
      </trkpt>
      <trkpt lat="47.22367" lon="0.02896">
        <ele>-6</ele>
        <time>2016-04-20T07:29:49Z</time>
      </trkpt>
      <trkpt lat="47.22367" lon="0.02896">
        <ele>-6</ele>
        <time>2016-04-20T07:29:52Z</time>
      </trkpt>
      <trkpt lat="47.22367" lon="0.02896">
        <ele>-6</ele>
        <time>2016-04-20T07:29:55Z</time>
      </trkpt>
      <trkpt lat="47.22367" lon="0.02896">
        <ele>-6</ele>
        <time>2016-04-20T07:29:58Z</time>
      </trkpt>
      <trkpt lat="47.22367" lon="0.02896">
        <ele>-6</ele>
        <time>2016-04-20T07:30:01Z</time>
      </trkpt>
      <trkpt lat="47.22367" lon="0.02896">
        <ele>-6</ele>
        <time>2016-04-20T07:30:05Z</time>
      </trkpt>
      <trkpt lat="47.22367" lon="0.02896">
        <ele>-6</ele>
        <time>2016-04-20T07:30:09Z</time>
      </trkpt>
      <trkpt lat="47.22367" lon="0.02896">
        <ele>-6</ele>
        <time>2016-04-20T07:30:10Z</time>
      </trkpt>
      <trkpt lat="47.22367" lon="0.02896">
        <ele>-6</ele>
        <time>2016-04-20T07:30:13Z</time>
      </trkpt>
      <trkpt lat="47.22367" lon="0.02896">
        <ele>-5</ele>
        <time>2016-04-20T07:30:16Z</time>
      </trkpt>
      <trkpt lat="47.22367" lon="0.02896">
        <ele>-6</ele>
        <time>2016-04-20T07:30:19Z</time>
      </trkpt>
      <trkpt lat="47.22363" lon="0.02895">
        <ele>32.2</ele>
        <time>2016-04-20T07:30:25Z</time>
      </trkpt>
      <trkpt lat="47.2236" lon="0.02891">
        <ele>9</ele>
        <time>2016-04-20T07:30:37Z</time>
      </trkpt>
      <trkpt lat="47.22359" lon="0.0289">
        <ele>10</ele>
        <time>2016-04-20T07:30:44Z</time>
      </trkpt>
      <trkpt lat="47.22359" lon="0.0289">
        <ele>10</ele>
        <time>2016-04-20T07:30:47Z</time>
      </trkpt>
      <trkpt lat="47.22355" lon="0.02886">
        <ele>17</ele>
        <time>2016-04-20T07:30:55Z</time>
      </trkpt>
      <trkpt lat="47.22348" lon="0.02885">
        <ele>16</ele>
        <time>2016-04-20T07:31:01Z</time>
      </trkpt>
      <trkpt lat="47.22327" lon="0.02883">
        <ele>21</ele>
        <time>2016-04-20T07:31:16Z</time>
      </trkpt>
      <trkpt lat="47.22326" lon="0.0286">
        <ele>27</ele>
        <time>2016-04-20T07:31:33Z</time>
      </trkpt>
      <trkpt lat="47.22326" lon="0.02857">
        <ele>29</ele>
        <time>2016-04-20T07:31:35Z</time>
      </trkpt>
      <trkpt lat="47.22319" lon="0.02844">
        <ele>30</ele>
        <time>2016-04-20T07:31:45Z</time>
      </trkpt>
      <trkpt lat="47.22325" lon="0.02825">
        <ele>30</ele>
        <time>2016-04-20T07:31:57Z</time>
      </trkpt>
      <trkpt lat="47.22338" lon="0.02806">
        <ele>30</ele>
        <time>2016-04-20T07:32:14Z</time>
      </trkpt>
      <trkpt lat="47.22336" lon="0.02798">
        <ele>35</ele>
        <time>2016-04-20T07:32:23Z</time>
      </trkpt>
      <trkpt lat="47.22335" lon="0.02797">
        <ele>37</ele>
        <time>2016-04-20T07:32:29Z</time>
      </trkpt>
      <trkpt lat="47.22336" lon="0.02797">
        <ele>38</ele>
        <time>2016-04-20T07:32:32Z</time>
      </trkpt>
      <trkpt lat="47.22336" lon="0.02797">
        <ele>38</ele>
        <time>2016-04-20T07:32:37Z</time>
      </trkpt>
      <trkpt lat="47.22337" lon="0.02798">
        <ele>38</ele>
        <time>2016-04-20T07:32:42Z</time>
      </trkpt>
      <trkpt lat="47.22407" lon="0.02733">
        <ele>34</ele>
        <time>2016-04-20T07:33:38Z</time>
      </trkpt>
      <trkpt lat="47.22414" lon="0.0273">
        <ele>36</ele>
        <time>2016-04-20T07:33:43Z</time>
      </trkpt>
      <trkpt lat="47.22421" lon="0.02719">
        <ele>36</ele>
        <time>2016-04-20T07:33:51Z</time>
      </trkpt>
      <trkpt lat="47.22424" lon="0.02707">
        <ele>27</ele>
        <time>2016-04-20T07:34:02Z</time>
      </trkpt>
      <trkpt lat="47.22427" lon="0.02673">
        <ele>27</ele>
        <time>2016-04-20T07:34:23Z</time>
      </trkpt>
      <trkpt lat="47.22427" lon="0.02666">
        <ele>29</ele>
        <time>2016-04-20T07:34:26Z</time>
      </trkpt>
      <trkpt lat="47.22433" lon="0.02648">
        <ele>17</ele>
        <time>2016-04-20T07:34:39Z</time>
      </trkpt>
      <trkpt lat="47.22431" lon="0.02621">
        <ele>27</ele>
        <time>2016-04-20T07:34:54Z</time>
      </trkpt>
      <trkpt lat="47.22433" lon="0.02617">
        <ele>21</ele>
        <time>2016-04-20T07:34:58Z</time>
      </trkpt>
      <trkpt lat="47.22441" lon="0.02598">
        <ele>20</ele>
        <time>2016-04-20T07:35:11Z</time>
      </trkpt>
      <trkpt lat="47.22448" lon="0.02588">
        <ele>20</ele>
        <time>2016-04-20T07:35:19Z</time>
      </trkpt>
      <trkpt lat="47.22453" lon="0.02548">
        <ele>28</ele>
        <time>2016-04-20T07:35:39Z</time>
      </trkpt>
      <trkpt lat="47.22462" lon="0.02535">
        <ele>28</ele>
        <time>2016-04-20T07:35:49Z</time>
      </trkpt>
      <trkpt lat="47.22466" lon="0.02522">
        <ele>28</ele>
        <time>2016-04-20T07:35:56Z</time>
      </trkpt>
      <trkpt lat="47.2247" lon="0.02511">
        <ele>31</ele>
        <time>2016-04-20T07:36:03Z</time>
      </trkpt>
      <trkpt lat="47.22484" lon="0.02487">
        <ele>37</ele>
        <time>2016-04-20T07:36:22Z</time>
      </trkpt>
      <trkpt lat="47.22483" lon="0.02479">
        <ele>36</ele>
        <time>2016-04-20T07:36:25Z</time>
      </trkpt>
      <trkpt lat="47.22495" lon="0.02459">
        <ele>36</ele>
        <time>2016-04-20T07:36:40Z</time>
      </trkpt>
      <trkpt lat="47.225" lon="0.02436">
        <ele>37</ele>
        <time>2016-04-20T07:36:54Z</time>
      </trkpt>
      <trkpt lat="47.22507" lon="0.0242">
        <ele>39</ele>
        <time>2016-04-20T07:37:04Z</time>
      </trkpt>
      <trkpt lat="47.22508" lon="0.02408">
        <ele>40</ele>
        <time>2016-04-20T07:37:09Z</time>
      </trkpt>
      <trkpt lat="47.22513" lon="0.02388">
        <ele>38</ele>
        <time>2016-04-20T07:37:25Z</time>
      </trkpt>
      <trkpt lat="47.22523" lon="0.02366">
        <ele>37</ele>
        <time>2016-04-20T07:37:41Z</time>
      </trkpt>
      <trkpt lat="47.22523" lon="0.02365">
        <ele>37</ele>
        <time>2016-04-20T07:37:42Z</time>
      </trkpt>
      <trkpt lat="47.22529" lon="0.02345">
        <ele>37</ele>
        <time>2016-04-20T07:37:54Z</time>
      </trkpt>
      <trkpt lat="47.22542" lon="0.02322">
        <ele>36</ele>
        <time>2016-04-20T07:38:09Z</time>
      </trkpt>
      <trkpt lat="47.2255" lon="0.02301">
        <ele>35</ele>
        <time>2016-04-20T07:38:22Z</time>
      </trkpt>
      <trkpt lat="47.22553" lon="0.02294">
        <ele>35</ele>
        <time>2016-04-20T07:38:26Z</time>
      </trkpt>
      <trkpt lat="47.2256" lon="0.02274">
        <ele>34</ele>
        <time>2016-04-20T07:38:38Z</time>
      </trkpt>
      <trkpt lat="47.22573" lon="0.02247">
        <ele>33</ele>
        <time>2016-04-20T07:38:57Z</time>
      </trkpt>
      <trkpt lat="47.22573" lon="0.02244">
        <ele>33</ele>
        <time>2016-04-20T07:38:59Z</time>
      </trkpt>
      <trkpt lat="47.22571" lon="0.02222">
        <ele>35</ele>
        <time>2016-04-20T07:39:11Z</time>
      </trkpt>
      <trkpt lat="47.22572" lon="0.02213">
        <ele>32</ele>
        <time>2016-04-20T07:39:21Z</time>
      </trkpt>
      <trkpt lat="47.2258" lon="0.02198">
        <ele>30</ele>
        <time>2016-04-20T07:39:32Z</time>
      </trkpt>
      <trkpt lat="47.22584" lon="0.02188">
        <ele>32</ele>
        <time>2016-04-20T07:39:43Z</time>
      </trkpt>
      <trkpt lat="47.22584" lon="0.02186">
        <ele>34</ele>
        <time>2016-04-20T07:39:58Z</time>
      </trkpt>
      <trkpt lat="47.22584" lon="0.02183">
        <ele>37</ele>
        <time>2016-04-20T07:40:00Z</time>
      </trkpt>
      <trkpt lat="47.22582" lon="0.02183">
        <ele>37</ele>
        <time>2016-04-20T07:40:14Z</time>
      </trkpt>
      <trkpt lat="47.22582" lon="0.02183">
        <ele>37</ele>
        <time>2016-04-20T07:40:17Z</time>
      </trkpt>
      <trkpt lat="47.22579" lon="0.02184">
        <ele>40</ele>
        <time>2016-04-20T07:40:26Z</time>
      </trkpt>
      <trkpt lat="47.22577" lon="0.02177">
        <ele>37</ele>
        <time>2016-04-20T07:40:39Z</time>
      </trkpt>
      <trkpt lat="47.2257" lon="0.0218">
        <ele>34</ele>
        <time>2016-04-20T07:40:50Z</time>
      </trkpt>
      <trkpt lat="47.22571" lon="0.0218">
        <ele>37</ele>
        <time>2016-04-20T07:40:54Z</time>
      </trkpt>
      <trkpt lat="47.22571" lon="0.02179">
        <ele>38</ele>
        <time>2016-04-20T07:40:56Z</time>
      </trkpt>
      <trkpt lat="47.22571" lon="0.02179">
        <ele>39</ele>
        <time>2016-04-20T07:40:59Z</time>
      </trkpt>
      <trkpt lat="47.22568" lon="0.02184">
        <ele>51</ele>
        <time>2016-04-20T07:41:07Z</time>
      </trkpt>
      <trkpt lat="47.22567" lon="0.02188">
        <ele>54</ele>
        <time>2016-04-20T07:41:13Z</time>
      </trkpt>
      <trkpt lat="47.22563" lon="0.02192">
        <ele>61</ele>
        <time>2016-04-20T07:41:24Z</time>
      </trkpt>
      <trkpt lat="47.22551" lon="0.02204">
        <ele>53</ele>
        <time>2016-04-20T07:41:38Z</time>
      </trkpt>
      <trkpt lat="47.22549" lon="0.02209">
        <ele>44</ele>
        <time>2016-04-20T07:41:55Z</time>
      </trkpt>
      <trkpt lat="47.2255" lon="0.02209">
        <ele>45</ele>
        <time>2016-04-20T07:42:01Z</time>
      </trkpt>
      <trkpt lat="47.2255" lon="0.02209">
        <ele>45</ele>
        <time>2016-04-20T07:42:03Z</time>
      </trkpt>
      <trkpt lat="47.2255" lon="0.02209">
        <ele>45</ele>
        <time>2016-04-20T07:42:06Z</time>
      </trkpt>
      <trkpt lat="47.2255" lon="0.02209">
        <ele>45</ele>
        <time>2016-04-20T07:42:09Z</time>
      </trkpt>
      <trkpt lat="47.2255" lon="0.02209">
        <ele>45</ele>
        <time>2016-04-20T07:42:12Z</time>
      </trkpt>
      <trkpt lat="47.2255" lon="0.02209">
        <ele>45</ele>
        <time>2016-04-20T07:42:15Z</time>
      </trkpt>
      <trkpt lat="47.2255" lon="0.02209">
        <ele>45</ele>
        <time>2016-04-20T07:42:18Z</time>
      </trkpt>
      <trkpt lat="47.2255" lon="0.02209">
        <ele>45</ele>
        <time>2016-04-20T07:42:21Z</time>
      </trkpt>
      <trkpt lat="47.2255" lon="0.02209">
        <ele>45</ele>
        <time>2016-04-20T07:42:24Z</time>
      </trkpt>
      <trkpt lat="47.2255" lon="0.02209">
        <ele>45</ele>
        <time>2016-04-20T07:42:27Z</time>
      </trkpt>
      <trkpt lat="47.2255" lon="0.02209">
        <ele>45</ele>
        <time>2016-04-20T07:42:30Z</time>
      </trkpt>
      <trkpt lat="47.2255" lon="0.02209">
        <ele>45</ele>
        <time>2016-04-20T07:42:34Z</time>
      </trkpt>
      <trkpt lat="47.2255" lon="0.02209">
        <ele>45</ele>
        <time>2016-04-20T07:42:37Z</time>
      </trkpt>
      <trkpt lat="47.2255" lon="0.02209">
        <ele>45</ele>
        <time>2016-04-20T07:42:39Z</time>
      </trkpt>
      <trkpt lat="47.2255" lon="0.02209">
        <ele>45</ele>
        <time>2016-04-20T07:42:42Z</time>
      </trkpt>
      <trkpt lat="47.22553" lon="0.02212">
        <ele>48</ele>
        <time>2016-04-20T07:42:54Z</time>
      </trkpt>
      <trkpt lat="47.22553" lon="0.02213">
        <ele>47</ele>
        <time>2016-04-20T07:42:59Z</time>
      </trkpt>
      <trkpt lat="47.22553" lon="0.02213">
        <ele>47</ele>
        <time>2016-04-20T07:43:02Z</time>
      </trkpt>
      <trkpt lat="47.22553" lon="0.02213">
        <ele>47</ele>
        <time>2016-04-20T07:43:05Z</time>
      </trkpt>
      <trkpt lat="47.22553" lon="0.02213">
        <ele>47</ele>
        <time>2016-04-20T07:43:08Z</time>
      </trkpt>
      <trkpt lat="47.22553" lon="0.02213">
        <ele>47</ele>
        <time>2016-04-20T07:43:11Z</time>
      </trkpt>
      <trkpt lat="47.22553" lon="0.02213">
        <ele>47</ele>
        <time>2016-04-20T07:43:14Z</time>
      </trkpt>
      <trkpt lat="47.22553" lon="0.02213">
        <ele>47</ele>
        <time>2016-04-20T07:43:17Z</time>
      </trkpt>
      <trkpt lat="47.22553" lon="0.02213">
        <ele>47</ele>
        <time>2016-04-20T07:43:20Z</time>
      </trkpt>
      <trkpt lat="47.22553" lon="0.02213">
        <ele>47</ele>
        <time>2016-04-20T07:43:23Z</time>
      </trkpt>
      <trkpt lat="47.22553" lon="0.02213">
        <ele>48</ele>
        <time>2016-04-20T07:43:28Z</time>
      </trkpt>
      <trkpt lat="47.22553" lon="0.02213">
        <ele>48</ele>
        <time>2016-04-20T07:43:29Z</time>
      </trkpt>
      <trkpt lat="47.22551" lon="0.02215">
        <ele>47</ele>
        <time>2016-04-20T07:43:42Z</time>
      </trkpt>
      <trkpt lat="47.22551" lon="0.02215">
        <ele>47</ele>
        <time>2016-04-20T07:43:43Z</time>
      </trkpt>
      <trkpt lat="47.2255" lon="0.02215">
        <ele>47</ele>
        <time>2016-04-20T07:43:46Z</time>
      </trkpt>
      <trkpt lat="47.22544" lon="0.02219">
        <ele>51</ele>
        <time>2016-04-20T07:43:54Z</time>
      </trkpt>
      <trkpt lat="47.2253" lon="0.02217">
        <ele>50</ele>
        <time>2016-04-20T07:44:07Z</time>
      </trkpt>
      <trkpt lat="47.22524" lon="0.02221">
        <ele>49</ele>
        <time>2016-04-20T07:44:13Z</time>
      </trkpt>
      <trkpt lat="47.22509" lon="0.02224">
        <ele>52</ele>
        <time>2016-04-20T07:44:22Z</time>
      </trkpt>
      <trkpt lat="47.22492" lon="0.02228">
        <ele>50</ele>
        <time>2016-04-20T07:44:33Z</time>
      </trkpt>
      <trkpt lat="47.2248" lon="0.02228">
        <ele>55</ele>
        <time>2016-04-20T07:44:44Z</time>
      </trkpt>
      <trkpt lat="47.22468" lon="0.0223">
        <ele>59</ele>
        <time>2016-04-20T07:44:57Z</time>
      </trkpt>
      <trkpt lat="47.22464" lon="0.02233">
        <ele>56</ele>
        <time>2016-04-20T07:45:15Z</time>
      </trkpt>
      <trkpt lat="47.22464" lon="0.02234">
        <ele>55</ele>
        <time>2016-04-20T07:45:20Z</time>
      </trkpt>
      <trkpt lat="47.22465" lon="0.02234">
        <ele>54</ele>
        <time>2016-04-20T07:45:25Z</time>
      </trkpt>
      <trkpt lat="47.22465" lon="0.02234">
        <ele>54</ele>
        <time>2016-04-20T07:45:28Z</time>
      </trkpt>
      <trkpt lat="47.22465" lon="0.02234">
        <ele>54</ele>
        <time>2016-04-20T07:45:29Z</time>
      </trkpt>
      <trkpt lat="47.22465" lon="0.02234">
        <ele>54</ele>
        <time>2016-04-20T07:45:32Z</time>
      </trkpt>
      <trkpt lat="47.22465" lon="0.02234">
        <ele>54</ele>
        <time>2016-04-20T07:45:35Z</time>
      </trkpt>
      <trkpt lat="47.22465" lon="0.02234">
        <ele>54</ele>
        <time>2016-04-20T07:45:38Z</time>
      </trkpt>
      <trkpt lat="47.22465" lon="0.02234">
        <ele>54</ele>
        <time>2016-04-20T07:45:43Z</time>
      </trkpt>
      <trkpt lat="47.22465" lon="0.02234">
        <ele>54</ele>
        <time>2016-04-20T07:45:44Z</time>
      </trkpt>
      <trkpt lat="47.22465" lon="0.02234">
        <ele>54</ele>
        <time>2016-04-20T07:45:48Z</time>
      </trkpt>
      <trkpt lat="47.22465" lon="0.02234">
        <ele>55</ele>
        <time>2016-04-20T07:45:50Z</time>
      </trkpt>
      <trkpt lat="47.22465" lon="0.02234">
        <ele>55</ele>
        <time>2016-04-20T07:45:55Z</time>
      </trkpt>
      <trkpt lat="47.22465" lon="0.02234">
        <ele>55</ele>
        <time>2016-04-20T07:45:56Z</time>
      </trkpt>
      <trkpt lat="47.22465" lon="0.02234">
        <ele>55</ele>
        <time>2016-04-20T07:45:59Z</time>
      </trkpt>
      <trkpt lat="47.22465" lon="0.02234">
        <ele>55</ele>
        <time>2016-04-20T07:46:02Z</time>
      </trkpt>
      <trkpt lat="47.22465" lon="0.02234">
        <ele>55</ele>
        <time>2016-04-20T07:46:05Z</time>
      </trkpt>
      <trkpt lat="47.22465" lon="0.02234">
        <ele>55</ele>
        <time>2016-04-20T07:46:08Z</time>
      </trkpt>
      <trkpt lat="47.22465" lon="0.02234">
        <ele>55</ele>
        <time>2016-04-20T07:46:11Z</time>
      </trkpt>
      <trkpt lat="47.22465" lon="0.02234">
        <ele>55</ele>
        <time>2016-04-20T07:46:15Z</time>
      </trkpt>
      <trkpt lat="47.22465" lon="0.02234">
        <ele>55</ele>
        <time>2016-04-20T07:46:17Z</time>
      </trkpt>
      <trkpt lat="47.22465" lon="0.02234">
        <ele>55</ele>
        <time>2016-04-20T07:46:20Z</time>
      </trkpt>
      <trkpt lat="47.22465" lon="0.02234">
        <ele>55</ele>
        <time>2016-04-20T07:46:23Z</time>
      </trkpt>
      <trkpt lat="47.22465" lon="0.02234">
        <ele>55</ele>
        <time>2016-04-20T07:46:27Z</time>
      </trkpt>
      <trkpt lat="47.22465" lon="0.02234">
        <ele>55</ele>
        <time>2016-04-20T07:46:29Z</time>
      </trkpt>
      <trkpt lat="47.22464" lon="0.02233">
        <ele>55</ele>
        <time>2016-04-20T07:46:32Z</time>
      </trkpt>
      <trkpt lat="47.2246" lon="0.02231">
        <ele>56</ele>
        <time>2016-04-20T07:46:42Z</time>
      </trkpt>
      <trkpt lat="47.22456" lon="0.02231">
        <ele>58</ele>
        <time>2016-04-20T07:46:46Z</time>
      </trkpt>
      <trkpt lat="47.22443" lon="0.02228">
        <ele>58</ele>
        <time>2016-04-20T07:46:57Z</time>
      </trkpt>
      <trkpt lat="47.22434" lon="0.02228">
        <ele>61</ele>
        <time>2016-04-20T07:47:08Z</time>
      </trkpt>
      <trkpt lat="47.22412" lon="0.02222">
        <ele>60</ele>
        <time>2016-04-20T07:47:28Z</time>
      </trkpt>
      <trkpt lat="47.2241" lon="0.02221">
        <ele>58</ele>
        <time>2016-04-20T07:47:30Z</time>
      </trkpt>
      <trkpt lat="47.22391" lon="0.02217">
        <ele>59</ele>
        <time>2016-04-20T07:47:47Z</time>
      </trkpt>
      <trkpt lat="47.22386" lon="0.02216">
        <ele>60</ele>
        <time>2016-04-20T07:47:52Z</time>
      </trkpt>
      <trkpt lat="47.22377" lon="0.02216">
        <ele>58</ele>
        <time>2016-04-20T07:48:03Z</time>
      </trkpt>
      <trkpt lat="47.22352" lon="0.02224">
        <ele>56</ele>
        <time>2016-04-20T07:48:24Z</time>
      </trkpt>
      <trkpt lat="47.22349" lon="0.02207">
        <ele>63</ele>
        <time>2016-04-20T07:48:34Z</time>
      </trkpt>
      <trkpt lat="47.2235" lon="0.02204">
        <ele>63</ele>
        <time>2016-04-20T07:48:36Z</time>
      </trkpt>
      <trkpt lat="47.22355" lon="0.02188">
        <ele>64</ele>
        <time>2016-04-20T07:48:48Z</time>
      </trkpt>
      <trkpt lat="47.22367" lon="0.02154">
        <ele>68</ele>
        <time>2016-04-20T07:49:06Z</time>
      </trkpt>
      <trkpt lat="47.22373" lon="0.0214">
        <ele>67</ele>
        <time>2016-04-20T07:49:16Z</time>
      </trkpt>
      <trkpt lat="47.22376" lon="0.02121">
        <ele>68</ele>
        <time>2016-04-20T07:49:27Z</time>
      </trkpt>
      <trkpt lat="47.22378" lon="0.02111">
        <ele>68</ele>
        <time>2016-04-20T07:49:33Z</time>
      </trkpt>
      <trkpt lat="47.22382" lon="0.02097">
        <ele>66</ele>
        <time>2016-04-20T07:49:42Z</time>
      </trkpt>
      <trkpt lat="47.22389" lon="0.02067">
        <ele>69</ele>
        <time>2016-04-20T07:50:00Z</time>
      </trkpt>
      <trkpt lat="47.22391" lon="0.02058">
        <ele>68</ele>
        <time>2016-04-20T07:50:05Z</time>
      </trkpt>
      <trkpt lat="47.22395" lon="0.02044">
        <ele>68</ele>
        <time>2016-04-20T07:50:15Z</time>
      </trkpt>
      <trkpt lat="47.22398" lon="0.02029">
        <ele>68</ele>
        <time>2016-04-20T07:50:26Z</time>
      </trkpt>
      <trkpt lat="47.22403" lon="0.02014">
        <ele>68</ele>
        <time>2016-04-20T07:50:37Z</time>
      </trkpt>
      <trkpt lat="47.22407" lon="0.01993">
        <ele>70</ele>
        <time>2016-04-20T07:50:49Z</time>
      </trkpt>
      <trkpt lat="47.22414" lon="0.01972">
        <ele>71</ele>
        <time>2016-04-20T07:51:01Z</time>
      </trkpt>
      <trkpt lat="47.2242" lon="0.01951">
        <ele>70</ele>
        <time>2016-04-20T07:51:13Z</time>
      </trkpt>
      <trkpt lat="47.22423" lon="0.01937">
        <ele>70</ele>
        <time>2016-04-20T07:51:22Z</time>
      </trkpt>
      <trkpt lat="47.22435" lon="0.01928">
        <ele>70</ele>
        <time>2016-04-20T07:51:34Z</time>
      </trkpt>
      <trkpt lat="47.22446" lon="0.01932">
        <ele>70</ele>
        <time>2016-04-20T07:51:43Z</time>
      </trkpt>
      <trkpt lat="47.22462" lon="0.01937">
        <ele>70</ele>
        <time>2016-04-20T07:51:54Z</time>
      </trkpt>
      <trkpt lat="47.22482" lon="0.01945">
        <ele>69</ele>
        <time>2016-04-20T07:52:09Z</time>
      </trkpt>
      <trkpt lat="47.2249" lon="0.01949">
        <ele>67</ele>
        <time>2016-04-20T07:52:16Z</time>
      </trkpt>
      <trkpt lat="47.22502" lon="0.01954">
        <ele>66</ele>
        <time>2016-04-20T07:52:27Z</time>
      </trkpt>
      <trkpt lat="47.22517" lon="0.0196">
        <ele>67</ele>
        <time>2016-04-20T07:52:38Z</time>
      </trkpt>
      <trkpt lat="47.22533" lon="0.01966">
        <ele>66</ele>
        <time>2016-04-20T07:52:49Z</time>
      </trkpt>
      <trkpt lat="47.22547" lon="0.01974">
        <ele>66</ele>
        <time>2016-04-20T07:53:00Z</time>
      </trkpt>
      <trkpt lat="47.22562" lon="0.01982">
        <ele>67</ele>
        <time>2016-04-20T07:53:11Z</time>
      </trkpt>
      <trkpt lat="47.22576" lon="0.01989">
        <ele>69</ele>
        <time>2016-04-20T07:53:22Z</time>
      </trkpt>
      <trkpt lat="47.22588" lon="0.01991">
        <ele>68</ele>
        <time>2016-04-20T07:53:33Z</time>
      </trkpt>
      <trkpt lat="47.22598" lon="0.01979">
        <ele>67</ele>
        <time>2016-04-20T07:53:45Z</time>
      </trkpt>
      <trkpt lat="47.22605" lon="0.01965">
        <ele>67</ele>
        <time>2016-04-20T07:53:55Z</time>
      </trkpt>
      <trkpt lat="47.22617" lon="0.01941">
        <ele>70</ele>
        <time>2016-04-20T07:54:10Z</time>
      </trkpt>
      <trkpt lat="47.22624" lon="0.01919">
        <ele>70</ele>
        <time>2016-04-20T07:54:26Z</time>
      </trkpt>
      <trkpt lat="47.22628" lon="0.01905">
        <ele>70</ele>
        <time>2016-04-20T07:54:35Z</time>
      </trkpt>
      <trkpt lat="47.2263" lon="0.01897">
        <ele>71</ele>
        <time>2016-04-20T07:54:39Z</time>
      </trkpt>
      <trkpt lat="47.22637" lon="0.01877">
        <ele>68</ele>
        <time>2016-04-20T07:54:50Z</time>
      </trkpt>
      <trkpt lat="47.2265" lon="0.01883">
        <ele>66</ele>
        <time>2016-04-20T07:55:01Z</time>
      </trkpt>
      <trkpt lat="47.22662" lon="0.01888">
        <ele>65</ele>
        <time>2016-04-20T07:55:13Z</time>
      </trkpt>
      <trkpt lat="47.22667" lon="0.0189">
        <ele>62</ele>
        <time>2016-04-20T07:55:23Z</time>
      </trkpt>
      <trkpt lat="47.22689" lon="0.01871">
        <ele>73</ele>
        <time>2016-04-20T07:55:43Z</time>
      </trkpt>
      <trkpt lat="47.22692" lon="0.0187">
        <ele>75</ele>
        <time>2016-04-20T07:55:45Z</time>
      </trkpt>
      <trkpt lat="47.22702" lon="0.0185">
        <ele>73</ele>
        <time>2016-04-20T07:55:58Z</time>
      </trkpt>
      <trkpt lat="47.227" lon="0.01831">
        <ele>73</ele>
        <time>2016-04-20T07:56:13Z</time>
      </trkpt>
      <trkpt lat="47.22698" lon="0.0182">
        <ele>71</ele>
        <time>2016-04-20T07:56:22Z</time>
      </trkpt>
      <trkpt lat="47.22691" lon="0.01811">
        <ele>63</ele>
        <time>2016-04-20T07:56:30Z</time>
      </trkpt>
      <trkpt lat="47.22683" lon="0.01794">
        <ele>54</ele>
        <time>2016-04-20T07:56:47Z</time>
      </trkpt>
      <trkpt lat="47.22685" lon="0.01782">
        <ele>56</ele>
        <time>2016-04-20T07:56:57Z</time>
      </trkpt>
      <trkpt lat="47.22685" lon="0.01769">
        <ele>55</ele>
        <time>2016-04-20T07:57:04Z</time>
      </trkpt>
      <trkpt lat="47.22691" lon="0.01749">
        <ele>49</ele>
        <time>2016-04-20T07:57:23Z</time>
      </trkpt>
      <trkpt lat="47.22693" lon="0.01744">
        <ele>48</ele>
        <time>2016-04-20T07:57:28Z</time>
      </trkpt>
      <trkpt lat="47.22702" lon="0.01725">
        <ele>45</ele>
        <time>2016-04-20T07:57:43Z</time>
      </trkpt>
      <trkpt lat="47.22704" lon="0.01722">
        <ele>46</ele>
        <time>2016-04-20T07:57:46Z</time>
      </trkpt>
      <trkpt lat="47.22701" lon="0.01696">
        <ele>37</ele>
        <time>2016-04-20T07:58:06Z</time>
      </trkpt>
      <trkpt lat="47.22691" lon="0.01693">
        <ele>36</ele>
        <time>2016-04-20T07:58:13Z</time>
      </trkpt>
      <trkpt lat="47.22681" lon="0.01686">
        <ele>35</ele>
        <time>2016-04-20T07:58:21Z</time>
      </trkpt>
      <trkpt lat="47.22672" lon="0.01677">
        <ele>33</ele>
        <time>2016-04-20T07:58:30Z</time>
      </trkpt>
      <trkpt lat="47.22656" lon="0.01662">
        <ele>29</ele>
        <time>2016-04-20T07:58:46Z</time>
      </trkpt>
      <trkpt lat="47.22648" lon="0.01654">
        <ele>26</ele>
        <time>2016-04-20T07:58:56Z</time>
      </trkpt>
      <trkpt lat="47.22641" lon="0.0162">
        <ele>36</ele>
        <time>2016-04-20T07:59:12Z</time>
      </trkpt>
      <trkpt lat="47.22641" lon="0.01616">
        <ele>37</ele>
        <time>2016-04-20T07:59:14Z</time>
      </trkpt>
      <trkpt lat="47.22641" lon="0.01596">
        <ele>38</ele>
        <time>2016-04-20T07:59:26Z</time>
      </trkpt>
      <trkpt lat="47.22639" lon="0.01582">
        <ele>38</ele>
        <time>2016-04-20T07:59:39Z</time>
      </trkpt>
      <trkpt lat="47.2264" lon="0.01577">
        <ele>40</ele>
        <time>2016-04-20T07:59:47Z</time>
      </trkpt>
      <trkpt lat="47.22639" lon="0.01576">
        <ele>41</ele>
        <time>2016-04-20T07:59:58Z</time>
      </trkpt>
      <trkpt lat="47.2264" lon="0.01576">
        <ele>41</ele>
        <time>2016-04-20T08:00:02Z</time>
      </trkpt>
      <trkpt lat="47.2264" lon="0.01576">
        <ele>40</ele>
        <time>2016-04-20T08:00:06Z</time>
      </trkpt>
      <trkpt lat="47.2264" lon="0.01576">
        <ele>40</ele>
        <time>2016-04-20T08:00:07Z</time>
      </trkpt>
      <trkpt lat="47.2264" lon="0.01576">
        <ele>41</ele>
        <time>2016-04-20T08:00:10Z</time>
      </trkpt>
      <trkpt lat="47.2264" lon="0.01576">
        <ele>41</ele>
        <time>2016-04-20T08:00:13Z</time>
      </trkpt>
      <trkpt lat="47.2264" lon="0.01576">
        <ele>41</ele>
        <time>2016-04-20T08:00:16Z</time>
      </trkpt>
      <trkpt lat="47.2264" lon="0.01575">
        <ele>40</ele>
        <time>2016-04-20T08:00:21Z</time>
      </trkpt>
      <trkpt lat="47.2264" lon="0.01575">
        <ele>39</ele>
        <time>2016-04-20T08:00:22Z</time>
      </trkpt>
      <trkpt lat="47.22642" lon="0.01565">
        <ele>35</ele>
        <time>2016-04-20T08:00:33Z</time>
      </trkpt>
      <trkpt lat="47.22632" lon="0.0156">
        <ele>36</ele>
        <time>2016-04-20T08:00:45Z</time>
      </trkpt>
      <trkpt lat="47.22611" lon="0.01555">
        <ele>38</ele>
        <time>2016-04-20T08:01:03Z</time>
      </trkpt>
      <trkpt lat="47.22605" lon="0.01554">
        <ele>38</ele>
        <time>2016-04-20T08:01:06Z</time>
      </trkpt>
      <trkpt lat="47.22582" lon="0.01537">
        <ele>43</ele>
        <time>2016-04-20T08:01:27Z</time>
      </trkpt>
      <trkpt lat="47.22581" lon="0.01536">
        <ele>44</ele>
        <time>2016-04-20T08:01:28Z</time>
      </trkpt>
      <trkpt lat="47.22569" lon="0.01528">
        <ele>44</ele>
        <time>2016-04-20T08:01:39Z</time>
      </trkpt>
      <trkpt lat="47.22549" lon="0.01502">
        <ele>46</ele>
        <time>2016-04-20T08:01:59Z</time>
      </trkpt>
      <trkpt lat="47.22548" lon="0.015">
        <ele>46</ele>
        <time>2016-04-20T08:02:01Z</time>
      </trkpt>
      <trkpt lat="47.22537" lon="0.0148">
        <ele>42</ele>
        <time>2016-04-20T08:02:19Z</time>
      </trkpt>
      <trkpt lat="47.22523" lon="0.01468">
        <ele>42</ele>
        <time>2016-04-20T08:02:33Z</time>
      </trkpt>
      <trkpt lat="47.22519" lon="0.01461">
        <ele>42</ele>
        <time>2016-04-20T08:02:39Z</time>
      </trkpt>
      <trkpt lat="47.22518" lon="0.01459">
        <ele>42</ele>
        <time>2016-04-20T08:02:46Z</time>
      </trkpt>
      <trkpt lat="47.22513" lon="0.01458">
        <ele>45</ele>
        <time>2016-04-20T08:03:01Z</time>
      </trkpt>
      <trkpt lat="47.22514" lon="0.01457">
        <ele>44</ele>
        <time>2016-04-20T08:03:07Z</time>
      </trkpt>
      <trkpt lat="47.22515" lon="0.01457">
        <ele>43</ele>
        <time>2016-04-20T08:03:10Z</time>
      </trkpt>
      <trkpt lat="47.22518" lon="0.01454">
        <ele>42</ele>
        <time>2016-04-20T08:03:21Z</time>
      </trkpt>
      <trkpt lat="47.22527" lon="0.01444">
        <ele>40</ele>
        <time>2016-04-20T08:03:32Z</time>
      </trkpt>
      <trkpt lat="47.22528" lon="0.01424">
        <ele>42</ele>
        <time>2016-04-20T08:03:51Z</time>
      </trkpt>
      <trkpt lat="47.22527" lon="0.01418">
        <ele>49</ele>
        <time>2016-04-20T08:04:01Z</time>
      </trkpt>
      <trkpt lat="47.22527" lon="0.01418">
        <ele>48</ele>
        <time>2016-04-20T08:04:05Z</time>
      </trkpt>
      <trkpt lat="47.22528" lon="0.01416">
        <ele>48</ele>
        <time>2016-04-20T08:04:14Z</time>
      </trkpt>
      <trkpt lat="47.22528" lon="0.01416">
        <ele>48</ele>
        <time>2016-04-20T08:04:17Z</time>
      </trkpt>
      <trkpt lat="47.22528" lon="0.01416">
        <ele>48</ele>
        <time>2016-04-20T08:04:20Z</time>
      </trkpt>
      <trkpt lat="47.22528" lon="0.01416">
        <ele>48</ele>
        <time>2016-04-20T08:04:23Z</time>
      </trkpt>
      <trkpt lat="47.22528" lon="0.01416">
        <ele>48</ele>
        <time>2016-04-20T08:04:26Z</time>
      </trkpt>
      <trkpt lat="47.22528" lon="0.01416">
        <ele>48</ele>
        <time>2016-04-20T08:04:29Z</time>
      </trkpt>
      <trkpt lat="47.22538" lon="0.01411">
        <ele>56</ele>
        <time>2016-04-20T08:04:40Z</time>
      </trkpt>
      <trkpt lat="47.22553" lon="0.01404">
        <ele>59</ele>
        <time>2016-04-20T08:04:50Z</time>
      </trkpt>
      <trkpt lat="47.22557" lon="0.01407">
        <ele>62</ele>
        <time>2016-04-20T08:04:54Z</time>
      </trkpt>
      <trkpt lat="47.22567" lon="0.01416">
        <ele>64</ele>
        <time>2016-04-20T08:05:05Z</time>
      </trkpt>
      <trkpt lat="47.22577" lon="0.01425">
        <ele>64</ele>
        <time>2016-04-20T08:05:16Z</time>
      </trkpt>
      <trkpt lat="47.22588" lon="0.0143">
        <ele>66</ele>
        <time>2016-04-20T08:05:27Z</time>
      </trkpt>
      <trkpt lat="47.22594" lon="0.01427">
        <ele>67</ele>
        <time>2016-04-20T08:05:38Z</time>
      </trkpt>
      <trkpt lat="47.22593" lon="0.01428">
        <ele>68</ele>
        <time>2016-04-20T08:05:49Z</time>
      </trkpt>
      <trkpt lat="47.22592" lon="0.01427">
        <ele>67</ele>
        <time>2016-04-20T08:05:55Z</time>
      </trkpt>
      <trkpt lat="47.22592" lon="0.01427">
        <ele>67</ele>
        <time>2016-04-20T08:05:58Z</time>
      </trkpt>
      <trkpt lat="47.22591" lon="0.01425">
        <ele>66</ele>
        <time>2016-04-20T08:06:04Z</time>
      </trkpt>
      <trkpt lat="47.22591" lon="0.01422">
        <ele>68</ele>
        <time>2016-04-20T08:06:15Z</time>
      </trkpt>
      <trkpt lat="47.22591" lon="0.01422">
        <ele>67</ele>
        <time>2016-04-20T08:06:18Z</time>
      </trkpt>
      <trkpt lat="47.22604" lon="0.01404">
        <ele>72</ele>
        <time>2016-04-20T08:06:32Z</time>
      </trkpt>
      <trkpt lat="47.22611" lon="0.01388">
        <ele>72</ele>
        <time>2016-04-20T08:06:42Z</time>
      </trkpt>
      <trkpt lat="47.22616" lon="0.01376">
        <ele>72</ele>
        <time>2016-04-20T08:06:51Z</time>
      </trkpt>
      <trkpt lat="47.22626" lon="0.01356">
        <ele>71</ele>
        <time>2016-04-20T08:07:06Z</time>
      </trkpt>
      <trkpt lat="47.22629" lon="0.01346">
        <ele>72</ele>
        <time>2016-04-20T08:07:13Z</time>
      </trkpt>
      <trkpt lat="47.22638" lon="0.01332">
        <ele>74</ele>
        <time>2016-04-20T08:07:25Z</time>
      </trkpt>
      <trkpt lat="47.22646" lon="0.01319">
        <ele>75</ele>
        <time>2016-04-20T08:07:35Z</time>
      </trkpt>
      <trkpt lat="47.22661" lon="0.01292">
        <ele>77</ele>
        <time>2016-04-20T08:07:52Z</time>
      </trkpt>
      <trkpt lat="47.22669" lon="0.0127">
        <ele>70</ele>
        <time>2016-04-20T08:08:07Z</time>
      </trkpt>
      <trkpt lat="47.2267" lon="0.01268">
        <ele>70</ele>
        <time>2016-04-20T08:08:08Z</time>
      </trkpt>
      <trkpt lat="47.22677" lon="0.01252">
        <ele>69</ele>
        <time>2016-04-20T08:08:19Z</time>
      </trkpt>
      <trkpt lat="47.22686" lon="0.01232">
        <ele>68</ele>
        <time>2016-04-20T08:08:34Z</time>
      </trkpt>
      <trkpt lat="47.22691" lon="0.01231">
        <ele>67</ele>
        <time>2016-04-20T08:08:41Z</time>
      </trkpt>
      <trkpt lat="47.227" lon="0.01239">
        <ele>67</ele>
        <time>2016-04-20T08:08:54Z</time>
      </trkpt>
      <trkpt lat="47.22708" lon="0.01246">
        <ele>67</ele>
        <time>2016-04-20T08:09:03Z</time>
      </trkpt>
      <trkpt lat="47.22725" lon="0.01263">
        <ele>68</ele>
        <time>2016-04-20T08:09:19Z</time>
      </trkpt>
      <trkpt lat="47.22731" lon="0.01268">
        <ele>67</ele>
        <time>2016-04-20T08:09:25Z</time>
      </trkpt>
      <trkpt lat="47.22741" lon="0.01279">
        <ele>66</ele>
        <time>2016-04-20T08:09:36Z</time>
      </trkpt>
      <trkpt lat="47.22751" lon="0.01292">
        <ele>66</ele>
        <time>2016-04-20T08:09:47Z</time>
      </trkpt>
      <trkpt lat="47.22762" lon="0.01304">
        <ele>67</ele>
        <time>2016-04-20T08:09:58Z</time>
      </trkpt>
      <trkpt lat="47.22774" lon="0.01317">
        <ele>66</ele>
        <time>2016-04-20T08:10:10Z</time>
      </trkpt>
      <trkpt lat="47.22784" lon="0.01328">
        <ele>65</ele>
        <time>2016-04-20T08:10:20Z</time>
      </trkpt>
      <trkpt lat="47.22797" lon="0.01339">
        <ele>63</ele>
        <time>2016-04-20T08:10:32Z</time>
      </trkpt>
      <trkpt lat="47.22807" lon="0.01351">
        <ele>65</ele>
        <time>2016-04-20T08:10:42Z</time>
      </trkpt>
      <trkpt lat="47.22822" lon="0.01367">
        <ele>67</ele>
        <time>2016-04-20T08:10:59Z</time>
      </trkpt>
      <trkpt lat="47.22826" lon="0.01373">
        <ele>66</ele>
        <time>2016-04-20T08:11:04Z</time>
      </trkpt>
      <trkpt lat="47.22836" lon="0.01386">
        <ele>64</ele>
        <time>2016-04-20T08:11:15Z</time>
      </trkpt>
      <trkpt lat="47.22845" lon="0.01397">
        <ele>64</ele>
        <time>2016-04-20T08:11:26Z</time>
      </trkpt>
      <trkpt lat="47.22859" lon="0.01407">
        <ele>66</ele>
        <time>2016-04-20T08:11:39Z</time>
      </trkpt>
      <trkpt lat="47.22874" lon="0.01393">
        <ele>63</ele>
        <time>2016-04-20T08:11:54Z</time>
      </trkpt>
      <trkpt lat="47.22883" lon="0.01379">
        <ele>65</ele>
        <time>2016-04-20T08:12:05Z</time>
      </trkpt>
      <trkpt lat="47.22888" lon="0.01368">
        <ele>66</ele>
        <time>2016-04-20T08:12:12Z</time>
      </trkpt>
      <trkpt lat="47.22898" lon="0.01351">
        <ele>66</ele>
        <time>2016-04-20T08:12:24Z</time>
      </trkpt>
      <trkpt lat="47.22905" lon="0.0134">
        <ele>66</ele>
        <time>2016-04-20T08:12:32Z</time>
      </trkpt>
      <trkpt lat="47.22913" lon="0.01325">
        <ele>65</ele>
        <time>2016-04-20T08:12:43Z</time>
      </trkpt>
      <trkpt lat="47.22922" lon="0.01313">
        <ele>63</ele>
        <time>2016-04-20T08:12:54Z</time>
      </trkpt>
      <trkpt lat="47.22937" lon="0.01296">
        <ele>63</ele>
        <time>2016-04-20T08:13:10Z</time>
      </trkpt>
      <trkpt lat="47.22944" lon="0.01291">
        <ele>64</ele>
        <time>2016-04-20T08:13:16Z</time>
      </trkpt>
      <trkpt lat="47.22959" lon="0.01285">
        <ele>64</ele>
        <time>2016-04-20T08:13:31Z</time>
      </trkpt>
      <trkpt lat="47.22969" lon="0.01278">
        <ele>66</ele>
        <time>2016-04-20T08:13:39Z</time>
      </trkpt>
      <trkpt lat="47.22981" lon="0.01267">
        <ele>64</ele>
        <time>2016-04-20T08:13:49Z</time>
      </trkpt>
      <trkpt lat="47.22998" lon="0.01239">
        <ele>64</ele>
        <time>2016-04-20T08:14:09Z</time>
      </trkpt>
      <trkpt lat="47.23001" lon="0.01234">
        <ele>63</ele>
        <time>2016-04-20T08:14:12Z</time>
      </trkpt>
      <trkpt lat="47.23012" lon="0.01208">
        <ele>62</ele>
        <time>2016-04-20T08:14:30Z</time>
      </trkpt>
      <trkpt lat="47.23014" lon="0.01204">
        <ele>62</ele>
        <time>2016-04-20T08:14:33Z</time>
      </trkpt>
      <trkpt lat="47.2302" lon="0.01188">
        <ele>64</ele>
        <time>2016-04-20T08:14:44Z</time>
      </trkpt>
      <trkpt lat="47.23031" lon="0.01172">
        <ele>63</ele>
        <time>2016-04-20T08:14:57Z</time>
      </trkpt>
      <trkpt lat="47.23038" lon="0.01159">
        <ele>63</ele>
        <time>2016-04-20T08:15:06Z</time>
      </trkpt>
      <trkpt lat="47.23046" lon="0.01139">
        <ele>63</ele>
        <time>2016-04-20T08:15:18Z</time>
      </trkpt>
      <trkpt lat="47.23051" lon="0.01124">
        <ele>62</ele>
        <time>2016-04-20T08:15:28Z</time>
      </trkpt>
      <trkpt lat="47.23057" lon="0.01106">
        <ele>63</ele>
        <time>2016-04-20T08:15:39Z</time>
      </trkpt>
      <trkpt lat="47.23064" lon="0.01089">
        <ele>62</ele>
        <time>2016-04-20T08:15:50Z</time>
      </trkpt>
      <trkpt lat="47.2307" lon="0.01071">
        <ele>62</ele>
        <time>2016-04-20T08:16:01Z</time>
      </trkpt>
      <trkpt lat="47.23078" lon="0.01055">
        <ele>64</ele>
        <time>2016-04-20T08:16:12Z</time>
      </trkpt>
      <trkpt lat="47.23084" lon="0.01038">
        <ele>64</ele>
        <time>2016-04-20T08:16:23Z</time>
      </trkpt>
      <trkpt lat="47.2309" lon="0.0102">
        <ele>62</ele>
        <time>2016-04-20T08:16:34Z</time>
      </trkpt>
      <trkpt lat="47.23096" lon="0.01003">
        <ele>62</ele>
        <time>2016-04-20T08:16:45Z</time>
      </trkpt>
      <trkpt lat="47.23102" lon="0.00985">
        <ele>62</ele>
        <time>2016-04-20T08:16:56Z</time>
      </trkpt>
      <trkpt lat="47.23107" lon="0.00965">
        <ele>63</ele>
        <time>2016-04-20T08:17:07Z</time>
      </trkpt>
      <trkpt lat="47.23111" lon="0.00944">
        <ele>61</ele>
        <time>2016-04-20T08:17:19Z</time>
      </trkpt>
      <trkpt lat="47.23112" lon="0.00927">
        <ele>61</ele>
        <time>2016-04-20T08:17:29Z</time>
      </trkpt>
      <trkpt lat="47.23112" lon="0.00907">
        <ele>61</ele>
        <time>2016-04-20T08:17:40Z</time>
      </trkpt>
      <trkpt lat="47.23114" lon="0.0089">
        <ele>61</ele>
        <time>2016-04-20T08:17:51Z</time>
      </trkpt>
      <trkpt lat="47.23117" lon="0.00874">
        <ele>60</ele>
        <time>2016-04-20T08:18:02Z</time>
      </trkpt>
      <trkpt lat="47.23118" lon="0.00854">
        <ele>60</ele>
        <time>2016-04-20T08:18:13Z</time>
      </trkpt>
      <trkpt lat="47.2312" lon="0.00836">
        <ele>60</ele>
        <time>2016-04-20T08:18:24Z</time>
      </trkpt>
      <trkpt lat="47.23129" lon="0.00829">
        <ele>60</ele>
        <time>2016-04-20T08:18:35Z</time>
      </trkpt>
      <trkpt lat="47.23139" lon="0.00826">
        <ele>60</ele>
        <time>2016-04-20T08:18:47Z</time>
      </trkpt>
      <trkpt lat="47.23144" lon="0.00827">
        <ele>61</ele>
        <time>2016-04-20T08:18:57Z</time>
      </trkpt>
      <trkpt lat="47.23151" lon="0.00829">
        <ele>63</ele>
        <time>2016-04-20T08:19:18Z</time>
      </trkpt>
      <trkpt lat="47.23153" lon="0.00822">
        <ele>64</ele>
        <time>2016-04-20T08:19:24Z</time>
      </trkpt>
      <trkpt lat="47.23156" lon="0.00821">
        <ele>62</ele>
        <time>2016-04-20T08:19:31Z</time>
      </trkpt>
      <trkpt lat="47.23158" lon="0.00819">
        <ele>66</ele>
        <time>2016-04-20T08:19:46Z</time>
      </trkpt>
      <trkpt lat="47.23158" lon="0.0082">
        <ele>65</ele>
        <time>2016-04-20T08:19:52Z</time>
      </trkpt>
      <trkpt lat="47.23157" lon="0.00822">
        <ele>64</ele>
        <time>2016-04-20T08:19:58Z</time>
      </trkpt>
      <trkpt lat="47.23157" lon="0.00821">
        <ele>64</ele>
        <time>2016-04-20T08:20:03Z</time>
      </trkpt>
      <trkpt lat="47.23157" lon="0.00821">
        <ele>64</ele>
        <time>2016-04-20T08:20:04Z</time>
      </trkpt>
      <trkpt lat="47.23157" lon="0.00821">
        <ele>64</ele>
        <time>2016-04-20T08:20:07Z</time>
      </trkpt>
      <trkpt lat="47.23157" lon="0.00821">
        <ele>64</ele>
        <time>2016-04-20T08:20:10Z</time>
      </trkpt>
      <trkpt lat="47.23157" lon="0.00821">
        <ele>64</ele>
        <time>2016-04-20T08:20:13Z</time>
      </trkpt>
      <trkpt lat="47.23157" lon="0.00821">
        <ele>64</ele>
        <time>2016-04-20T08:20:16Z</time>
      </trkpt>
      <trkpt lat="47.23157" lon="0.00821">
        <ele>64</ele>
        <time>2016-04-20T08:20:19Z</time>
      </trkpt>
      <trkpt lat="47.23157" lon="0.00821">
        <ele>64</ele>
        <time>2016-04-20T08:20:22Z</time>
      </trkpt>
      <trkpt lat="47.23157" lon="0.00821">
        <ele>64</ele>
        <time>2016-04-20T08:20:25Z</time>
      </trkpt>
      <trkpt lat="47.23157" lon="0.00821">
        <ele>64</ele>
        <time>2016-04-20T08:20:28Z</time>
      </trkpt>
      <trkpt lat="47.23157" lon="0.00821">
        <ele>64</ele>
        <time>2016-04-20T08:20:31Z</time>
      </trkpt>
      <trkpt lat="47.23157" lon="0.00821">
        <ele>64</ele>
        <time>2016-04-20T08:20:34Z</time>
      </trkpt>
      <trkpt lat="47.23157" lon="0.00821">
        <ele>64</ele>
        <time>2016-04-20T08:20:38Z</time>
      </trkpt>
      <trkpt lat="47.23157" lon="0.00821">
        <ele>64</ele>
        <time>2016-04-20T08:20:40Z</time>
      </trkpt>
      <trkpt lat="47.23157" lon="0.00821">
        <ele>64</ele>
        <time>2016-04-20T08:20:43Z</time>
      </trkpt>
      <trkpt lat="47.23157" lon="0.00821">
        <ele>64</ele>
        <time>2016-04-20T08:20:46Z</time>
      </trkpt>
      <trkpt lat="47.23157" lon="0.00822">
        <ele>64</ele>
        <time>2016-04-20T08:20:51Z</time>
      </trkpt>
      <trkpt lat="47.23157" lon="0.00822">
        <ele>64</ele>
        <time>2016-04-20T08:20:52Z</time>
      </trkpt>
      <trkpt lat="47.23156" lon="0.00821">
        <ele>65</ele>
        <time>2016-04-20T08:20:55Z</time>
      </trkpt>
      <trkpt lat="47.23155" lon="0.00821">
        <ele>64</ele>
        <time>2016-04-20T08:21:04Z</time>
      </trkpt>
      <trkpt lat="47.23155" lon="0.00821">
        <ele>64</ele>
        <time>2016-04-20T08:21:09Z</time>
      </trkpt>
      <trkpt lat="47.23155" lon="0.00821">
        <ele>64</ele>
        <time>2016-04-20T08:21:10Z</time>
      </trkpt>
      <trkpt lat="47.23154" lon="0.00821">
        <ele>64</ele>
        <time>2016-04-20T08:21:13Z</time>
      </trkpt>
      <trkpt lat="47.23154" lon="0.00821">
        <ele>64</ele>
        <time>2016-04-20T08:21:17Z</time>
      </trkpt>
      <trkpt lat="47.23154" lon="0.00821">
        <ele>64</ele>
        <time>2016-04-20T08:21:19Z</time>
      </trkpt>
      <trkpt lat="47.23154" lon="0.00821">
        <ele>64</ele>
        <time>2016-04-20T08:21:22Z</time>
      </trkpt>
      <trkpt lat="47.23154" lon="0.00821">
        <ele>64</ele>
        <time>2016-04-20T08:21:25Z</time>
      </trkpt>
      <trkpt lat="47.23154" lon="0.00821">
        <ele>64</ele>
        <time>2016-04-20T08:21:28Z</time>
      </trkpt>
      <trkpt lat="47.23154" lon="0.00821">
        <ele>64</ele>
        <time>2016-04-20T08:21:31Z</time>
      </trkpt>
      <trkpt lat="47.23154" lon="0.00821">
        <ele>64</ele>
        <time>2016-04-20T08:21:34Z</time>
      </trkpt>
      <trkpt lat="47.23154" lon="0.00821">
        <ele>64</ele>
        <time>2016-04-20T08:21:37Z</time>
      </trkpt>
      <trkpt lat="47.23154" lon="0.00821">
        <ele>64</ele>
        <time>2016-04-20T08:21:40Z</time>
      </trkpt>
      <trkpt lat="47.23154" lon="0.00821">
        <ele>64</ele>
        <time>2016-04-20T08:21:43Z</time>
      </trkpt>
      <trkpt lat="47.23154" lon="0.00821">
        <ele>64</ele>
        <time>2016-04-20T08:21:48Z</time>
      </trkpt>
      <trkpt lat="47.23154" lon="0.00821">
        <ele>64</ele>
        <time>2016-04-20T08:21:50Z</time>
      </trkpt>
      <trkpt lat="47.23154" lon="0.00821">
        <ele>64</ele>
        <time>2016-04-20T08:21:54Z</time>
      </trkpt>
      <trkpt lat="47.23154" lon="0.00821">
        <ele>64</ele>
        <time>2016-04-20T08:21:55Z</time>
      </trkpt>
      <trkpt lat="47.23154" lon="0.00821">
        <ele>64</ele>
        <time>2016-04-20T08:21:58Z</time>
      </trkpt>
      <trkpt lat="47.23154" lon="0.00821">
        <ele>64</ele>
        <time>2016-04-20T08:22:01Z</time>
      </trkpt>
      <trkpt lat="47.23154" lon="0.00821">
        <ele>64</ele>
        <time>2016-04-20T08:22:04Z</time>
      </trkpt>
      <trkpt lat="47.23154" lon="0.00821">
        <ele>64</ele>
        <time>2016-04-20T08:22:07Z</time>
      </trkpt>
      <trkpt lat="47.23154" lon="0.00821">
        <ele>63</ele>
        <time>2016-04-20T08:22:10Z</time>
      </trkpt>
      <trkpt lat="47.23154" lon="0.00822">
        <ele>62</ele>
        <time>2016-04-20T08:22:15Z</time>
      </trkpt>
      <trkpt lat="47.23154" lon="0.00822">
        <ele>62</ele>
        <time>2016-04-20T08:22:16Z</time>
      </trkpt>
      <trkpt lat="47.23154" lon="0.00822">
        <ele>62</ele>
        <time>2016-04-20T08:22:19Z</time>
      </trkpt>
      <trkpt lat="47.23155" lon="0.00822">
        <ele>62</ele>
        <time>2016-04-20T08:22:22Z</time>
      </trkpt>
      <trkpt lat="47.23155" lon="0.00819">
        <ele>62</ele>
        <time>2016-04-20T08:22:25Z</time>
      </trkpt>
      <trkpt lat="47.23158" lon="0.00804">
        <ele>61</ele>
        <time>2016-04-20T08:22:36Z</time>
      </trkpt>
      <trkpt lat="47.23165" lon="0.0079">
        <ele>61</ele>
        <time>2016-04-20T08:22:47Z</time>
      </trkpt>
      <trkpt lat="47.23169" lon="0.00771">
        <ele>62</ele>
        <time>2016-04-20T08:22:58Z</time>
      </trkpt>
      <trkpt lat="47.23172" lon="0.00753">
        <ele>60</ele>
        <time>2016-04-20T08:23:09Z</time>
      </trkpt>
      <trkpt lat="47.23175" lon="0.00738">
        <ele>59</ele>
        <time>2016-04-20T08:23:20Z</time>
      </trkpt>
      <trkpt lat="47.2318" lon="0.00723">
        <ele>59</ele>
        <time>2016-04-20T08:23:31Z</time>
      </trkpt>
      <trkpt lat="47.23186" lon="0.00706">
        <ele>59</ele>
        <time>2016-04-20T08:23:42Z</time>
      </trkpt>
      <trkpt lat="47.23192" lon="0.00686">
        <ele>60</ele>
        <time>2016-04-20T08:23:53Z</time>
      </trkpt>
      <trkpt lat="47.23195" lon="0.00669">
        <ele>59</ele>
        <time>2016-04-20T08:24:04Z</time>
      </trkpt>
      <trkpt lat="47.23197" lon="0.00651">
        <ele>59</ele>
        <time>2016-04-20T08:24:15Z</time>
      </trkpt>
      <trkpt lat="47.23201" lon="0.0064">
        <ele>60</ele>
        <time>2016-04-20T08:24:26Z</time>
      </trkpt>
      <trkpt lat="47.232" lon="0.00641">
        <ele>61</ele>
        <time>2016-04-20T08:24:37Z</time>
      </trkpt>
      <trkpt lat="47.23201" lon="0.00639">
        <ele>61</ele>
        <time>2016-04-20T08:24:40Z</time>
      </trkpt>
      <trkpt lat="47.23204" lon="0.00622">
        <ele>59</ele>
        <time>2016-04-20T08:24:51Z</time>
      </trkpt>
      <trkpt lat="47.23207" lon="0.00604">
        <ele>58</ele>
        <time>2016-04-20T08:25:02Z</time>
      </trkpt>
      <trkpt lat="47.23212" lon="0.00582">
        <ele>59</ele>
        <time>2016-04-20T08:25:17Z</time>
      </trkpt>
      <trkpt lat="47.23215" lon="0.00564">
        <ele>61</ele>
        <time>2016-04-20T08:25:26Z</time>
      </trkpt>
      <trkpt lat="47.23208" lon="0.00554">
        <ele>61</ele>
        <time>2016-04-20T08:25:35Z</time>
      </trkpt>
      <trkpt lat="47.23194" lon="0.00538">
        <ele>61</ele>
        <time>2016-04-20T08:25:49Z</time>
      </trkpt>
      <trkpt lat="47.2319" lon="0.00524">
        <ele>59</ele>
        <time>2016-04-20T08:25:57Z</time>
      </trkpt>
      <trkpt lat="47.23188" lon="0.00506">
        <ele>60</ele>
        <time>2016-04-20T08:26:08Z</time>
      </trkpt>
      <trkpt lat="47.23191" lon="0.00487">
        <ele>58</ele>
        <time>2016-04-20T08:26:19Z</time>
      </trkpt>
      <trkpt lat="47.23194" lon="0.00468">
        <ele>55</ele>
        <time>2016-04-20T08:26:30Z</time>
      </trkpt>
      <trkpt lat="47.23196" lon="0.00449">
        <ele>54</ele>
        <time>2016-04-20T08:26:41Z</time>
      </trkpt>
      <trkpt lat="47.23199" lon="0.00433">
        <ele>51</ele>
        <time>2016-04-20T08:26:52Z</time>
      </trkpt>
      <trkpt lat="47.23199" lon="0.00412">
        <ele>49</ele>
        <time>2016-04-20T08:27:03Z</time>
      </trkpt>
      <trkpt lat="47.23199" lon="0.00374">
        <ele>46</ele>
        <time>2016-04-20T08:27:24Z</time>
      </trkpt>
      <trkpt lat="47.232" lon="0.00372">
        <ele>46</ele>
        <time>2016-04-20T08:27:25Z</time>
      </trkpt>
      <trkpt lat="47.23201" lon="0.00352">
        <ele>43</ele>
        <time>2016-04-20T08:27:36Z</time>
      </trkpt>
      <trkpt lat="47.23201" lon="0.00333">
        <ele>44</ele>
        <time>2016-04-20T08:27:47Z</time>
      </trkpt>
      <trkpt lat="47.232" lon="0.00311">
        <ele>44</ele>
        <time>2016-04-20T08:27:58Z</time>
      </trkpt>
      <trkpt lat="47.232" lon="0.00288">
        <ele>45</ele>
        <time>2016-04-20T08:28:10Z</time>
      </trkpt>
      <trkpt lat="47.23199" lon="0.00269">
        <ele>44</ele>
        <time>2016-04-20T08:28:20Z</time>
      </trkpt>
      <trkpt lat="47.23197" lon="0.00249">
        <ele>42</ele>
        <time>2016-04-20T08:28:31Z</time>
      </trkpt>
      <trkpt lat="47.23198" lon="0.00231">
        <ele>39</ele>
        <time>2016-04-20T08:28:42Z</time>
      </trkpt>
      <trkpt lat="47.23191" lon="0.00208">
        <ele>40</ele>
        <time>2016-04-20T08:29:02Z</time>
      </trkpt>
      <trkpt lat="47.23191" lon="0.00208">
        <ele>40</ele>
        <time>2016-04-20T08:29:04Z</time>
      </trkpt>
      <trkpt lat="47.2319" lon="0.00208">
        <ele>41</ele>
        <time>2016-04-20T08:29:10Z</time>
      </trkpt>
      <trkpt lat="47.23191" lon="0.00208">
        <ele>41</ele>
        <time>2016-04-20T08:29:13Z</time>
      </trkpt>
      <trkpt lat="47.23191" lon="0.00208">
        <ele>41</ele>
        <time>2016-04-20T08:29:19Z</time>
      </trkpt>
      <trkpt lat="47.23191" lon="0.00208">
        <ele>42</ele>
        <time>2016-04-20T08:29:22Z</time>
      </trkpt>
      <trkpt lat="47.2319" lon="0.00208">
        <ele>43</ele>
        <time>2016-04-20T08:29:28Z</time>
      </trkpt>
      <trkpt lat="47.2319" lon="0.00208">
        <ele>43</ele>
        <time>2016-04-20T08:29:31Z</time>
      </trkpt>
      <trkpt lat="47.2319" lon="0.00209">
        <ele>43</ele>
        <time>2016-04-20T08:29:34Z</time>
      </trkpt>
      <trkpt lat="47.2319" lon="0.00209">
        <ele>43</ele>
        <time>2016-04-20T08:29:37Z</time>
      </trkpt>
      <trkpt lat="47.2319" lon="0.00209">
        <ele>43</ele>
        <time>2016-04-20T08:29:40Z</time>
      </trkpt>
      <trkpt lat="47.2319" lon="0.00209">
        <ele>43</ele>
        <time>2016-04-20T08:29:43Z</time>
      </trkpt>
      <trkpt lat="47.2319" lon="0.00209">
        <ele>42</ele>
        <time>2016-04-20T08:29:46Z</time>
      </trkpt>
      <trkpt lat="47.2319" lon="0.00209">
        <ele>42</ele>
        <time>2016-04-20T08:29:49Z</time>
      </trkpt>
      <trkpt lat="47.23189" lon="0.00208">
        <ele>43</ele>
        <time>2016-04-20T08:29:52Z</time>
      </trkpt>
      <trkpt lat="47.23181" lon="0.00196">
        <ele>46</ele>
        <time>2016-04-20T08:30:03Z</time>
      </trkpt>
      <trkpt lat="47.23164" lon="0.00175">
        <ele>44</ele>
        <time>2016-04-20T08:30:24Z</time>
      </trkpt>
      <trkpt lat="47.23164" lon="0.00174">
        <ele>44</ele>
        <time>2016-04-20T08:30:25Z</time>
      </trkpt>
      <trkpt lat="47.23154" lon="0.00157">
        <ele>44</ele>
        <time>2016-04-20T08:30:40Z</time>
      </trkpt>
      <trkpt lat="47.23146" lon="0.00154">
        <ele>44</ele>
        <time>2016-04-20T08:30:47Z</time>
      </trkpt>
      <trkpt lat="47.23132" lon="0.00152">
        <ele>45</ele>
        <time>2016-04-20T08:30:59Z</time>
      </trkpt>
      <trkpt lat="47.23117" lon="0.0015">
        <ele>47</ele>
        <time>2016-04-20T08:31:13Z</time>
      </trkpt>
      <trkpt lat="47.23103" lon="0.00144">
        <ele>48</ele>
        <time>2016-04-20T08:31:25Z</time>
      </trkpt>
      <trkpt lat="47.23096" lon="0.00143">
        <ele>49</ele>
        <time>2016-04-20T08:31:31Z</time>
      </trkpt>
      <trkpt lat="47.23085" lon="0.00133">
        <ele>49</ele>
        <time>2016-04-20T08:31:42Z</time>
      </trkpt>
      <trkpt lat="47.23074" lon="0.00122">
        <ele>46</ele>
        <time>2016-04-20T08:31:54Z</time>
      </trkpt>
      <trkpt lat="47.23064" lon="0.00117">
        <ele>51</ele>
        <time>2016-04-20T08:32:04Z</time>
      </trkpt>
      <trkpt lat="47.23041" lon="0.00109">
        <ele>57</ele>
        <time>2016-04-20T08:32:23Z</time>
      </trkpt>
      <trkpt lat="47.23041" lon="0.00103">
        <ele>56</ele>
        <time>2016-04-20T08:32:31Z</time>
      </trkpt>
      <trkpt lat="47.23044" lon="0.00097">
        <ele>53</ele>
        <time>2016-04-20T08:32:43Z</time>
      </trkpt>
      <trkpt lat="47.23048" lon="0.00091">
        <ele>51</ele>
        <time>2016-04-20T08:32:50Z</time>
      </trkpt>
      <trkpt lat="47.2305" lon="0.00073">
        <ele>52</ele>
        <time>2016-04-20T08:32:59Z</time>
      </trkpt>
      <trkpt lat="47.23053" lon="0.0005">
        <ele>53</ele>
        <time>2016-04-20T08:33:10Z</time>
      </trkpt>
      <trkpt lat="47.23059" lon="0.0004">
        <ele>53</ele>
        <time>2016-04-20T08:33:21Z</time>
      </trkpt>
      <trkpt lat="47.23067" lon="0.00017">
        <ele>57</ele>
        <time>2016-04-20T08:33:32Z</time>
      </trkpt>
      <trkpt lat="47.23073" lon="-0">
        <ele>54</ele>
        <time>2016-04-20T08:33:43Z</time>
      </trkpt>
      <trkpt lat="47.23077" lon="-0.00017">
        <ele>52</ele>
        <time>2016-04-20T08:33:54Z</time>
      </trkpt>
      <trkpt lat="47.23085" lon="-0.00041">
        <ele>54</ele>
        <time>2016-04-20T08:34:09Z</time>
      </trkpt>
      <trkpt lat="47.23087" lon="-0.00056">
        <ele>54</ele>
        <time>2016-04-20T08:34:16Z</time>
      </trkpt>
      <trkpt lat="47.23097" lon="-0.00072">
        <ele>54</ele>
        <time>2016-04-20T08:34:27Z</time>
      </trkpt>
      <trkpt lat="47.2311" lon="-0.00082">
        <ele>56</ele>
        <time>2016-04-20T08:34:38Z</time>
      </trkpt>
      <trkpt lat="47.23119" lon="-0.00093">
        <ele>56</ele>
        <time>2016-04-20T08:34:49Z</time>
      </trkpt>
      <trkpt lat="47.23125" lon="-0.00108">
        <ele>55</ele>
        <time>2016-04-20T08:35:00Z</time>
      </trkpt>
      <trkpt lat="47.23131" lon="-0.00136">
        <ele>57</ele>
        <time>2016-04-20T08:35:18Z</time>
      </trkpt>
      <trkpt lat="47.23133" lon="-0.00142">
        <ele>57</ele>
        <time>2016-04-20T08:35:22Z</time>
      </trkpt>
      <trkpt lat="47.23138" lon="-0.0016">
        <ele>56</ele>
        <time>2016-04-20T08:35:34Z</time>
      </trkpt>
      <trkpt lat="47.23144" lon="-0.00175">
        <ele>55</ele>
        <time>2016-04-20T08:35:44Z</time>
      </trkpt>
      <trkpt lat="47.23148" lon="-0.00193">
        <ele>55</ele>
        <time>2016-04-20T08:35:55Z</time>
      </trkpt>
      <trkpt lat="47.23153" lon="-0.0021">
        <ele>55</ele>
        <time>2016-04-20T08:36:06Z</time>
      </trkpt>
      <trkpt lat="47.23158" lon="-0.00228">
        <ele>56</ele>
        <time>2016-04-20T08:36:17Z</time>
      </trkpt>
      <trkpt lat="47.23163" lon="-0.00245">
        <ele>55</ele>
        <time>2016-04-20T08:36:28Z</time>
      </trkpt>
      <trkpt lat="47.23164" lon="-0.00257">
        <ele>57</ele>
        <time>2016-04-20T08:36:39Z</time>
      </trkpt>
      <trkpt lat="47.23156" lon="-0.00266">
        <ele>59</ele>
        <time>2016-04-20T08:36:50Z</time>
      </trkpt>
      <trkpt lat="47.23143" lon="-0.00272">
        <ele>60</ele>
        <time>2016-04-20T08:37:01Z</time>
      </trkpt>
      <trkpt lat="47.2313" lon="-0.00277">
        <ele>59</ele>
        <time>2016-04-20T08:37:12Z</time>
      </trkpt>
      <trkpt lat="47.23117" lon="-0.00285">
        <ele>56</ele>
        <time>2016-04-20T08:37:26Z</time>
      </trkpt>
      <trkpt lat="47.23111" lon="-0.0029">
        <ele>55</ele>
        <time>2016-04-20T08:37:34Z</time>
      </trkpt>
      <trkpt lat="47.23099" lon="-0.00296">
        <ele>57</ele>
        <time>2016-04-20T08:37:45Z</time>
      </trkpt>
      <trkpt lat="47.23096" lon="-0.00301">
        <ele>59</ele>
        <time>2016-04-20T08:37:56Z</time>
      </trkpt>
      <trkpt lat="47.23088" lon="-0.00305">
        <ele>58</ele>
        <time>2016-04-20T08:38:07Z</time>
      </trkpt>
      <trkpt lat="47.23074" lon="-0.00315">
        <ele>61</ele>
        <time>2016-04-20T08:38:18Z</time>
      </trkpt>
      <trkpt lat="47.23063" lon="-0.00322">
        <ele>58</ele>
        <time>2016-04-20T08:38:29Z</time>
      </trkpt>
      <trkpt lat="47.23052" lon="-0.00329">
        <ele>59</ele>
        <time>2016-04-20T08:38:40Z</time>
      </trkpt>
      <trkpt lat="47.23041" lon="-0.00335">
        <ele>58</ele>
        <time>2016-04-20T08:38:51Z</time>
      </trkpt>
      <trkpt lat="47.23028" lon="-0.00339">
        <ele>59</ele>
        <time>2016-04-20T08:39:02Z</time>
      </trkpt>
      <trkpt lat="47.23016" lon="-0.00343">
        <ele>57</ele>
        <time>2016-04-20T08:39:23Z</time>
      </trkpt>
      <trkpt lat="47.23016" lon="-0.00342">
        <ele>58</ele>
        <time>2016-04-20T08:39:24Z</time>
      </trkpt>
      <trkpt lat="47.23011" lon="-0.00347">
        <ele>56</ele>
        <time>2016-04-20T08:39:36Z</time>
      </trkpt>
      <trkpt lat="47.2301" lon="-0.00348">
        <ele>57</ele>
        <time>2016-04-20T08:39:46Z</time>
      </trkpt>
      <trkpt lat="47.2301" lon="-0.00348">
        <ele>57</ele>
        <time>2016-04-20T08:39:49Z</time>
      </trkpt>
      <trkpt lat="47.2301" lon="-0.00346">
        <ele>57</ele>
        <time>2016-04-20T08:39:58Z</time>
      </trkpt>
      <trkpt lat="47.23009" lon="-0.00345">
        <ele>57</ele>
        <time>2016-04-20T08:40:04Z</time>
      </trkpt>
      <trkpt lat="47.2301" lon="-0.00344">
        <ele>57</ele>
        <time>2016-04-20T08:40:08Z</time>
      </trkpt>
      <trkpt lat="47.2301" lon="-0.00344">
        <ele>57</ele>
        <time>2016-04-20T08:40:10Z</time>
      </trkpt>
      <trkpt lat="47.2301" lon="-0.00344">
        <ele>58</ele>
        <time>2016-04-20T08:40:13Z</time>
      </trkpt>
      <trkpt lat="47.23009" lon="-0.00344">
        <ele>58</ele>
        <time>2016-04-20T08:40:16Z</time>
      </trkpt>
      <trkpt lat="47.23009" lon="-0.00344">
        <ele>58</ele>
        <time>2016-04-20T08:40:19Z</time>
      </trkpt>
      <trkpt lat="47.23009" lon="-0.00344">
        <ele>58</ele>
        <time>2016-04-20T08:40:22Z</time>
      </trkpt>
      <trkpt lat="47.23009" lon="-0.00344">
        <ele>58</ele>
        <time>2016-04-20T08:40:25Z</time>
      </trkpt>
      <trkpt lat="47.23009" lon="-0.00344">
        <ele>58</ele>
        <time>2016-04-20T08:40:28Z</time>
      </trkpt>
      <trkpt lat="47.23009" lon="-0.00344">
        <ele>58</ele>
        <time>2016-04-20T08:40:31Z</time>
      </trkpt>
      <trkpt lat="47.23009" lon="-0.00344">
        <ele>58</ele>
        <time>2016-04-20T08:40:34Z</time>
      </trkpt>
      <trkpt lat="47.23009" lon="-0.00344">
        <ele>58</ele>
        <time>2016-04-20T08:40:37Z</time>
      </trkpt>
      <trkpt lat="47.23009" lon="-0.00344">
        <ele>58</ele>
        <time>2016-04-20T08:40:40Z</time>
      </trkpt>
      <trkpt lat="47.23009" lon="-0.00344">
        <ele>58</ele>
        <time>2016-04-20T08:40:43Z</time>
      </trkpt>
      <trkpt lat="47.23009" lon="-0.00344">
        <ele>58</ele>
        <time>2016-04-20T08:40:46Z</time>
      </trkpt>
      <trkpt lat="47.23009" lon="-0.00344">
        <ele>58</ele>
        <time>2016-04-20T08:40:50Z</time>
      </trkpt>
      <trkpt lat="47.23009" lon="-0.00344">
        <ele>58</ele>
        <time>2016-04-20T08:40:52Z</time>
      </trkpt>
      <trkpt lat="47.23009" lon="-0.00344">
        <ele>58</ele>
        <time>2016-04-20T08:40:55Z</time>
      </trkpt>
      <trkpt lat="47.23009" lon="-0.00344">
        <ele>58</ele>
        <time>2016-04-20T08:40:58Z</time>
      </trkpt>
      <trkpt lat="47.23009" lon="-0.00344">
        <ele>58</ele>
        <time>2016-04-20T08:41:01Z</time>
      </trkpt>
      <trkpt lat="47.23009" lon="-0.00344">
        <ele>58</ele>
        <time>2016-04-20T08:41:04Z</time>
      </trkpt>
      <trkpt lat="47.23009" lon="-0.00344">
        <ele>58</ele>
        <time>2016-04-20T08:41:07Z</time>
      </trkpt>
      <trkpt lat="47.23009" lon="-0.00344">
        <ele>58</ele>
        <time>2016-04-20T08:41:10Z</time>
      </trkpt>
      <trkpt lat="47.23009" lon="-0.00344">
        <ele>58</ele>
        <time>2016-04-20T08:41:13Z</time>
      </trkpt>
      <trkpt lat="47.23009" lon="-0.00344">
        <ele>58</ele>
        <time>2016-04-20T08:41:16Z</time>
      </trkpt>
      <trkpt lat="47.23009" lon="-0.00344">
        <ele>58</ele>
        <time>2016-04-20T08:41:19Z</time>
      </trkpt>
      <trkpt lat="47.23009" lon="-0.00344">
        <ele>58</ele>
        <time>2016-04-20T08:41:22Z</time>
      </trkpt>
      <trkpt lat="47.23009" lon="-0.00344">
        <ele>58</ele>
        <time>2016-04-20T08:41:25Z</time>
      </trkpt>
      <trkpt lat="47.23009" lon="-0.00344">
        <ele>58</ele>
        <time>2016-04-20T08:41:28Z</time>
      </trkpt>
      <trkpt lat="47.23009" lon="-0.00344">
        <ele>58</ele>
        <time>2016-04-20T08:41:32Z</time>
      </trkpt>
      <trkpt lat="47.23009" lon="-0.00344">
        <ele>58</ele>
        <time>2016-04-20T08:41:36Z</time>
      </trkpt>
      <trkpt lat="47.23009" lon="-0.00344">
        <ele>58</ele>
        <time>2016-04-20T08:41:37Z</time>
      </trkpt>
      <trkpt lat="47.23009" lon="-0.00344">
        <ele>58</ele>
        <time>2016-04-20T08:41:40Z</time>
      </trkpt>
      <trkpt lat="47.23009" lon="-0.00344">
        <ele>58</ele>
        <time>2016-04-20T08:41:43Z</time>
      </trkpt>
      <trkpt lat="47.23009" lon="-0.00344">
        <ele>58</ele>
        <time>2016-04-20T08:41:48Z</time>
      </trkpt>
      <trkpt lat="47.23009" lon="-0.00344">
        <ele>58</ele>
        <time>2016-04-20T08:41:49Z</time>
      </trkpt>
      <trkpt lat="47.23009" lon="-0.00344">
        <ele>58</ele>
        <time>2016-04-20T08:41:52Z</time>
      </trkpt>
      <trkpt lat="47.23009" lon="-0.00344">
        <ele>58</ele>
        <time>2016-04-20T08:41:55Z</time>
      </trkpt>
      <trkpt lat="47.23009" lon="-0.00344">
        <ele>58</ele>
        <time>2016-04-20T08:42:00Z</time>
      </trkpt>
      <trkpt lat="47.23009" lon="-0.00344">
        <ele>58</ele>
        <time>2016-04-20T08:42:01Z</time>
      </trkpt>
      <trkpt lat="47.23009" lon="-0.00344">
        <ele>57</ele>
        <time>2016-04-20T08:42:04Z</time>
      </trkpt>
      <trkpt lat="47.23009" lon="-0.00343">
        <ele>58</ele>
        <time>2016-04-20T08:42:07Z</time>
      </trkpt>
      <trkpt lat="47.23009" lon="-0.00343">
        <ele>58</ele>
        <time>2016-04-20T08:42:10Z</time>
      </trkpt>
      <trkpt lat="47.2301" lon="-0.00343">
        <ele>58</ele>
        <time>2016-04-20T08:42:14Z</time>
      </trkpt>
      <trkpt lat="47.2301" lon="-0.00344">
        <ele>58</ele>
        <time>2016-04-20T08:42:19Z</time>
      </trkpt>
      <trkpt lat="47.2301" lon="-0.00344">
        <ele>58</ele>
        <time>2016-04-20T08:42:22Z</time>
      </trkpt>
      <trkpt lat="47.2301" lon="-0.00343">
        <ele>58</ele>
        <time>2016-04-20T08:42:25Z</time>
      </trkpt>
      <trkpt lat="47.23012" lon="-0.00339">
        <ele>60</ele>
        <time>2016-04-20T08:42:36Z</time>
      </trkpt>
      <trkpt lat="47.23017" lon="-0.00337">
        <ele>59</ele>
        <time>2016-04-20T08:42:47Z</time>
      </trkpt>
      <trkpt lat="47.23026" lon="-0.00337">
        <ele>59</ele>
        <time>2016-04-20T08:43:02Z</time>
      </trkpt>
      <trkpt lat="47.23031" lon="-0.0034">
        <ele>60</ele>
        <time>2016-04-20T08:43:10Z</time>
      </trkpt>
      <trkpt lat="47.23048" lon="-0.00326">
        <ele>60</ele>
        <time>2016-04-20T08:43:24Z</time>
      </trkpt>
      <trkpt lat="47.23057" lon="-0.00321">
        <ele>58</ele>
        <time>2016-04-20T08:43:33Z</time>
      </trkpt>
      <trkpt lat="47.23072" lon="-0.00312">
        <ele>60</ele>
        <time>2016-04-20T08:43:48Z</time>
      </trkpt>
      <trkpt lat="47.23079" lon="-0.00308">
        <ele>59</ele>
        <time>2016-04-20T08:43:54Z</time>
      </trkpt>
      <trkpt lat="47.2309" lon="-0.00299">
        <ele>58</ele>
        <time>2016-04-20T08:44:06Z</time>
      </trkpt>
      <trkpt lat="47.23097" lon="-0.00294">
        <ele>57</ele>
        <time>2016-04-20T08:44:15Z</time>
      </trkpt>
      <trkpt lat="47.23109" lon="-0.00289">
        <ele>57</ele>
        <time>2016-04-20T08:44:26Z</time>
      </trkpt>
      <trkpt lat="47.23123" lon="-0.00285">
        <ele>59</ele>
        <time>2016-04-20T08:44:37Z</time>
      </trkpt>
      <trkpt lat="47.23134" lon="-0.00278">
        <ele>57</ele>
        <time>2016-04-20T08:44:48Z</time>
      </trkpt>
      <trkpt lat="47.23143" lon="-0.00271">
        <ele>56</ele>
        <time>2016-04-20T08:44:59Z</time>
      </trkpt>
      <trkpt lat="47.23154" lon="-0.00263">
        <ele>55</ele>
        <time>2016-04-20T08:45:11Z</time>
      </trkpt>
      <trkpt lat="47.23167" lon="-0.00281">
        <ele>56</ele>
        <time>2016-04-20T08:45:28Z</time>
      </trkpt>
      <trkpt lat="47.23169" lon="-0.00287">
        <ele>57</ele>
        <time>2016-04-20T08:45:32Z</time>
      </trkpt>
      <trkpt lat="47.23175" lon="-0.00303">
        <ele>55</ele>
        <time>2016-04-20T08:45:43Z</time>
      </trkpt>
      <trkpt lat="47.23181" lon="-0.00325">
        <ele>55</ele>
        <time>2016-04-20T08:46:00Z</time>
      </trkpt>
      <trkpt lat="47.23183" lon="-0.00335">
        <ele>58</ele>
        <time>2016-04-20T08:46:05Z</time>
      </trkpt>
      <trkpt lat="47.23188" lon="-0.00356">
        <ele>55</ele>
        <time>2016-04-20T08:46:18Z</time>
      </trkpt>
      <trkpt lat="47.23192" lon="-0.00368">
        <ele>55</ele>
        <time>2016-04-20T08:46:27Z</time>
      </trkpt>
      <trkpt lat="47.23197" lon="-0.00386">
        <ele>55</ele>
        <time>2016-04-20T08:46:41Z</time>
      </trkpt>
      <trkpt lat="47.232" lon="-0.00399">
        <ele>54</ele>
        <time>2016-04-20T08:46:49Z</time>
      </trkpt>
      <trkpt lat="47.23203" lon="-0.00412">
        <ele>52</ele>
        <time>2016-04-20T08:47:00Z</time>
      </trkpt>
      <trkpt lat="47.23209" lon="-0.00429">
        <ele>50</ele>
        <time>2016-04-20T08:47:11Z</time>
      </trkpt>
      <trkpt lat="47.23204" lon="-0.0044">
        <ele>54</ele>
        <time>2016-04-20T08:47:22Z</time>
      </trkpt>
      <trkpt lat="47.23193" lon="-0.00447">
        <ele>57</ele>
        <time>2016-04-20T08:47:33Z</time>
      </trkpt>
      <trkpt lat="47.23184" lon="-0.00453">
        <ele>60</ele>
        <time>2016-04-20T08:47:44Z</time>
      </trkpt>
      <trkpt lat="47.23172" lon="-0.00462">
        <ele>58</ele>
        <time>2016-04-20T08:47:55Z</time>
      </trkpt>
      <trkpt lat="47.23155" lon="-0.00488">
        <ele>49</ele>
        <time>2016-04-20T08:48:16Z</time>
      </trkpt>
      <trkpt lat="47.23159" lon="-0.00502">
        <ele>47</ele>
        <time>2016-04-20T08:48:25Z</time>
      </trkpt>
      <trkpt lat="47.2316" lon="-0.00507">
        <ele>48</ele>
        <time>2016-04-20T08:48:28Z</time>
      </trkpt>
      <trkpt lat="47.23165" lon="-0.00525">
        <ele>48</ele>
        <time>2016-04-20T08:48:39Z</time>
      </trkpt>
      <trkpt lat="47.23173" lon="-0.00546">
        <ele>47</ele>
        <time>2016-04-20T08:48:51Z</time>
      </trkpt>
      <trkpt lat="47.23179" lon="-0.00562">
        <ele>45</ele>
        <time>2016-04-20T08:49:01Z</time>
      </trkpt>
      <trkpt lat="47.23187" lon="-0.00586">
        <ele>47</ele>
        <time>2016-04-20T08:49:15Z</time>
      </trkpt>
      <trkpt lat="47.23198" lon="-0.0061">
        <ele>48</ele>
        <time>2016-04-20T08:49:30Z</time>
      </trkpt>
      <trkpt lat="47.23203" lon="-0.00619">
        <ele>46</ele>
        <time>2016-04-20T08:49:38Z</time>
      </trkpt>
      <trkpt lat="47.23212" lon="-0.00633">
        <ele>47</ele>
        <time>2016-04-20T08:49:49Z</time>
      </trkpt>
      <trkpt lat="47.2322" lon="-0.00651">
        <ele>44</ele>
        <time>2016-04-20T08:50:02Z</time>
      </trkpt>
      <trkpt lat="47.2322" lon="-0.00654">
        <ele>43</ele>
        <time>2016-04-20T08:50:10Z</time>
      </trkpt>
      <trkpt lat="47.2322" lon="-0.00654">
        <ele>45</ele>
        <time>2016-04-20T08:50:18Z</time>
      </trkpt>
      <trkpt lat="47.23219" lon="-0.00654">
        <ele>44</ele>
        <time>2016-04-20T08:50:21Z</time>
      </trkpt>
      <trkpt lat="47.23219" lon="-0.00654">
        <ele>44</ele>
        <time>2016-04-20T08:50:32Z</time>
      </trkpt>
      <trkpt lat="47.2322" lon="-0.00654">
        <ele>45</ele>
        <time>2016-04-20T08:50:37Z</time>
      </trkpt>
      <trkpt lat="47.2322" lon="-0.00654">
        <ele>45</ele>
        <time>2016-04-20T08:50:38Z</time>
      </trkpt>
      <trkpt lat="47.2322" lon="-0.00654">
        <ele>45</ele>
        <time>2016-04-20T08:50:42Z</time>
      </trkpt>
      <trkpt lat="47.2322" lon="-0.00654">
        <ele>45</ele>
        <time>2016-04-20T08:50:44Z</time>
      </trkpt>
      <trkpt lat="47.2322" lon="-0.00654">
        <ele>45</ele>
        <time>2016-04-20T08:50:47Z</time>
      </trkpt>
      <trkpt lat="47.2322" lon="-0.00654">
        <ele>45</ele>
        <time>2016-04-20T08:50:50Z</time>
      </trkpt>
      <trkpt lat="47.2322" lon="-0.00655">
        <ele>45</ele>
        <time>2016-04-20T08:50:53Z</time>
      </trkpt>
      <trkpt lat="47.23228" lon="-0.0066">
        <ele>45</ele>
        <time>2016-04-20T08:51:03Z</time>
      </trkpt>
      <trkpt lat="47.23233" lon="-0.00659">
        <ele>45</ele>
        <time>2016-04-20T08:51:07Z</time>
      </trkpt>
      <trkpt lat="47.23245" lon="-0.0065">
        <ele>44</ele>
        <time>2016-04-20T08:51:18Z</time>
      </trkpt>
      <trkpt lat="47.23263" lon="-0.00628">
        <ele>45</ele>
        <time>2016-04-20T08:51:38Z</time>
      </trkpt>
      <trkpt lat="47.23272" lon="-0.00619">
        <ele>43</ele>
        <time>2016-04-20T08:51:47Z</time>
      </trkpt>
      <trkpt lat="47.23276" lon="-0.00614">
        <ele>44</ele>
        <time>2016-04-20T08:51:51Z</time>
      </trkpt>
      <trkpt lat="47.23285" lon="-0.00601">
        <ele>43</ele>
        <time>2016-04-20T08:52:02Z</time>
      </trkpt>
      <trkpt lat="47.23306" lon="-0.00576">
        <ele>43</ele>
        <time>2016-04-20T08:52:23Z</time>
      </trkpt>
      <trkpt lat="47.23306" lon="-0.00576">
        <ele>43</ele>
        <time>2016-04-20T08:52:27Z</time>
      </trkpt>
      <trkpt lat="47.23311" lon="-0.00571">
        <ele>43</ele>
        <time>2016-04-20T08:52:38Z</time>
      </trkpt>
      <trkpt lat="47.23315" lon="-0.00567">
        <ele>44</ele>
        <time>2016-04-20T08:52:44Z</time>
      </trkpt>
      <trkpt lat="47.23321" lon="-0.0056">
        <ele>41</ele>
        <time>2016-04-20T08:52:52Z</time>
      </trkpt>
      <trkpt lat="47.23338" lon="-0.00541">
        <ele>43</ele>
        <time>2016-04-20T08:53:11Z</time>
      </trkpt>
      <trkpt lat="47.23347" lon="-0.00533">
        <ele>41</ele>
        <time>2016-04-20T08:53:19Z</time>
      </trkpt>
      <trkpt lat="47.23355" lon="-0.00528">
        <ele>41</ele>
        <time>2016-04-20T08:53:26Z</time>
      </trkpt>
      <trkpt lat="47.23366" lon="-0.00523">
        <ele>40</ele>
        <time>2016-04-20T08:53:36Z</time>
      </trkpt>
      <trkpt lat="47.23388" lon="-0.00522">
        <ele>42</ele>
        <time>2016-04-20T08:53:54Z</time>
      </trkpt>
      <trkpt lat="47.23395" lon="-0.00521">
        <ele>41</ele>
        <time>2016-04-20T08:53:59Z</time>
      </trkpt>
      <trkpt lat="47.23407" lon="-0.00518">
        <ele>42</ele>
        <time>2016-04-20T08:54:10Z</time>
      </trkpt>
      <trkpt lat="47.23424" lon="-0.00518">
        <ele>42</ele>
        <time>2016-04-20T08:54:24Z</time>
      </trkpt>
      <trkpt lat="47.23444" lon="-0.00518">
        <ele>43</ele>
        <time>2016-04-20T08:54:39Z</time>
      </trkpt>
      <trkpt lat="47.23455" lon="-0.00528">
        <ele>42</ele>
        <time>2016-04-20T08:54:51Z</time>
      </trkpt>
      <trkpt lat="47.23462" lon="-0.00536">
        <ele>41</ele>
        <time>2016-04-20T08:54:59Z</time>
      </trkpt>
      <trkpt lat="47.23467" lon="-0.0054">
        <ele>40</ele>
        <time>2016-04-20T08:55:04Z</time>
      </trkpt>
      <trkpt lat="47.23485" lon="-0.0056">
        <ele>37</ele>
        <time>2016-04-20T08:55:25Z</time>
      </trkpt>
      <trkpt lat="47.23486" lon="-0.00561">
        <ele>37</ele>
        <time>2016-04-20T08:55:26Z</time>
      </trkpt>
      <trkpt lat="47.23497" lon="-0.00569">
        <ele>36</ele>
        <time>2016-04-20T08:55:37Z</time>
      </trkpt>
      <trkpt lat="47.23509" lon="-0.00575">
        <ele>35</ele>
        <time>2016-04-20T08:55:48Z</time>
      </trkpt>
      <trkpt lat="47.2352" lon="-0.00582">
        <ele>32</ele>
        <time>2016-04-20T08:55:59Z</time>
      </trkpt>
      <trkpt lat="47.23542" lon="-0.00602">
        <ele>33</ele>
        <time>2016-04-20T08:56:19Z</time>
      </trkpt>
      <trkpt lat="47.23551" lon="-0.00611">
        <ele>32</ele>
        <time>2016-04-20T08:56:29Z</time>
      </trkpt>
      <trkpt lat="47.23554" lon="-0.00611">
        <ele>32</ele>
        <time>2016-04-20T08:56:32Z</time>
      </trkpt>
      <trkpt lat="47.23555" lon="-0.00612">
        <ele>31</ele>
        <time>2016-04-20T08:56:47Z</time>
      </trkpt>
      <trkpt lat="47.23556" lon="-0.00611">
        <ele>31</ele>
        <time>2016-04-20T08:56:52Z</time>
      </trkpt>
      <trkpt lat="47.23556" lon="-0.00613">
        <ele>31</ele>
        <time>2016-04-20T08:57:01Z</time>
      </trkpt>
      <trkpt lat="47.23556" lon="-0.00613">
        <ele>31</ele>
        <time>2016-04-20T08:57:03Z</time>
      </trkpt>
      <trkpt lat="47.2356" lon="-0.00624">
        <ele>27</ele>
        <time>2016-04-20T08:57:15Z</time>
      </trkpt>
      <trkpt lat="47.23563" lon="-0.00627">
        <ele>30</ele>
        <time>2016-04-20T08:57:19Z</time>
      </trkpt>
      <trkpt lat="47.23563" lon="-0.00641">
        <ele>29</ele>
        <time>2016-04-20T08:57:28Z</time>
      </trkpt>
      <trkpt lat="47.2356" lon="-0.0066">
        <ele>30</ele>
        <time>2016-04-20T08:57:42Z</time>
      </trkpt>
      <trkpt lat="47.23553" lon="-0.00669">
        <ele>33</ele>
        <time>2016-04-20T08:57:54Z</time>
      </trkpt>
      <trkpt lat="47.23544" lon="-0.00687">
        <ele>30</ele>
        <time>2016-04-20T08:58:11Z</time>
      </trkpt>
      <trkpt lat="47.23543" lon="-0.00688">
        <ele>31</ele>
        <time>2016-04-20T08:58:12Z</time>
      </trkpt>
      <trkpt lat="47.23543" lon="-0.00707">
        <ele>32</ele>
        <time>2016-04-20T08:58:23Z</time>
      </trkpt>
      <trkpt lat="47.23547" lon="-0.00744">
        <ele>31</ele>
        <time>2016-04-20T08:58:43Z</time>
      </trkpt>
      <trkpt lat="47.23548" lon="-0.00746">
        <ele>30</ele>
        <time>2016-04-20T08:58:45Z</time>
      </trkpt>
      <trkpt lat="47.23567" lon="-0.00756">
        <ele>24</ele>
        <time>2016-04-20T08:59:03Z</time>
      </trkpt>
      <trkpt lat="47.2358" lon="-0.00765">
        <ele>29</ele>
        <time>2016-04-20T08:59:16Z</time>
      </trkpt>
      <trkpt lat="47.23584" lon="-0.0077">
        <ele>27</ele>
        <time>2016-04-20T08:59:21Z</time>
      </trkpt>
      <trkpt lat="47.23595" lon="-0.00782">
        <ele>31</ele>
        <time>2016-04-20T08:59:32Z</time>
      </trkpt>
      <trkpt lat="47.236" lon="-0.00798">
        <ele>30</ele>
        <time>2016-04-20T08:59:40Z</time>
      </trkpt>
      <trkpt lat="47.2361" lon="-0.00813">
        <ele>31</ele>
        <time>2016-04-20T08:59:54Z</time>
      </trkpt>
      <trkpt lat="47.23617" lon="-0.00822">
        <ele>31</ele>
        <time>2016-04-20T09:00:02Z</time>
      </trkpt>
      <trkpt lat="47.23632" lon="-0.00842">
        <ele>32</ele>
        <time>2016-04-20T09:00:22Z</time>
      </trkpt>
      <trkpt lat="47.23636" lon="-0.00848">
        <ele>32</ele>
        <time>2016-04-20T09:00:28Z</time>
      </trkpt>
      <trkpt lat="47.23649" lon="-0.00866">
        <ele>34</ele>
        <time>2016-04-20T09:00:45Z</time>
      </trkpt>
      <trkpt lat="47.23652" lon="-0.00872">
        <ele>35</ele>
        <time>2016-04-20T09:00:49Z</time>
      </trkpt>
      <trkpt lat="47.23662" lon="-0.00885">
        <ele>34</ele>
        <time>2016-04-20T09:01:04Z</time>
      </trkpt>
      <trkpt lat="47.23666" lon="-0.0089">
        <ele>35</ele>
        <time>2016-04-20T09:01:10Z</time>
      </trkpt>
      <trkpt lat="47.2367" lon="-0.00899">
        <ele>35</ele>
        <time>2016-04-20T09:01:19Z</time>
      </trkpt>
      <trkpt lat="47.2367" lon="-0.00903">
        <ele>36</ele>
        <time>2016-04-20T09:01:30Z</time>
      </trkpt>
      <trkpt lat="47.23666" lon="-0.00914">
        <ele>36</ele>
        <time>2016-04-20T09:01:41Z</time>
      </trkpt>
      <trkpt lat="47.2366" lon="-0.00925">
        <ele>33</ele>
        <time>2016-04-20T09:01:52Z</time>
      </trkpt>
      <trkpt lat="47.23651" lon="-0.0094">
        <ele>30</ele>
        <time>2016-04-20T09:02:03Z</time>
      </trkpt>
      <trkpt lat="47.23639" lon="-0.00952">
        <ele>38</ele>
        <time>2016-04-20T09:02:15Z</time>
      </trkpt>
      <trkpt lat="47.23629" lon="-0.00961">
        <ele>38</ele>
        <time>2016-04-20T09:02:25Z</time>
      </trkpt>
      <trkpt lat="47.23622" lon="-0.00979">
        <ele>39</ele>
        <time>2016-04-20T09:02:46Z</time>
      </trkpt>
      <trkpt lat="47.23622" lon="-0.00977">
        <ele>38</ele>
        <time>2016-04-20T09:02:50Z</time>
      </trkpt>
      <trkpt lat="47.23621" lon="-0.00978">
        <ele>40</ele>
        <time>2016-04-20T09:02:58Z</time>
      </trkpt>
      <trkpt lat="47.23621" lon="-0.0098">
        <ele>40</ele>
        <time>2016-04-20T09:03:01Z</time>
      </trkpt>
      <trkpt lat="47.23624" lon="-0.00986">
        <ele>42</ele>
        <time>2016-04-20T09:03:14Z</time>
      </trkpt>
      <trkpt lat="47.2363" lon="-0.01001">
        <ele>37</ele>
        <time>2016-04-20T09:03:33Z</time>
      </trkpt>
      <trkpt lat="47.23631" lon="-0.01001">
        <ele>38</ele>
        <time>2016-04-20T09:03:37Z</time>
      </trkpt>
      <trkpt lat="47.23631" lon="-0.01">
        <ele>37</ele>
        <time>2016-04-20T09:03:40Z</time>
      </trkpt>
      <trkpt lat="47.2363" lon="-0.01001">
        <ele>38</ele>
        <time>2016-04-20T09:03:43Z</time>
      </trkpt>
      <trkpt lat="47.2363" lon="-0.01001">
        <ele>38</ele>
        <time>2016-04-20T09:03:46Z</time>
      </trkpt>
      <trkpt lat="47.2363" lon="-0.01001">
        <ele>38</ele>
        <time>2016-04-20T09:03:49Z</time>
      </trkpt>
      <trkpt lat="47.2363" lon="-0.01001">
        <ele>38</ele>
        <time>2016-04-20T09:03:52Z</time>
      </trkpt>
      <trkpt lat="47.2363" lon="-0.01001">
        <ele>38</ele>
        <time>2016-04-20T09:05:58Z</time>
      </trkpt>
      <trkpt lat="47.2363" lon="-0.01001">
        <ele>37</ele>
        <time>2016-04-20T09:07:10Z</time>
      </trkpt>
      <trkpt lat="47.2365" lon="-0.01033">
        <ele>42</ele>
        <time>2016-04-20T09:07:21Z</time>
      </trkpt>
      <trkpt lat="47.23652" lon="-0.01033">
        <ele>41</ele>
        <time>2016-04-20T09:07:23Z</time>
      </trkpt>
      <trkpt lat="47.23686" lon="-0.01033">
        <ele>59</ele>
        <time>2016-04-20T09:08:52Z</time>
      </trkpt>
      <trkpt lat="47.23684" lon="-0.01029">
        <ele>54</ele>
        <time>2016-04-20T09:09:00Z</time>
      </trkpt>
      <trkpt lat="47.23684" lon="-0.01029">
        <ele>54</ele>
        <time>2016-04-20T09:09:11Z</time>
      </trkpt>
      <trkpt lat="47.23684" lon="-0.01029">
        <ele>54</ele>
        <time>2016-04-20T09:09:16Z</time>
      </trkpt>
      <trkpt lat="47.23684" lon="-0.01029">
        <ele>54</ele>
        <time>2016-04-20T09:09:21Z</time>
      </trkpt>
      <trkpt lat="47.23684" lon="-0.01029">
        <ele>54</ele>
        <time>2016-04-20T09:09:23Z</time>
      </trkpt>
      <trkpt lat="47.23683" lon="-0.01029">
        <ele>54</ele>
        <time>2016-04-20T09:09:26Z</time>
      </trkpt>
      <trkpt lat="47.23683" lon="-0.01029">
        <ele>54</ele>
        <time>2016-04-20T09:09:34Z</time>
      </trkpt>
      <trkpt lat="47.23683" lon="-0.01029">
        <ele>54</ele>
        <time>2016-04-20T09:09:37Z</time>
      </trkpt>
      <trkpt lat="47.23683" lon="-0.01029">
        <ele>54</ele>
        <time>2016-04-20T09:09:40Z</time>
      </trkpt>
      <trkpt lat="47.23683" lon="-0.01029">
        <ele>54</ele>
        <time>2016-04-20T09:09:43Z</time>
      </trkpt>
      <trkpt lat="47.23683" lon="-0.01029">
        <ele>54</ele>
        <time>2016-04-20T09:09:46Z</time>
      </trkpt>
      <trkpt lat="47.23683" lon="-0.01029">
        <ele>54</ele>
        <time>2016-04-20T09:09:47Z</time>
      </trkpt>
      <trkpt lat="47.23683" lon="-0.01029">
        <ele>54</ele>
        <time>2016-04-20T09:09:50Z</time>
      </trkpt>
      <trkpt lat="47.23683" lon="-0.01029">
        <ele>54</ele>
        <time>2016-04-20T09:09:52Z</time>
      </trkpt>
      <trkpt lat="47.23683" lon="-0.01029">
        <ele>53</ele>
        <time>2016-04-20T09:09:55Z</time>
      </trkpt>
      <trkpt lat="47.23683" lon="-0.01029">
        <ele>53</ele>
        <time>2016-04-20T09:10:01Z</time>
      </trkpt>
      <trkpt lat="47.23683" lon="-0.01029">
        <ele>53</ele>
        <time>2016-04-20T09:10:03Z</time>
      </trkpt>
      <trkpt lat="47.23683" lon="-0.01029">
        <ele>53</ele>
        <time>2016-04-20T09:10:05Z</time>
      </trkpt>
      <trkpt lat="47.23683" lon="-0.01029">
        <ele>53</ele>
        <time>2016-04-20T09:10:09Z</time>
      </trkpt>
      <trkpt lat="47.23683" lon="-0.01029">
        <ele>53</ele>
        <time>2016-04-20T09:10:11Z</time>
      </trkpt>
      <trkpt lat="47.23683" lon="-0.01029">
        <ele>54</ele>
        <time>2016-04-20T09:10:14Z</time>
      </trkpt>
      <trkpt lat="47.23683" lon="-0.01029">
        <ele>54</ele>
        <time>2016-04-20T09:10:17Z</time>
      </trkpt>
      <trkpt lat="47.23683" lon="-0.01029">
        <ele>53</ele>
        <time>2016-04-20T09:10:28Z</time>
      </trkpt>
      <trkpt lat="47.23683" lon="-0.01029">
        <ele>53</ele>
        <time>2016-04-20T09:10:31Z</time>
      </trkpt>
      <trkpt lat="47.23683" lon="-0.01029">
        <ele>53</ele>
        <time>2016-04-20T09:10:33Z</time>
      </trkpt>
      <trkpt lat="47.23709" lon="-0.00981">
        <ele>34</ele>
        <time>2016-04-20T09:11:15Z</time>
      </trkpt>
      <trkpt lat="47.23721" lon="-0.0097">
        <ele>38</ele>
        <time>2016-04-20T09:11:28Z</time>
      </trkpt>
      <trkpt lat="47.23722" lon="-0.00975">
        <ele>38</ele>
        <time>2016-04-20T09:11:38Z</time>
      </trkpt>
      <trkpt lat="47.23722" lon="-0.00975">
        <ele>37</ele>
        <time>2016-04-20T09:11:41Z</time>
      </trkpt>
      <trkpt lat="47.23722" lon="-0.00976">
        <ele>36</ele>
        <time>2016-04-20T09:11:44Z</time>
      </trkpt>
      <trkpt lat="47.23722" lon="-0.00975">
        <ele>37</ele>
        <time>2016-04-20T09:11:46Z</time>
      </trkpt>
      <trkpt lat="47.23722" lon="-0.00975">
        <ele>36</ele>
        <time>2016-04-20T09:11:51Z</time>
      </trkpt>
      <trkpt lat="47.23721" lon="-0.00975">
        <ele>38</ele>
        <time>2016-04-20T09:11:56Z</time>
      </trkpt>
      <trkpt lat="47.23721" lon="-0.00976">
        <ele>41</ele>
        <time>2016-04-20T09:12:04Z</time>
      </trkpt>
      <trkpt lat="47.23722" lon="-0.00975">
        <ele>42</ele>
        <time>2016-04-20T09:12:12Z</time>
      </trkpt>
      <trkpt lat="47.23722" lon="-0.00975">
        <ele>42</ele>
        <time>2016-04-20T09:12:16Z</time>
      </trkpt>
      <trkpt lat="47.23722" lon="-0.00975">
        <ele>42</ele>
        <time>2016-04-20T09:12:19Z</time>
      </trkpt>
      <trkpt lat="47.23722" lon="-0.00975">
        <ele>42</ele>
        <time>2016-04-20T09:12:22Z</time>
      </trkpt>
      <trkpt lat="47.23722" lon="-0.00975">
        <ele>42</ele>
        <time>2016-04-20T09:12:25Z</time>
      </trkpt>
      <trkpt lat="47.23722" lon="-0.00976">
        <ele>40</ele>
        <time>2016-04-20T09:12:29Z</time>
      </trkpt>
      <trkpt lat="47.23722" lon="-0.00977">
        <ele>39</ele>
        <time>2016-04-20T09:12:30Z</time>
      </trkpt>
      <trkpt lat="47.23728" lon="-0.00986">
        <ele>38</ele>
        <time>2016-04-20T09:12:43Z</time>
      </trkpt>
      <trkpt lat="47.23734" lon="-0.01007">
        <ele>40</ele>
        <time>2016-04-20T09:13:02Z</time>
      </trkpt>
      <trkpt lat="47.23734" lon="-0.01008">
        <ele>41</ele>
        <time>2016-04-20T09:13:04Z</time>
      </trkpt>
      <trkpt lat="47.23743" lon="-0.01031">
        <ele>37</ele>
        <time>2016-04-20T09:13:22Z</time>
      </trkpt>
      <trkpt lat="47.23745" lon="-0.01034">
        <ele>37</ele>
        <time>2016-04-20T09:13:25Z</time>
      </trkpt>
      <trkpt lat="47.23752" lon="-0.01047">
        <ele>35</ele>
        <time>2016-04-20T09:13:37Z</time>
      </trkpt>
      <trkpt lat="47.23758" lon="-0.01056">
        <ele>35</ele>
        <time>2016-04-20T09:13:47Z</time>
      </trkpt>
      <trkpt lat="47.23764" lon="-0.01067">
        <ele>33</ele>
        <time>2016-04-20T09:13:58Z</time>
      </trkpt>
      <trkpt lat="47.23774" lon="-0.01065">
        <ele>31</ele>
        <time>2016-04-20T09:14:18Z</time>
      </trkpt>
      <trkpt lat="47.23775" lon="-0.01066">
        <ele>30</ele>
        <time>2016-04-20T09:14:21Z</time>
      </trkpt>
      <trkpt lat="47.23778" lon="-0.01066">
        <ele>31</ele>
        <time>2016-04-20T09:14:37Z</time>
      </trkpt>
      <trkpt lat="47.2378" lon="-0.0107">
        <ele>32</ele>
        <time>2016-04-20T09:14:44Z</time>
      </trkpt>
      <trkpt lat="47.2378" lon="-0.01073">
        <ele>32</ele>
        <time>2016-04-20T09:14:51Z</time>
      </trkpt>
      <trkpt lat="47.2378" lon="-0.01074">
        <ele>32</ele>
        <time>2016-04-20T09:15:03Z</time>
      </trkpt>
      <trkpt lat="47.2378" lon="-0.01082">
        <ele>34</ele>
        <time>2016-04-20T09:15:07Z</time>
      </trkpt>
      <trkpt lat="47.23779" lon="-0.01098">
        <ele>33</ele>
        <time>2016-04-20T09:15:16Z</time>
      </trkpt>
      <trkpt lat="47.23785" lon="-0.01131">
        <ele>39</ele>
        <time>2016-04-20T09:15:34Z</time>
      </trkpt>
      <trkpt lat="47.23786" lon="-0.01131">
        <ele>39</ele>
        <time>2016-04-20T09:15:39Z</time>
      </trkpt>
      <trkpt lat="47.23792" lon="-0.01148">
        <ele>39</ele>
        <time>2016-04-20T09:15:53Z</time>
      </trkpt>
      <trkpt lat="47.23795" lon="-0.0116">
        <ele>37</ele>
        <time>2016-04-20T09:16:00Z</time>
      </trkpt>
      <trkpt lat="47.23803" lon="-0.01183">
        <ele>35</ele>
        <time>2016-04-20T09:16:16Z</time>
      </trkpt>
      <trkpt lat="47.23809" lon="-0.01199">
        <ele>35</ele>
        <time>2016-04-20T09:16:27Z</time>
      </trkpt>
      <trkpt lat="47.2381" lon="-0.01209">
        <ele>34</ele>
        <time>2016-04-20T09:16:33Z</time>
      </trkpt>
      <trkpt lat="47.23817" lon="-0.01233">
        <ele>32</ele>
        <time>2016-04-20T09:16:53Z</time>
      </trkpt>
      <trkpt lat="47.23817" lon="-0.01235">
        <ele>32</ele>
        <time>2016-04-20T09:16:55Z</time>
      </trkpt>
      <trkpt lat="47.23825" lon="-0.01254">
        <ele>37</ele>
        <time>2016-04-20T09:17:09Z</time>
      </trkpt>
      <trkpt lat="47.23829" lon="-0.01267">
        <ele>40</ele>
        <time>2016-04-20T09:17:17Z</time>
      </trkpt>
      <trkpt lat="47.23833" lon="-0.01281">
        <ele>37</ele>
        <time>2016-04-20T09:17:28Z</time>
      </trkpt>
      <trkpt lat="47.2384" lon="-0.01304">
        <ele>38</ele>
        <time>2016-04-20T09:17:46Z</time>
      </trkpt>
      <trkpt lat="47.23842" lon="-0.01313">
        <ele>38</ele>
        <time>2016-04-20T09:17:52Z</time>
      </trkpt>
      <trkpt lat="47.23843" lon="-0.01343">
        <ele>36</ele>
        <time>2016-04-20T09:18:10Z</time>
      </trkpt>
      <trkpt lat="47.23843" lon="-0.01346">
        <ele>37</ele>
        <time>2016-04-20T09:18:12Z</time>
      </trkpt>
      <trkpt lat="47.23849" lon="-0.01366">
        <ele>39</ele>
        <time>2016-04-20T09:18:27Z</time>
      </trkpt>
      <trkpt lat="47.23853" lon="-0.0138">
        <ele>38</ele>
        <time>2016-04-20T09:18:36Z</time>
      </trkpt>
      <trkpt lat="47.23854" lon="-0.01397">
        <ele>37</ele>
        <time>2016-04-20T09:18:46Z</time>
      </trkpt>
      <trkpt lat="47.23823" lon="-0.01406">
        <ele>47</ele>
        <time>2016-04-20T09:19:20Z</time>
      </trkpt>
      <trkpt lat="47.23794" lon="-0.01448">
        <ele>45</ele>
        <time>2016-04-20T09:20:38Z</time>
      </trkpt>
      <trkpt lat="47.23794" lon="-0.01448">
        <ele>48</ele>
        <time>2016-04-20T09:20:42Z</time>
      </trkpt>
      <trkpt lat="47.23794" lon="-0.01448">
        <ele>46</ele>
        <time>2016-04-20T09:20:43Z</time>
      </trkpt>
      <trkpt lat="47.23794" lon="-0.01448">
        <ele>45</ele>
        <time>2016-04-20T09:20:46Z</time>
      </trkpt>
      <trkpt lat="47.23787" lon="-0.01455">
        <ele>48</ele>
        <time>2016-04-20T09:20:58Z</time>
      </trkpt>
      <trkpt lat="47.23787" lon="-0.01455">
        <ele>50</ele>
        <time>2016-04-20T09:21:01Z</time>
      </trkpt>
      <trkpt lat="47.23782" lon="-0.01462">
        <ele>50</ele>
        <time>2016-04-20T09:21:12Z</time>
      </trkpt>
      <trkpt lat="47.23776" lon="-0.01465">
        <ele>49</ele>
        <time>2016-04-20T09:21:22Z</time>
      </trkpt>
      <trkpt lat="47.23765" lon="-0.0147">
        <ele>58</ele>
        <time>2016-04-20T09:21:35Z</time>
      </trkpt>
      <trkpt lat="47.23758" lon="-0.01477">
        <ele>53</ele>
        <time>2016-04-20T09:21:45Z</time>
      </trkpt>
      <trkpt lat="47.23749" lon="-0.01484">
        <ele>49</ele>
        <time>2016-04-20T09:21:55Z</time>
      </trkpt>
      <trkpt lat="47.2375" lon="-0.01486">
        <ele>53</ele>
        <time>2016-04-20T09:22:07Z</time>
      </trkpt>
      <trkpt lat="47.2375" lon="-0.01488">
        <ele>58</ele>
        <time>2016-04-20T09:22:15Z</time>
      </trkpt>
      <trkpt lat="47.23749" lon="-0.01487">
        <ele>59</ele>
        <time>2016-04-20T09:22:21Z</time>
      </trkpt>
      <trkpt lat="47.23748" lon="-0.01488">
        <ele>60</ele>
        <time>2016-04-20T09:22:25Z</time>
      </trkpt>
      <trkpt lat="47.23748" lon="-0.01489">
        <ele>61</ele>
        <time>2016-04-20T09:22:30Z</time>
      </trkpt>
      <trkpt lat="47.23747" lon="-0.01489">
        <ele>61</ele>
        <time>2016-04-20T09:22:33Z</time>
      </trkpt>
      <trkpt lat="47.23747" lon="-0.01488">
        <ele>55</ele>
        <time>2016-04-20T09:22:39Z</time>
      </trkpt>
      <trkpt lat="47.23747" lon="-0.01487">
        <ele>58</ele>
        <time>2016-04-20T09:22:44Z</time>
      </trkpt>
      <trkpt lat="47.23745" lon="-0.01486">
        <ele>56</ele>
        <time>2016-04-20T09:22:54Z</time>
      </trkpt>
      <trkpt lat="47.23744" lon="-0.01486">
        <ele>56</ele>
        <time>2016-04-20T09:22:56Z</time>
      </trkpt>
      <trkpt lat="47.23744" lon="-0.01486">
        <ele>56</ele>
        <time>2016-04-20T09:22:59Z</time>
      </trkpt>
      <trkpt lat="47.23744" lon="-0.01485">
        <ele>59</ele>
        <time>2016-04-20T09:23:03Z</time>
      </trkpt>
      <trkpt lat="47.23744" lon="-0.01485">
        <ele>63</ele>
        <time>2016-04-20T09:23:06Z</time>
      </trkpt>
      <trkpt lat="47.23745" lon="-0.01484">
        <ele>63</ele>
        <time>2016-04-20T09:23:08Z</time>
      </trkpt>
      <trkpt lat="47.23742" lon="-0.01477">
        <ele>55</ele>
        <time>2016-04-20T09:23:19Z</time>
      </trkpt>
      <trkpt lat="47.23733" lon="-0.0145">
        <ele>51</ele>
        <time>2016-04-20T09:23:36Z</time>
      </trkpt>
      <trkpt lat="47.23729" lon="-0.0144">
        <ele>51</ele>
        <time>2016-04-20T09:23:43Z</time>
      </trkpt>
      <trkpt lat="47.23724" lon="-0.01429">
        <ele>48</ele>
        <time>2016-04-20T09:23:53Z</time>
      </trkpt>
      <trkpt lat="47.23718" lon="-0.01426">
        <ele>49</ele>
        <time>2016-04-20T09:24:03Z</time>
      </trkpt>
      <trkpt lat="47.23707" lon="-0.01426">
        <ele>53</ele>
        <time>2016-04-20T09:24:14Z</time>
      </trkpt>
      <trkpt lat="47.23699" lon="-0.01411">
        <ele>52</ele>
        <time>2016-04-20T09:24:25Z</time>
      </trkpt>
      <trkpt lat="47.23685" lon="-0.0138">
        <ele>58</ele>
        <time>2016-04-20T09:24:43Z</time>
      </trkpt>
      <trkpt lat="47.23683" lon="-0.01373">
        <ele>54</ele>
        <time>2016-04-20T09:24:48Z</time>
      </trkpt>
      <trkpt lat="47.23675" lon="-0.01353">
        <ele>52</ele>
        <time>2016-04-20T09:25:02Z</time>
      </trkpt>
      <trkpt lat="47.23667" lon="-0.01333">
        <ele>53</ele>
        <time>2016-04-20T09:25:14Z</time>
      </trkpt>
      <trkpt lat="47.23662" lon="-0.01326">
        <ele>49</ele>
        <time>2016-04-20T09:25:21Z</time>
      </trkpt>
      <trkpt lat="47.23652" lon="-0.01332">
        <ele>52</ele>
        <time>2016-04-20T09:25:34Z</time>
      </trkpt>
      <trkpt lat="47.23639" lon="-0.01346">
        <ele>52</ele>
        <time>2016-04-20T09:25:47Z</time>
      </trkpt>
      <trkpt lat="47.23626" lon="-0.0136">
        <ele>62</ele>
        <time>2016-04-20T09:26:00Z</time>
      </trkpt>
      <trkpt lat="47.23617" lon="-0.01376">
        <ele>66</ele>
        <time>2016-04-20T09:26:13Z</time>
      </trkpt>
      <trkpt lat="47.23615" lon="-0.01378">
        <ele>67</ele>
        <time>2016-04-20T09:26:17Z</time>
      </trkpt>
      <trkpt lat="47.23599" lon="-0.01393">
        <ele>65</ele>
        <time>2016-04-20T09:26:33Z</time>
      </trkpt>
      <trkpt lat="47.23595" lon="-0.01398">
        <ele>63</ele>
        <time>2016-04-20T09:26:37Z</time>
      </trkpt>
      <trkpt lat="47.23582" lon="-0.0141">
        <ele>65</ele>
        <time>2016-04-20T09:26:56Z</time>
      </trkpt>
      <trkpt lat="47.23582" lon="-0.01411">
        <ele>64</ele>
        <time>2016-04-20T09:26:59Z</time>
      </trkpt>
      <trkpt lat="47.23582" lon="-0.01412">
        <ele>65</ele>
        <time>2016-04-20T09:27:02Z</time>
      </trkpt>
      <trkpt lat="47.23581" lon="-0.01412">
        <ele>68</ele>
        <time>2016-04-20T09:27:05Z</time>
      </trkpt>
      <trkpt lat="47.2358" lon="-0.01409">
        <ele>62</ele>
        <time>2016-04-20T09:27:15Z</time>
      </trkpt>
      <trkpt lat="47.2358" lon="-0.01407">
        <ele>59</ele>
        <time>2016-04-20T09:27:25Z</time>
      </trkpt>
      <trkpt lat="47.23577" lon="-0.01416">
        <ele>56</ele>
        <time>2016-04-20T09:27:31Z</time>
      </trkpt>
      <trkpt lat="47.23562" lon="-0.01436">
        <ele>53</ele>
        <time>2016-04-20T09:27:47Z</time>
      </trkpt>
      <trkpt lat="47.23559" lon="-0.01438">
        <ele>54</ele>
        <time>2016-04-20T09:27:50Z</time>
      </trkpt>
      <trkpt lat="47.23552" lon="-0.01455">
        <ele>58</ele>
        <time>2016-04-20T09:28:01Z</time>
      </trkpt>
      <trkpt lat="47.23534" lon="-0.01468">
        <ele>52</ele>
        <time>2016-04-20T09:28:17Z</time>
      </trkpt>
      <trkpt lat="47.23527" lon="-0.01473">
        <ele>55</ele>
        <time>2016-04-20T09:28:23Z</time>
      </trkpt>
      <trkpt lat="47.23511" lon="-0.01485">
        <ele>55</ele>
        <time>2016-04-20T09:28:37Z</time>
      </trkpt>
      <trkpt lat="47.23498" lon="-0.01499">
        <ele>52</ele>
        <time>2016-04-20T09:28:51Z</time>
      </trkpt>
      <trkpt lat="47.23494" lon="-0.01505">
        <ele>53</ele>
        <time>2016-04-20T09:28:56Z</time>
      </trkpt>
      <trkpt lat="47.23471" lon="-0.01526">
        <ele>48</ele>
        <time>2016-04-20T09:29:16Z</time>
      </trkpt>
      <trkpt lat="47.23469" lon="-0.01527">
        <ele>49</ele>
        <time>2016-04-20T09:29:18Z</time>
      </trkpt>
      <trkpt lat="47.23447" lon="-0.01548">
        <ele>51</ele>
        <time>2016-04-20T09:29:39Z</time>
      </trkpt>
      <trkpt lat="47.23445" lon="-0.01552">
        <ele>50</ele>
        <time>2016-04-20T09:29:42Z</time>
      </trkpt>
      <trkpt lat="47.23437" lon="-0.01561">
        <ele>48</ele>
        <time>2016-04-20T09:29:51Z</time>
      </trkpt>
      <trkpt lat="47.23421" lon="-0.01573">
        <ele>46</ele>
        <time>2016-04-20T09:30:06Z</time>
      </trkpt>
      <trkpt lat="47.23405" lon="-0.01585">
        <ele>47</ele>
        <time>2016-04-20T09:30:19Z</time>
      </trkpt>
      <trkpt lat="47.234" lon="-0.01589">
        <ele>47</ele>
        <time>2016-04-20T09:30:24Z</time>
      </trkpt>
      <trkpt lat="47.23385" lon="-0.01604">
        <ele>48</ele>
        <time>2016-04-20T09:30:39Z</time>
      </trkpt>
      <trkpt lat="47.23379" lon="-0.0161">
        <ele>48</ele>
        <time>2016-04-20T09:30:46Z</time>
      </trkpt>
      <trkpt lat="47.23368" lon="-0.01624">
        <ele>51</ele>
        <time>2016-04-20T09:30:57Z</time>
      </trkpt>
      <trkpt lat="47.23357" lon="-0.01637">
        <ele>51</ele>
        <time>2016-04-20T09:31:10Z</time>
      </trkpt>
      <trkpt lat="47.23344" lon="-0.01642">
        <ele>45</ele>
        <time>2016-04-20T09:31:25Z</time>
      </trkpt>
      <trkpt lat="47.23336" lon="-0.01647">
        <ele>48</ele>
        <time>2016-04-20T09:31:34Z</time>
      </trkpt>
      <trkpt lat="47.23326" lon="-0.01653">
        <ele>48</ele>
        <time>2016-04-20T09:31:45Z</time>
      </trkpt>
      <trkpt lat="47.23316" lon="-0.01656">
        <ele>41</ele>
        <time>2016-04-20T09:31:58Z</time>
      </trkpt>
      <trkpt lat="47.23308" lon="-0.0166">
        <ele>38</ele>
        <time>2016-04-20T09:32:06Z</time>
      </trkpt>
      <trkpt lat="47.23304" lon="-0.01667">
        <ele>42</ele>
        <time>2016-04-20T09:32:14Z</time>
      </trkpt>
      <trkpt lat="47.23284" lon="-0.01678">
        <ele>47</ele>
        <time>2016-04-20T09:32:30Z</time>
      </trkpt>
      <trkpt lat="47.23276" lon="-0.01687">
        <ele>48</ele>
        <time>2016-04-20T09:32:40Z</time>
      </trkpt>
      <trkpt lat="47.23268" lon="-0.0169">
        <ele>48</ele>
        <time>2016-04-20T09:32:47Z</time>
      </trkpt>
      <trkpt lat="47.2325" lon="-0.01701">
        <ele>41</ele>
        <time>2016-04-20T09:33:04Z</time>
      </trkpt>
      <trkpt lat="47.23245" lon="-0.01705">
        <ele>42</ele>
        <time>2016-04-20T09:33:09Z</time>
      </trkpt>
      <trkpt lat="47.23226" lon="-0.01718">
        <ele>48</ele>
        <time>2016-04-20T09:33:27Z</time>
      </trkpt>
      <trkpt lat="47.23209" lon="-0.01724">
        <ele>46</ele>
        <time>2016-04-20T09:33:41Z</time>
      </trkpt>
      <trkpt lat="47.23208" lon="-0.01724">
        <ele>46</ele>
        <time>2016-04-20T09:33:42Z</time>
      </trkpt>
      <trkpt lat="47.23192" lon="-0.01732">
        <ele>47</ele>
        <time>2016-04-20T09:33:57Z</time>
      </trkpt>
      <trkpt lat="47.23185" lon="-0.01739">
        <ele>47</ele>
        <time>2016-04-20T09:34:05Z</time>
      </trkpt>
      <trkpt lat="47.23176" lon="-0.01745">
        <ele>49</ele>
        <time>2016-04-20T09:34:15Z</time>
      </trkpt>
      <trkpt lat="47.23163" lon="-0.01749">
        <ele>46</ele>
        <time>2016-04-20T09:34:26Z</time>
      </trkpt>
      <trkpt lat="47.23146" lon="-0.01757">
        <ele>49</ele>
        <time>2016-04-20T09:34:41Z</time>
      </trkpt>
      <trkpt lat="47.23137" lon="-0.01758">
        <ele>47</ele>
        <time>2016-04-20T09:34:48Z</time>
      </trkpt>
      <trkpt lat="47.23118" lon="-0.01765">
        <ele>50</ele>
        <time>2016-04-20T09:35:03Z</time>
      </trkpt>
      <trkpt lat="47.23098" lon="-0.01772">
        <ele>48</ele>
        <time>2016-04-20T09:35:20Z</time>
      </trkpt>
      <trkpt lat="47.23088" lon="-0.01774">
        <ele>49</ele>
        <time>2016-04-20T09:35:28Z</time>
      </trkpt>
      <trkpt lat="47.23084" lon="-0.01777">
        <ele>48</ele>
        <time>2016-04-20T09:35:32Z</time>
      </trkpt>
      <trkpt lat="47.23069" lon="-0.01782">
        <ele>49</ele>
        <time>2016-04-20T09:35:44Z</time>
      </trkpt>
      <trkpt lat="47.23056" lon="-0.01784">
        <ele>44</ele>
        <time>2016-04-20T09:35:55Z</time>
      </trkpt>
      <trkpt lat="47.23043" lon="-0.01784">
        <ele>44</ele>
        <time>2016-04-20T09:36:05Z</time>
      </trkpt>
      <trkpt lat="47.23019" lon="-0.01789">
        <ele>43</ele>
        <time>2016-04-20T09:36:25Z</time>
      </trkpt>
      <trkpt lat="47.23007" lon="-0.01793">
        <ele>42</ele>
        <time>2016-04-20T09:36:36Z</time>
      </trkpt>
      <trkpt lat="47.23006" lon="-0.01794">
        <ele>38</ele>
        <time>2016-04-20T09:36:38Z</time>
      </trkpt>
      <trkpt lat="47.22992" lon="-0.01799">
        <ele>37</ele>
        <time>2016-04-20T09:36:49Z</time>
      </trkpt>
      <trkpt lat="47.2298" lon="-0.01802">
        <ele>36</ele>
        <time>2016-04-20T09:37:00Z</time>
      </trkpt>
      <trkpt lat="47.22966" lon="-0.01813">
        <ele>39</ele>
        <time>2016-04-20T09:37:16Z</time>
      </trkpt>
      <trkpt lat="47.22971" lon="-0.01841">
        <ele>44</ele>
        <time>2016-04-20T09:37:32Z</time>
      </trkpt>
      <trkpt lat="47.22973" lon="-0.01856">
        <ele>46</ele>
        <time>2016-04-20T09:37:41Z</time>
      </trkpt>
      <trkpt lat="47.22975" lon="-0.01863">
        <ele>47</ele>
        <time>2016-04-20T09:37:45Z</time>
      </trkpt>
      <trkpt lat="47.22978" lon="-0.0188">
        <ele>48</ele>
        <time>2016-04-20T09:37:55Z</time>
      </trkpt>
      <trkpt lat="47.22983" lon="-0.01915">
        <ele>49</ele>
        <time>2016-04-20T09:38:15Z</time>
      </trkpt>
      <trkpt lat="47.22983" lon="-0.01924">
        <ele>46</ele>
        <time>2016-04-20T09:38:20Z</time>
      </trkpt>
      <trkpt lat="47.22984" lon="-0.01938">
        <ele>45</ele>
        <time>2016-04-20T09:38:28Z</time>
      </trkpt>
      <trkpt lat="47.22984" lon="-0.01967">
        <ele>47</ele>
        <time>2016-04-20T09:38:43Z</time>
      </trkpt>
      <trkpt lat="47.22984" lon="-0.01979">
        <ele>48</ele>
        <time>2016-04-20T09:38:50Z</time>
      </trkpt>
      <trkpt lat="47.22986" lon="-0.01999">
        <ele>47</ele>
        <time>2016-04-20T09:39:01Z</time>
      </trkpt>
      <trkpt lat="47.22989" lon="-0.02032">
        <ele>49</ele>
        <time>2016-04-20T09:39:18Z</time>
      </trkpt>
      <trkpt lat="47.2299" lon="-0.02041">
        <ele>51</ele>
        <time>2016-04-20T09:39:23Z</time>
      </trkpt>
      <trkpt lat="47.22993" lon="-0.02063">
        <ele>51</ele>
        <time>2016-04-20T09:39:34Z</time>
      </trkpt>
      <trkpt lat="47.22995" lon="-0.02085">
        <ele>52</ele>
        <time>2016-04-20T09:39:45Z</time>
      </trkpt>
      <trkpt lat="47.22997" lon="-0.02108">
        <ele>52</ele>
        <time>2016-04-20T09:39:57Z</time>
      </trkpt>
      <trkpt lat="47.23" lon="-0.02128">
        <ele>53</ele>
        <time>2016-04-20T09:40:07Z</time>
      </trkpt>
      <trkpt lat="47.23002" lon="-0.02149">
        <ele>52</ele>
        <time>2016-04-20T09:40:18Z</time>
      </trkpt>
      <trkpt lat="47.23005" lon="-0.02187">
        <ele>53</ele>
        <time>2016-04-20T09:40:37Z</time>
      </trkpt>
      <trkpt lat="47.23007" lon="-0.02199">
        <ele>55</ele>
        <time>2016-04-20T09:40:43Z</time>
      </trkpt>
      <trkpt lat="47.2301" lon="-0.02215">
        <ele>53</ele>
        <time>2016-04-20T09:40:51Z</time>
      </trkpt>
      <trkpt lat="47.23015" lon="-0.02239">
        <ele>53</ele>
        <time>2016-04-20T09:41:04Z</time>
      </trkpt>
      <trkpt lat="47.23022" lon="-0.02258">
        <ele>52</ele>
        <time>2016-04-20T09:41:16Z</time>
      </trkpt>
      <trkpt lat="47.23024" lon="-0.02275">
        <ele>53</ele>
        <time>2016-04-20T09:41:24Z</time>
      </trkpt>
      <trkpt lat="47.23028" lon="-0.02293">
        <ele>54</ele>
        <time>2016-04-20T09:41:35Z</time>
      </trkpt>
      <trkpt lat="47.23036" lon="-0.02291">
        <ele>51</ele>
        <time>2016-04-20T09:41:46Z</time>
      </trkpt>
      <trkpt lat="47.23053" lon="-0.02293">
        <ele>53</ele>
        <time>2016-04-20T09:42:04Z</time>
      </trkpt>
      <trkpt lat="47.23056" lon="-0.02303">
        <ele>52</ele>
        <time>2016-04-20T09:42:10Z</time>
      </trkpt>
      <trkpt lat="47.23061" lon="-0.02327">
        <ele>53</ele>
        <time>2016-04-20T09:42:24Z</time>
      </trkpt>
      <trkpt lat="47.23063" lon="-0.02341">
        <ele>52</ele>
        <time>2016-04-20T09:42:32Z</time>
      </trkpt>
      <trkpt lat="47.23064" lon="-0.02341">
        <ele>52</ele>
        <time>2016-04-20T09:42:41Z</time>
      </trkpt>
      <trkpt lat="47.23065" lon="-0.02342">
        <ele>52</ele>
        <time>2016-04-20T09:42:44Z</time>
      </trkpt>
      <trkpt lat="47.23067" lon="-0.0235">
        <ele>53</ele>
        <time>2016-04-20T09:43:00Z</time>
      </trkpt>
      <trkpt lat="47.23066" lon="-0.02357">
        <ele>52</ele>
        <time>2016-04-20T09:43:10Z</time>
      </trkpt>
      <trkpt lat="47.23066" lon="-0.02359">
        <ele>52</ele>
        <time>2016-04-20T09:43:18Z</time>
      </trkpt>
      <trkpt lat="47.23067" lon="-0.02361">
        <ele>55</ele>
        <time>2016-04-20T09:43:31Z</time>
      </trkpt>
      <trkpt lat="47.23064" lon="-0.02361">
        <ele>55</ele>
        <time>2016-04-20T09:43:35Z</time>
      </trkpt>
      <trkpt lat="47.23062" lon="-0.02363">
        <ele>56</ele>
        <time>2016-04-20T09:43:45Z</time>
      </trkpt>
      <trkpt lat="47.23064" lon="-0.02391">
        <ele>53</ele>
        <time>2016-04-20T09:44:03Z</time>
      </trkpt>
      <trkpt lat="47.23064" lon="-0.02397">
        <ele>53</ele>
        <time>2016-04-20T09:44:07Z</time>
      </trkpt>
      <trkpt lat="47.23067" lon="-0.02414">
        <ele>54</ele>
        <time>2016-04-20T09:44:18Z</time>
      </trkpt>
      <trkpt lat="47.23071" lon="-0.02435">
        <ele>55</ele>
        <time>2016-04-20T09:44:31Z</time>
      </trkpt>
      <trkpt lat="47.23075" lon="-0.02453">
        <ele>54</ele>
        <time>2016-04-20T09:44:43Z</time>
      </trkpt>
      <trkpt lat="47.23077" lon="-0.02467">
        <ele>53</ele>
        <time>2016-04-20T09:44:51Z</time>
      </trkpt>
      <trkpt lat="47.23079" lon="-0.02484">
        <ele>53</ele>
        <time>2016-04-20T09:45:02Z</time>
      </trkpt>
      <trkpt lat="47.23082" lon="-0.02504">
        <ele>54</ele>
        <time>2016-04-20T09:45:15Z</time>
      </trkpt>
      <trkpt lat="47.23072" lon="-0.02518">
        <ele>55</ele>
        <time>2016-04-20T09:45:28Z</time>
      </trkpt>
      <trkpt lat="47.23065" lon="-0.02523">
        <ele>54</ele>
        <time>2016-04-20T09:45:35Z</time>
      </trkpt>
      <trkpt lat="47.23059" lon="-0.02538">
        <ele>56</ele>
        <time>2016-04-20T09:45:48Z</time>
      </trkpt>
      <trkpt lat="47.23059" lon="-0.02542">
        <ele>59</ele>
        <time>2016-04-20T09:45:57Z</time>
      </trkpt>
      <trkpt lat="47.23065" lon="-0.02559">
        <ele>60</ele>
        <time>2016-04-20T09:46:09Z</time>
      </trkpt>
      <trkpt lat="47.23069" lon="-0.02569">
        <ele>57</ele>
        <time>2016-04-20T09:46:19Z</time>
      </trkpt>
      <trkpt lat="47.23074" lon="-0.02584">
        <ele>56</ele>
        <time>2016-04-20T09:46:30Z</time>
      </trkpt>
      <trkpt lat="47.2308" lon="-0.02601">
        <ele>57</ele>
        <time>2016-04-20T09:46:42Z</time>
      </trkpt>
      <trkpt lat="47.23078" lon="-0.02615">
        <ele>60</ele>
        <time>2016-04-20T09:46:52Z</time>
      </trkpt>
      <trkpt lat="47.23066" lon="-0.0262">
        <ele>61</ele>
        <time>2016-04-20T09:47:03Z</time>
      </trkpt>
      <trkpt lat="47.23055" lon="-0.02631">
        <ele>64</ele>
        <time>2016-04-20T09:47:14Z</time>
      </trkpt>
      <trkpt lat="47.2304" lon="-0.02643">
        <ele>61</ele>
        <time>2016-04-20T09:47:28Z</time>
      </trkpt>
      <trkpt lat="47.23028" lon="-0.02652">
        <ele>67</ele>
        <time>2016-04-20T09:47:38Z</time>
      </trkpt>
      <trkpt lat="47.23018" lon="-0.02661">
        <ele>63</ele>
        <time>2016-04-20T09:47:49Z</time>
      </trkpt>
      <trkpt lat="47.23002" lon="-0.02673">
        <ele>64</ele>
        <time>2016-04-20T09:48:04Z</time>
      </trkpt>
      <trkpt lat="47.22994" lon="-0.02681">
        <ele>61</ele>
        <time>2016-04-20T09:48:13Z</time>
      </trkpt>
      <trkpt lat="47.22983" lon="-0.0269">
        <ele>62</ele>
        <time>2016-04-20T09:48:23Z</time>
      </trkpt>
      <trkpt lat="47.22979" lon="-0.027">
        <ele>66</ele>
        <time>2016-04-20T09:48:31Z</time>
      </trkpt>
      <trkpt lat="47.22973" lon="-0.02724">
        <ele>66</ele>
        <time>2016-04-20T09:48:46Z</time>
      </trkpt>
      <trkpt lat="47.22974" lon="-0.02738">
        <ele>70</ele>
        <time>2016-04-20T09:48:56Z</time>
      </trkpt>
      <trkpt lat="47.22973" lon="-0.02745">
        <ele>70</ele>
        <time>2016-04-20T09:49:04Z</time>
      </trkpt>
      <trkpt lat="47.22974" lon="-0.02746">
        <ele>70</ele>
        <time>2016-04-20T09:49:15Z</time>
      </trkpt>
      <trkpt lat="47.22974" lon="-0.02746">
        <ele>70</ele>
        <time>2016-04-20T09:49:18Z</time>
      </trkpt>
      <trkpt lat="47.22974" lon="-0.02746">
        <ele>70</ele>
        <time>2016-04-20T09:49:21Z</time>
      </trkpt>
      <trkpt lat="47.22974" lon="-0.02744">
        <ele>72</ele>
        <time>2016-04-20T09:49:24Z</time>
      </trkpt>
      <trkpt lat="47.22975" lon="-0.02742">
        <ele>72</ele>
        <time>2016-04-20T09:49:35Z</time>
      </trkpt>
      <trkpt lat="47.22975" lon="-0.02742">
        <ele>72</ele>
        <time>2016-04-20T09:49:38Z</time>
      </trkpt>
      <trkpt lat="47.22973" lon="-0.02742">
        <ele>73</ele>
        <time>2016-04-20T09:49:43Z</time>
      </trkpt>
      <trkpt lat="47.22974" lon="-0.02743">
        <ele>76</ele>
        <time>2016-04-20T09:49:52Z</time>
      </trkpt>
      <trkpt lat="47.22974" lon="-0.02743">
        <ele>76</ele>
        <time>2016-04-20T09:49:57Z</time>
      </trkpt>
      <trkpt lat="47.22974" lon="-0.02744">
        <ele>76</ele>
        <time>2016-04-20T09:49:58Z</time>
      </trkpt>
      <trkpt lat="47.22974" lon="-0.02744">
        <ele>75</ele>
        <time>2016-04-20T09:50:02Z</time>
      </trkpt>
      <trkpt lat="47.22973" lon="-0.02744">
        <ele>75</ele>
        <time>2016-04-20T09:50:06Z</time>
      </trkpt>
      <trkpt lat="47.22974" lon="-0.02744">
        <ele>73</ele>
        <time>2016-04-20T09:50:11Z</time>
      </trkpt>
      <trkpt lat="47.22974" lon="-0.02744">
        <ele>72</ele>
        <time>2016-04-20T09:50:13Z</time>
      </trkpt>
      <trkpt lat="47.22974" lon="-0.02744">
        <ele>72</ele>
        <time>2016-04-20T09:50:16Z</time>
      </trkpt>
      <trkpt lat="47.22974" lon="-0.02744">
        <ele>71</ele>
        <time>2016-04-20T09:50:20Z</time>
      </trkpt>
      <trkpt lat="47.22974" lon="-0.02743">
        <ele>72</ele>
        <time>2016-04-20T09:50:28Z</time>
      </trkpt>
      <trkpt lat="47.22975" lon="-0.02743">
        <ele>73</ele>
        <time>2016-04-20T09:50:34Z</time>
      </trkpt>
      <trkpt lat="47.22975" lon="-0.02743">
        <ele>73</ele>
        <time>2016-04-20T09:50:37Z</time>
      </trkpt>
      <trkpt lat="47.22975" lon="-0.02743">
        <ele>73</ele>
        <time>2016-04-20T09:50:40Z</time>
      </trkpt>
      <trkpt lat="47.22975" lon="-0.02743">
        <ele>73</ele>
        <time>2016-04-20T09:50:43Z</time>
      </trkpt>
      <trkpt lat="47.22974" lon="-0.02744">
        <ele>72</ele>
        <time>2016-04-20T09:50:51Z</time>
      </trkpt>
      <trkpt lat="47.22974" lon="-0.02744">
        <ele>71</ele>
        <time>2016-04-20T09:50:52Z</time>
      </trkpt>
      <trkpt lat="47.22974" lon="-0.02744">
        <ele>72</ele>
        <time>2016-04-20T09:50:55Z</time>
      </trkpt>
      <trkpt lat="47.22974" lon="-0.02744">
        <ele>72</ele>
        <time>2016-04-20T09:50:58Z</time>
      </trkpt>
      <trkpt lat="47.22974" lon="-0.02744">
        <ele>72</ele>
        <time>2016-04-20T09:51:01Z</time>
      </trkpt>
      <trkpt lat="47.22974" lon="-0.02744">
        <ele>72</ele>
        <time>2016-04-20T09:51:04Z</time>
      </trkpt>
      <trkpt lat="47.22974" lon="-0.02744">
        <ele>72</ele>
        <time>2016-04-20T09:51:07Z</time>
      </trkpt>
      <trkpt lat="47.22974" lon="-0.02744">
        <ele>72</ele>
        <time>2016-04-20T09:51:10Z</time>
      </trkpt>
      <trkpt lat="47.22974" lon="-0.02744">
        <ele>72</ele>
        <time>2016-04-20T09:51:13Z</time>
      </trkpt>
      <trkpt lat="47.22974" lon="-0.02744">
        <ele>72</ele>
        <time>2016-04-20T09:51:16Z</time>
      </trkpt>
      <trkpt lat="47.22974" lon="-0.02744">
        <ele>72</ele>
        <time>2016-04-20T09:51:19Z</time>
      </trkpt>
      <trkpt lat="47.22974" lon="-0.02744">
        <ele>72</ele>
        <time>2016-04-20T09:51:22Z</time>
      </trkpt>
      <trkpt lat="47.22974" lon="-0.02744">
        <ele>72</ele>
        <time>2016-04-20T09:51:25Z</time>
      </trkpt>
      <trkpt lat="47.22974" lon="-0.02744">
        <ele>72</ele>
        <time>2016-04-20T09:51:28Z</time>
      </trkpt>
      <trkpt lat="47.22974" lon="-0.02744">
        <ele>72</ele>
        <time>2016-04-20T09:51:31Z</time>
      </trkpt>
      <trkpt lat="47.22974" lon="-0.02745">
        <ele>73</ele>
        <time>2016-04-20T09:51:37Z</time>
      </trkpt>
      <trkpt lat="47.22975" lon="-0.02745">
        <ele>73</ele>
        <time>2016-04-20T09:51:40Z</time>
      </trkpt>
      <trkpt lat="47.22975" lon="-0.02745">
        <ele>73</ele>
        <time>2016-04-20T09:51:43Z</time>
      </trkpt>
      <trkpt lat="47.22975" lon="-0.02745">
        <ele>73</ele>
        <time>2016-04-20T09:51:46Z</time>
      </trkpt>
      <trkpt lat="47.22975" lon="-0.02745">
        <ele>73</ele>
        <time>2016-04-20T09:51:49Z</time>
      </trkpt>
      <trkpt lat="47.22975" lon="-0.02745">
        <ele>73</ele>
        <time>2016-04-20T09:51:52Z</time>
      </trkpt>
      <trkpt lat="47.22975" lon="-0.02745">
        <ele>73</ele>
        <time>2016-04-20T09:51:55Z</time>
      </trkpt>
      <trkpt lat="47.22975" lon="-0.02745">
        <ele>73</ele>
        <time>2016-04-20T09:51:59Z</time>
      </trkpt>
      <trkpt lat="47.22975" lon="-0.02745">
        <ele>73</ele>
        <time>2016-04-20T09:52:01Z</time>
      </trkpt>
      <trkpt lat="47.22975" lon="-0.02746">
        <ele>73</ele>
        <time>2016-04-20T09:52:06Z</time>
      </trkpt>
      <trkpt lat="47.22975" lon="-0.02746">
        <ele>73</ele>
        <time>2016-04-20T09:52:07Z</time>
      </trkpt>
      <trkpt lat="47.22979" lon="-0.0276">
        <ele>73</ele>
        <time>2016-04-20T09:52:18Z</time>
      </trkpt>
      <trkpt lat="47.2298" lon="-0.0278">
        <ele>73</ele>
        <time>2016-04-20T09:52:31Z</time>
      </trkpt>
      <trkpt lat="47.22977" lon="-0.02804">
        <ele>73</ele>
        <time>2016-04-20T09:52:50Z</time>
      </trkpt>
      <trkpt lat="47.22977" lon="-0.02805">
        <ele>72</ele>
        <time>2016-04-20T09:52:51Z</time>
      </trkpt>
      <trkpt lat="47.22973" lon="-0.02824">
        <ele>77</ele>
        <time>2016-04-20T09:53:04Z</time>
      </trkpt>
      <trkpt lat="47.22956" lon="-0.02823">
        <ele>80</ele>
        <time>2016-04-20T09:53:19Z</time>
      </trkpt>
      <trkpt lat="47.22952" lon="-0.02818">
        <ele>78</ele>
        <time>2016-04-20T09:53:24Z</time>
      </trkpt>
      <trkpt lat="47.22946" lon="-0.02801">
        <ele>81</ele>
        <time>2016-04-20T09:53:38Z</time>
      </trkpt>
      <trkpt lat="47.22939" lon="-0.02786">
        <ele>84</ele>
        <time>2016-04-20T09:53:51Z</time>
      </trkpt>
      <trkpt lat="47.22925" lon="-0.02779">
        <ele>88</ele>
        <time>2016-04-20T09:54:01Z</time>
      </trkpt>
      <trkpt lat="47.22921" lon="-0.02777">
        <ele>89</ele>
        <time>2016-04-20T09:54:08Z</time>
      </trkpt>
      <trkpt lat="47.22909" lon="-0.02788">
        <ele>84</ele>
        <time>2016-04-20T09:54:20Z</time>
      </trkpt>
      <trkpt lat="47.22898" lon="-0.02792">
        <ele>91</ele>
        <time>2016-04-20T09:54:30Z</time>
      </trkpt>
      <trkpt lat="47.22879" lon="-0.02794">
        <ele>93</ele>
        <time>2016-04-20T09:54:41Z</time>
      </trkpt>
      <trkpt lat="47.2287" lon="-0.02796">
        <ele>94</ele>
        <time>2016-04-20T09:55:02Z</time>
      </trkpt>
      <trkpt lat="47.22869" lon="-0.02795">
        <ele>97</ele>
        <time>2016-04-20T09:55:11Z</time>
      </trkpt>
      <trkpt lat="47.22869" lon="-0.02795">
        <ele>97</ele>
        <time>2016-04-20T09:55:13Z</time>
      </trkpt>
      <trkpt lat="47.22869" lon="-0.02795">
        <ele>97</ele>
        <time>2016-04-20T09:55:15Z</time>
      </trkpt>
      <trkpt lat="47.22866" lon="-0.02796">
        <ele>93</ele>
        <time>2016-04-20T09:55:23Z</time>
      </trkpt>
      <trkpt lat="47.22867" lon="-0.02795">
        <ele>89</ele>
        <time>2016-04-20T09:55:31Z</time>
      </trkpt>
      <trkpt lat="47.22867" lon="-0.02795">
        <ele>90</ele>
        <time>2016-04-20T09:55:32Z</time>
      </trkpt>
      <trkpt lat="47.22867" lon="-0.02797">
        <ele>89</ele>
        <time>2016-04-20T09:55:43Z</time>
      </trkpt>
      <trkpt lat="47.22867" lon="-0.02797">
        <ele>90</ele>
        <time>2016-04-20T09:55:46Z</time>
      </trkpt>
      <trkpt lat="47.22867" lon="-0.02797">
        <ele>91</ele>
        <time>2016-04-20T09:55:49Z</time>
      </trkpt>
      <trkpt lat="47.22867" lon="-0.02797">
        <ele>91</ele>
        <time>2016-04-20T09:55:52Z</time>
      </trkpt>
      <trkpt lat="47.22867" lon="-0.02797">
        <ele>91</ele>
        <time>2016-04-20T09:55:55Z</time>
      </trkpt>
      <trkpt lat="47.22867" lon="-0.02797">
        <ele>91</ele>
        <time>2016-04-20T09:55:58Z</time>
      </trkpt>
      <trkpt lat="47.22867" lon="-0.02797">
        <ele>90</ele>
        <time>2016-04-20T09:56:01Z</time>
      </trkpt>
      <trkpt lat="47.22867" lon="-0.02797">
        <ele>91</ele>
        <time>2016-04-20T09:56:04Z</time>
      </trkpt>
      <trkpt lat="47.22867" lon="-0.02797">
        <ele>90</ele>
        <time>2016-04-20T09:56:07Z</time>
      </trkpt>
      <trkpt lat="47.22868" lon="-0.02798">
        <ele>89</ele>
        <time>2016-04-20T09:56:11Z</time>
      </trkpt>
      <trkpt lat="47.22868" lon="-0.02798">
        <ele>89</ele>
        <time>2016-04-20T09:56:22Z</time>
      </trkpt>
      <trkpt lat="47.22867" lon="-0.02798">
        <ele>89</ele>
        <time>2016-04-20T09:56:27Z</time>
      </trkpt>
      <trkpt lat="47.22868" lon="-0.02796">
        <ele>90</ele>
        <time>2016-04-20T09:56:36Z</time>
      </trkpt>
      <trkpt lat="47.22867" lon="-0.02796">
        <ele>90</ele>
        <time>2016-04-20T09:56:40Z</time>
      </trkpt>
      <trkpt lat="47.22867" lon="-0.02796">
        <ele>90</ele>
        <time>2016-04-20T09:56:42Z</time>
      </trkpt>
      <trkpt lat="47.22867" lon="-0.02796">
        <ele>90</ele>
        <time>2016-04-20T09:56:46Z</time>
      </trkpt>
      <trkpt lat="47.22867" lon="-0.02796">
        <ele>90</ele>
        <time>2016-04-20T09:56:48Z</time>
      </trkpt>
      <trkpt lat="47.22867" lon="-0.02796">
        <ele>90</ele>
        <time>2016-04-20T09:56:52Z</time>
      </trkpt>
      <trkpt lat="47.22867" lon="-0.02796">
        <ele>90</ele>
        <time>2016-04-20T09:56:54Z</time>
      </trkpt>
      <trkpt lat="47.22867" lon="-0.02796">
        <ele>90</ele>
        <time>2016-04-20T09:56:58Z</time>
      </trkpt>
      <trkpt lat="47.22867" lon="-0.02796">
        <ele>90</ele>
        <time>2016-04-20T09:57:00Z</time>
      </trkpt>
      <trkpt lat="47.22867" lon="-0.02796">
        <ele>90</ele>
        <time>2016-04-20T09:57:03Z</time>
      </trkpt>
      <trkpt lat="47.22867" lon="-0.02796">
        <ele>90</ele>
        <time>2016-04-20T09:57:07Z</time>
      </trkpt>
      <trkpt lat="47.22867" lon="-0.02796">
        <ele>90</ele>
        <time>2016-04-20T09:57:10Z</time>
      </trkpt>
      <trkpt lat="47.22867" lon="-0.02796">
        <ele>90</ele>
        <time>2016-04-20T09:57:12Z</time>
      </trkpt>
      <trkpt lat="47.22867" lon="-0.02796">
        <ele>90</ele>
        <time>2016-04-20T09:57:15Z</time>
      </trkpt>
      <trkpt lat="47.22867" lon="-0.02796">
        <ele>90</ele>
        <time>2016-04-20T09:57:18Z</time>
      </trkpt>
      <trkpt lat="47.22867" lon="-0.02796">
        <ele>90</ele>
        <time>2016-04-20T09:57:21Z</time>
      </trkpt>
      <trkpt lat="47.22867" lon="-0.02796">
        <ele>90</ele>
        <time>2016-04-20T09:57:24Z</time>
      </trkpt>
      <trkpt lat="47.22867" lon="-0.02796">
        <ele>91</ele>
        <time>2016-04-20T09:57:27Z</time>
      </trkpt>
      <trkpt lat="47.22868" lon="-0.02797">
        <ele>87</ele>
        <time>2016-04-20T09:57:30Z</time>
      </trkpt>
      <trkpt lat="47.22869" lon="-0.028">
        <ele>87</ele>
        <time>2016-04-20T09:57:44Z</time>
      </trkpt>
      <trkpt lat="47.22869" lon="-0.028">
        <ele>87</ele>
        <time>2016-04-20T09:57:48Z</time>
      </trkpt>
      <trkpt lat="47.22869" lon="-0.028">
        <ele>87</ele>
        <time>2016-04-20T09:57:50Z</time>
      </trkpt>
      <trkpt lat="47.22869" lon="-0.028">
        <ele>87</ele>
        <time>2016-04-20T09:57:53Z</time>
      </trkpt>
      <trkpt lat="47.22869" lon="-0.028">
        <ele>87</ele>
        <time>2016-04-20T09:57:56Z</time>
      </trkpt>
      <trkpt lat="47.22869" lon="-0.028">
        <ele>87</ele>
        <time>2016-04-20T09:57:59Z</time>
      </trkpt>
      <trkpt lat="47.22868" lon="-0.028">
        <ele>89</ele>
        <time>2016-04-20T09:58:04Z</time>
      </trkpt>
      <trkpt lat="47.22866" lon="-0.02804">
        <ele>90</ele>
        <time>2016-04-20T09:58:13Z</time>
      </trkpt>
      <trkpt lat="47.22866" lon="-0.02804">
        <ele>90</ele>
        <time>2016-04-20T09:58:26Z</time>
      </trkpt>
      <trkpt lat="47.22866" lon="-0.02804">
        <ele>90</ele>
        <time>2016-04-20T09:58:27Z</time>
      </trkpt>
      <trkpt lat="47.22866" lon="-0.02804">
        <ele>90</ele>
        <time>2016-04-20T09:58:31Z</time>
      </trkpt>
      <trkpt lat="47.22866" lon="-0.02804">
        <ele>90</ele>
        <time>2016-04-20T09:58:33Z</time>
      </trkpt>
      <trkpt lat="47.22867" lon="-0.02803">
        <ele>90</ele>
        <time>2016-04-20T09:58:36Z</time>
      </trkpt>
      <trkpt lat="47.22869" lon="-0.02796">
        <ele>93</ele>
        <time>2016-04-20T09:58:55Z</time>
      </trkpt>
      <trkpt lat="47.22869" lon="-0.02796">
        <ele>93</ele>
        <time>2016-04-20T09:58:58Z</time>
      </trkpt>
      <trkpt lat="47.22869" lon="-0.02796">
        <ele>93</ele>
        <time>2016-04-20T09:59:01Z</time>
      </trkpt>
      <trkpt lat="47.22869" lon="-0.02796">
        <ele>93</ele>
        <time>2016-04-20T09:59:04Z</time>
      </trkpt>
      <trkpt lat="47.22869" lon="-0.02796">
        <ele>93</ele>
        <time>2016-04-20T09:59:07Z</time>
      </trkpt>
      <trkpt lat="47.22869" lon="-0.02796">
        <ele>93</ele>
        <time>2016-04-20T09:59:12Z</time>
      </trkpt>
      <trkpt lat="47.22869" lon="-0.02796">
        <ele>93</ele>
        <time>2016-04-20T09:59:13Z</time>
      </trkpt>
      <trkpt lat="47.22869" lon="-0.02796">
        <ele>93</ele>
        <time>2016-04-20T09:59:17Z</time>
      </trkpt>
      <trkpt lat="47.22869" lon="-0.02796">
        <ele>93</ele>
        <time>2016-04-20T09:59:19Z</time>
      </trkpt>
      <trkpt lat="47.22869" lon="-0.02796">
        <ele>93</ele>
        <time>2016-04-20T09:59:23Z</time>
      </trkpt>
      <trkpt lat="47.22869" lon="-0.02796">
        <ele>93</ele>
        <time>2016-04-20T09:59:27Z</time>
      </trkpt>
      <trkpt lat="47.22869" lon="-0.02796">
        <ele>93</ele>
        <time>2016-04-20T09:59:28Z</time>
      </trkpt>
      <trkpt lat="47.22869" lon="-0.02795">
        <ele>94</ele>
        <time>2016-04-20T09:59:31Z</time>
      </trkpt>
      <trkpt lat="47.22869" lon="-0.02795">
        <ele>94</ele>
        <time>2016-04-20T09:59:34Z</time>
      </trkpt>
      <trkpt lat="47.22869" lon="-0.02795">
        <ele>94</ele>
        <time>2016-04-20T09:59:38Z</time>
      </trkpt>
      <trkpt lat="47.22869" lon="-0.02795">
        <ele>94</ele>
        <time>2016-04-20T09:59:40Z</time>
      </trkpt>
      <trkpt lat="47.22869" lon="-0.02795">
        <ele>94</ele>
        <time>2016-04-20T09:59:43Z</time>
      </trkpt>
      <trkpt lat="47.22869" lon="-0.02795">
        <ele>94</ele>
        <time>2016-04-20T09:59:46Z</time>
      </trkpt>
      <trkpt lat="47.22869" lon="-0.02795">
        <ele>94</ele>
        <time>2016-04-20T09:59:49Z</time>
      </trkpt>
      <trkpt lat="47.22869" lon="-0.02795">
        <ele>94</ele>
        <time>2016-04-20T09:59:52Z</time>
      </trkpt>
      <trkpt lat="47.22869" lon="-0.02795">
        <ele>94</ele>
        <time>2016-04-20T09:59:55Z</time>
      </trkpt>
      <trkpt lat="47.22869" lon="-0.02795">
        <ele>94</ele>
        <time>2016-04-20T09:59:58Z</time>
      </trkpt>
      <trkpt lat="47.22869" lon="-0.02795">
        <ele>94</ele>
        <time>2016-04-20T10:00:03Z</time>
      </trkpt>
      <trkpt lat="47.22869" lon="-0.02795">
        <ele>94</ele>
        <time>2016-04-20T10:00:04Z</time>
      </trkpt>
      <trkpt lat="47.22868" lon="-0.02793">
        <ele>95</ele>
        <time>2016-04-20T10:00:07Z</time>
      </trkpt>
      <trkpt lat="47.22859" lon="-0.02767">
        <ele>86</ele>
        <time>2016-04-20T10:00:18Z</time>
      </trkpt>
      <trkpt lat="47.22853" lon="-0.02749">
        <ele>82</ele>
        <time>2016-04-20T10:00:29Z</time>
      </trkpt>
      <trkpt lat="47.22844" lon="-0.02732">
        <ele>76</ele>
        <time>2016-04-20T10:00:40Z</time>
      </trkpt>
      <trkpt lat="47.22833" lon="-0.02715">
        <ele>72</ele>
        <time>2016-04-20T10:00:56Z</time>
      </trkpt>
      <trkpt lat="47.22829" lon="-0.02704">
        <ele>73</ele>
        <time>2016-04-20T10:01:02Z</time>
      </trkpt>
      <trkpt lat="47.2282" lon="-0.02683">
        <ele>79</ele>
        <time>2016-04-20T10:01:13Z</time>
      </trkpt>
      <trkpt lat="47.22813" lon="-0.02661">
        <ele>84</ele>
        <time>2016-04-20T10:01:24Z</time>
      </trkpt>
      <trkpt lat="47.22801" lon="-0.02629">
        <ele>90</ele>
        <time>2016-04-20T10:01:41Z</time>
      </trkpt>
      <trkpt lat="47.22798" lon="-0.02623">
        <ele>86</ele>
        <time>2016-04-20T10:01:46Z</time>
      </trkpt>
      <trkpt lat="47.22788" lon="-0.02597">
        <ele>84</ele>
        <time>2016-04-20T10:02:03Z</time>
      </trkpt>
      <trkpt lat="47.22785" lon="-0.02591">
        <ele>82</ele>
        <time>2016-04-20T10:02:09Z</time>
      </trkpt>
      <trkpt lat="47.2278" lon="-0.02579">
        <ele>88</ele>
        <time>2016-04-20T10:02:19Z</time>
      </trkpt>
      <trkpt lat="47.22761" lon="-0.02559">
        <ele>87</ele>
        <time>2016-04-20T10:02:37Z</time>
      </trkpt>
      <trkpt lat="47.22753" lon="-0.02551">
        <ele>86</ele>
        <time>2016-04-20T10:02:44Z</time>
      </trkpt>
      <trkpt lat="47.22744" lon="-0.02538">
        <ele>82</ele>
        <time>2016-04-20T10:02:52Z</time>
      </trkpt>
      <trkpt lat="47.22736" lon="-0.02524">
        <ele>84</ele>
        <time>2016-04-20T10:03:03Z</time>
      </trkpt>
      <trkpt lat="47.22724" lon="-0.02495">
        <ele>91</ele>
        <time>2016-04-20T10:03:24Z</time>
      </trkpt>
      <trkpt lat="47.22723" lon="-0.02493">
        <ele>91</ele>
        <time>2016-04-20T10:03:26Z</time>
      </trkpt>
      <trkpt lat="47.22702" lon="-0.02489">
        <ele>86</ele>
        <time>2016-04-20T10:03:40Z</time>
      </trkpt>
      <trkpt lat="47.2269" lon="-0.02488">
        <ele>85</ele>
        <time>2016-04-20T10:03:52Z</time>
      </trkpt>
      <trkpt lat="47.22682" lon="-0.02484">
        <ele>84</ele>
        <time>2016-04-20T10:04:00Z</time>
      </trkpt>
      <trkpt lat="47.22662" lon="-0.02471">
        <ele>84</ele>
        <time>2016-04-20T10:04:19Z</time>
      </trkpt>
      <trkpt lat="47.22661" lon="-0.02471">
        <ele>84</ele>
        <time>2016-04-20T10:04:20Z</time>
      </trkpt>
      <trkpt lat="47.22649" lon="-0.02463">
        <ele>87</ele>
        <time>2016-04-20T10:04:32Z</time>
      </trkpt>
      <trkpt lat="47.22637" lon="-0.02453">
        <ele>87</ele>
        <time>2016-04-20T10:04:42Z</time>
      </trkpt>
      <trkpt lat="47.22622" lon="-0.02442">
        <ele>87</ele>
        <time>2016-04-20T10:04:54Z</time>
      </trkpt>
      <trkpt lat="47.22612" lon="-0.02434">
        <ele>91</ele>
        <time>2016-04-20T10:05:11Z</time>
      </trkpt>
      <trkpt lat="47.22612" lon="-0.02434">
        <ele>91</ele>
        <time>2016-04-20T10:05:15Z</time>
      </trkpt>
      <trkpt lat="47.22612" lon="-0.02434">
        <ele>91</ele>
        <time>2016-04-20T10:05:19Z</time>
      </trkpt>
      <trkpt lat="47.22612" lon="-0.02434">
        <ele>91</ele>
        <time>2016-04-20T10:05:23Z</time>
      </trkpt>
      <trkpt lat="47.22612" lon="-0.02434">
        <ele>91</ele>
        <time>2016-04-20T10:05:26Z</time>
      </trkpt>
      <trkpt lat="47.22612" lon="-0.02434">
        <ele>91</ele>
        <time>2016-04-20T10:05:29Z</time>
      </trkpt>
      <trkpt lat="47.22612" lon="-0.02434">
        <ele>91</ele>
        <time>2016-04-20T10:05:31Z</time>
      </trkpt>
      <trkpt lat="47.22612" lon="-0.02434">
        <ele>91</ele>
        <time>2016-04-20T10:05:34Z</time>
      </trkpt>
      <trkpt lat="47.22612" lon="-0.02434">
        <ele>91</ele>
        <time>2016-04-20T10:05:37Z</time>
      </trkpt>
      <trkpt lat="47.22611" lon="-0.02434">
        <ele>91</ele>
        <time>2016-04-20T10:05:41Z</time>
      </trkpt>
      <trkpt lat="47.22611" lon="-0.02434">
        <ele>90</ele>
        <time>2016-04-20T10:05:42Z</time>
      </trkpt>
      <trkpt lat="47.2259" lon="-0.02418">
        <ele>84</ele>
        <time>2016-04-20T10:06:03Z</time>
      </trkpt>
      <trkpt lat="47.22587" lon="-0.02414">
        <ele>86</ele>
        <time>2016-04-20T10:06:07Z</time>
      </trkpt>
      <trkpt lat="47.22575" lon="-0.02403">
        <ele>88</ele>
        <time>2016-04-20T10:06:17Z</time>
      </trkpt>
      <trkpt lat="47.22561" lon="-0.02388">
        <ele>83</ele>
        <time>2016-04-20T10:06:30Z</time>
      </trkpt>
      <trkpt lat="47.22545" lon="-0.02374">
        <ele>89</ele>
        <time>2016-04-20T10:06:45Z</time>
      </trkpt>
      <trkpt lat="47.22542" lon="-0.02371">
        <ele>88</ele>
        <time>2016-04-20T10:06:48Z</time>
      </trkpt>
      <trkpt lat="47.22529" lon="-0.02363">
        <ele>84</ele>
        <time>2016-04-20T10:06:59Z</time>
      </trkpt>
      <trkpt lat="47.22512" lon="-0.02354">
        <ele>89</ele>
        <time>2016-04-20T10:07:13Z</time>
      </trkpt>
      <trkpt lat="47.22503" lon="-0.02347">
        <ele>86</ele>
        <time>2016-04-20T10:07:21Z</time>
      </trkpt>
      <trkpt lat="47.22482" lon="-0.02337">
        <ele>85</ele>
        <time>2016-04-20T10:07:37Z</time>
      </trkpt>
      <trkpt lat="47.22466" lon="-0.02332">
        <ele>84</ele>
        <time>2016-04-20T10:07:53Z</time>
      </trkpt>
      <trkpt lat="47.22457" lon="-0.02327">
        <ele>81</ele>
        <time>2016-04-20T10:08:00Z</time>
      </trkpt>
      <trkpt lat="47.2245" lon="-0.02323">
        <ele>82</ele>
        <time>2016-04-20T10:08:05Z</time>
      </trkpt>
      <trkpt lat="47.22427" lon="-0.02312">
        <ele>80</ele>
        <time>2016-04-20T10:08:24Z</time>
      </trkpt>
      <trkpt lat="47.22424" lon="-0.02311">
        <ele>81</ele>
        <time>2016-04-20T10:08:27Z</time>
      </trkpt>
      <trkpt lat="47.22406" lon="-0.023">
        <ele>81</ele>
        <time>2016-04-20T10:08:42Z</time>
      </trkpt>
      <trkpt lat="47.22398" lon="-0.02295">
        <ele>78</ele>
        <time>2016-04-20T10:08:49Z</time>
      </trkpt>
      <trkpt lat="47.22382" lon="-0.02286">
        <ele>75</ele>
        <time>2016-04-20T10:09:03Z</time>
      </trkpt>
      <trkpt lat="47.22373" lon="-0.02282">
        <ele>76</ele>
        <time>2016-04-20T10:09:11Z</time>
      </trkpt>
      <trkpt lat="47.22361" lon="-0.02276">
        <ele>72</ele>
        <time>2016-04-20T10:09:22Z</time>
      </trkpt>
      <trkpt lat="47.22342" lon="-0.0227">
        <ele>75</ele>
        <time>2016-04-20T10:09:34Z</time>
      </trkpt>
      <trkpt lat="47.22324" lon="-0.02258">
        <ele>78</ele>
        <time>2016-04-20T10:09:47Z</time>
      </trkpt>
      <trkpt lat="47.22309" lon="-0.02246">
        <ele>82</ele>
        <time>2016-04-20T10:09:59Z</time>
      </trkpt>
      <trkpt lat="47.22299" lon="-0.02245">
        <ele>83</ele>
        <time>2016-04-20T10:10:07Z</time>
      </trkpt>
      <trkpt lat="47.22273" lon="-0.02233">
        <ele>87</ele>
        <time>2016-04-20T10:10:26Z</time>
      </trkpt>
      <trkpt lat="47.2227" lon="-0.02231">
        <ele>87</ele>
        <time>2016-04-20T10:10:28Z</time>
      </trkpt>
      <trkpt lat="47.22256" lon="-0.02226">
        <ele>89</ele>
        <time>2016-04-20T10:10:40Z</time>
      </trkpt>
      <trkpt lat="47.22241" lon="-0.02222">
        <ele>89</ele>
        <time>2016-04-20T10:10:52Z</time>
      </trkpt>
      <trkpt lat="47.22231" lon="-0.02216">
        <ele>87</ele>
        <time>2016-04-20T10:11:01Z</time>
      </trkpt>
      <trkpt lat="47.22221" lon="-0.02211">
        <ele>83</ele>
        <time>2016-04-20T10:11:12Z</time>
      </trkpt>
      <trkpt lat="47.222" lon="-0.02203">
        <ele>84</ele>
        <time>2016-04-20T10:11:28Z</time>
      </trkpt>
      <trkpt lat="47.22192" lon="-0.02201">
        <ele>83</ele>
        <time>2016-04-20T10:11:34Z</time>
      </trkpt>
      <trkpt lat="47.22176" lon="-0.02197">
        <ele>84</ele>
        <time>2016-04-20T10:11:46Z</time>
      </trkpt>
      <trkpt lat="47.22163" lon="-0.02194">
        <ele>85</ele>
        <time>2016-04-20T10:11:56Z</time>
      </trkpt>
      <trkpt lat="47.22145" lon="-0.02192">
        <ele>83</ele>
        <time>2016-04-20T10:12:11Z</time>
      </trkpt>
      <trkpt lat="47.2213" lon="-0.0219">
        <ele>82</ele>
        <time>2016-04-20T10:12:24Z</time>
      </trkpt>
      <trkpt lat="47.22123" lon="-0.0219">
        <ele>82</ele>
        <time>2016-04-20T10:12:29Z</time>
      </trkpt>
      <trkpt lat="47.22111" lon="-0.0219">
        <ele>78</ele>
        <time>2016-04-20T10:12:40Z</time>
      </trkpt>
      <trkpt lat="47.22096" lon="-0.02189">
        <ele>76</ele>
        <time>2016-04-20T10:12:51Z</time>
      </trkpt>
      <trkpt lat="47.22082" lon="-0.02186">
        <ele>74</ele>
        <time>2016-04-20T10:13:02Z</time>
      </trkpt>
      <trkpt lat="47.22069" lon="-0.02185">
        <ele>73</ele>
        <time>2016-04-20T10:13:13Z</time>
      </trkpt>
      <trkpt lat="47.22054" lon="-0.02183">
        <ele>76</ele>
        <time>2016-04-20T10:13:24Z</time>
      </trkpt>
      <trkpt lat="47.22033" lon="-0.02186">
        <ele>78</ele>
        <time>2016-04-20T10:13:41Z</time>
      </trkpt>
      <trkpt lat="47.22027" lon="-0.02186">
        <ele>77</ele>
        <time>2016-04-20T10:13:46Z</time>
      </trkpt>
      <trkpt lat="47.22007" lon="-0.02185">
        <ele>78</ele>
        <time>2016-04-20T10:14:00Z</time>
      </trkpt>
      <trkpt lat="47.21998" lon="-0.02188">
        <ele>76</ele>
        <time>2016-04-20T10:14:08Z</time>
      </trkpt>
      <trkpt lat="47.21975" lon="-0.02189">
        <ele>77</ele>
        <time>2016-04-20T10:14:25Z</time>
      </trkpt>
      <trkpt lat="47.21964" lon="-0.0219">
        <ele>80</ele>
        <time>2016-04-20T10:14:34Z</time>
      </trkpt>
      <trkpt lat="47.21939" lon="-0.02187">
        <ele>83</ele>
        <time>2016-04-20T10:14:51Z</time>
      </trkpt>
      <trkpt lat="47.21935" lon="-0.02187">
        <ele>84</ele>
        <time>2016-04-20T10:14:54Z</time>
      </trkpt>
      <trkpt lat="47.21916" lon="-0.02192">
        <ele>84</ele>
        <time>2016-04-20T10:15:10Z</time>
      </trkpt>
      <trkpt lat="47.21911" lon="-0.02194">
        <ele>84</ele>
        <time>2016-04-20T10:15:14Z</time>
      </trkpt>
      <trkpt lat="47.21893" lon="-0.02196">
        <ele>88</ele>
        <time>2016-04-20T10:15:27Z</time>
      </trkpt>
      <trkpt lat="47.2187" lon="-0.02201">
        <ele>87</ele>
        <time>2016-04-20T10:15:46Z</time>
      </trkpt>
      <trkpt lat="47.21869" lon="-0.02201">
        <ele>87</ele>
        <time>2016-04-20T10:15:47Z</time>
      </trkpt>
      <trkpt lat="47.21856" lon="-0.02206">
        <ele>88</ele>
        <time>2016-04-20T10:15:58Z</time>
      </trkpt>
      <trkpt lat="47.21843" lon="-0.0221">
        <ele>86</ele>
        <time>2016-04-20T10:16:10Z</time>
      </trkpt>
      <trkpt lat="47.21831" lon="-0.02212">
        <ele>86</ele>
        <time>2016-04-20T10:16:20Z</time>
      </trkpt>
      <trkpt lat="47.21816" lon="-0.02215">
        <ele>86</ele>
        <time>2016-04-20T10:16:32Z</time>
      </trkpt>
      <trkpt lat="47.21801" lon="-0.02214">
        <ele>83</ele>
        <time>2016-04-20T10:16:42Z</time>
      </trkpt>
      <trkpt lat="47.21786" lon="-0.02219">
        <ele>86</ele>
        <time>2016-04-20T10:16:53Z</time>
      </trkpt>
      <trkpt lat="47.21772" lon="-0.0222">
        <ele>87</ele>
        <time>2016-04-20T10:17:04Z</time>
      </trkpt>
      <trkpt lat="47.21752" lon="-0.02227">
        <ele>85</ele>
        <time>2016-04-20T10:17:21Z</time>
      </trkpt>
      <trkpt lat="47.21746" lon="-0.02229">
        <ele>85</ele>
        <time>2016-04-20T10:17:26Z</time>
      </trkpt>
      <trkpt lat="47.21723" lon="-0.02224">
        <ele>90</ele>
        <time>2016-04-20T10:17:41Z</time>
      </trkpt>
      <trkpt lat="47.21707" lon="-0.0223">
        <ele>88</ele>
        <time>2016-04-20T10:17:56Z</time>
      </trkpt>
      <trkpt lat="47.21702" lon="-0.0223">
        <ele>85</ele>
        <time>2016-04-20T10:18:00Z</time>
      </trkpt>
      <trkpt lat="47.21689" lon="-0.02228">
        <ele>86</ele>
        <time>2016-04-20T10:18:11Z</time>
      </trkpt>
      <trkpt lat="47.21665" lon="-0.02219">
        <ele>85</ele>
        <time>2016-04-20T10:18:27Z</time>
      </trkpt>
      <trkpt lat="47.21658" lon="-0.02218">
        <ele>84</ele>
        <time>2016-04-20T10:18:33Z</time>
      </trkpt>
      <trkpt lat="47.21643" lon="-0.02219">
        <ele>79</ele>
        <time>2016-04-20T10:18:52Z</time>
      </trkpt>
      <trkpt lat="47.21636" lon="-0.02219">
        <ele>80</ele>
        <time>2016-04-20T10:18:59Z</time>
      </trkpt>
      <trkpt lat="47.21621" lon="-0.02223">
        <ele>83</ele>
        <time>2016-04-20T10:19:13Z</time>
      </trkpt>
      <trkpt lat="47.21621" lon="-0.02223">
        <ele>83</ele>
        <time>2016-04-20T10:19:16Z</time>
      </trkpt>
      <trkpt lat="47.21621" lon="-0.02222">
        <ele>83</ele>
        <time>2016-04-20T10:19:19Z</time>
      </trkpt>
      <trkpt lat="47.21621" lon="-0.02222">
        <ele>83</ele>
        <time>2016-04-20T10:19:22Z</time>
      </trkpt>
      <trkpt lat="47.21622" lon="-0.02221">
        <ele>82</ele>
        <time>2016-04-20T10:19:25Z</time>
      </trkpt>
      <trkpt lat="47.21622" lon="-0.02221">
        <ele>82</ele>
        <time>2016-04-20T10:19:28Z</time>
      </trkpt>
      <trkpt lat="47.21622" lon="-0.02221">
        <ele>82</ele>
        <time>2016-04-20T10:19:31Z</time>
      </trkpt>
      <trkpt lat="47.21622" lon="-0.02221">
        <ele>82</ele>
        <time>2016-04-20T10:19:34Z</time>
      </trkpt>
      <trkpt lat="47.21622" lon="-0.02221">
        <ele>82</ele>
        <time>2016-04-20T10:19:37Z</time>
      </trkpt>
      <trkpt lat="47.21622" lon="-0.02221">
        <ele>82</ele>
        <time>2016-04-20T10:19:40Z</time>
      </trkpt>
      <trkpt lat="47.21622" lon="-0.02221">
        <ele>82</ele>
        <time>2016-04-20T10:19:43Z</time>
      </trkpt>
      <trkpt lat="47.21622" lon="-0.02221">
        <ele>82</ele>
        <time>2016-04-20T10:19:46Z</time>
      </trkpt>
      <trkpt lat="47.21622" lon="-0.02221">
        <ele>82</ele>
        <time>2016-04-20T10:19:49Z</time>
      </trkpt>
      <trkpt lat="47.21622" lon="-0.02221">
        <ele>82</ele>
        <time>2016-04-20T10:19:52Z</time>
      </trkpt>
      <trkpt lat="47.21622" lon="-0.02221">
        <ele>82</ele>
        <time>2016-04-20T10:19:55Z</time>
      </trkpt>
      <trkpt lat="47.21622" lon="-0.02221">
        <ele>82</ele>
        <time>2016-04-20T10:19:58Z</time>
      </trkpt>
      <trkpt lat="47.21622" lon="-0.02221">
        <ele>82</ele>
        <time>2016-04-20T10:20:01Z</time>
      </trkpt>
      <trkpt lat="47.21622" lon="-0.02221">
        <ele>82</ele>
        <time>2016-04-20T10:20:04Z</time>
      </trkpt>
      <trkpt lat="47.21622" lon="-0.02221">
        <ele>82</ele>
        <time>2016-04-20T10:20:07Z</time>
      </trkpt>
      <trkpt lat="47.21622" lon="-0.02221">
        <ele>82</ele>
        <time>2016-04-20T10:20:10Z</time>
      </trkpt>
      <trkpt lat="47.21622" lon="-0.02221">
        <ele>82</ele>
        <time>2016-04-20T10:20:13Z</time>
      </trkpt>
      <trkpt lat="47.21619" lon="-0.02223">
        <ele>80</ele>
        <time>2016-04-20T10:20:17Z</time>
      </trkpt>
      <trkpt lat="47.21611" lon="-0.02231">
        <ele>76</ele>
        <time>2016-04-20T10:20:27Z</time>
      </trkpt>
      <trkpt lat="47.21611" lon="-0.02229">
        <ele>76</ele>
        <time>2016-04-20T10:20:39Z</time>
      </trkpt>
      <trkpt lat="47.21611" lon="-0.02229">
        <ele>76</ele>
        <time>2016-04-20T10:20:43Z</time>
      </trkpt>
      <trkpt lat="47.2161" lon="-0.02229">
        <ele>76</ele>
        <time>2016-04-20T10:20:44Z</time>
      </trkpt>
      <trkpt lat="47.2161" lon="-0.02229">
        <ele>76</ele>
        <time>2016-04-20T10:20:48Z</time>
      </trkpt>
      <trkpt lat="47.2161" lon="-0.02229">
        <ele>76</ele>
        <time>2016-04-20T10:20:51Z</time>
      </trkpt>
      <trkpt lat="47.2161" lon="-0.02229">
        <ele>77</ele>
        <time>2016-04-20T10:20:54Z</time>
      </trkpt>
      <trkpt lat="47.21604" lon="-0.02224">
        <ele>73</ele>
        <time>2016-04-20T10:20:59Z</time>
      </trkpt>
      <trkpt lat="47.2159" lon="-0.02218">
        <ele>71</ele>
        <time>2016-04-20T10:21:07Z</time>
      </trkpt>
      <trkpt lat="47.2157" lon="-0.02208">
        <ele>72</ele>
        <time>2016-04-20T10:21:23Z</time>
      </trkpt>
      <trkpt lat="47.21555" lon="-0.02201">
        <ele>73</ele>
        <time>2016-04-20T10:21:35Z</time>
      </trkpt>
      <trkpt lat="47.21548" lon="-0.02201">
        <ele>74</ele>
        <time>2016-04-20T10:21:40Z</time>
      </trkpt>
      <trkpt lat="47.21518" lon="-0.02196">
        <ele>77</ele>
        <time>2016-04-20T10:22:01Z</time>
      </trkpt>
      <trkpt lat="47.2151" lon="-0.02193">
        <ele>75</ele>
        <time>2016-04-20T10:22:07Z</time>
      </trkpt>
      <trkpt lat="47.21491" lon="-0.02185">
        <ele>77</ele>
        <time>2016-04-20T10:22:20Z</time>
      </trkpt>
      <trkpt lat="47.21483" lon="-0.02184">
        <ele>76</ele>
        <time>2016-04-20T10:22:30Z</time>
      </trkpt>
      <trkpt lat="47.21482" lon="-0.02199">
        <ele>78</ele>
        <time>2016-04-20T10:22:42Z</time>
      </trkpt>
      <trkpt lat="47.21481" lon="-0.02209">
        <ele>78</ele>
        <time>2016-04-20T10:22:47Z</time>
      </trkpt>
      <trkpt lat="47.21479" lon="-0.02228">
        <ele>77</ele>
        <time>2016-04-20T10:22:57Z</time>
      </trkpt>
      <trkpt lat="47.21479" lon="-0.02248">
        <ele>78</ele>
        <time>2016-04-20T10:23:08Z</time>
      </trkpt>
      <trkpt lat="47.21478" lon="-0.02275">
        <ele>77</ele>
        <time>2016-04-20T10:23:29Z</time>
      </trkpt>
      <trkpt lat="47.21478" lon="-0.02277">
        <ele>77</ele>
        <time>2016-04-20T10:23:30Z</time>
      </trkpt>
      <trkpt lat="47.21479" lon="-0.02284">
        <ele>78</ele>
        <time>2016-04-20T10:23:41Z</time>
      </trkpt>
      <trkpt lat="47.2148" lon="-0.02287">
        <ele>78</ele>
        <time>2016-04-20T10:23:52Z</time>
      </trkpt>
      <trkpt lat="47.2148" lon="-0.02286">
        <ele>77</ele>
        <time>2016-04-20T10:23:55Z</time>
      </trkpt>
      <trkpt lat="47.2148" lon="-0.02286">
        <ele>77</ele>
        <time>2016-04-20T10:23:58Z</time>
      </trkpt>
      <trkpt lat="47.2148" lon="-0.02285">
        <ele>78</ele>
        <time>2016-04-20T10:24:02Z</time>
      </trkpt>
      <trkpt lat="47.2148" lon="-0.02285">
        <ele>78</ele>
        <time>2016-04-20T10:24:04Z</time>
      </trkpt>
      <trkpt lat="47.2148" lon="-0.02285">
        <ele>78</ele>
        <time>2016-04-20T10:24:07Z</time>
      </trkpt>
      <trkpt lat="47.2148" lon="-0.02285">
        <ele>78</ele>
        <time>2016-04-20T10:24:10Z</time>
      </trkpt>
      <trkpt lat="47.2148" lon="-0.02285">
        <ele>78</ele>
        <time>2016-04-20T10:24:15Z</time>
      </trkpt>
      <trkpt lat="47.2148" lon="-0.02285">
        <ele>78</ele>
        <time>2016-04-20T10:24:16Z</time>
      </trkpt>
      <trkpt lat="47.2148" lon="-0.02285">
        <ele>78</ele>
        <time>2016-04-20T10:24:19Z</time>
      </trkpt>
      <trkpt lat="47.2148" lon="-0.02285">
        <ele>78</ele>
        <time>2016-04-20T10:24:22Z</time>
      </trkpt>
      <trkpt lat="47.2148" lon="-0.02285">
        <ele>78</ele>
        <time>2016-04-20T10:24:25Z</time>
      </trkpt>
      <trkpt lat="47.2148" lon="-0.02285">
        <ele>78</ele>
        <time>2016-04-20T10:24:28Z</time>
      </trkpt>
      <trkpt lat="47.2148" lon="-0.02285">
        <ele>78</ele>
        <time>2016-04-20T10:24:31Z</time>
      </trkpt>
      <trkpt lat="47.2148" lon="-0.02285">
        <ele>78</ele>
        <time>2016-04-20T10:24:34Z</time>
      </trkpt>
      <trkpt lat="47.2148" lon="-0.02285">
        <ele>78</ele>
        <time>2016-04-20T10:24:37Z</time>
      </trkpt>
      <trkpt lat="47.2148" lon="-0.02285">
        <ele>78</ele>
        <time>2016-04-20T10:24:40Z</time>
      </trkpt>
      <trkpt lat="47.2148" lon="-0.02285">
        <ele>78</ele>
        <time>2016-04-20T10:24:43Z</time>
      </trkpt>
      <trkpt lat="47.2148" lon="-0.02285">
        <ele>78</ele>
        <time>2016-04-20T10:24:47Z</time>
      </trkpt>
      <trkpt lat="47.2148" lon="-0.02285">
        <ele>78</ele>
        <time>2016-04-20T10:24:51Z</time>
      </trkpt>
      <trkpt lat="47.2148" lon="-0.02285">
        <ele>78</ele>
        <time>2016-04-20T10:24:53Z</time>
      </trkpt>
      <trkpt lat="47.2148" lon="-0.02284">
        <ele>77</ele>
        <time>2016-04-20T10:24:57Z</time>
      </trkpt>
      <trkpt lat="47.21479" lon="-0.02283">
        <ele>78</ele>
        <time>2016-04-20T10:24:59Z</time>
      </trkpt>
      <trkpt lat="47.21479" lon="-0.02283">
        <ele>75</ele>
        <time>2016-04-20T10:25:10Z</time>
      </trkpt>
      <trkpt lat="47.21479" lon="-0.02284">
        <ele>75</ele>
        <time>2016-04-20T10:25:13Z</time>
      </trkpt>
      <trkpt lat="47.21479" lon="-0.02284">
        <ele>75</ele>
        <time>2016-04-20T10:25:15Z</time>
      </trkpt>
      <trkpt lat="47.21479" lon="-0.02284">
        <ele>75</ele>
        <time>2016-04-20T10:25:18Z</time>
      </trkpt>
      <trkpt lat="47.21479" lon="-0.02284">
        <ele>75</ele>
        <time>2016-04-20T10:25:21Z</time>
      </trkpt>
      <trkpt lat="47.21479" lon="-0.02284">
        <ele>74</ele>
        <time>2016-04-20T10:25:24Z</time>
      </trkpt>
      <trkpt lat="47.21479" lon="-0.02284">
        <ele>75</ele>
        <time>2016-04-20T10:25:27Z</time>
      </trkpt>
      <trkpt lat="47.21479" lon="-0.02284">
        <ele>75</ele>
        <time>2016-04-20T10:25:30Z</time>
      </trkpt>
      <trkpt lat="47.21479" lon="-0.02283">
        <ele>75</ele>
        <time>2016-04-20T10:25:33Z</time>
      </trkpt>
      <trkpt lat="47.21479" lon="-0.02283">
        <ele>75</ele>
        <time>2016-04-20T10:25:36Z</time>
      </trkpt>
      <trkpt lat="47.21479" lon="-0.02283">
        <ele>75</ele>
        <time>2016-04-20T10:25:39Z</time>
      </trkpt>
      <trkpt lat="47.21479" lon="-0.02283">
        <ele>75</ele>
        <time>2016-04-20T10:25:42Z</time>
      </trkpt>
      <trkpt lat="47.21479" lon="-0.02283">
        <ele>75</ele>
        <time>2016-04-20T10:25:46Z</time>
      </trkpt>
      <trkpt lat="47.21479" lon="-0.02283">
        <ele>75</ele>
        <time>2016-04-20T10:25:50Z</time>
      </trkpt>
      <trkpt lat="47.21479" lon="-0.02283">
        <ele>75</ele>
        <time>2016-04-20T10:25:51Z</time>
      </trkpt>
      <trkpt lat="47.21479" lon="-0.02285">
        <ele>75</ele>
        <time>2016-04-20T10:25:54Z</time>
      </trkpt>
      <trkpt lat="47.21472" lon="-0.02291">
        <ele>75</ele>
        <time>2016-04-20T10:26:05Z</time>
      </trkpt>
      <trkpt lat="47.21466" lon="-0.02297">
        <ele>76</ele>
        <time>2016-04-20T10:26:17Z</time>
      </trkpt>
      <trkpt lat="47.21461" lon="-0.023">
        <ele>72</ele>
        <time>2016-04-20T10:26:27Z</time>
      </trkpt>
      <trkpt lat="47.2145" lon="-0.02301">
        <ele>75</ele>
        <time>2016-04-20T10:26:38Z</time>
      </trkpt>
      <trkpt lat="47.21439" lon="-0.02301">
        <ele>70</ele>
        <time>2016-04-20T10:26:50Z</time>
      </trkpt>
      <trkpt lat="47.21427" lon="-0.02303">
        <ele>69</ele>
        <time>2016-04-20T10:27:02Z</time>
      </trkpt>
      <trkpt lat="47.21415" lon="-0.0229">
        <ele>71</ele>
        <time>2016-04-20T10:27:18Z</time>
      </trkpt>
      <trkpt lat="47.21414" lon="-0.02285">
        <ele>70</ele>
        <time>2016-04-20T10:27:22Z</time>
      </trkpt>
      <trkpt lat="47.21403" lon="-0.02265">
        <ele>74</ele>
        <time>2016-04-20T10:27:43Z</time>
      </trkpt>
      <trkpt lat="47.21403" lon="-0.02264">
        <ele>73</ele>
        <time>2016-04-20T10:27:44Z</time>
      </trkpt>
      <trkpt lat="47.21392" lon="-0.02264">
        <ele>72</ele>
        <time>2016-04-20T10:27:56Z</time>
      </trkpt>
      <trkpt lat="47.21381" lon="-0.0229">
        <ele>68</ele>
        <time>2016-04-20T10:28:16Z</time>
      </trkpt>
      <trkpt lat="47.2138" lon="-0.02292">
        <ele>67</ele>
        <time>2016-04-20T10:28:18Z</time>
      </trkpt>
      <trkpt lat="47.21377" lon="-0.02307">
        <ele>63</ele>
        <time>2016-04-20T10:28:29Z</time>
      </trkpt>
      <trkpt lat="47.21373" lon="-0.02322">
        <ele>62</ele>
        <time>2016-04-20T10:28:39Z</time>
      </trkpt>
      <trkpt lat="47.21364" lon="-0.02339">
        <ele>65</ele>
        <time>2016-04-20T10:28:54Z</time>
      </trkpt>
      <trkpt lat="47.21359" lon="-0.02347">
        <ele>66</ele>
        <time>2016-04-20T10:29:01Z</time>
      </trkpt>
      <trkpt lat="47.21348" lon="-0.02347">
        <ele>71</ele>
        <time>2016-04-20T10:29:13Z</time>
      </trkpt>
      <trkpt lat="47.21347" lon="-0.02345">
        <ele>73</ele>
        <time>2016-04-20T10:29:25Z</time>
      </trkpt>
      <trkpt lat="47.21348" lon="-0.02346">
        <ele>74</ele>
        <time>2016-04-20T10:29:27Z</time>
      </trkpt>
      <trkpt lat="47.21348" lon="-0.02347">
        <ele>74</ele>
        <time>2016-04-20T10:29:37Z</time>
      </trkpt>
      <trkpt lat="47.21348" lon="-0.02348">
        <ele>73</ele>
        <time>2016-04-20T10:29:40Z</time>
      </trkpt>
      <trkpt lat="47.21348" lon="-0.02348">
        <ele>74</ele>
        <time>2016-04-20T10:29:43Z</time>
      </trkpt>
      <trkpt lat="47.21348" lon="-0.02348">
        <ele>74</ele>
        <time>2016-04-20T10:29:46Z</time>
      </trkpt>
      <trkpt lat="47.21348" lon="-0.02348">
        <ele>73</ele>
        <time>2016-04-20T10:29:51Z</time>
      </trkpt>
      <trkpt lat="47.21348" lon="-0.02348">
        <ele>73</ele>
        <time>2016-04-20T10:29:52Z</time>
      </trkpt>
      <trkpt lat="47.21348" lon="-0.02348">
        <ele>73</ele>
        <time>2016-04-20T10:29:55Z</time>
      </trkpt>
      <trkpt lat="47.21348" lon="-0.02348">
        <ele>73</ele>
        <time>2016-04-20T10:29:59Z</time>
      </trkpt>
      <trkpt lat="47.21348" lon="-0.02348">
        <ele>73</ele>
        <time>2016-04-20T10:30:03Z</time>
      </trkpt>
      <trkpt lat="47.21348" lon="-0.02348">
        <ele>73</ele>
        <time>2016-04-20T10:30:05Z</time>
      </trkpt>
      <trkpt lat="47.21348" lon="-0.02348">
        <ele>73</ele>
        <time>2016-04-20T10:30:09Z</time>
      </trkpt>
      <trkpt lat="47.21348" lon="-0.02348">
        <ele>73</ele>
        <time>2016-04-20T10:30:10Z</time>
      </trkpt>
      <trkpt lat="47.21358" lon="-0.02346">
        <ele>64</ele>
        <time>2016-04-20T10:30:22Z</time>
      </trkpt>
      <trkpt lat="47.2136" lon="-0.02344">
        <ele>64</ele>
        <time>2016-04-20T10:30:27Z</time>
      </trkpt>
      <trkpt lat="47.21361" lon="-0.02343">
        <ele>64</ele>
        <time>2016-04-20T10:30:35Z</time>
      </trkpt>
      <trkpt lat="47.21363" lon="-0.0234">
        <ele>64</ele>
        <time>2016-04-20T10:30:38Z</time>
      </trkpt>
      <trkpt lat="47.21373" lon="-0.02314">
        <ele>62</ele>
        <time>2016-04-20T10:30:57Z</time>
      </trkpt>
      <trkpt lat="47.21375" lon="-0.02311">
        <ele>62</ele>
        <time>2016-04-20T10:31:00Z</time>
      </trkpt>
      <trkpt lat="47.2138" lon="-0.0229">
        <ele>63</ele>
        <time>2016-04-20T10:31:12Z</time>
      </trkpt>
      <trkpt lat="47.21384" lon="-0.02268">
        <ele>70</ele>
        <time>2016-04-20T10:31:25Z</time>
      </trkpt>
      <trkpt lat="47.21384" lon="-0.02257">
        <ele>72</ele>
        <time>2016-04-20T10:31:33Z</time>
      </trkpt>
      <trkpt lat="47.21373" lon="-0.02234">
        <ele>71</ele>
        <time>2016-04-20T10:31:50Z</time>
      </trkpt>
      <trkpt lat="47.21377" lon="-0.02214">
        <ele>76</ele>
        <time>2016-04-20T10:32:02Z</time>
      </trkpt>
      <trkpt lat="47.21378" lon="-0.0221">
        <ele>76</ele>
        <time>2016-04-20T10:32:06Z</time>
      </trkpt>
      <trkpt lat="47.21378" lon="-0.02199">
        <ele>74</ele>
        <time>2016-04-20T10:32:17Z</time>
      </trkpt>
      <trkpt lat="47.21382" lon="-0.0217">
        <ele>71</ele>
        <time>2016-04-20T10:32:32Z</time>
      </trkpt>
      <trkpt lat="47.21389" lon="-0.02148">
        <ele>76</ele>
        <time>2016-04-20T10:32:49Z</time>
      </trkpt>
      <trkpt lat="47.2139" lon="-0.02148">
        <ele>76</ele>
        <time>2016-04-20T10:32:50Z</time>
      </trkpt>
      <trkpt lat="47.21402" lon="-0.02143">
        <ele>79</ele>
        <time>2016-04-20T10:33:09Z</time>
      </trkpt>
      <trkpt lat="47.21405" lon="-0.02144">
        <ele>78</ele>
        <time>2016-04-20T10:33:15Z</time>
      </trkpt>
      <trkpt lat="47.21406" lon="-0.02146">
        <ele>77</ele>
        <time>2016-04-20T10:33:29Z</time>
      </trkpt>
      <trkpt lat="47.2141" lon="-0.02139">
        <ele>76</ele>
        <time>2016-04-20T10:33:38Z</time>
      </trkpt>
      <trkpt lat="47.21416" lon="-0.0212">
        <ele>76</ele>
        <time>2016-04-20T10:33:48Z</time>
      </trkpt>
      <trkpt lat="47.21419" lon="-0.02112">
        <ele>74</ele>
        <time>2016-04-20T10:33:54Z</time>
      </trkpt>
      <trkpt lat="47.21427" lon="-0.02087">
        <ele>77</ele>
        <time>2016-04-20T10:34:10Z</time>
      </trkpt>
      <trkpt lat="47.21429" lon="-0.02078">
        <ele>75</ele>
        <time>2016-04-20T10:34:16Z</time>
      </trkpt>
      <trkpt lat="47.21438" lon="-0.02064">
        <ele>72</ele>
        <time>2016-04-20T10:34:29Z</time>
      </trkpt>
      <trkpt lat="47.21452" lon="-0.02039">
        <ele>74</ele>
        <time>2016-04-20T10:34:45Z</time>
      </trkpt>
      <trkpt lat="47.21456" lon="-0.02033">
        <ele>75</ele>
        <time>2016-04-20T10:34:49Z</time>
      </trkpt>
      <trkpt lat="47.21465" lon="-0.02016">
        <ele>74</ele>
        <time>2016-04-20T10:35:00Z</time>
      </trkpt>
      <trkpt lat="47.21471" lon="-0.02001">
        <ele>74</ele>
        <time>2016-04-20T10:35:11Z</time>
      </trkpt>
      <trkpt lat="47.2148" lon="-0.01985">
        <ele>72</ele>
        <time>2016-04-20T10:35:22Z</time>
      </trkpt>
      <trkpt lat="47.21489" lon="-0.01968">
        <ele>74</ele>
        <time>2016-04-20T10:35:33Z</time>
      </trkpt>
      <trkpt lat="47.21496" lon="-0.0195">
        <ele>74</ele>
        <time>2016-04-20T10:35:44Z</time>
      </trkpt>
      <trkpt lat="47.21504" lon="-0.01933">
        <ele>75</ele>
        <time>2016-04-20T10:35:55Z</time>
      </trkpt>
      <trkpt lat="47.21518" lon="-0.01902">
        <ele>73</ele>
        <time>2016-04-20T10:36:16Z</time>
      </trkpt>
      <trkpt lat="47.21518" lon="-0.019">
        <ele>73</ele>
        <time>2016-04-20T10:36:17Z</time>
      </trkpt>
      <trkpt lat="47.21527" lon="-0.0188">
        <ele>73</ele>
        <time>2016-04-20T10:36:30Z</time>
      </trkpt>
      <trkpt lat="47.21533" lon="-0.01865">
        <ele>72</ele>
        <time>2016-04-20T10:36:39Z</time>
      </trkpt>
      <trkpt lat="47.21538" lon="-0.01847">
        <ele>72</ele>
        <time>2016-04-20T10:36:50Z</time>
      </trkpt>
      <trkpt lat="47.21544" lon="-0.01829">
        <ele>71</ele>
        <time>2016-04-20T10:37:01Z</time>
      </trkpt>
      <trkpt lat="47.21553" lon="-0.01806">
        <ele>72</ele>
        <time>2016-04-20T10:37:16Z</time>
      </trkpt>
      <trkpt lat="47.21556" lon="-0.01795">
        <ele>72</ele>
        <time>2016-04-20T10:37:23Z</time>
      </trkpt>
      <trkpt lat="47.21563" lon="-0.01776">
        <ele>73</ele>
        <time>2016-04-20T10:37:34Z</time>
      </trkpt>
      <trkpt lat="47.21568" lon="-0.01759">
        <ele>73</ele>
        <time>2016-04-20T10:37:45Z</time>
      </trkpt>
      <trkpt lat="47.21573" lon="-0.01746">
        <ele>74</ele>
        <time>2016-04-20T10:37:56Z</time>
      </trkpt>
      <trkpt lat="47.21583" lon="-0.01727">
        <ele>73</ele>
        <time>2016-04-20T10:38:10Z</time>
      </trkpt>
      <trkpt lat="47.21597" lon="-0.01707">
        <ele>71</ele>
        <time>2016-04-20T10:38:24Z</time>
      </trkpt>
      <trkpt lat="47.21602" lon="-0.017">
        <ele>72</ele>
        <time>2016-04-20T10:38:29Z</time>
      </trkpt>
      <trkpt lat="47.21612" lon="-0.01686">
        <ele>73</ele>
        <time>2016-04-20T10:38:40Z</time>
      </trkpt>
      <trkpt lat="47.21623" lon="-0.0167">
        <ele>75</ele>
        <time>2016-04-20T10:38:53Z</time>
      </trkpt>
      <trkpt lat="47.21632" lon="-0.01661">
        <ele>76</ele>
        <time>2016-04-20T10:39:02Z</time>
      </trkpt>
      <trkpt lat="47.21642" lon="-0.01649">
        <ele>76</ele>
        <time>2016-04-20T10:39:13Z</time>
      </trkpt>
      <trkpt lat="47.21663" lon="-0.01627">
        <ele>78</ele>
        <time>2016-04-20T10:39:33Z</time>
      </trkpt>
      <trkpt lat="47.21665" lon="-0.01625">
        <ele>78</ele>
        <time>2016-04-20T10:39:35Z</time>
      </trkpt>
      <trkpt lat="47.21675" lon="-0.01612">
        <ele>78</ele>
        <time>2016-04-20T10:39:46Z</time>
      </trkpt>
      <trkpt lat="47.21693" lon="-0.01592">
        <ele>80</ele>
        <time>2016-04-20T10:40:06Z</time>
      </trkpt>
      <trkpt lat="47.21695" lon="-0.0159">
        <ele>80</ele>
        <time>2016-04-20T10:40:08Z</time>
      </trkpt>
      <trkpt lat="47.21705" lon="-0.01577">
        <ele>77</ele>
        <time>2016-04-20T10:40:19Z</time>
      </trkpt>
      <trkpt lat="47.21723" lon="-0.01558">
        <ele>77</ele>
        <time>2016-04-20T10:40:36Z</time>
      </trkpt>
      <trkpt lat="47.21729" lon="-0.01551">
        <ele>80</ele>
        <time>2016-04-20T10:40:42Z</time>
      </trkpt>
      <trkpt lat="47.21739" lon="-0.0154">
        <ele>81</ele>
        <time>2016-04-20T10:40:52Z</time>
      </trkpt>
      <trkpt lat="47.21755" lon="-0.01524">
        <ele>82</ele>
        <time>2016-04-20T10:41:07Z</time>
      </trkpt>
      <trkpt lat="47.21762" lon="-0.01516">
        <ele>82</ele>
        <time>2016-04-20T10:41:14Z</time>
      </trkpt>
      <trkpt lat="47.21774" lon="-0.01504">
        <ele>82</ele>
        <time>2016-04-20T10:41:25Z</time>
      </trkpt>
      <trkpt lat="47.21784" lon="-0.01492">
        <ele>83</ele>
        <time>2016-04-20T10:41:36Z</time>
      </trkpt>
      <trkpt lat="47.21796" lon="-0.01477">
        <ele>84</ele>
        <time>2016-04-20T10:41:50Z</time>
      </trkpt>
      <trkpt lat="47.21803" lon="-0.01468">
        <ele>85</ele>
        <time>2016-04-20T10:41:58Z</time>
      </trkpt>
      <trkpt lat="47.21816" lon="-0.01455">
        <ele>84</ele>
        <time>2016-04-20T10:42:12Z</time>
      </trkpt>
      <trkpt lat="47.21829" lon="-0.0144">
        <ele>85</ele>
        <time>2016-04-20T10:42:27Z</time>
      </trkpt>
      <trkpt lat="47.21833" lon="-0.01436">
        <ele>84</ele>
        <time>2016-04-20T10:42:31Z</time>
      </trkpt>
      <trkpt lat="47.21851" lon="-0.01416">
        <ele>80</ele>
        <time>2016-04-20T10:42:51Z</time>
      </trkpt>
      <trkpt lat="47.21856" lon="-0.01411">
        <ele>79</ele>
        <time>2016-04-20T10:42:56Z</time>
      </trkpt>
      <trkpt lat="47.2186" lon="-0.01402">
        <ele>78</ele>
        <time>2016-04-20T10:43:04Z</time>
      </trkpt>
      <trkpt lat="47.2187" lon="-0.01386">
        <ele>81</ele>
        <time>2016-04-20T10:43:17Z</time>
      </trkpt>
      <trkpt lat="47.2188" lon="-0.01374">
        <ele>81</ele>
        <time>2016-04-20T10:43:28Z</time>
      </trkpt>
      <trkpt lat="47.21887" lon="-0.01356">
        <ele>83</ele>
        <time>2016-04-20T10:43:40Z</time>
      </trkpt>
      <trkpt lat="47.21896" lon="-0.0134">
        <ele>82</ele>
        <time>2016-04-20T10:43:51Z</time>
      </trkpt>
      <trkpt lat="47.21909" lon="-0.01317">
        <ele>81</ele>
        <time>2016-04-20T10:44:07Z</time>
      </trkpt>
      <trkpt lat="47.2191" lon="-0.0131">
        <ele>80</ele>
        <time>2016-04-20T10:44:11Z</time>
      </trkpt>
      <trkpt lat="47.21917" lon="-0.01293">
        <ele>81</ele>
        <time>2016-04-20T10:44:21Z</time>
      </trkpt>
      <trkpt lat="47.21927" lon="-0.01273">
        <ele>82</ele>
        <time>2016-04-20T10:44:33Z</time>
      </trkpt>
      <trkpt lat="47.21933" lon="-0.01262">
        <ele>81</ele>
        <time>2016-04-20T10:44:43Z</time>
      </trkpt>
      <trkpt lat="47.21942" lon="-0.01244">
        <ele>81</ele>
        <time>2016-04-20T10:44:57Z</time>
      </trkpt>
      <trkpt lat="47.21946" lon="-0.01236">
        <ele>81</ele>
        <time>2016-04-20T10:45:06Z</time>
      </trkpt>
      <trkpt lat="47.21957" lon="-0.01211">
        <ele>82</ele>
        <time>2016-04-20T10:45:22Z</time>
      </trkpt>
      <trkpt lat="47.21961" lon="-0.01203">
        <ele>81</ele>
        <time>2016-04-20T10:45:27Z</time>
      </trkpt>
      <trkpt lat="47.2197" lon="-0.01187">
        <ele>81</ele>
        <time>2016-04-20T10:45:38Z</time>
      </trkpt>
      <trkpt lat="47.21982" lon="-0.0117">
        <ele>82</ele>
        <time>2016-04-20T10:45:50Z</time>
      </trkpt>
      <trkpt lat="47.22" lon="-0.01151">
        <ele>82</ele>
        <time>2016-04-20T10:46:07Z</time>
      </trkpt>
      <trkpt lat="47.22004" lon="-0.01147">
        <ele>82</ele>
        <time>2016-04-20T10:46:11Z</time>
      </trkpt>
      <trkpt lat="47.22016" lon="-0.01136">
        <ele>84</ele>
        <time>2016-04-20T10:46:23Z</time>
      </trkpt>
      <trkpt lat="47.22029" lon="-0.01125">
        <ele>91</ele>
        <time>2016-04-20T10:46:33Z</time>
      </trkpt>
      <trkpt lat="47.22046" lon="-0.01106">
        <ele>91</ele>
        <time>2016-04-20T10:46:49Z</time>
      </trkpt>
      <trkpt lat="47.22053" lon="-0.01097">
        <ele>90</ele>
        <time>2016-04-20T10:46:56Z</time>
      </trkpt>
      <trkpt lat="47.22059" lon="-0.01084">
        <ele>84</ele>
        <time>2016-04-20T10:47:06Z</time>
      </trkpt>
      <trkpt lat="47.22074" lon="-0.0107">
        <ele>92</ele>
        <time>2016-04-20T10:47:21Z</time>
      </trkpt>
      <trkpt lat="47.2208" lon="-0.0106">
        <ele>94</ele>
        <time>2016-04-20T10:47:29Z</time>
      </trkpt>
      <trkpt lat="47.22093" lon="-0.01033">
        <ele>91</ele>
        <time>2016-04-20T10:47:48Z</time>
      </trkpt>
      <trkpt lat="47.22094" lon="-0.0103">
        <ele>91</ele>
        <time>2016-04-20T10:47:50Z</time>
      </trkpt>
      <trkpt lat="47.22101" lon="-0.01015">
        <ele>90</ele>
        <time>2016-04-20T10:48:01Z</time>
      </trkpt>
      <trkpt lat="47.22111" lon="-0.00999">
        <ele>89</ele>
        <time>2016-04-20T10:48:12Z</time>
      </trkpt>
      <trkpt lat="47.22121" lon="-0.00982">
        <ele>89</ele>
        <time>2016-04-20T10:48:23Z</time>
      </trkpt>
      <trkpt lat="47.22131" lon="-0.00963">
        <ele>85</ele>
        <time>2016-04-20T10:48:36Z</time>
      </trkpt>
      <trkpt lat="47.22138" lon="-0.00952">
        <ele>86</ele>
        <time>2016-04-20T10:48:45Z</time>
      </trkpt>
      <trkpt lat="47.22147" lon="-0.00929">
        <ele>88</ele>
        <time>2016-04-20T10:49:01Z</time>
      </trkpt>
      <trkpt lat="47.22155" lon="-0.00918">
        <ele>86</ele>
        <time>2016-04-20T10:49:11Z</time>
      </trkpt>
      <trkpt lat="47.22165" lon="-0.00898">
        <ele>88</ele>
        <time>2016-04-20T10:49:25Z</time>
      </trkpt>
      <trkpt lat="47.22169" lon="-0.00891">
        <ele>90</ele>
        <time>2016-04-20T10:49:29Z</time>
      </trkpt>
      <trkpt lat="47.22179" lon="-0.00859">
        <ele>86</ele>
        <time>2016-04-20T10:49:50Z</time>
      </trkpt>
      <trkpt lat="47.22179" lon="-0.00857">
        <ele>86</ele>
        <time>2016-04-20T10:49:51Z</time>
      </trkpt>
      <trkpt lat="47.22192" lon="-0.00836">
        <ele>85</ele>
        <time>2016-04-20T10:50:08Z</time>
      </trkpt>
      <trkpt lat="47.222" lon="-0.00828">
        <ele>85</ele>
        <time>2016-04-20T10:50:15Z</time>
      </trkpt>
      <trkpt lat="47.22209" lon="-0.00818">
        <ele>88</ele>
        <time>2016-04-20T10:50:24Z</time>
      </trkpt>
      <trkpt lat="47.22224" lon="-0.00794">
        <ele>86</ele>
        <time>2016-04-20T10:50:43Z</time>
      </trkpt>
      <trkpt lat="47.2223" lon="-0.00784">
        <ele>86</ele>
        <time>2016-04-20T10:50:51Z</time>
      </trkpt>
      <trkpt lat="47.22239" lon="-0.00769">
        <ele>83</ele>
        <time>2016-04-20T10:51:01Z</time>
      </trkpt>
      <trkpt lat="47.22246" lon="-0.00757">
        <ele>82</ele>
        <time>2016-04-20T10:51:09Z</time>
      </trkpt>
      <trkpt lat="47.22257" lon="-0.00734">
        <ele>84</ele>
        <time>2016-04-20T10:51:24Z</time>
      </trkpt>
      <trkpt lat="47.22265" lon="-0.00708">
        <ele>84</ele>
        <time>2016-04-20T10:51:39Z</time>
      </trkpt>
      <trkpt lat="47.22269" lon="-0.00696">
        <ele>83</ele>
        <time>2016-04-20T10:51:47Z</time>
      </trkpt>
      <trkpt lat="47.22274" lon="-0.0068">
        <ele>85</ele>
        <time>2016-04-20T10:51:57Z</time>
      </trkpt>
      <trkpt lat="47.22282" lon="-0.00664">
        <ele>83</ele>
        <time>2016-04-20T10:52:07Z</time>
      </trkpt>
      <trkpt lat="47.22286" lon="-0.00652">
        <ele>84</ele>
        <time>2016-04-20T10:52:14Z</time>
      </trkpt>
      <trkpt lat="47.2229" lon="-0.00642">
        <ele>84</ele>
        <time>2016-04-20T10:52:25Z</time>
      </trkpt>
      <trkpt lat="47.22296" lon="-0.00617">
        <ele>87</ele>
        <time>2016-04-20T10:52:36Z</time>
      </trkpt>
      <trkpt lat="47.22303" lon="-0.00592">
        <ele>84</ele>
        <time>2016-04-20T10:52:51Z</time>
      </trkpt>
      <trkpt lat="47.22308" lon="-0.00578">
        <ele>84</ele>
        <time>2016-04-20T10:52:59Z</time>
      </trkpt>
      <trkpt lat="47.22312" lon="-0.00562">
        <ele>85</ele>
        <time>2016-04-20T10:53:09Z</time>
      </trkpt>
      <trkpt lat="47.22316" lon="-0.00541">
        <ele>86</ele>
        <time>2016-04-20T10:53:20Z</time>
      </trkpt>
      <trkpt lat="47.22318" lon="-0.00522">
        <ele>85</ele>
        <time>2016-04-20T10:53:31Z</time>
      </trkpt>
      <trkpt lat="47.22316" lon="-0.00502">
        <ele>84</ele>
        <time>2016-04-20T10:53:52Z</time>
      </trkpt>
      <trkpt lat="47.22316" lon="-0.00502">
        <ele>84</ele>
        <time>2016-04-20T10:53:53Z</time>
      </trkpt>
      <trkpt lat="47.22315" lon="-0.005">
        <ele>84</ele>
        <time>2016-04-20T10:54:04Z</time>
      </trkpt>
      <trkpt lat="47.22315" lon="-0.005">
        <ele>84</ele>
        <time>2016-04-20T10:54:07Z</time>
      </trkpt>
      <trkpt lat="47.22315" lon="-0.005">
        <ele>84</ele>
        <time>2016-04-20T10:54:10Z</time>
      </trkpt>
      <trkpt lat="47.22315" lon="-0.005">
        <ele>84</ele>
        <time>2016-04-20T10:54:13Z</time>
      </trkpt>
      <trkpt lat="47.22315" lon="-0.005">
        <ele>84</ele>
        <time>2016-04-20T10:54:16Z</time>
      </trkpt>
      <trkpt lat="47.22315" lon="-0.005">
        <ele>84</ele>
        <time>2016-04-20T10:54:19Z</time>
      </trkpt>
      <trkpt lat="47.22315" lon="-0.005">
        <ele>84</ele>
        <time>2016-04-20T10:54:22Z</time>
      </trkpt>
      <trkpt lat="47.22315" lon="-0.005">
        <ele>84</ele>
        <time>2016-04-20T10:54:25Z</time>
      </trkpt>
      <trkpt lat="47.22315" lon="-0.005">
        <ele>84</ele>
        <time>2016-04-20T10:54:28Z</time>
      </trkpt>
      <trkpt lat="47.22315" lon="-0.005">
        <ele>84</ele>
        <time>2016-04-20T10:54:32Z</time>
      </trkpt>
      <trkpt lat="47.22315" lon="-0.005">
        <ele>84</ele>
        <time>2016-04-20T10:54:34Z</time>
      </trkpt>
      <trkpt lat="47.22315" lon="-0.005">
        <ele>84</ele>
        <time>2016-04-20T10:54:38Z</time>
      </trkpt>
      <trkpt lat="47.22315" lon="-0.005">
        <ele>84</ele>
        <time>2016-04-20T10:54:40Z</time>
      </trkpt>
      <trkpt lat="47.22315" lon="-0.005">
        <ele>84</ele>
        <time>2016-04-20T10:54:45Z</time>
      </trkpt>
      <trkpt lat="47.22315" lon="-0.005">
        <ele>84</ele>
        <time>2016-04-20T10:54:46Z</time>
      </trkpt>
      <trkpt lat="47.22315" lon="-0.005">
        <ele>84</ele>
        <time>2016-04-20T10:54:49Z</time>
      </trkpt>
      <trkpt lat="47.22315" lon="-0.00499">
        <ele>85</ele>
        <time>2016-04-20T10:54:53Z</time>
      </trkpt>
      <trkpt lat="47.22315" lon="-0.005">
        <ele>85</ele>
        <time>2016-04-20T10:54:55Z</time>
      </trkpt>
      <trkpt lat="47.22315" lon="-0.005">
        <ele>84</ele>
        <time>2016-04-20T10:54:58Z</time>
      </trkpt>
      <trkpt lat="47.22314" lon="-0.00502">
        <ele>84</ele>
        <time>2016-04-20T10:55:02Z</time>
      </trkpt>
      <trkpt lat="47.22304" lon="-0.0051">
        <ele>85</ele>
        <time>2016-04-20T10:55:12Z</time>
      </trkpt>
      <trkpt lat="47.22291" lon="-0.00517">
        <ele>85</ele>
        <time>2016-04-20T10:55:23Z</time>
      </trkpt>
      <trkpt lat="47.22273" lon="-0.00528">
        <ele>85</ele>
        <time>2016-04-20T10:55:40Z</time>
      </trkpt>
      <trkpt lat="47.22267" lon="-0.0053">
        <ele>86</ele>
        <time>2016-04-20T10:55:45Z</time>
      </trkpt>
      <trkpt lat="47.22255" lon="-0.00537">
        <ele>85</ele>
        <time>2016-04-20T10:55:56Z</time>
      </trkpt>
      <trkpt lat="47.22242" lon="-0.00541">
        <ele>84</ele>
        <time>2016-04-20T10:56:07Z</time>
      </trkpt>
      <trkpt lat="47.22228" lon="-0.00539">
        <ele>85</ele>
        <time>2016-04-20T10:56:18Z</time>
      </trkpt>
      <trkpt lat="47.22217" lon="-0.00537">
        <ele>86</ele>
        <time>2016-04-20T10:56:29Z</time>
      </trkpt>
      <trkpt lat="47.22204" lon="-0.00533">
        <ele>87</ele>
        <time>2016-04-20T10:56:40Z</time>
      </trkpt>
      <trkpt lat="47.2219" lon="-0.00528">
        <ele>88</ele>
        <time>2016-04-20T10:56:51Z</time>
      </trkpt>
      <trkpt lat="47.22178" lon="-0.00523">
        <ele>89</ele>
        <time>2016-04-20T10:57:02Z</time>
      </trkpt>
      <trkpt lat="47.22165" lon="-0.00517">
        <ele>88</ele>
        <time>2016-04-20T10:57:13Z</time>
      </trkpt>
      <trkpt lat="47.22153" lon="-0.0051">
        <ele>89</ele>
        <time>2016-04-20T10:57:24Z</time>
      </trkpt>
      <trkpt lat="47.2214" lon="-0.00502">
        <ele>89</ele>
        <time>2016-04-20T10:57:35Z</time>
      </trkpt>
      <trkpt lat="47.22129" lon="-0.00492">
        <ele>88</ele>
        <time>2016-04-20T10:57:46Z</time>
      </trkpt>
      <trkpt lat="47.22118" lon="-0.00483">
        <ele>88</ele>
        <time>2016-04-20T10:57:57Z</time>
      </trkpt>
      <trkpt lat="47.22106" lon="-0.00477">
        <ele>88</ele>
        <time>2016-04-20T10:58:08Z</time>
      </trkpt>
      <trkpt lat="47.22094" lon="-0.00474">
        <ele>87</ele>
        <time>2016-04-20T10:58:19Z</time>
      </trkpt>
      <trkpt lat="47.22082" lon="-0.00472">
        <ele>87</ele>
        <time>2016-04-20T10:58:30Z</time>
      </trkpt>
      <trkpt lat="47.22069" lon="-0.00469">
        <ele>86</ele>
        <time>2016-04-20T10:58:41Z</time>
      </trkpt>
      <trkpt lat="47.22056" lon="-0.00461">
        <ele>85</ele>
        <time>2016-04-20T10:58:52Z</time>
      </trkpt>
      <trkpt lat="47.22043" lon="-0.00457">
        <ele>85</ele>
        <time>2016-04-20T10:59:03Z</time>
      </trkpt>
      <trkpt lat="47.2203" lon="-0.00455">
        <ele>85</ele>
        <time>2016-04-20T10:59:14Z</time>
      </trkpt>
      <trkpt lat="47.22017" lon="-0.00455">
        <ele>85</ele>
        <time>2016-04-20T10:59:25Z</time>
      </trkpt>
      <trkpt lat="47.22003" lon="-0.00454">
        <ele>85</ele>
        <time>2016-04-20T10:59:36Z</time>
      </trkpt>
      <trkpt lat="47.21988" lon="-0.00452">
        <ele>85</ele>
        <time>2016-04-20T10:59:47Z</time>
      </trkpt>
      <trkpt lat="47.21975" lon="-0.00452">
        <ele>85</ele>
        <time>2016-04-20T10:59:58Z</time>
      </trkpt>
      <trkpt lat="47.21961" lon="-0.0045">
        <ele>85</ele>
        <time>2016-04-20T11:00:09Z</time>
      </trkpt>
      <trkpt lat="47.21947" lon="-0.00445">
        <ele>81</ele>
        <time>2016-04-20T11:00:23Z</time>
      </trkpt>
      <trkpt lat="47.21933" lon="-0.00433">
        <ele>82</ele>
        <time>2016-04-20T11:00:36Z</time>
      </trkpt>
      <trkpt lat="47.21927" lon="-0.00422">
        <ele>82</ele>
        <time>2016-04-20T11:00:44Z</time>
      </trkpt>
      <trkpt lat="47.21922" lon="-0.00407">
        <ele>83</ele>
        <time>2016-04-20T11:00:54Z</time>
      </trkpt>
      <trkpt lat="47.21913" lon="-0.00382">
        <ele>87</ele>
        <time>2016-04-20T11:01:07Z</time>
      </trkpt>
      <trkpt lat="47.21908" lon="-0.0037">
        <ele>86</ele>
        <time>2016-04-20T11:01:15Z</time>
      </trkpt>
      <trkpt lat="47.21901" lon="-0.00353">
        <ele>85</ele>
        <time>2016-04-20T11:01:26Z</time>
      </trkpt>
      <trkpt lat="47.21894" lon="-0.00338">
        <ele>84</ele>
        <time>2016-04-20T11:01:37Z</time>
      </trkpt>
      <trkpt lat="47.21888" lon="-0.00323">
        <ele>85</ele>
        <time>2016-04-20T11:01:48Z</time>
      </trkpt>
      <trkpt lat="47.2188" lon="-0.00306">
        <ele>86</ele>
        <time>2016-04-20T11:01:59Z</time>
      </trkpt>
      <trkpt lat="47.21874" lon="-0.00291">
        <ele>85</ele>
        <time>2016-04-20T11:02:10Z</time>
      </trkpt>
      <trkpt lat="47.21877" lon="-0.0028">
        <ele>85</ele>
        <time>2016-04-20T11:02:21Z</time>
      </trkpt>
      <trkpt lat="47.21888" lon="-0.00272">
        <ele>86</ele>
        <time>2016-04-20T11:02:32Z</time>
      </trkpt>
      <trkpt lat="47.21888" lon="-0.00273">
        <ele>85</ele>
        <time>2016-04-20T11:02:43Z</time>
      </trkpt>
      <trkpt lat="47.21888" lon="-0.00273">
        <ele>86</ele>
        <time>2016-04-20T11:02:46Z</time>
      </trkpt>
      <trkpt lat="47.21888" lon="-0.00273">
        <ele>86</ele>
        <time>2016-04-20T11:02:49Z</time>
      </trkpt>
      <trkpt lat="47.21888" lon="-0.00273">
        <ele>86</ele>
        <time>2016-04-20T11:02:52Z</time>
      </trkpt>
      <trkpt lat="47.21887" lon="-0.00273">
        <ele>86</ele>
        <time>2016-04-20T11:02:55Z</time>
      </trkpt>
      <trkpt lat="47.21886" lon="-0.00273">
        <ele>85</ele>
        <time>2016-04-20T11:02:58Z</time>
      </trkpt>
      <trkpt lat="47.21876" lon="-0.00278">
        <ele>84</ele>
        <time>2016-04-20T11:03:09Z</time>
      </trkpt>
      <trkpt lat="47.21866" lon="-0.00273">
        <ele>83</ele>
        <time>2016-04-20T11:03:20Z</time>
      </trkpt>
      <trkpt lat="47.21859" lon="-0.00257">
        <ele>80</ele>
        <time>2016-04-20T11:03:31Z</time>
      </trkpt>
      <trkpt lat="47.21847" lon="-0.00228">
        <ele>78</ele>
        <time>2016-04-20T11:03:49Z</time>
      </trkpt>
      <trkpt lat="47.21844" lon="-0.00221">
        <ele>77</ele>
        <time>2016-04-20T11:03:53Z</time>
      </trkpt>
      <trkpt lat="47.21837" lon="-0.00205">
        <ele>78</ele>
        <time>2016-04-20T11:04:04Z</time>
      </trkpt>
      <trkpt lat="47.2183" lon="-0.00189">
        <ele>76</ele>
        <time>2016-04-20T11:04:15Z</time>
      </trkpt>
      <trkpt lat="47.21834" lon="-0.00176">
        <ele>75</ele>
        <time>2016-04-20T11:04:26Z</time>
      </trkpt>
      <trkpt lat="47.21845" lon="-0.00168">
        <ele>78</ele>
        <time>2016-04-20T11:04:37Z</time>
      </trkpt>
      <trkpt lat="47.21856" lon="-0.00162">
        <ele>78</ele>
        <time>2016-04-20T11:04:48Z</time>
      </trkpt>
      <trkpt lat="47.21863" lon="-0.0016">
        <ele>79</ele>
        <time>2016-04-20T11:04:59Z</time>
      </trkpt>
      <trkpt lat="47.2187" lon="-0.00154">
        <ele>81</ele>
        <time>2016-04-20T11:05:10Z</time>
      </trkpt>
      <trkpt lat="47.21879" lon="-0.00145">
        <ele>82</ele>
        <time>2016-04-20T11:05:21Z</time>
      </trkpt>
      <trkpt lat="47.2189" lon="-0.00135">
        <ele>81</ele>
        <time>2016-04-20T11:05:40Z</time>
      </trkpt>
      <trkpt lat="47.21891" lon="-0.00132">
        <ele>81</ele>
        <time>2016-04-20T11:05:49Z</time>
      </trkpt>
      <trkpt lat="47.21891" lon="-0.00132">
        <ele>81</ele>
        <time>2016-04-20T11:05:54Z</time>
      </trkpt>
      <trkpt lat="47.21891" lon="-0.00132">
        <ele>80</ele>
        <time>2016-04-20T11:05:57Z</time>
      </trkpt>
      <trkpt lat="47.21891" lon="-0.00132">
        <ele>80</ele>
        <time>2016-04-20T11:06:00Z</time>
      </trkpt>
      <trkpt lat="47.21891" lon="-0.00132">
        <ele>80</ele>
        <time>2016-04-20T11:06:04Z</time>
      </trkpt>
      <trkpt lat="47.21891" lon="-0.00132">
        <ele>81</ele>
        <time>2016-04-20T11:06:06Z</time>
      </trkpt>
      <trkpt lat="47.21896" lon="-0.00134">
        <ele>78</ele>
        <time>2016-04-20T11:06:17Z</time>
      </trkpt>
      <trkpt lat="47.21894" lon="-0.00132">
        <ele>77</ele>
        <time>2016-04-20T11:06:28Z</time>
      </trkpt>
      <trkpt lat="47.21892" lon="-0.00131">
        <ele>76</ele>
        <time>2016-04-20T11:06:39Z</time>
      </trkpt>
      <trkpt lat="47.21893" lon="-0.00132">
        <ele>76</ele>
        <time>2016-04-20T11:06:42Z</time>
      </trkpt>
      <trkpt lat="47.21893" lon="-0.00132">
        <ele>76</ele>
        <time>2016-04-20T11:06:45Z</time>
      </trkpt>
      <trkpt lat="47.21893" lon="-0.00132">
        <ele>77</ele>
        <time>2016-04-20T11:06:48Z</time>
      </trkpt>
      <trkpt lat="47.21892" lon="-0.00132">
        <ele>77</ele>
        <time>2016-04-20T11:06:51Z</time>
      </trkpt>
      <trkpt lat="47.21892" lon="-0.00132">
        <ele>77</ele>
        <time>2016-04-20T11:06:54Z</time>
      </trkpt>
      <trkpt lat="47.21892" lon="-0.00133">
        <ele>76</ele>
        <time>2016-04-20T11:06:57Z</time>
      </trkpt>
      <trkpt lat="47.21892" lon="-0.00133">
        <ele>76</ele>
        <time>2016-04-20T11:07:00Z</time>
      </trkpt>
      <trkpt lat="47.21892" lon="-0.00133">
        <ele>76</ele>
        <time>2016-04-20T11:07:04Z</time>
      </trkpt>
      <trkpt lat="47.21892" lon="-0.00133">
        <ele>76</ele>
        <time>2016-04-20T11:07:06Z</time>
      </trkpt>
      <trkpt lat="47.21892" lon="-0.00133">
        <ele>76</ele>
        <time>2016-04-20T11:07:09Z</time>
      </trkpt>
      <trkpt lat="47.21892" lon="-0.00133">
        <ele>76</ele>
        <time>2016-04-20T11:07:12Z</time>
      </trkpt>
      <trkpt lat="47.21892" lon="-0.00133">
        <ele>76</ele>
        <time>2016-04-20T11:07:15Z</time>
      </trkpt>
      <trkpt lat="47.21892" lon="-0.00133">
        <ele>76</ele>
        <time>2016-04-20T11:07:18Z</time>
      </trkpt>
      <trkpt lat="47.21892" lon="-0.00133">
        <ele>76</ele>
        <time>2016-04-20T11:07:21Z</time>
      </trkpt>
      <trkpt lat="47.21892" lon="-0.00133">
        <ele>76</ele>
        <time>2016-04-20T11:07:24Z</time>
      </trkpt>
      <trkpt lat="47.21892" lon="-0.00133">
        <ele>76</ele>
        <time>2016-04-20T11:07:27Z</time>
      </trkpt>
      <trkpt lat="47.21892" lon="-0.00133">
        <ele>76</ele>
        <time>2016-04-20T11:07:30Z</time>
      </trkpt>
      <trkpt lat="47.21892" lon="-0.00133">
        <ele>76</ele>
        <time>2016-04-20T11:07:33Z</time>
      </trkpt>
      <trkpt lat="47.21892" lon="-0.00133">
        <ele>76</ele>
        <time>2016-04-20T11:07:36Z</time>
      </trkpt>
      <trkpt lat="47.21892" lon="-0.00133">
        <ele>76</ele>
        <time>2016-04-20T11:07:39Z</time>
      </trkpt>
      <trkpt lat="47.21892" lon="-0.00133">
        <ele>76</ele>
        <time>2016-04-20T11:07:42Z</time>
      </trkpt>
      <trkpt lat="47.21892" lon="-0.00133">
        <ele>76</ele>
        <time>2016-04-20T11:07:45Z</time>
      </trkpt>
      <trkpt lat="47.21892" lon="-0.00133">
        <ele>76</ele>
        <time>2016-04-20T11:07:48Z</time>
      </trkpt>
      <trkpt lat="47.21892" lon="-0.00133">
        <ele>76</ele>
        <time>2016-04-20T11:07:51Z</time>
      </trkpt>
      <trkpt lat="47.21892" lon="-0.00133">
        <ele>76</ele>
        <time>2016-04-20T11:07:54Z</time>
      </trkpt>
      <trkpt lat="47.21892" lon="-0.00133">
        <ele>76</ele>
        <time>2016-04-20T11:07:57Z</time>
      </trkpt>
      <trkpt lat="47.21892" lon="-0.00133">
        <ele>76</ele>
        <time>2016-04-20T11:08:00Z</time>
      </trkpt>
      <trkpt lat="47.21892" lon="-0.00133">
        <ele>76</ele>
        <time>2016-04-20T11:08:03Z</time>
      </trkpt>
      <trkpt lat="47.21893" lon="-0.00133">
        <ele>75</ele>
        <time>2016-04-20T11:08:06Z</time>
      </trkpt>
      <trkpt lat="47.21892" lon="-0.00133">
        <ele>75</ele>
        <time>2016-04-20T11:08:09Z</time>
      </trkpt>
      <trkpt lat="47.21892" lon="-0.00133">
        <ele>75</ele>
        <time>2016-04-20T11:08:13Z</time>
      </trkpt>
      <trkpt lat="47.21892" lon="-0.00133">
        <ele>75</ele>
        <time>2016-04-20T11:08:15Z</time>
      </trkpt>
      <trkpt lat="47.21892" lon="-0.00133">
        <ele>75</ele>
        <time>2016-04-20T11:08:18Z</time>
      </trkpt>
      <trkpt lat="47.21892" lon="-0.00133">
        <ele>75</ele>
        <time>2016-04-20T11:08:21Z</time>
      </trkpt>
      <trkpt lat="47.21892" lon="-0.00133">
        <ele>75</ele>
        <time>2016-04-20T11:08:24Z</time>
      </trkpt>
      <trkpt lat="47.21892" lon="-0.00133">
        <ele>75</ele>
        <time>2016-04-20T11:08:27Z</time>
      </trkpt>
      <trkpt lat="47.21892" lon="-0.00133">
        <ele>75</ele>
        <time>2016-04-20T11:08:30Z</time>
      </trkpt>
      <trkpt lat="47.21892" lon="-0.00133">
        <ele>75</ele>
        <time>2016-04-20T11:08:33Z</time>
      </trkpt>
      <trkpt lat="47.21892" lon="-0.00133">
        <ele>75</ele>
        <time>2016-04-20T11:08:38Z</time>
      </trkpt>
      <trkpt lat="47.21892" lon="-0.00133">
        <ele>75</ele>
        <time>2016-04-20T11:08:39Z</time>
      </trkpt>
      <trkpt lat="47.21893" lon="-0.00132">
        <ele>74</ele>
        <time>2016-04-20T11:08:45Z</time>
      </trkpt>
      <trkpt lat="47.21893" lon="-0.00133">
        <ele>74</ele>
        <time>2016-04-20T11:08:48Z</time>
      </trkpt>
      <trkpt lat="47.21893" lon="-0.00133">
        <ele>73</ele>
        <time>2016-04-20T11:08:53Z</time>
      </trkpt>
      <trkpt lat="47.21893" lon="-0.00133">
        <ele>73</ele>
        <time>2016-04-20T11:08:54Z</time>
      </trkpt>
      <trkpt lat="47.21893" lon="-0.00133">
        <ele>73</ele>
        <time>2016-04-20T11:08:57Z</time>
      </trkpt>
      <trkpt lat="47.21893" lon="-0.00133">
        <ele>73</ele>
        <time>2016-04-20T11:09:02Z</time>
      </trkpt>
      <trkpt lat="47.21893" lon="-0.00133">
        <ele>73</ele>
        <time>2016-04-20T11:09:03Z</time>
      </trkpt>
      <trkpt lat="47.21893" lon="-0.00133">
        <ele>73</ele>
        <time>2016-04-20T11:09:06Z</time>
      </trkpt>
      <trkpt lat="47.21893" lon="-0.00133">
        <ele>73</ele>
        <time>2016-04-20T11:09:09Z</time>
      </trkpt>
      <trkpt lat="47.21893" lon="-0.00133">
        <ele>73</ele>
        <time>2016-04-20T11:09:12Z</time>
      </trkpt>
      <trkpt lat="47.21893" lon="-0.00133">
        <ele>73</ele>
        <time>2016-04-20T11:09:15Z</time>
      </trkpt>
      <trkpt lat="47.21893" lon="-0.00133">
        <ele>73</ele>
        <time>2016-04-20T11:09:19Z</time>
      </trkpt>
      <trkpt lat="47.21893" lon="-0.00133">
        <ele>73</ele>
        <time>2016-04-20T11:09:21Z</time>
      </trkpt>
      <trkpt lat="47.21893" lon="-0.00133">
        <ele>73</ele>
        <time>2016-04-20T11:09:24Z</time>
      </trkpt>
      <trkpt lat="47.21893" lon="-0.00133">
        <ele>73</ele>
        <time>2016-04-20T11:09:27Z</time>
      </trkpt>
      <trkpt lat="47.21893" lon="-0.00133">
        <ele>73</ele>
        <time>2016-04-20T11:09:30Z</time>
      </trkpt>
      <trkpt lat="47.21893" lon="-0.00133">
        <ele>73</ele>
        <time>2016-04-20T11:09:33Z</time>
      </trkpt>
      <trkpt lat="47.21893" lon="-0.00133">
        <ele>73</ele>
        <time>2016-04-20T11:09:36Z</time>
      </trkpt>
      <trkpt lat="47.21893" lon="-0.00133">
        <ele>73</ele>
        <time>2016-04-20T11:09:39Z</time>
      </trkpt>
      <trkpt lat="47.21893" lon="-0.00133">
        <ele>73</ele>
        <time>2016-04-20T11:09:42Z</time>
      </trkpt>
      <trkpt lat="47.21893" lon="-0.00133">
        <ele>73</ele>
        <time>2016-04-20T11:09:45Z</time>
      </trkpt>
      <trkpt lat="47.21893" lon="-0.00133">
        <ele>73</ele>
        <time>2016-04-20T11:09:48Z</time>
      </trkpt>
      <trkpt lat="47.21893" lon="-0.00133">
        <ele>73</ele>
        <time>2016-04-20T11:09:51Z</time>
      </trkpt>
      <trkpt lat="47.21893" lon="-0.00133">
        <ele>73</ele>
        <time>2016-04-20T11:09:54Z</time>
      </trkpt>
      <trkpt lat="47.21893" lon="-0.00133">
        <ele>73</ele>
        <time>2016-04-20T11:09:57Z</time>
      </trkpt>
      <trkpt lat="47.21893" lon="-0.00133">
        <ele>74</ele>
        <time>2016-04-20T11:10:03Z</time>
      </trkpt>
      <trkpt lat="47.21894" lon="-0.00133">
        <ele>73</ele>
        <time>2016-04-20T11:10:06Z</time>
      </trkpt>
      <trkpt lat="47.21895" lon="-0.00133">
        <ele>72</ele>
        <time>2016-04-20T11:10:19Z</time>
      </trkpt>
      <trkpt lat="47.21895" lon="-0.00133">
        <ele>72</ele>
        <time>2016-04-20T11:10:20Z</time>
      </trkpt>
      <trkpt lat="47.21895" lon="-0.00133">
        <ele>72</ele>
        <time>2016-04-20T11:10:23Z</time>
      </trkpt>
      <trkpt lat="47.21896" lon="-0.00133">
        <ele>72</ele>
        <time>2016-04-20T11:10:26Z</time>
      </trkpt>
      <trkpt lat="47.21896" lon="-0.00133">
        <ele>72</ele>
        <time>2016-04-20T11:10:29Z</time>
      </trkpt>
      <trkpt lat="47.21896" lon="-0.00133">
        <ele>72</ele>
        <time>2016-04-20T11:10:32Z</time>
      </trkpt>
      <trkpt lat="47.21896" lon="-0.00133">
        <ele>72</ele>
        <time>2016-04-20T11:10:37Z</time>
      </trkpt>
      <trkpt lat="47.21896" lon="-0.00133">
        <ele>72</ele>
        <time>2016-04-20T11:10:38Z</time>
      </trkpt>
      <trkpt lat="47.21896" lon="-0.00133">
        <ele>72</ele>
        <time>2016-04-20T11:10:42Z</time>
      </trkpt>
      <trkpt lat="47.21896" lon="-0.00133">
        <ele>72</ele>
        <time>2016-04-20T11:10:44Z</time>
      </trkpt>
      <trkpt lat="47.21896" lon="-0.00133">
        <ele>72</ele>
        <time>2016-04-20T11:10:47Z</time>
      </trkpt>
      <trkpt lat="47.21896" lon="-0.00133">
        <ele>72</ele>
        <time>2016-04-20T11:10:50Z</time>
      </trkpt>
      <trkpt lat="47.21896" lon="-0.00133">
        <ele>72</ele>
        <time>2016-04-20T11:10:53Z</time>
      </trkpt>
      <trkpt lat="47.21896" lon="-0.00133">
        <ele>72</ele>
        <time>2016-04-20T11:10:58Z</time>
      </trkpt>
      <trkpt lat="47.21896" lon="-0.00133">
        <ele>72</ele>
        <time>2016-04-20T11:10:59Z</time>
      </trkpt>
      <trkpt lat="47.21896" lon="-0.00133">
        <ele>72</ele>
        <time>2016-04-20T11:11:02Z</time>
      </trkpt>
      <trkpt lat="47.21895" lon="-0.00133">
        <ele>72</ele>
        <time>2016-04-20T11:11:05Z</time>
      </trkpt>
      <trkpt lat="47.21895" lon="-0.00133">
        <ele>72</ele>
        <time>2016-04-20T11:11:08Z</time>
      </trkpt>
      <trkpt lat="47.21896" lon="-0.00133">
        <ele>72</ele>
        <time>2016-04-20T11:11:11Z</time>
      </trkpt>
      <trkpt lat="47.21897" lon="-0.00133">
        <ele>72</ele>
        <time>2016-04-20T11:11:20Z</time>
      </trkpt>
      <trkpt lat="47.21897" lon="-0.00133">
        <ele>72</ele>
        <time>2016-04-20T11:11:23Z</time>
      </trkpt>
      <trkpt lat="47.21896" lon="-0.00133">
        <ele>72</ele>
        <time>2016-04-20T11:11:26Z</time>
      </trkpt>
      <trkpt lat="47.21896" lon="-0.00133">
        <ele>73</ele>
        <time>2016-04-20T11:11:29Z</time>
      </trkpt>
      <trkpt lat="47.21896" lon="-0.00133">
        <ele>72</ele>
        <time>2016-04-20T11:11:32Z</time>
      </trkpt>
      <trkpt lat="47.21896" lon="-0.00133">
        <ele>72</ele>
        <time>2016-04-20T11:11:35Z</time>
      </trkpt>
      <trkpt lat="47.21896" lon="-0.00133">
        <ele>72</ele>
        <time>2016-04-20T11:11:38Z</time>
      </trkpt>
      <trkpt lat="47.21896" lon="-0.00133">
        <ele>72</ele>
        <time>2016-04-20T11:11:41Z</time>
      </trkpt>
      <trkpt lat="47.21896" lon="-0.00133">
        <ele>72</ele>
        <time>2016-04-20T11:11:44Z</time>
      </trkpt>
      <trkpt lat="47.21896" lon="-0.00133">
        <ele>72</ele>
        <time>2016-04-20T11:11:49Z</time>
      </trkpt>
      <trkpt lat="47.21896" lon="-0.00133">
        <ele>72</ele>
        <time>2016-04-20T11:11:50Z</time>
      </trkpt>
      <trkpt lat="47.21896" lon="-0.00133">
        <ele>72</ele>
        <time>2016-04-20T11:11:53Z</time>
      </trkpt>
      <trkpt lat="47.21896" lon="-0.00133">
        <ele>72</ele>
        <time>2016-04-20T11:11:56Z</time>
      </trkpt>
      <trkpt lat="47.21896" lon="-0.00133">
        <ele>72</ele>
        <time>2016-04-20T11:11:59Z</time>
      </trkpt>
      <trkpt lat="47.21896" lon="-0.00133">
        <ele>74</ele>
        <time>2016-04-20T11:12:02Z</time>
      </trkpt>
      <trkpt lat="47.21896" lon="-0.00133">
        <ele>76</ele>
        <time>2016-04-20T11:12:06Z</time>
      </trkpt>
      <trkpt lat="47.21896" lon="-0.00132">
        <ele>75</ele>
        <time>2016-04-20T11:12:11Z</time>
      </trkpt>
      <trkpt lat="47.21896" lon="-0.00132">
        <ele>74</ele>
        <time>2016-04-20T11:12:14Z</time>
      </trkpt>
      <trkpt lat="47.21896" lon="-0.00132">
        <ele>74</ele>
        <time>2016-04-20T11:12:17Z</time>
      </trkpt>
      <trkpt lat="47.21895" lon="-0.00132">
        <ele>76</ele>
        <time>2016-04-20T11:12:23Z</time>
      </trkpt>
      <trkpt lat="47.21895" lon="-0.00133">
        <ele>76</ele>
        <time>2016-04-20T11:12:26Z</time>
      </trkpt>
      <trkpt lat="47.21895" lon="-0.00133">
        <ele>76</ele>
        <time>2016-04-20T11:12:29Z</time>
      </trkpt>
      <trkpt lat="47.21895" lon="-0.00133">
        <ele>76</ele>
        <time>2016-04-20T11:12:34Z</time>
      </trkpt>
      <trkpt lat="47.21895" lon="-0.00133">
        <ele>76</ele>
        <time>2016-04-20T11:12:35Z</time>
      </trkpt>
      <trkpt lat="47.21895" lon="-0.00133">
        <ele>76</ele>
        <time>2016-04-20T11:12:38Z</time>
      </trkpt>
      <trkpt lat="47.21895" lon="-0.00133">
        <ele>76</ele>
        <time>2016-04-20T11:12:41Z</time>
      </trkpt>
      <trkpt lat="47.21895" lon="-0.00133">
        <ele>76</ele>
        <time>2016-04-20T11:12:44Z</time>
      </trkpt>
      <trkpt lat="47.21895" lon="-0.00133">
        <ele>76</ele>
        <time>2016-04-20T11:12:47Z</time>
      </trkpt>
      <trkpt lat="47.21895" lon="-0.00133">
        <ele>76</ele>
        <time>2016-04-20T11:12:50Z</time>
      </trkpt>
      <trkpt lat="47.21895" lon="-0.00133">
        <ele>76</ele>
        <time>2016-04-20T11:12:53Z</time>
      </trkpt>
      <trkpt lat="47.21895" lon="-0.00133">
        <ele>76</ele>
        <time>2016-04-20T11:12:56Z</time>
      </trkpt>
      <trkpt lat="47.21895" lon="-0.00133">
        <ele>76</ele>
        <time>2016-04-20T11:12:59Z</time>
      </trkpt>
      <trkpt lat="47.21895" lon="-0.00133">
        <ele>76</ele>
        <time>2016-04-20T11:13:02Z</time>
      </trkpt>
      <trkpt lat="47.21895" lon="-0.00133">
        <ele>76</ele>
        <time>2016-04-20T11:13:05Z</time>
      </trkpt>
      <trkpt lat="47.21895" lon="-0.00133">
        <ele>76</ele>
        <time>2016-04-20T11:13:08Z</time>
      </trkpt>
      <trkpt lat="47.21895" lon="-0.00133">
        <ele>76</ele>
        <time>2016-04-20T11:13:11Z</time>
      </trkpt>
      <trkpt lat="47.21895" lon="-0.00133">
        <ele>76</ele>
        <time>2016-04-20T11:13:14Z</time>
      </trkpt>
      <trkpt lat="47.21895" lon="-0.00133">
        <ele>76</ele>
        <time>2016-04-20T11:13:17Z</time>
      </trkpt>
      <trkpt lat="47.21895" lon="-0.00133">
        <ele>76</ele>
        <time>2016-04-20T11:13:20Z</time>
      </trkpt>
      <trkpt lat="47.21895" lon="-0.00133">
        <ele>76</ele>
        <time>2016-04-20T11:13:23Z</time>
      </trkpt>
      <trkpt lat="47.21895" lon="-0.00133">
        <ele>76</ele>
        <time>2016-04-20T11:13:26Z</time>
      </trkpt>
      <trkpt lat="47.21895" lon="-0.00133">
        <ele>76</ele>
        <time>2016-04-20T11:13:29Z</time>
      </trkpt>
      <trkpt lat="47.21895" lon="-0.00133">
        <ele>76</ele>
        <time>2016-04-20T11:13:34Z</time>
      </trkpt>
      <trkpt lat="47.21895" lon="-0.00133">
        <ele>76</ele>
        <time>2016-04-20T11:13:37Z</time>
      </trkpt>
      <trkpt lat="47.21895" lon="-0.00133">
        <ele>76</ele>
        <time>2016-04-20T11:13:40Z</time>
      </trkpt>
      <trkpt lat="47.21895" lon="-0.00133">
        <ele>76</ele>
        <time>2016-04-20T11:13:43Z</time>
      </trkpt>
      <trkpt lat="47.21895" lon="-0.00133">
        <ele>76</ele>
        <time>2016-04-20T11:13:46Z</time>
      </trkpt>
      <trkpt lat="47.21895" lon="-0.00133">
        <ele>76</ele>
        <time>2016-04-20T11:13:49Z</time>
      </trkpt>
      <trkpt lat="47.21895" lon="-0.00133">
        <ele>76</ele>
        <time>2016-04-20T11:13:52Z</time>
      </trkpt>
      <trkpt lat="47.21895" lon="-0.00133">
        <ele>76</ele>
        <time>2016-04-20T11:13:55Z</time>
      </trkpt>
      <trkpt lat="47.21895" lon="-0.00133">
        <ele>76</ele>
        <time>2016-04-20T11:14:00Z</time>
      </trkpt>
      <trkpt lat="47.21895" lon="-0.00133">
        <ele>76</ele>
        <time>2016-04-20T11:14:01Z</time>
      </trkpt>
      <trkpt lat="47.21895" lon="-0.00133">
        <ele>76</ele>
        <time>2016-04-20T11:14:04Z</time>
      </trkpt>
      <trkpt lat="47.21895" lon="-0.00133">
        <ele>76</ele>
        <time>2016-04-20T11:14:07Z</time>
      </trkpt>
      <trkpt lat="47.21895" lon="-0.00133">
        <ele>76</ele>
        <time>2016-04-20T11:14:10Z</time>
      </trkpt>
      <trkpt lat="47.21895" lon="-0.00133">
        <ele>76</ele>
        <time>2016-04-20T11:14:13Z</time>
      </trkpt>
      <trkpt lat="47.21895" lon="-0.00133">
        <ele>76</ele>
        <time>2016-04-20T11:14:16Z</time>
      </trkpt>
      <trkpt lat="47.21895" lon="-0.00133">
        <ele>76</ele>
        <time>2016-04-20T11:14:19Z</time>
      </trkpt>
      <trkpt lat="47.21895" lon="-0.00133">
        <ele>77</ele>
        <time>2016-04-20T11:14:22Z</time>
      </trkpt>
      <trkpt lat="47.21895" lon="-0.00133">
        <ele>77</ele>
        <time>2016-04-20T11:14:27Z</time>
      </trkpt>
      <trkpt lat="47.21895" lon="-0.00133">
        <ele>77</ele>
        <time>2016-04-20T11:14:28Z</time>
      </trkpt>
      <trkpt lat="47.21895" lon="-0.00133">
        <ele>77</ele>
        <time>2016-04-20T11:14:31Z</time>
      </trkpt>
      <trkpt lat="47.21895" lon="-0.00133">
        <ele>77</ele>
        <time>2016-04-20T11:14:36Z</time>
      </trkpt>
      <trkpt lat="47.21895" lon="-0.00133">
        <ele>77</ele>
        <time>2016-04-20T11:14:37Z</time>
      </trkpt>
      <trkpt lat="47.21895" lon="-0.00133">
        <ele>77</ele>
        <time>2016-04-20T11:14:40Z</time>
      </trkpt>
      <trkpt lat="47.21895" lon="-0.00133">
        <ele>77</ele>
        <time>2016-04-20T11:14:43Z</time>
      </trkpt>
      <trkpt lat="47.21895" lon="-0.00133">
        <ele>77</ele>
        <time>2016-04-20T11:14:46Z</time>
      </trkpt>
      <trkpt lat="47.21895" lon="-0.00133">
        <ele>77</ele>
        <time>2016-04-20T11:14:49Z</time>
      </trkpt>
      <trkpt lat="47.21895" lon="-0.00133">
        <ele>77</ele>
        <time>2016-04-20T11:14:52Z</time>
      </trkpt>
      <trkpt lat="47.21895" lon="-0.00133">
        <ele>77</ele>
        <time>2016-04-20T11:14:55Z</time>
      </trkpt>
      <trkpt lat="47.21895" lon="-0.00133">
        <ele>77</ele>
        <time>2016-04-20T11:14:58Z</time>
      </trkpt>
      <trkpt lat="47.21895" lon="-0.00133">
        <ele>77</ele>
        <time>2016-04-20T11:15:01Z</time>
      </trkpt>
      <trkpt lat="47.21895" lon="-0.00133">
        <ele>77</ele>
        <time>2016-04-20T11:15:04Z</time>
      </trkpt>
      <trkpt lat="47.21895" lon="-0.00133">
        <ele>77</ele>
        <time>2016-04-20T11:15:07Z</time>
      </trkpt>
      <trkpt lat="47.21895" lon="-0.00133">
        <ele>77</ele>
        <time>2016-04-20T11:15:10Z</time>
      </trkpt>
      <trkpt lat="47.21895" lon="-0.00133">
        <ele>77</ele>
        <time>2016-04-20T11:15:14Z</time>
      </trkpt>
      <trkpt lat="47.21895" lon="-0.00133">
        <ele>77</ele>
        <time>2016-04-20T11:15:16Z</time>
      </trkpt>
      <trkpt lat="47.21895" lon="-0.00133">
        <ele>77</ele>
        <time>2016-04-20T11:15:19Z</time>
      </trkpt>
      <trkpt lat="47.21895" lon="-0.00133">
        <ele>77</ele>
        <time>2016-04-20T11:15:22Z</time>
      </trkpt>
      <trkpt lat="47.21895" lon="-0.00133">
        <ele>77</ele>
        <time>2016-04-20T11:15:25Z</time>
      </trkpt>
      <trkpt lat="47.21895" lon="-0.00133">
        <ele>77</ele>
        <time>2016-04-20T11:15:28Z</time>
      </trkpt>
      <trkpt lat="47.21895" lon="-0.00133">
        <ele>77</ele>
        <time>2016-04-20T11:15:31Z</time>
      </trkpt>
      <trkpt lat="47.21895" lon="-0.00133">
        <ele>77</ele>
        <time>2016-04-20T11:15:34Z</time>
      </trkpt>
      <trkpt lat="47.21895" lon="-0.00133">
        <ele>77</ele>
        <time>2016-04-20T11:15:38Z</time>
      </trkpt>
      <trkpt lat="47.21895" lon="-0.00133">
        <ele>77</ele>
        <time>2016-04-20T11:15:40Z</time>
      </trkpt>
      <trkpt lat="47.21895" lon="-0.00133">
        <ele>77</ele>
        <time>2016-04-20T11:15:43Z</time>
      </trkpt>
      <trkpt lat="47.21895" lon="-0.00133">
        <ele>77</ele>
        <time>2016-04-20T11:15:46Z</time>
      </trkpt>
      <trkpt lat="47.21895" lon="-0.00133">
        <ele>77</ele>
        <time>2016-04-20T11:15:49Z</time>
      </trkpt>
      <trkpt lat="47.21895" lon="-0.00133">
        <ele>77</ele>
        <time>2016-04-20T11:15:52Z</time>
      </trkpt>
      <trkpt lat="47.21895" lon="-0.00133">
        <ele>77</ele>
        <time>2016-04-20T11:15:55Z</time>
      </trkpt>
      <trkpt lat="47.21895" lon="-0.00133">
        <ele>77</ele>
        <time>2016-04-20T11:15:58Z</time>
      </trkpt>
      <trkpt lat="47.21895" lon="-0.00133">
        <ele>77</ele>
        <time>2016-04-20T11:16:02Z</time>
      </trkpt>
      <trkpt lat="47.21895" lon="-0.00133">
        <ele>77</ele>
        <time>2016-04-20T11:16:04Z</time>
      </trkpt>
      <trkpt lat="47.21895" lon="-0.00133">
        <ele>77</ele>
        <time>2016-04-20T11:16:09Z</time>
      </trkpt>
      <trkpt lat="47.21895" lon="-0.00133">
        <ele>77</ele>
        <time>2016-04-20T11:16:10Z</time>
      </trkpt>
      <trkpt lat="47.21895" lon="-0.00133">
        <ele>77</ele>
        <time>2016-04-20T11:16:13Z</time>
      </trkpt>
      <trkpt lat="47.21895" lon="-0.00133">
        <ele>77</ele>
        <time>2016-04-20T11:16:16Z</time>
      </trkpt>
      <trkpt lat="47.21895" lon="-0.00133">
        <ele>77</ele>
        <time>2016-04-20T11:16:19Z</time>
      </trkpt>
      <trkpt lat="47.21895" lon="-0.00133">
        <ele>77</ele>
        <time>2016-04-20T11:16:22Z</time>
      </trkpt>
      <trkpt lat="47.21895" lon="-0.00133">
        <ele>77</ele>
        <time>2016-04-20T11:16:25Z</time>
      </trkpt>
      <trkpt lat="47.21895" lon="-0.00133">
        <ele>77</ele>
        <time>2016-04-20T11:16:28Z</time>
      </trkpt>
      <trkpt lat="47.21895" lon="-0.00133">
        <ele>77</ele>
        <time>2016-04-20T11:16:31Z</time>
      </trkpt>
      <trkpt lat="47.21895" lon="-0.00133">
        <ele>77</ele>
        <time>2016-04-20T11:16:34Z</time>
      </trkpt>
      <trkpt lat="47.21893" lon="-0.00133">
        <ele>76</ele>
        <time>2016-04-20T11:16:43Z</time>
      </trkpt>
      <trkpt lat="47.21893" lon="-0.00133">
        <ele>75</ele>
        <time>2016-04-20T11:16:46Z</time>
      </trkpt>
      <trkpt lat="47.21893" lon="-0.00133">
        <ele>76</ele>
        <time>2016-04-20T11:16:49Z</time>
      </trkpt>
      <trkpt lat="47.21893" lon="-0.00133">
        <ele>76</ele>
        <time>2016-04-20T11:16:53Z</time>
      </trkpt>
      <trkpt lat="47.21893" lon="-0.00133">
        <ele>76</ele>
        <time>2016-04-20T11:16:55Z</time>
      </trkpt>
      <trkpt lat="47.21893" lon="-0.00134">
        <ele>75</ele>
        <time>2016-04-20T11:16:58Z</time>
      </trkpt>
      <trkpt lat="47.21894" lon="-0.00131">
        <ele>73</ele>
        <time>2016-04-20T11:17:17Z</time>
      </trkpt>
      <trkpt lat="47.21895" lon="-0.00132">
        <ele>73</ele>
        <time>2016-04-20T11:17:20Z</time>
      </trkpt>
      <trkpt lat="47.21896" lon="-0.00136">
        <ele>74</ele>
        <time>2016-04-20T11:17:35Z</time>
      </trkpt>
      <trkpt lat="47.21896" lon="-0.00136">
        <ele>74</ele>
        <time>2016-04-20T11:17:38Z</time>
      </trkpt>
      <trkpt lat="47.21896" lon="-0.00136">
        <ele>74</ele>
        <time>2016-04-20T11:17:43Z</time>
      </trkpt>
      <trkpt lat="47.21896" lon="-0.00136">
        <ele>74</ele>
        <time>2016-04-20T11:17:44Z</time>
      </trkpt>
      <trkpt lat="47.21896" lon="-0.00136">
        <ele>74</ele>
        <time>2016-04-20T11:17:47Z</time>
      </trkpt>
      <trkpt lat="47.21896" lon="-0.00136">
        <ele>74</ele>
        <time>2016-04-20T11:17:52Z</time>
      </trkpt>
      <trkpt lat="47.21896" lon="-0.00136">
        <ele>74</ele>
        <time>2016-04-20T11:17:55Z</time>
      </trkpt>
      <trkpt lat="47.21896" lon="-0.00136">
        <ele>74</ele>
        <time>2016-04-20T11:17:58Z</time>
      </trkpt>
      <trkpt lat="47.21896" lon="-0.00136">
        <ele>74</ele>
        <time>2016-04-20T11:17:59Z</time>
      </trkpt>
      <trkpt lat="47.21896" lon="-0.00136">
        <ele>74</ele>
        <time>2016-04-20T11:18:02Z</time>
      </trkpt>
      <trkpt lat="47.21896" lon="-0.00136">
        <ele>74</ele>
        <time>2016-04-20T11:18:05Z</time>
      </trkpt>
      <trkpt lat="47.21896" lon="-0.00136">
        <ele>74</ele>
        <time>2016-04-20T11:18:08Z</time>
      </trkpt>
      <trkpt lat="47.21896" lon="-0.00136">
        <ele>74</ele>
        <time>2016-04-20T11:18:11Z</time>
      </trkpt>
      <trkpt lat="47.21896" lon="-0.00136">
        <ele>74</ele>
        <time>2016-04-20T11:18:14Z</time>
      </trkpt>
      <trkpt lat="47.21896" lon="-0.00136">
        <ele>74</ele>
        <time>2016-04-20T11:18:17Z</time>
      </trkpt>
      <trkpt lat="47.21896" lon="-0.00136">
        <ele>74</ele>
        <time>2016-04-20T11:18:21Z</time>
      </trkpt>
      <trkpt lat="47.21896" lon="-0.00136">
        <ele>74</ele>
        <time>2016-04-20T11:18:23Z</time>
      </trkpt>
      <trkpt lat="47.21896" lon="-0.00136">
        <ele>74</ele>
        <time>2016-04-20T11:18:26Z</time>
      </trkpt>
      <trkpt lat="47.21896" lon="-0.00136">
        <ele>74</ele>
        <time>2016-04-20T11:18:30Z</time>
      </trkpt>
      <trkpt lat="47.21896" lon="-0.00136">
        <ele>74</ele>
        <time>2016-04-20T11:18:32Z</time>
      </trkpt>
      <trkpt lat="47.21896" lon="-0.00136">
        <ele>74</ele>
        <time>2016-04-20T11:18:37Z</time>
      </trkpt>
      <trkpt lat="47.21896" lon="-0.00136">
        <ele>74</ele>
        <time>2016-04-20T11:18:38Z</time>
      </trkpt>
      <trkpt lat="47.21896" lon="-0.00136">
        <ele>74</ele>
        <time>2016-04-20T11:18:41Z</time>
      </trkpt>
      <trkpt lat="47.21896" lon="-0.00136">
        <ele>74</ele>
        <time>2016-04-20T11:18:44Z</time>
      </trkpt>
      <trkpt lat="47.21896" lon="-0.00136">
        <ele>74</ele>
        <time>2016-04-20T11:18:47Z</time>
      </trkpt>
      <trkpt lat="47.21896" lon="-0.00136">
        <ele>74</ele>
        <time>2016-04-20T11:18:50Z</time>
      </trkpt>
      <trkpt lat="47.21896" lon="-0.00136">
        <ele>74</ele>
        <time>2016-04-20T11:18:53Z</time>
      </trkpt>
      <trkpt lat="47.21896" lon="-0.00136">
        <ele>74</ele>
        <time>2016-04-20T11:18:56Z</time>
      </trkpt>
      <trkpt lat="47.21896" lon="-0.00136">
        <ele>74</ele>
        <time>2016-04-20T11:19:01Z</time>
      </trkpt>
      <trkpt lat="47.21896" lon="-0.00136">
        <ele>74</ele>
        <time>2016-04-20T11:19:04Z</time>
      </trkpt>
      <trkpt lat="47.21896" lon="-0.00136">
        <ele>74</ele>
        <time>2016-04-20T11:19:05Z</time>
      </trkpt>
      <trkpt lat="47.21896" lon="-0.00136">
        <ele>74</ele>
        <time>2016-04-20T11:19:08Z</time>
      </trkpt>
      <trkpt lat="47.21896" lon="-0.00136">
        <ele>74</ele>
        <time>2016-04-20T11:19:11Z</time>
      </trkpt>
      <trkpt lat="47.21896" lon="-0.00136">
        <ele>74</ele>
        <time>2016-04-20T11:19:14Z</time>
      </trkpt>
      <trkpt lat="47.21896" lon="-0.00136">
        <ele>74</ele>
        <time>2016-04-20T11:19:19Z</time>
      </trkpt>
      <trkpt lat="47.21896" lon="-0.00136">
        <ele>74</ele>
        <time>2016-04-20T11:19:20Z</time>
      </trkpt>
      <trkpt lat="47.21896" lon="-0.00136">
        <ele>74</ele>
        <time>2016-04-20T11:19:23Z</time>
      </trkpt>
      <trkpt lat="47.21896" lon="-0.00136">
        <ele>74</ele>
        <time>2016-04-20T11:19:26Z</time>
      </trkpt>
      <trkpt lat="47.21896" lon="-0.00136">
        <ele>74</ele>
        <time>2016-04-20T11:19:31Z</time>
      </trkpt>
      <trkpt lat="47.21896" lon="-0.00136">
        <ele>74</ele>
        <time>2016-04-20T11:19:32Z</time>
      </trkpt>
      <trkpt lat="47.21896" lon="-0.00136">
        <ele>74</ele>
        <time>2016-04-20T11:19:35Z</time>
      </trkpt>
      <trkpt lat="47.21896" lon="-0.00136">
        <ele>74</ele>
        <time>2016-04-20T11:19:38Z</time>
      </trkpt>
      <trkpt lat="47.21896" lon="-0.00136">
        <ele>74</ele>
        <time>2016-04-20T11:19:41Z</time>
      </trkpt>
      <trkpt lat="47.21896" lon="-0.00136">
        <ele>74</ele>
        <time>2016-04-20T11:19:44Z</time>
      </trkpt>
      <trkpt lat="47.21896" lon="-0.00136">
        <ele>74</ele>
        <time>2016-04-20T11:19:48Z</time>
      </trkpt>
      <trkpt lat="47.21896" lon="-0.00136">
        <ele>74</ele>
        <time>2016-04-20T11:19:52Z</time>
      </trkpt>
      <trkpt lat="47.21896" lon="-0.00136">
        <ele>74</ele>
        <time>2016-04-20T11:19:53Z</time>
      </trkpt>
      <trkpt lat="47.21896" lon="-0.00135">
        <ele>74</ele>
        <time>2016-04-20T11:19:56Z</time>
      </trkpt>
      <trkpt lat="47.21896" lon="-0.00135">
        <ele>74</ele>
        <time>2016-04-20T11:19:59Z</time>
      </trkpt>
      <trkpt lat="47.21896" lon="-0.00135">
        <ele>74</ele>
        <time>2016-04-20T11:20:02Z</time>
      </trkpt>
      <trkpt lat="47.21896" lon="-0.00135">
        <ele>74</ele>
        <time>2016-04-20T11:20:05Z</time>
      </trkpt>
      <trkpt lat="47.21896" lon="-0.00135">
        <ele>74</ele>
        <time>2016-04-20T11:20:08Z</time>
      </trkpt>
      <trkpt lat="47.21896" lon="-0.00135">
        <ele>74</ele>
        <time>2016-04-20T11:20:11Z</time>
      </trkpt>
      <trkpt lat="47.21896" lon="-0.00135">
        <ele>74</ele>
        <time>2016-04-20T11:20:14Z</time>
      </trkpt>
      <trkpt lat="47.21896" lon="-0.00135">
        <ele>74</ele>
        <time>2016-04-20T11:20:18Z</time>
      </trkpt>
      <trkpt lat="47.21896" lon="-0.00135">
        <ele>74</ele>
        <time>2016-04-20T11:20:20Z</time>
      </trkpt>
      <trkpt lat="47.21896" lon="-0.00135">
        <ele>74</ele>
        <time>2016-04-20T11:20:23Z</time>
      </trkpt>
      <trkpt lat="47.21896" lon="-0.00135">
        <ele>74</ele>
        <time>2016-04-20T11:20:26Z</time>
      </trkpt>
      <trkpt lat="47.21896" lon="-0.00135">
        <ele>74</ele>
        <time>2016-04-20T11:20:29Z</time>
      </trkpt>
      <trkpt lat="47.21896" lon="-0.00135">
        <ele>74</ele>
        <time>2016-04-20T11:20:32Z</time>
      </trkpt>
      <trkpt lat="47.21896" lon="-0.00135">
        <ele>74</ele>
        <time>2016-04-20T11:20:35Z</time>
      </trkpt>
      <trkpt lat="47.21896" lon="-0.00135">
        <ele>74</ele>
        <time>2016-04-20T11:20:40Z</time>
      </trkpt>
      <trkpt lat="47.21896" lon="-0.00135">
        <ele>74</ele>
        <time>2016-04-20T11:20:41Z</time>
      </trkpt>
      <trkpt lat="47.21896" lon="-0.00135">
        <ele>74</ele>
        <time>2016-04-20T11:20:44Z</time>
      </trkpt>
      <trkpt lat="47.21896" lon="-0.00135">
        <ele>74</ele>
        <time>2016-04-20T11:20:47Z</time>
      </trkpt>
      <trkpt lat="47.21896" lon="-0.00135">
        <ele>74</ele>
        <time>2016-04-20T11:20:50Z</time>
      </trkpt>
      <trkpt lat="47.21896" lon="-0.00135">
        <ele>74</ele>
        <time>2016-04-20T11:20:53Z</time>
      </trkpt>
      <trkpt lat="47.21896" lon="-0.00135">
        <ele>74</ele>
        <time>2016-04-20T11:20:56Z</time>
      </trkpt>
      <trkpt lat="47.21896" lon="-0.00135">
        <ele>74</ele>
        <time>2016-04-20T11:20:59Z</time>
      </trkpt>
      <trkpt lat="47.21896" lon="-0.00135">
        <ele>74</ele>
        <time>2016-04-20T11:21:02Z</time>
      </trkpt>
      <trkpt lat="47.21896" lon="-0.00135">
        <ele>74</ele>
        <time>2016-04-20T11:21:05Z</time>
      </trkpt>
      <trkpt lat="47.21896" lon="-0.00135">
        <ele>74</ele>
        <time>2016-04-20T11:21:08Z</time>
      </trkpt>
      <trkpt lat="47.21896" lon="-0.00135">
        <ele>74</ele>
        <time>2016-04-20T11:21:11Z</time>
      </trkpt>
      <trkpt lat="47.21896" lon="-0.00135">
        <ele>74</ele>
        <time>2016-04-20T11:21:14Z</time>
      </trkpt>
      <trkpt lat="47.21896" lon="-0.00135">
        <ele>74</ele>
        <time>2016-04-20T11:21:17Z</time>
      </trkpt>
      <trkpt lat="47.21896" lon="-0.00135">
        <ele>74</ele>
        <time>2016-04-20T11:21:22Z</time>
      </trkpt>
      <trkpt lat="47.21896" lon="-0.00135">
        <ele>74</ele>
        <time>2016-04-20T11:21:23Z</time>
      </trkpt>
      <trkpt lat="47.21896" lon="-0.00135">
        <ele>74</ele>
        <time>2016-04-20T11:21:26Z</time>
      </trkpt>
      <trkpt lat="47.21896" lon="-0.00135">
        <ele>74</ele>
        <time>2016-04-20T11:21:29Z</time>
      </trkpt>
      <trkpt lat="47.21896" lon="-0.00135">
        <ele>74</ele>
        <time>2016-04-20T11:21:32Z</time>
      </trkpt>
      <trkpt lat="47.21896" lon="-0.00135">
        <ele>74</ele>
        <time>2016-04-20T11:21:35Z</time>
      </trkpt>
      <trkpt lat="47.21896" lon="-0.00135">
        <ele>74</ele>
        <time>2016-04-20T11:21:39Z</time>
      </trkpt>
      <trkpt lat="47.21896" lon="-0.00135">
        <ele>74</ele>
        <time>2016-04-20T11:21:41Z</time>
      </trkpt>
      <trkpt lat="47.21896" lon="-0.00135">
        <ele>74</ele>
        <time>2016-04-20T11:21:44Z</time>
      </trkpt>
      <trkpt lat="47.21896" lon="-0.00135">
        <ele>74</ele>
        <time>2016-04-20T11:21:47Z</time>
      </trkpt>
      <trkpt lat="47.21896" lon="-0.00135">
        <ele>74</ele>
        <time>2016-04-20T11:21:50Z</time>
      </trkpt>
      <trkpt lat="47.21896" lon="-0.00135">
        <ele>74</ele>
        <time>2016-04-20T11:21:53Z</time>
      </trkpt>
      <trkpt lat="47.21896" lon="-0.00135">
        <ele>74</ele>
        <time>2016-04-20T11:21:56Z</time>
      </trkpt>
      <trkpt lat="47.21896" lon="-0.00135">
        <ele>74</ele>
        <time>2016-04-20T11:22:01Z</time>
      </trkpt>
      <trkpt lat="47.21896" lon="-0.00135">
        <ele>74</ele>
        <time>2016-04-20T11:22:02Z</time>
      </trkpt>
      <trkpt lat="47.21896" lon="-0.00135">
        <ele>74</ele>
        <time>2016-04-20T11:22:05Z</time>
      </trkpt>
      <trkpt lat="47.21896" lon="-0.00135">
        <ele>74</ele>
        <time>2016-04-20T11:22:08Z</time>
      </trkpt>
      <trkpt lat="47.21896" lon="-0.00135">
        <ele>74</ele>
        <time>2016-04-20T11:22:11Z</time>
      </trkpt>
      <trkpt lat="47.21896" lon="-0.00135">
        <ele>74</ele>
        <time>2016-04-20T11:22:14Z</time>
      </trkpt>
      <trkpt lat="47.21896" lon="-0.00135">
        <ele>74</ele>
        <time>2016-04-20T11:22:17Z</time>
      </trkpt>
      <trkpt lat="47.21896" lon="-0.00135">
        <ele>74</ele>
        <time>2016-04-20T11:22:20Z</time>
      </trkpt>
      <trkpt lat="47.21896" lon="-0.00135">
        <ele>74</ele>
        <time>2016-04-20T11:22:23Z</time>
      </trkpt>
      <trkpt lat="47.21896" lon="-0.00135">
        <ele>74</ele>
        <time>2016-04-20T11:22:27Z</time>
      </trkpt>
      <trkpt lat="47.21896" lon="-0.00135">
        <ele>74</ele>
        <time>2016-04-20T11:22:29Z</time>
      </trkpt>
      <trkpt lat="47.21896" lon="-0.00135">
        <ele>74</ele>
        <time>2016-04-20T11:22:32Z</time>
      </trkpt>
      <trkpt lat="47.21896" lon="-0.00135">
        <ele>74</ele>
        <time>2016-04-20T11:22:37Z</time>
      </trkpt>
      <trkpt lat="47.21896" lon="-0.00135">
        <ele>74</ele>
        <time>2016-04-20T11:22:38Z</time>
      </trkpt>
      <trkpt lat="47.21896" lon="-0.00135">
        <ele>74</ele>
        <time>2016-04-20T11:22:41Z</time>
      </trkpt>
      <trkpt lat="47.21896" lon="-0.00135">
        <ele>74</ele>
        <time>2016-04-20T11:22:44Z</time>
      </trkpt>
      <trkpt lat="47.21896" lon="-0.00135">
        <ele>74</ele>
        <time>2016-04-20T11:22:47Z</time>
      </trkpt>
      <trkpt lat="47.21896" lon="-0.00135">
        <ele>74</ele>
        <time>2016-04-20T11:22:51Z</time>
      </trkpt>
      <trkpt lat="47.21896" lon="-0.00135">
        <ele>74</ele>
        <time>2016-04-20T11:22:53Z</time>
      </trkpt>
      <trkpt lat="47.21896" lon="-0.00135">
        <ele>74</ele>
        <time>2016-04-20T11:22:56Z</time>
      </trkpt>
      <trkpt lat="47.21896" lon="-0.00135">
        <ele>74</ele>
        <time>2016-04-20T11:22:59Z</time>
      </trkpt>
      <trkpt lat="47.21896" lon="-0.00135">
        <ele>74</ele>
        <time>2016-04-20T11:23:02Z</time>
      </trkpt>
      <trkpt lat="47.21896" lon="-0.00135">
        <ele>74</ele>
        <time>2016-04-20T11:23:05Z</time>
      </trkpt>
      <trkpt lat="47.21896" lon="-0.00135">
        <ele>74</ele>
        <time>2016-04-20T11:23:08Z</time>
      </trkpt>
      <trkpt lat="47.21896" lon="-0.00135">
        <ele>74</ele>
        <time>2016-04-20T11:23:11Z</time>
      </trkpt>
      <trkpt lat="47.21896" lon="-0.00135">
        <ele>74</ele>
        <time>2016-04-20T11:23:15Z</time>
      </trkpt>
      <trkpt lat="47.21896" lon="-0.00135">
        <ele>74</ele>
        <time>2016-04-20T11:23:17Z</time>
      </trkpt>
      <trkpt lat="47.21896" lon="-0.00135">
        <ele>74</ele>
        <time>2016-04-20T11:23:20Z</time>
      </trkpt>
      <trkpt lat="47.21896" lon="-0.00135">
        <ele>74</ele>
        <time>2016-04-20T11:23:23Z</time>
      </trkpt>
      <trkpt lat="47.21896" lon="-0.00135">
        <ele>74</ele>
        <time>2016-04-20T11:23:26Z</time>
      </trkpt>
      <trkpt lat="47.21896" lon="-0.00135">
        <ele>74</ele>
        <time>2016-04-20T11:23:29Z</time>
      </trkpt>
      <trkpt lat="47.21896" lon="-0.00135">
        <ele>74</ele>
        <time>2016-04-20T11:23:34Z</time>
      </trkpt>
      <trkpt lat="47.21896" lon="-0.00135">
        <ele>74</ele>
        <time>2016-04-20T11:23:35Z</time>
      </trkpt>
      <trkpt lat="47.21896" lon="-0.00135">
        <ele>74</ele>
        <time>2016-04-20T11:23:38Z</time>
      </trkpt>
      <trkpt lat="47.21896" lon="-0.00135">
        <ele>74</ele>
        <time>2016-04-20T11:23:41Z</time>
      </trkpt>
      <trkpt lat="47.21896" lon="-0.00135">
        <ele>74</ele>
        <time>2016-04-20T11:23:44Z</time>
      </trkpt>
      <trkpt lat="47.21896" lon="-0.00135">
        <ele>74</ele>
        <time>2016-04-20T11:23:48Z</time>
      </trkpt>
      <trkpt lat="47.21896" lon="-0.00135">
        <ele>74</ele>
        <time>2016-04-20T11:23:50Z</time>
      </trkpt>
      <trkpt lat="47.21896" lon="-0.00135">
        <ele>74</ele>
        <time>2016-04-20T11:23:53Z</time>
      </trkpt>
      <trkpt lat="47.21896" lon="-0.00135">
        <ele>74</ele>
        <time>2016-04-20T11:23:56Z</time>
      </trkpt>
      <trkpt lat="47.21896" lon="-0.00135">
        <ele>74</ele>
        <time>2016-04-20T11:23:59Z</time>
      </trkpt>
      <trkpt lat="47.21896" lon="-0.00135">
        <ele>74</ele>
        <time>2016-04-20T11:24:02Z</time>
      </trkpt>
      <trkpt lat="47.21896" lon="-0.00135">
        <ele>74</ele>
        <time>2016-04-20T11:24:05Z</time>
      </trkpt>
      <trkpt lat="47.21896" lon="-0.00135">
        <ele>74</ele>
        <time>2016-04-20T11:24:08Z</time>
      </trkpt>
      <trkpt lat="47.21896" lon="-0.00135">
        <ele>74</ele>
        <time>2016-04-20T11:24:11Z</time>
      </trkpt>
      <trkpt lat="47.21896" lon="-0.00135">
        <ele>74</ele>
        <time>2016-04-20T11:24:14Z</time>
      </trkpt>
      <trkpt lat="47.21896" lon="-0.00135">
        <ele>74</ele>
        <time>2016-04-20T11:24:17Z</time>
      </trkpt>
      <trkpt lat="47.21896" lon="-0.00135">
        <ele>74</ele>
        <time>2016-04-20T11:24:20Z</time>
      </trkpt>
      <trkpt lat="47.21896" lon="-0.00135">
        <ele>74</ele>
        <time>2016-04-20T11:24:23Z</time>
      </trkpt>
      <trkpt lat="47.21896" lon="-0.00135">
        <ele>74</ele>
        <time>2016-04-20T11:24:26Z</time>
      </trkpt>
      <trkpt lat="47.21896" lon="-0.00135">
        <ele>74</ele>
        <time>2016-04-20T11:24:29Z</time>
      </trkpt>
      <trkpt lat="47.21896" lon="-0.00135">
        <ele>74</ele>
        <time>2016-04-20T11:24:32Z</time>
      </trkpt>
      <trkpt lat="47.21896" lon="-0.00135">
        <ele>74</ele>
        <time>2016-04-20T11:24:35Z</time>
      </trkpt>
      <trkpt lat="47.21896" lon="-0.00135">
        <ele>74</ele>
        <time>2016-04-20T11:24:40Z</time>
      </trkpt>
      <trkpt lat="47.21896" lon="-0.00136">
        <ele>73</ele>
        <time>2016-04-20T11:24:44Z</time>
      </trkpt>
      <trkpt lat="47.21896" lon="-0.00137">
        <ele>73</ele>
        <time>2016-04-20T11:24:48Z</time>
      </trkpt>
      <trkpt lat="47.21896" lon="-0.00136">
        <ele>73</ele>
        <time>2016-04-20T11:24:50Z</time>
      </trkpt>
      <trkpt lat="47.21895" lon="-0.00136">
        <ele>73</ele>
        <time>2016-04-20T11:24:53Z</time>
      </trkpt>
      <trkpt lat="47.21895" lon="-0.00136">
        <ele>73</ele>
        <time>2016-04-20T11:24:56Z</time>
      </trkpt>
      <trkpt lat="47.21895" lon="-0.00136">
        <ele>73</ele>
        <time>2016-04-20T11:24:59Z</time>
      </trkpt>
      <trkpt lat="47.21896" lon="-0.00136">
        <ele>73</ele>
        <time>2016-04-20T11:25:02Z</time>
      </trkpt>
      <trkpt lat="47.21896" lon="-0.00136">
        <ele>73</ele>
        <time>2016-04-20T11:25:05Z</time>
      </trkpt>
      <trkpt lat="47.21896" lon="-0.00138">
        <ele>71</ele>
        <time>2016-04-20T11:25:11Z</time>
      </trkpt>
      <trkpt lat="47.21896" lon="-0.00138">
        <ele>71</ele>
        <time>2016-04-20T11:25:14Z</time>
      </trkpt>
      <trkpt lat="47.21896" lon="-0.00138">
        <ele>71</ele>
        <time>2016-04-20T11:25:17Z</time>
      </trkpt>
      <trkpt lat="47.21896" lon="-0.00138">
        <ele>71</ele>
        <time>2016-04-20T11:25:20Z</time>
      </trkpt>
      <trkpt lat="47.21896" lon="-0.00138">
        <ele>71</ele>
        <time>2016-04-20T11:25:25Z</time>
      </trkpt>
      <trkpt lat="47.21896" lon="-0.00138">
        <ele>71</ele>
        <time>2016-04-20T11:25:26Z</time>
      </trkpt>
      <trkpt lat="47.21896" lon="-0.00138">
        <ele>71</ele>
        <time>2016-04-20T11:25:29Z</time>
      </trkpt>
      <trkpt lat="47.21896" lon="-0.00138">
        <ele>71</ele>
        <time>2016-04-20T11:25:32Z</time>
      </trkpt>
      <trkpt lat="47.21896" lon="-0.00138">
        <ele>71</ele>
        <time>2016-04-20T11:25:35Z</time>
      </trkpt>
      <trkpt lat="47.21896" lon="-0.00138">
        <ele>71</ele>
        <time>2016-04-20T11:25:38Z</time>
      </trkpt>
      <trkpt lat="47.21896" lon="-0.00138">
        <ele>71</ele>
        <time>2016-04-20T11:25:41Z</time>
      </trkpt>
      <trkpt lat="47.21896" lon="-0.00138">
        <ele>71</ele>
        <time>2016-04-20T11:25:45Z</time>
      </trkpt>
      <trkpt lat="47.21896" lon="-0.00136">
        <ele>71</ele>
        <time>2016-04-20T11:25:47Z</time>
      </trkpt>
      <trkpt lat="47.21896" lon="-0.00134">
        <ele>72</ele>
        <time>2016-04-20T11:25:59Z</time>
      </trkpt>
      <trkpt lat="47.21896" lon="-0.00134">
        <ele>72</ele>
        <time>2016-04-20T11:26:01Z</time>
      </trkpt>
      <trkpt lat="47.21896" lon="-0.00134">
        <ele>72</ele>
        <time>2016-04-20T11:26:05Z</time>
      </trkpt>
      <trkpt lat="47.21896" lon="-0.00134">
        <ele>72</ele>
        <time>2016-04-20T11:26:09Z</time>
      </trkpt>
      <trkpt lat="47.21896" lon="-0.00134">
        <ele>72</ele>
        <time>2016-04-20T11:26:11Z</time>
      </trkpt>
      <trkpt lat="47.21896" lon="-0.00134">
        <ele>72</ele>
        <time>2016-04-20T11:26:13Z</time>
      </trkpt>
      <trkpt lat="47.21896" lon="-0.00134">
        <ele>72</ele>
        <time>2016-04-20T11:26:17Z</time>
      </trkpt>
      <trkpt lat="47.21896" lon="-0.00134">
        <ele>72</ele>
        <time>2016-04-20T11:26:19Z</time>
      </trkpt>
      <trkpt lat="47.21896" lon="-0.00134">
        <ele>72</ele>
        <time>2016-04-20T11:26:22Z</time>
      </trkpt>
      <trkpt lat="47.21896" lon="-0.00134">
        <ele>72</ele>
        <time>2016-04-20T11:26:25Z</time>
      </trkpt>
      <trkpt lat="47.21896" lon="-0.00134">
        <ele>72</ele>
        <time>2016-04-20T11:26:28Z</time>
      </trkpt>
      <trkpt lat="47.21896" lon="-0.00134">
        <ele>72</ele>
        <time>2016-04-20T11:26:31Z</time>
      </trkpt>
      <trkpt lat="47.21896" lon="-0.00134">
        <ele>72</ele>
        <time>2016-04-20T11:26:34Z</time>
      </trkpt>
      <trkpt lat="47.21896" lon="-0.00134">
        <ele>72</ele>
        <time>2016-04-20T11:26:37Z</time>
      </trkpt>
      <trkpt lat="47.21896" lon="-0.00134">
        <ele>72</ele>
        <time>2016-04-20T11:26:41Z</time>
      </trkpt>
      <trkpt lat="47.21896" lon="-0.00134">
        <ele>72</ele>
        <time>2016-04-20T11:26:44Z</time>
      </trkpt>
      <trkpt lat="47.21896" lon="-0.00133">
        <ele>72</ele>
        <time>2016-04-20T11:26:48Z</time>
      </trkpt>
      <trkpt lat="47.21896" lon="-0.00133">
        <ele>72</ele>
        <time>2016-04-20T11:26:49Z</time>
      </trkpt>
      <trkpt lat="47.21896" lon="-0.00133">
        <ele>72</ele>
        <time>2016-04-20T11:26:52Z</time>
      </trkpt>
      <trkpt lat="47.21896" lon="-0.00133">
        <ele>72</ele>
        <time>2016-04-20T11:26:57Z</time>
      </trkpt>
      <trkpt lat="47.21896" lon="-0.00133">
        <ele>72</ele>
        <time>2016-04-20T11:26:58Z</time>
      </trkpt>
      <trkpt lat="47.21896" lon="-0.00133">
        <ele>72</ele>
        <time>2016-04-20T11:27:01Z</time>
      </trkpt>
      <trkpt lat="47.21896" lon="-0.00133">
        <ele>72</ele>
        <time>2016-04-20T11:27:05Z</time>
      </trkpt>
      <trkpt lat="47.21896" lon="-0.00133">
        <ele>72</ele>
        <time>2016-04-20T11:27:07Z</time>
      </trkpt>
      <trkpt lat="47.21896" lon="-0.00133">
        <ele>72</ele>
        <time>2016-04-20T11:27:12Z</time>
      </trkpt>
      <trkpt lat="47.21896" lon="-0.00133">
        <ele>72</ele>
        <time>2016-04-20T11:27:15Z</time>
      </trkpt>
      <trkpt lat="47.21896" lon="-0.00133">
        <ele>72</ele>
        <time>2016-04-20T11:27:16Z</time>
      </trkpt>
      <trkpt lat="47.21896" lon="-0.00133">
        <ele>72</ele>
        <time>2016-04-20T11:27:21Z</time>
      </trkpt>
      <trkpt lat="47.21896" lon="-0.00134">
        <ele>72</ele>
        <time>2016-04-20T11:27:22Z</time>
      </trkpt>
      <trkpt lat="47.21896" lon="-0.00134">
        <ele>72</ele>
        <time>2016-04-20T11:27:25Z</time>
      </trkpt>
      <trkpt lat="47.21896" lon="-0.00134">
        <ele>72</ele>
        <time>2016-04-20T11:27:28Z</time>
      </trkpt>
      <trkpt lat="47.21896" lon="-0.00134">
        <ele>72</ele>
        <time>2016-04-20T11:27:31Z</time>
      </trkpt>
      <trkpt lat="47.21896" lon="-0.00134">
        <ele>72</ele>
        <time>2016-04-20T11:27:34Z</time>
      </trkpt>
      <trkpt lat="47.21896" lon="-0.00134">
        <ele>72</ele>
        <time>2016-04-20T11:27:37Z</time>
      </trkpt>
      <trkpt lat="47.21896" lon="-0.00133">
        <ele>72</ele>
        <time>2016-04-20T11:27:41Z</time>
      </trkpt>
      <trkpt lat="47.21896" lon="-0.00134">
        <ele>72</ele>
        <time>2016-04-20T11:27:44Z</time>
      </trkpt>
      <trkpt lat="47.21896" lon="-0.00134">
        <ele>72</ele>
        <time>2016-04-20T11:27:46Z</time>
      </trkpt>
      <trkpt lat="47.21896" lon="-0.00134">
        <ele>72</ele>
        <time>2016-04-20T11:27:49Z</time>
      </trkpt>
      <trkpt lat="47.21896" lon="-0.00134">
        <ele>72</ele>
        <time>2016-04-20T11:27:52Z</time>
      </trkpt>
      <trkpt lat="47.21896" lon="-0.00134">
        <ele>72</ele>
        <time>2016-04-20T11:27:55Z</time>
      </trkpt>
      <trkpt lat="47.21896" lon="-0.00134">
        <ele>72</ele>
        <time>2016-04-20T11:27:58Z</time>
      </trkpt>
      <trkpt lat="47.21896" lon="-0.00134">
        <ele>72</ele>
        <time>2016-04-20T11:28:01Z</time>
      </trkpt>
      <trkpt lat="47.21896" lon="-0.00134">
        <ele>72</ele>
        <time>2016-04-20T11:28:04Z</time>
      </trkpt>
      <trkpt lat="47.21896" lon="-0.00134">
        <ele>72</ele>
        <time>2016-04-20T11:28:07Z</time>
      </trkpt>
      <trkpt lat="47.21896" lon="-0.00134">
        <ele>72</ele>
        <time>2016-04-20T11:28:10Z</time>
      </trkpt>
      <trkpt lat="47.21896" lon="-0.00134">
        <ele>72</ele>
        <time>2016-04-20T11:28:13Z</time>
      </trkpt>
      <trkpt lat="47.21896" lon="-0.00134">
        <ele>72</ele>
        <time>2016-04-20T11:28:16Z</time>
      </trkpt>
      <trkpt lat="47.21896" lon="-0.00134">
        <ele>72</ele>
        <time>2016-04-20T11:28:19Z</time>
      </trkpt>
      <trkpt lat="47.21896" lon="-0.00134">
        <ele>72</ele>
        <time>2016-04-20T11:28:22Z</time>
      </trkpt>
      <trkpt lat="47.21896" lon="-0.00134">
        <ele>72</ele>
        <time>2016-04-20T11:28:26Z</time>
      </trkpt>
      <trkpt lat="47.21896" lon="-0.00133">
        <ele>71</ele>
        <time>2016-04-20T11:28:28Z</time>
      </trkpt>
      <trkpt lat="47.21897" lon="-0.00138">
        <ele>70</ele>
        <time>2016-04-20T11:28:47Z</time>
      </trkpt>
      <trkpt lat="47.21897" lon="-0.00138">
        <ele>70</ele>
        <time>2016-04-20T11:28:50Z</time>
      </trkpt>
      <trkpt lat="47.21897" lon="-0.00138">
        <ele>70</ele>
        <time>2016-04-20T11:28:53Z</time>
      </trkpt>
      <trkpt lat="47.21897" lon="-0.00138">
        <ele>70</ele>
        <time>2016-04-20T11:28:57Z</time>
      </trkpt>
      <trkpt lat="47.21897" lon="-0.00138">
        <ele>70</ele>
        <time>2016-04-20T11:28:59Z</time>
      </trkpt>
      <trkpt lat="47.21897" lon="-0.00138">
        <ele>70</ele>
        <time>2016-04-20T11:29:02Z</time>
      </trkpt>
      <trkpt lat="47.21897" lon="-0.00138">
        <ele>70</ele>
        <time>2016-04-20T11:29:05Z</time>
      </trkpt>
      <trkpt lat="47.21897" lon="-0.00138">
        <ele>70</ele>
        <time>2016-04-20T11:29:08Z</time>
      </trkpt>
      <trkpt lat="47.21897" lon="-0.00138">
        <ele>70</ele>
        <time>2016-04-20T11:29:11Z</time>
      </trkpt>
      <trkpt lat="47.21897" lon="-0.00138">
        <ele>70</ele>
        <time>2016-04-20T11:29:15Z</time>
      </trkpt>
      <trkpt lat="47.21897" lon="-0.00138">
        <ele>70</ele>
        <time>2016-04-20T11:29:17Z</time>
      </trkpt>
      <trkpt lat="47.21897" lon="-0.00138">
        <ele>70</ele>
        <time>2016-04-20T11:29:20Z</time>
      </trkpt>
      <trkpt lat="47.21897" lon="-0.0014">
        <ele>71</ele>
        <time>2016-04-20T11:29:26Z</time>
      </trkpt>
      <trkpt lat="47.21898" lon="-0.0014">
        <ele>72</ele>
        <time>2016-04-20T11:29:32Z</time>
      </trkpt>
      <trkpt lat="47.21897" lon="-0.0014">
        <ele>72</ele>
        <time>2016-04-20T11:29:35Z</time>
      </trkpt>
      <trkpt lat="47.21897" lon="-0.00139">
        <ele>72</ele>
        <time>2016-04-20T11:29:39Z</time>
      </trkpt>
      <trkpt lat="47.21896" lon="-0.00138">
        <ele>73</ele>
        <time>2016-04-20T11:29:41Z</time>
      </trkpt>
      <trkpt lat="47.21895" lon="-0.00138">
        <ele>71</ele>
        <time>2016-04-20T11:29:52Z</time>
      </trkpt>
      <trkpt lat="47.21895" lon="-0.00138">
        <ele>73</ele>
        <time>2016-04-20T11:29:55Z</time>
      </trkpt>
      <trkpt lat="47.21896" lon="-0.00138">
        <ele>72</ele>
        <time>2016-04-20T11:29:59Z</time>
      </trkpt>
      <trkpt lat="47.21896" lon="-0.00139">
        <ele>73</ele>
        <time>2016-04-20T11:30:07Z</time>
      </trkpt>
      <trkpt lat="47.21896" lon="-0.00139">
        <ele>73</ele>
        <time>2016-04-20T11:30:10Z</time>
      </trkpt>
      <trkpt lat="47.21896" lon="-0.00138">
        <ele>73</ele>
        <time>2016-04-20T11:30:13Z</time>
      </trkpt>
      <trkpt lat="47.21896" lon="-0.00138">
        <ele>73</ele>
        <time>2016-04-20T11:30:16Z</time>
      </trkpt>
      <trkpt lat="47.21896" lon="-0.00138">
        <ele>73</ele>
        <time>2016-04-20T11:30:19Z</time>
      </trkpt>
      <trkpt lat="47.21896" lon="-0.00138">
        <ele>73</ele>
        <time>2016-04-20T11:30:22Z</time>
      </trkpt>
      <trkpt lat="47.21896" lon="-0.00138">
        <ele>73</ele>
        <time>2016-04-20T11:30:25Z</time>
      </trkpt>
      <trkpt lat="47.21896" lon="-0.00138">
        <ele>73</ele>
        <time>2016-04-20T11:30:30Z</time>
      </trkpt>
      <trkpt lat="47.21896" lon="-0.00138">
        <ele>73</ele>
        <time>2016-04-20T11:30:31Z</time>
      </trkpt>
      <trkpt lat="47.21896" lon="-0.00138">
        <ele>73</ele>
        <time>2016-04-20T11:30:34Z</time>
      </trkpt>
      <trkpt lat="47.21896" lon="-0.00138">
        <ele>73</ele>
        <time>2016-04-20T11:30:37Z</time>
      </trkpt>
      <trkpt lat="47.21896" lon="-0.00138">
        <ele>73</ele>
        <time>2016-04-20T11:30:40Z</time>
      </trkpt>
      <trkpt lat="47.21896" lon="-0.00138">
        <ele>73</ele>
        <time>2016-04-20T11:30:45Z</time>
      </trkpt>
      <trkpt lat="47.21896" lon="-0.00138">
        <ele>73</ele>
        <time>2016-04-20T11:30:46Z</time>
      </trkpt>
      <trkpt lat="47.21896" lon="-0.00138">
        <ele>73</ele>
        <time>2016-04-20T11:30:49Z</time>
      </trkpt>
      <trkpt lat="47.21896" lon="-0.00138">
        <ele>73</ele>
        <time>2016-04-20T11:30:52Z</time>
      </trkpt>
      <trkpt lat="47.21896" lon="-0.00138">
        <ele>73</ele>
        <time>2016-04-20T11:30:56Z</time>
      </trkpt>
      <trkpt lat="47.21896" lon="-0.00138">
        <ele>73</ele>
        <time>2016-04-20T11:31:00Z</time>
      </trkpt>
      <trkpt lat="47.21896" lon="-0.00138">
        <ele>73</ele>
        <time>2016-04-20T11:31:03Z</time>
      </trkpt>
      <trkpt lat="47.21896" lon="-0.00138">
        <ele>73</ele>
        <time>2016-04-20T11:31:04Z</time>
      </trkpt>
      <trkpt lat="47.21896" lon="-0.00138">
        <ele>73</ele>
        <time>2016-04-20T11:31:07Z</time>
      </trkpt>
      <trkpt lat="47.21896" lon="-0.00138">
        <ele>73</ele>
        <time>2016-04-20T11:31:11Z</time>
      </trkpt>
      <trkpt lat="47.21896" lon="-0.00138">
        <ele>73</ele>
        <time>2016-04-20T11:31:14Z</time>
      </trkpt>
      <trkpt lat="47.21896" lon="-0.00138">
        <ele>73</ele>
        <time>2016-04-20T11:31:16Z</time>
      </trkpt>
      <trkpt lat="47.21896" lon="-0.00138">
        <ele>73</ele>
        <time>2016-04-20T11:31:19Z</time>
      </trkpt>
      <trkpt lat="47.21896" lon="-0.00138">
        <ele>73</ele>
        <time>2016-04-20T11:31:22Z</time>
      </trkpt>
      <trkpt lat="47.21896" lon="-0.00138">
        <ele>73</ele>
        <time>2016-04-20T11:31:25Z</time>
      </trkpt>
      <trkpt lat="47.21896" lon="-0.00138">
        <ele>73</ele>
        <time>2016-04-20T11:31:28Z</time>
      </trkpt>
      <trkpt lat="47.21895" lon="-0.00138">
        <ele>73</ele>
        <time>2016-04-20T11:31:32Z</time>
      </trkpt>
      <trkpt lat="47.21895" lon="-0.00138">
        <ele>73</ele>
        <time>2016-04-20T11:31:34Z</time>
      </trkpt>
      <trkpt lat="47.21895" lon="-0.00138">
        <ele>73</ele>
        <time>2016-04-20T11:31:37Z</time>
      </trkpt>
      <trkpt lat="47.21895" lon="-0.00138">
        <ele>73</ele>
        <time>2016-04-20T11:31:40Z</time>
      </trkpt>
      <trkpt lat="47.21895" lon="-0.00138">
        <ele>73</ele>
        <time>2016-04-20T11:31:45Z</time>
      </trkpt>
      <trkpt lat="47.21895" lon="-0.00138">
        <ele>73</ele>
        <time>2016-04-20T11:31:48Z</time>
      </trkpt>
      <trkpt lat="47.21895" lon="-0.00138">
        <ele>73</ele>
        <time>2016-04-20T11:31:50Z</time>
      </trkpt>
      <trkpt lat="47.21895" lon="-0.00138">
        <ele>73</ele>
        <time>2016-04-20T11:31:52Z</time>
      </trkpt>
      <trkpt lat="47.21894" lon="-0.00136">
        <ele>73</ele>
        <time>2016-04-20T11:31:55Z</time>
      </trkpt>
      <trkpt lat="47.21894" lon="-0.00135">
        <ele>74</ele>
        <time>2016-04-20T11:32:07Z</time>
      </trkpt>
      <trkpt lat="47.21894" lon="-0.00135">
        <ele>74</ele>
        <time>2016-04-20T11:32:09Z</time>
      </trkpt>
      <trkpt lat="47.21894" lon="-0.00134">
        <ele>75</ele>
        <time>2016-04-20T11:32:13Z</time>
      </trkpt>
      <trkpt lat="47.21894" lon="-0.00134">
        <ele>75</ele>
        <time>2016-04-20T11:32:16Z</time>
      </trkpt>
      <trkpt lat="47.21894" lon="-0.00134">
        <ele>75</ele>
        <time>2016-04-20T11:32:18Z</time>
      </trkpt>
      <trkpt lat="47.21894" lon="-0.00134">
        <ele>75</ele>
        <time>2016-04-20T11:32:21Z</time>
      </trkpt>
      <trkpt lat="47.21894" lon="-0.00134">
        <ele>75</ele>
        <time>2016-04-20T11:32:24Z</time>
      </trkpt>
      <trkpt lat="47.21894" lon="-0.00134">
        <ele>75</ele>
        <time>2016-04-20T11:32:27Z</time>
      </trkpt>
      <trkpt lat="47.21894" lon="-0.00134">
        <ele>75</ele>
        <time>2016-04-20T11:32:30Z</time>
      </trkpt>
      <trkpt lat="47.21894" lon="-0.00134">
        <ele>75</ele>
        <time>2016-04-20T11:32:33Z</time>
      </trkpt>
      <trkpt lat="47.21894" lon="-0.00134">
        <ele>75</ele>
        <time>2016-04-20T11:32:36Z</time>
      </trkpt>
      <trkpt lat="47.21894" lon="-0.00134">
        <ele>75</ele>
        <time>2016-04-20T11:32:39Z</time>
      </trkpt>
      <trkpt lat="47.21894" lon="-0.00134">
        <ele>75</ele>
        <time>2016-04-20T11:32:42Z</time>
      </trkpt>
      <trkpt lat="47.21894" lon="-0.00134">
        <ele>75</ele>
        <time>2016-04-20T11:32:45Z</time>
      </trkpt>
      <trkpt lat="47.21894" lon="-0.00134">
        <ele>75</ele>
        <time>2016-04-20T11:32:50Z</time>
      </trkpt>
      <trkpt lat="47.21894" lon="-0.00134">
        <ele>75</ele>
        <time>2016-04-20T11:32:51Z</time>
      </trkpt>
      <trkpt lat="47.21894" lon="-0.00134">
        <ele>75</ele>
        <time>2016-04-20T11:32:54Z</time>
      </trkpt>
      <trkpt lat="47.21894" lon="-0.00134">
        <ele>75</ele>
        <time>2016-04-20T11:32:57Z</time>
      </trkpt>
      <trkpt lat="47.21894" lon="-0.00134">
        <ele>75</ele>
        <time>2016-04-20T11:33:00Z</time>
      </trkpt>
      <trkpt lat="47.21894" lon="-0.00134">
        <ele>75</ele>
        <time>2016-04-20T11:33:03Z</time>
      </trkpt>
      <trkpt lat="47.21894" lon="-0.00134">
        <ele>75</ele>
        <time>2016-04-20T11:33:06Z</time>
      </trkpt>
      <trkpt lat="47.21894" lon="-0.00134">
        <ele>75</ele>
        <time>2016-04-20T11:33:09Z</time>
      </trkpt>
      <trkpt lat="47.21894" lon="-0.00134">
        <ele>75</ele>
        <time>2016-04-20T11:33:12Z</time>
      </trkpt>
      <trkpt lat="47.21894" lon="-0.00134">
        <ele>75</ele>
        <time>2016-04-20T11:33:15Z</time>
      </trkpt>
      <trkpt lat="47.21894" lon="-0.00134">
        <ele>75</ele>
        <time>2016-04-20T11:33:18Z</time>
      </trkpt>
      <trkpt lat="47.21894" lon="-0.00134">
        <ele>75</ele>
        <time>2016-04-20T11:33:21Z</time>
      </trkpt>
      <trkpt lat="47.21894" lon="-0.00134">
        <ele>75</ele>
        <time>2016-04-20T11:33:24Z</time>
      </trkpt>
      <trkpt lat="47.21894" lon="-0.00134">
        <ele>75</ele>
        <time>2016-04-20T11:33:29Z</time>
      </trkpt>
      <trkpt lat="47.21894" lon="-0.00134">
        <ele>75</ele>
        <time>2016-04-20T11:33:30Z</time>
      </trkpt>
      <trkpt lat="47.21894" lon="-0.00134">
        <ele>75</ele>
        <time>2016-04-20T11:33:33Z</time>
      </trkpt>
      <trkpt lat="47.21894" lon="-0.00134">
        <ele>75</ele>
        <time>2016-04-20T11:33:36Z</time>
      </trkpt>
      <trkpt lat="47.21894" lon="-0.00134">
        <ele>75</ele>
        <time>2016-04-20T11:33:41Z</time>
      </trkpt>
      <trkpt lat="47.21894" lon="-0.00134">
        <ele>75</ele>
        <time>2016-04-20T11:33:42Z</time>
      </trkpt>
      <trkpt lat="47.21894" lon="-0.00134">
        <ele>75</ele>
        <time>2016-04-20T11:33:45Z</time>
      </trkpt>
      <trkpt lat="47.21894" lon="-0.00134">
        <ele>75</ele>
        <time>2016-04-20T11:33:48Z</time>
      </trkpt>
      <trkpt lat="47.21894" lon="-0.00134">
        <ele>75</ele>
        <time>2016-04-20T11:33:51Z</time>
      </trkpt>
      <trkpt lat="47.21894" lon="-0.00134">
        <ele>75</ele>
        <time>2016-04-20T11:33:55Z</time>
      </trkpt>
      <trkpt lat="47.21894" lon="-0.00134">
        <ele>75</ele>
        <time>2016-04-20T11:33:57Z</time>
      </trkpt>
      <trkpt lat="47.21894" lon="-0.00134">
        <ele>75</ele>
        <time>2016-04-20T11:34:00Z</time>
      </trkpt>
      <trkpt lat="47.21894" lon="-0.00134">
        <ele>75</ele>
        <time>2016-04-20T11:34:03Z</time>
      </trkpt>
      <trkpt lat="47.21894" lon="-0.00134">
        <ele>75</ele>
        <time>2016-04-20T11:34:06Z</time>
      </trkpt>
      <trkpt lat="47.21894" lon="-0.00134">
        <ele>75</ele>
        <time>2016-04-20T11:34:11Z</time>
      </trkpt>
      <trkpt lat="47.21894" lon="-0.00134">
        <ele>75</ele>
        <time>2016-04-20T11:34:12Z</time>
      </trkpt>
      <trkpt lat="47.21894" lon="-0.00134">
        <ele>74</ele>
        <time>2016-04-20T11:34:15Z</time>
      </trkpt>
      <trkpt lat="47.21895" lon="-0.00136">
        <ele>72</ele>
        <time>2016-04-20T11:34:24Z</time>
      </trkpt>
      <trkpt lat="47.21895" lon="-0.00135">
        <ele>73</ele>
        <time>2016-04-20T11:34:27Z</time>
      </trkpt>
      <trkpt lat="47.21895" lon="-0.00135">
        <ele>73</ele>
        <time>2016-04-20T11:34:30Z</time>
      </trkpt>
      <trkpt lat="47.21895" lon="-0.00135">
        <ele>73</ele>
        <time>2016-04-20T11:34:33Z</time>
      </trkpt>
      <trkpt lat="47.21895" lon="-0.00135">
        <ele>73</ele>
        <time>2016-04-20T11:34:36Z</time>
      </trkpt>
      <trkpt lat="47.21895" lon="-0.00135">
        <ele>73</ele>
        <time>2016-04-20T11:34:39Z</time>
      </trkpt>
      <trkpt lat="47.21895" lon="-0.00135">
        <ele>73</ele>
        <time>2016-04-20T11:34:42Z</time>
      </trkpt>
      <trkpt lat="47.21895" lon="-0.00135">
        <ele>73</ele>
        <time>2016-04-20T11:34:45Z</time>
      </trkpt>
      <trkpt lat="47.21895" lon="-0.00135">
        <ele>73</ele>
        <time>2016-04-20T11:34:48Z</time>
      </trkpt>
      <trkpt lat="47.21895" lon="-0.00135">
        <ele>73</ele>
        <time>2016-04-20T11:34:51Z</time>
      </trkpt>
      <trkpt lat="47.21895" lon="-0.00135">
        <ele>73</ele>
        <time>2016-04-20T11:34:54Z</time>
      </trkpt>
      <trkpt lat="47.21895" lon="-0.00135">
        <ele>73</ele>
        <time>2016-04-20T11:34:57Z</time>
      </trkpt>
      <trkpt lat="47.21895" lon="-0.00135">
        <ele>73</ele>
        <time>2016-04-20T11:35:00Z</time>
      </trkpt>
      <trkpt lat="47.21895" lon="-0.00135">
        <ele>73</ele>
        <time>2016-04-20T11:35:04Z</time>
      </trkpt>
      <trkpt lat="47.21895" lon="-0.00135">
        <ele>73</ele>
        <time>2016-04-20T11:35:07Z</time>
      </trkpt>
      <trkpt lat="47.21895" lon="-0.00135">
        <ele>73</ele>
        <time>2016-04-20T11:35:09Z</time>
      </trkpt>
      <trkpt lat="47.21895" lon="-0.00135">
        <ele>73</ele>
        <time>2016-04-20T11:35:12Z</time>
      </trkpt>
      <trkpt lat="47.21895" lon="-0.00135">
        <ele>73</ele>
        <time>2016-04-20T11:35:16Z</time>
      </trkpt>
      <trkpt lat="47.21895" lon="-0.00135">
        <ele>73</ele>
        <time>2016-04-20T11:35:18Z</time>
      </trkpt>
      <trkpt lat="47.21895" lon="-0.00135">
        <ele>73</ele>
        <time>2016-04-20T11:35:21Z</time>
      </trkpt>
      <trkpt lat="47.21895" lon="-0.00135">
        <ele>73</ele>
        <time>2016-04-20T11:35:24Z</time>
      </trkpt>
      <trkpt lat="47.21896" lon="-0.00135">
        <ele>72</ele>
        <time>2016-04-20T11:35:29Z</time>
      </trkpt>
      <trkpt lat="47.21895" lon="-0.00135">
        <ele>71</ele>
        <time>2016-04-20T11:35:34Z</time>
      </trkpt>
      <trkpt lat="47.21895" lon="-0.00135">
        <ele>72</ele>
        <time>2016-04-20T11:35:36Z</time>
      </trkpt>
      <trkpt lat="47.21895" lon="-0.00135">
        <ele>72</ele>
        <time>2016-04-20T11:35:40Z</time>
      </trkpt>
      <trkpt lat="47.21895" lon="-0.00136">
        <ele>72</ele>
        <time>2016-04-20T11:35:42Z</time>
      </trkpt>
      <trkpt lat="47.21895" lon="-0.00136">
        <ele>72</ele>
        <time>2016-04-20T11:35:47Z</time>
      </trkpt>
      <trkpt lat="47.21895" lon="-0.00136">
        <ele>72</ele>
        <time>2016-04-20T11:35:48Z</time>
      </trkpt>
      <trkpt lat="47.21895" lon="-0.00136">
        <ele>72</ele>
        <time>2016-04-20T11:35:51Z</time>
      </trkpt>
      <trkpt lat="47.21895" lon="-0.00136">
        <ele>72</ele>
        <time>2016-04-20T11:35:54Z</time>
      </trkpt>
      <trkpt lat="47.21895" lon="-0.00136">
        <ele>72</ele>
        <time>2016-04-20T11:35:58Z</time>
      </trkpt>
      <trkpt lat="47.21895" lon="-0.00136">
        <ele>72</ele>
        <time>2016-04-20T11:36:02Z</time>
      </trkpt>
      <trkpt lat="47.21895" lon="-0.00136">
        <ele>72</ele>
        <time>2016-04-20T11:36:03Z</time>
      </trkpt>
      <trkpt lat="47.21895" lon="-0.00136">
        <ele>72</ele>
        <time>2016-04-20T11:36:07Z</time>
      </trkpt>
      <trkpt lat="47.21895" lon="-0.00136">
        <ele>72</ele>
        <time>2016-04-20T11:36:09Z</time>
      </trkpt>
      <trkpt lat="47.21895" lon="-0.00135">
        <ele>72</ele>
        <time>2016-04-20T11:36:12Z</time>
      </trkpt>
      <trkpt lat="47.21895" lon="-0.00135">
        <ele>72</ele>
        <time>2016-04-20T11:36:15Z</time>
      </trkpt>
      <trkpt lat="47.21895" lon="-0.00135">
        <ele>72</ele>
        <time>2016-04-20T11:36:18Z</time>
      </trkpt>
      <trkpt lat="47.21895" lon="-0.00135">
        <ele>72</ele>
        <time>2016-04-20T11:36:21Z</time>
      </trkpt>
      <trkpt lat="47.21895" lon="-0.00135">
        <ele>72</ele>
        <time>2016-04-20T11:36:24Z</time>
      </trkpt>
      <trkpt lat="47.21895" lon="-0.00135">
        <ele>72</ele>
        <time>2016-04-20T11:36:27Z</time>
      </trkpt>
      <trkpt lat="47.21895" lon="-0.00135">
        <ele>72</ele>
        <time>2016-04-20T11:36:30Z</time>
      </trkpt>
      <trkpt lat="47.21895" lon="-0.00135">
        <ele>72</ele>
        <time>2016-04-20T11:36:35Z</time>
      </trkpt>
      <trkpt lat="47.21895" lon="-0.00135">
        <ele>72</ele>
        <time>2016-04-20T11:36:36Z</time>
      </trkpt>
      <trkpt lat="47.21895" lon="-0.00135">
        <ele>72</ele>
        <time>2016-04-20T11:36:41Z</time>
      </trkpt>
      <trkpt lat="47.21895" lon="-0.00135">
        <ele>72</ele>
        <time>2016-04-20T11:36:42Z</time>
      </trkpt>
      <trkpt lat="47.21895" lon="-0.00135">
        <ele>72</ele>
        <time>2016-04-20T11:36:47Z</time>
      </trkpt>
      <trkpt lat="47.21895" lon="-0.00135">
        <ele>72</ele>
        <time>2016-04-20T11:36:48Z</time>
      </trkpt>
      <trkpt lat="47.21895" lon="-0.00135">
        <ele>72</ele>
        <time>2016-04-20T11:36:51Z</time>
      </trkpt>
      <trkpt lat="47.21895" lon="-0.00135">
        <ele>72</ele>
        <time>2016-04-20T11:36:54Z</time>
      </trkpt>
      <trkpt lat="47.21895" lon="-0.00135">
        <ele>72</ele>
        <time>2016-04-20T11:36:59Z</time>
      </trkpt>
      <trkpt lat="47.21895" lon="-0.00135">
        <ele>72</ele>
        <time>2016-04-20T11:37:00Z</time>
      </trkpt>
      <trkpt lat="47.21895" lon="-0.00135">
        <ele>72</ele>
        <time>2016-04-20T11:37:05Z</time>
      </trkpt>
      <trkpt lat="47.21895" lon="-0.00135">
        <ele>72</ele>
        <time>2016-04-20T11:37:06Z</time>
      </trkpt>
      <trkpt lat="47.21895" lon="-0.00135">
        <ele>72</ele>
        <time>2016-04-20T11:37:09Z</time>
      </trkpt>
      <trkpt lat="47.21895" lon="-0.00135">
        <ele>72</ele>
        <time>2016-04-20T11:37:12Z</time>
      </trkpt>
      <trkpt lat="47.21895" lon="-0.00135">
        <ele>72</ele>
        <time>2016-04-20T11:37:15Z</time>
      </trkpt>
      <trkpt lat="47.21895" lon="-0.00135">
        <ele>72</ele>
        <time>2016-04-20T11:37:18Z</time>
      </trkpt>
      <trkpt lat="47.21895" lon="-0.00135">
        <ele>72</ele>
        <time>2016-04-20T11:37:21Z</time>
      </trkpt>
      <trkpt lat="47.21895" lon="-0.00135">
        <ele>72</ele>
        <time>2016-04-20T11:37:26Z</time>
      </trkpt>
      <trkpt lat="47.21895" lon="-0.00135">
        <ele>72</ele>
        <time>2016-04-20T11:37:27Z</time>
      </trkpt>
      <trkpt lat="47.21895" lon="-0.00135">
        <ele>72</ele>
        <time>2016-04-20T11:37:30Z</time>
      </trkpt>
      <trkpt lat="47.21895" lon="-0.00135">
        <ele>72</ele>
        <time>2016-04-20T11:37:35Z</time>
      </trkpt>
      <trkpt lat="47.21895" lon="-0.00135">
        <ele>72</ele>
        <time>2016-04-20T11:37:36Z</time>
      </trkpt>
      <trkpt lat="47.21895" lon="-0.00135">
        <ele>72</ele>
        <time>2016-04-20T11:37:39Z</time>
      </trkpt>
      <trkpt lat="47.21895" lon="-0.00135">
        <ele>72</ele>
        <time>2016-04-20T11:37:42Z</time>
      </trkpt>
      <trkpt lat="47.21895" lon="-0.00135">
        <ele>72</ele>
        <time>2016-04-20T11:37:45Z</time>
      </trkpt>
      <trkpt lat="47.21895" lon="-0.00135">
        <ele>72</ele>
        <time>2016-04-20T11:37:48Z</time>
      </trkpt>
      <trkpt lat="47.21895" lon="-0.00135">
        <ele>72</ele>
        <time>2016-04-20T11:37:53Z</time>
      </trkpt>
      <trkpt lat="47.21895" lon="-0.00135">
        <ele>72</ele>
        <time>2016-04-20T11:37:54Z</time>
      </trkpt>
      <trkpt lat="47.21895" lon="-0.00135">
        <ele>72</ele>
        <time>2016-04-20T11:37:57Z</time>
      </trkpt>
      <trkpt lat="47.21895" lon="-0.00135">
        <ele>72</ele>
        <time>2016-04-20T11:38:00Z</time>
      </trkpt>
      <trkpt lat="47.21895" lon="-0.00135">
        <ele>72</ele>
        <time>2016-04-20T11:38:03Z</time>
      </trkpt>
      <trkpt lat="47.21895" lon="-0.00135">
        <ele>72</ele>
        <time>2016-04-20T11:38:06Z</time>
      </trkpt>
      <trkpt lat="47.21895" lon="-0.00135">
        <ele>72</ele>
        <time>2016-04-20T11:38:09Z</time>
      </trkpt>
      <trkpt lat="47.21895" lon="-0.00135">
        <ele>72</ele>
        <time>2016-04-20T11:38:12Z</time>
      </trkpt>
      <trkpt lat="47.21895" lon="-0.00135">
        <ele>72</ele>
        <time>2016-04-20T11:38:15Z</time>
      </trkpt>
      <trkpt lat="47.21895" lon="-0.00135">
        <ele>72</ele>
        <time>2016-04-20T11:38:18Z</time>
      </trkpt>
      <trkpt lat="47.21895" lon="-0.00135">
        <ele>72</ele>
        <time>2016-04-20T11:38:23Z</time>
      </trkpt>
      <trkpt lat="47.21895" lon="-0.00135">
        <ele>72</ele>
        <time>2016-04-20T11:38:24Z</time>
      </trkpt>
      <trkpt lat="47.21895" lon="-0.00135">
        <ele>72</ele>
        <time>2016-04-20T11:38:27Z</time>
      </trkpt>
      <trkpt lat="47.21895" lon="-0.00135">
        <ele>72</ele>
        <time>2016-04-20T11:38:30Z</time>
      </trkpt>
      <trkpt lat="47.21895" lon="-0.00135">
        <ele>72</ele>
        <time>2016-04-20T11:38:34Z</time>
      </trkpt>
      <trkpt lat="47.21895" lon="-0.00135">
        <ele>72</ele>
        <time>2016-04-20T11:38:36Z</time>
      </trkpt>
      <trkpt lat="47.21895" lon="-0.00135">
        <ele>72</ele>
        <time>2016-04-20T11:38:39Z</time>
      </trkpt>
      <trkpt lat="47.21895" lon="-0.00135">
        <ele>72</ele>
        <time>2016-04-20T11:38:42Z</time>
      </trkpt>
      <trkpt lat="47.21895" lon="-0.00135">
        <ele>72</ele>
        <time>2016-04-20T11:38:46Z</time>
      </trkpt>
      <trkpt lat="47.21895" lon="-0.00135">
        <ele>72</ele>
        <time>2016-04-20T11:38:48Z</time>
      </trkpt>
      <trkpt lat="47.21895" lon="-0.00135">
        <ele>72</ele>
        <time>2016-04-20T11:38:51Z</time>
      </trkpt>
      <trkpt lat="47.21895" lon="-0.00135">
        <ele>72</ele>
        <time>2016-04-20T11:38:54Z</time>
      </trkpt>
      <trkpt lat="47.21895" lon="-0.00135">
        <ele>72</ele>
        <time>2016-04-20T11:38:57Z</time>
      </trkpt>
      <trkpt lat="47.21895" lon="-0.00135">
        <ele>72</ele>
        <time>2016-04-20T11:39:01Z</time>
      </trkpt>
      <trkpt lat="47.21895" lon="-0.00135">
        <ele>72</ele>
        <time>2016-04-20T11:39:04Z</time>
      </trkpt>
      <trkpt lat="47.21895" lon="-0.00135">
        <ele>72</ele>
        <time>2016-04-20T11:39:06Z</time>
      </trkpt>
      <trkpt lat="47.21895" lon="-0.00135">
        <ele>72</ele>
        <time>2016-04-20T11:39:09Z</time>
      </trkpt>
      <trkpt lat="47.21895" lon="-0.00135">
        <ele>72</ele>
        <time>2016-04-20T11:39:12Z</time>
      </trkpt>
      <trkpt lat="47.21895" lon="-0.00135">
        <ele>72</ele>
        <time>2016-04-20T11:39:15Z</time>
      </trkpt>
      <trkpt lat="47.21895" lon="-0.00135">
        <ele>72</ele>
        <time>2016-04-20T11:39:20Z</time>
      </trkpt>
      <trkpt lat="47.21895" lon="-0.00135">
        <ele>72</ele>
        <time>2016-04-20T11:39:21Z</time>
      </trkpt>
      <trkpt lat="47.21895" lon="-0.00135">
        <ele>72</ele>
        <time>2016-04-20T11:39:24Z</time>
      </trkpt>
      <trkpt lat="47.21895" lon="-0.00135">
        <ele>72</ele>
        <time>2016-04-20T11:39:28Z</time>
      </trkpt>
      <trkpt lat="47.21895" lon="-0.00135">
        <ele>72</ele>
        <time>2016-04-20T11:39:30Z</time>
      </trkpt>
      <trkpt lat="47.21895" lon="-0.00135">
        <ele>72</ele>
        <time>2016-04-20T11:39:33Z</time>
      </trkpt>
      <trkpt lat="47.21895" lon="-0.00135">
        <ele>72</ele>
        <time>2016-04-20T11:39:36Z</time>
      </trkpt>
      <trkpt lat="47.21895" lon="-0.00135">
        <ele>72</ele>
        <time>2016-04-20T11:39:39Z</time>
      </trkpt>
      <trkpt lat="47.21895" lon="-0.00135">
        <ele>72</ele>
        <time>2016-04-20T11:39:44Z</time>
      </trkpt>
      <trkpt lat="47.21895" lon="-0.00135">
        <ele>72</ele>
        <time>2016-04-20T11:39:47Z</time>
      </trkpt>
      <trkpt lat="47.21895" lon="-0.00135">
        <ele>72</ele>
        <time>2016-04-20T11:39:50Z</time>
      </trkpt>
      <trkpt lat="47.21895" lon="-0.00135">
        <ele>72</ele>
        <time>2016-04-20T11:39:51Z</time>
      </trkpt>
      <trkpt lat="47.21895" lon="-0.00135">
        <ele>72</ele>
        <time>2016-04-20T11:39:54Z</time>
      </trkpt>
      <trkpt lat="47.21895" lon="-0.00135">
        <ele>72</ele>
        <time>2016-04-20T11:39:57Z</time>
      </trkpt>
      <trkpt lat="47.21895" lon="-0.00135">
        <ele>72</ele>
        <time>2016-04-20T11:40:00Z</time>
      </trkpt>
      <trkpt lat="47.21895" lon="-0.00135">
        <ele>72</ele>
        <time>2016-04-20T11:40:04Z</time>
      </trkpt>
      <trkpt lat="47.21895" lon="-0.00135">
        <ele>72</ele>
        <time>2016-04-20T11:40:08Z</time>
      </trkpt>
      <trkpt lat="47.21895" lon="-0.00135">
        <ele>72</ele>
        <time>2016-04-20T11:40:09Z</time>
      </trkpt>
      <trkpt lat="47.21895" lon="-0.00135">
        <ele>72</ele>
        <time>2016-04-20T11:40:12Z</time>
      </trkpt>
      <trkpt lat="47.21895" lon="-0.00135">
        <ele>72</ele>
        <time>2016-04-20T11:40:15Z</time>
      </trkpt>
      <trkpt lat="47.21895" lon="-0.00135">
        <ele>72</ele>
        <time>2016-04-20T11:40:19Z</time>
      </trkpt>
      <trkpt lat="47.21895" lon="-0.00135">
        <ele>72</ele>
        <time>2016-04-20T11:40:21Z</time>
      </trkpt>
      <trkpt lat="47.21895" lon="-0.00135">
        <ele>72</ele>
        <time>2016-04-20T11:40:25Z</time>
      </trkpt>
      <trkpt lat="47.21895" lon="-0.00135">
        <ele>72</ele>
        <time>2016-04-20T11:40:28Z</time>
      </trkpt>
      <trkpt lat="47.21895" lon="-0.00135">
        <ele>72</ele>
        <time>2016-04-20T11:40:30Z</time>
      </trkpt>
      <trkpt lat="47.21895" lon="-0.00135">
        <ele>72</ele>
        <time>2016-04-20T11:40:33Z</time>
      </trkpt>
      <trkpt lat="47.21895" lon="-0.00135">
        <ele>72</ele>
        <time>2016-04-20T11:40:38Z</time>
      </trkpt>
      <trkpt lat="47.21895" lon="-0.00135">
        <ele>72</ele>
        <time>2016-04-20T11:40:39Z</time>
      </trkpt>
      <trkpt lat="47.21895" lon="-0.00135">
        <ele>72</ele>
        <time>2016-04-20T11:40:44Z</time>
      </trkpt>
      <trkpt lat="47.21895" lon="-0.00135">
        <ele>72</ele>
        <time>2016-04-20T11:40:45Z</time>
      </trkpt>
      <trkpt lat="47.21895" lon="-0.00135">
        <ele>72</ele>
        <time>2016-04-20T11:40:48Z</time>
      </trkpt>
      <trkpt lat="47.21895" lon="-0.00135">
        <ele>72</ele>
        <time>2016-04-20T11:40:51Z</time>
      </trkpt>
      <trkpt lat="47.21895" lon="-0.00135">
        <ele>72</ele>
        <time>2016-04-20T11:40:54Z</time>
      </trkpt>
      <trkpt lat="47.21895" lon="-0.00135">
        <ele>72</ele>
        <time>2016-04-20T11:40:57Z</time>
      </trkpt>
      <trkpt lat="47.21895" lon="-0.00135">
        <ele>72</ele>
        <time>2016-04-20T11:41:02Z</time>
      </trkpt>
      <trkpt lat="47.21895" lon="-0.00135">
        <ele>72</ele>
        <time>2016-04-20T11:41:03Z</time>
      </trkpt>
      <trkpt lat="47.21895" lon="-0.00135">
        <ele>72</ele>
        <time>2016-04-20T11:41:08Z</time>
      </trkpt>
      <trkpt lat="47.21895" lon="-0.00135">
        <ele>72</ele>
        <time>2016-04-20T11:41:09Z</time>
      </trkpt>
      <trkpt lat="47.21895" lon="-0.00135">
        <ele>72</ele>
        <time>2016-04-20T11:41:12Z</time>
      </trkpt>
      <trkpt lat="47.21895" lon="-0.00135">
        <ele>72</ele>
        <time>2016-04-20T11:41:15Z</time>
      </trkpt>
      <trkpt lat="47.21895" lon="-0.00135">
        <ele>72</ele>
        <time>2016-04-20T11:41:20Z</time>
      </trkpt>
      <trkpt lat="47.21895" lon="-0.00135">
        <ele>72</ele>
        <time>2016-04-20T11:41:21Z</time>
      </trkpt>
      <trkpt lat="47.21895" lon="-0.00135">
        <ele>72</ele>
        <time>2016-04-20T11:41:24Z</time>
      </trkpt>
      <trkpt lat="47.21895" lon="-0.00135">
        <ele>72</ele>
        <time>2016-04-20T11:41:27Z</time>
      </trkpt>
      <trkpt lat="47.21895" lon="-0.00135">
        <ele>72</ele>
        <time>2016-04-20T11:41:30Z</time>
      </trkpt>
      <trkpt lat="47.21895" lon="-0.00135">
        <ele>72</ele>
        <time>2016-04-20T11:41:33Z</time>
      </trkpt>
      <trkpt lat="47.21895" lon="-0.00135">
        <ele>72</ele>
        <time>2016-04-20T11:41:36Z</time>
      </trkpt>
      <trkpt lat="47.21895" lon="-0.00135">
        <ele>72</ele>
        <time>2016-04-20T11:41:39Z</time>
      </trkpt>
      <trkpt lat="47.21895" lon="-0.00135">
        <ele>72</ele>
        <time>2016-04-20T11:41:42Z</time>
      </trkpt>
      <trkpt lat="47.21895" lon="-0.00135">
        <ele>72</ele>
        <time>2016-04-20T11:41:45Z</time>
      </trkpt>
      <trkpt lat="47.21895" lon="-0.00135">
        <ele>72</ele>
        <time>2016-04-20T11:41:48Z</time>
      </trkpt>
      <trkpt lat="47.21895" lon="-0.00135">
        <ele>72</ele>
        <time>2016-04-20T11:41:51Z</time>
      </trkpt>
      <trkpt lat="47.21895" lon="-0.00135">
        <ele>72</ele>
        <time>2016-04-20T11:41:54Z</time>
      </trkpt>
      <trkpt lat="47.21895" lon="-0.00135">
        <ele>72</ele>
        <time>2016-04-20T11:41:57Z</time>
      </trkpt>
      <trkpt lat="47.21895" lon="-0.00135">
        <ele>72</ele>
        <time>2016-04-20T11:42:00Z</time>
      </trkpt>
      <trkpt lat="47.21895" lon="-0.00135">
        <ele>72</ele>
        <time>2016-04-20T11:42:03Z</time>
      </trkpt>
      <trkpt lat="47.21895" lon="-0.00135">
        <ele>72</ele>
        <time>2016-04-20T11:42:06Z</time>
      </trkpt>
      <trkpt lat="47.21895" lon="-0.00135">
        <ele>72</ele>
        <time>2016-04-20T11:42:09Z</time>
      </trkpt>
      <trkpt lat="47.21895" lon="-0.00135">
        <ele>72</ele>
        <time>2016-04-20T11:42:14Z</time>
      </trkpt>
      <trkpt lat="47.21895" lon="-0.00135">
        <ele>72</ele>
        <time>2016-04-20T11:42:17Z</time>
      </trkpt>
      <trkpt lat="47.21895" lon="-0.00135">
        <ele>72</ele>
        <time>2016-04-20T11:42:18Z</time>
      </trkpt>
      <trkpt lat="47.21895" lon="-0.00135">
        <ele>72</ele>
        <time>2016-04-20T11:42:21Z</time>
      </trkpt>
      <trkpt lat="47.21895" lon="-0.00135">
        <ele>72</ele>
        <time>2016-04-20T11:42:24Z</time>
      </trkpt>
      <trkpt lat="47.21895" lon="-0.00135">
        <ele>72</ele>
        <time>2016-04-20T11:42:29Z</time>
      </trkpt>
      <trkpt lat="47.21895" lon="-0.00135">
        <ele>72</ele>
        <time>2016-04-20T11:42:30Z</time>
      </trkpt>
      <trkpt lat="47.21895" lon="-0.00135">
        <ele>72</ele>
        <time>2016-04-20T11:42:33Z</time>
      </trkpt>
      <trkpt lat="47.21895" lon="-0.00135">
        <ele>72</ele>
        <time>2016-04-20T11:42:36Z</time>
      </trkpt>
      <trkpt lat="47.21895" lon="-0.00135">
        <ele>72</ele>
        <time>2016-04-20T11:42:39Z</time>
      </trkpt>
      <trkpt lat="47.21895" lon="-0.00135">
        <ele>72</ele>
        <time>2016-04-20T11:42:43Z</time>
      </trkpt>
      <trkpt lat="47.21895" lon="-0.00135">
        <ele>72</ele>
        <time>2016-04-20T11:42:45Z</time>
      </trkpt>
      <trkpt lat="47.21895" lon="-0.00135">
        <ele>72</ele>
        <time>2016-04-20T11:42:48Z</time>
      </trkpt>
      <trkpt lat="47.21895" lon="-0.00135">
        <ele>72</ele>
        <time>2016-04-20T11:42:52Z</time>
      </trkpt>
      <trkpt lat="47.21895" lon="-0.00135">
        <ele>72</ele>
        <time>2016-04-20T11:42:54Z</time>
      </trkpt>
      <trkpt lat="47.21895" lon="-0.00135">
        <ele>72</ele>
        <time>2016-04-20T11:42:57Z</time>
      </trkpt>
      <trkpt lat="47.21895" lon="-0.00135">
        <ele>72</ele>
        <time>2016-04-20T11:43:01Z</time>
      </trkpt>
      <trkpt lat="47.21895" lon="-0.00135">
        <ele>72</ele>
        <time>2016-04-20T11:43:03Z</time>
      </trkpt>
      <trkpt lat="47.21895" lon="-0.00135">
        <ele>72</ele>
        <time>2016-04-20T11:43:06Z</time>
      </trkpt>
      <trkpt lat="47.21895" lon="-0.00135">
        <ele>72</ele>
        <time>2016-04-20T11:43:09Z</time>
      </trkpt>
      <trkpt lat="47.21895" lon="-0.00135">
        <ele>72</ele>
        <time>2016-04-20T11:43:12Z</time>
      </trkpt>
      <trkpt lat="47.21895" lon="-0.00135">
        <ele>72</ele>
        <time>2016-04-20T11:43:15Z</time>
      </trkpt>
      <trkpt lat="47.21895" lon="-0.00135">
        <ele>72</ele>
        <time>2016-04-20T11:43:18Z</time>
      </trkpt>
      <trkpt lat="47.21895" lon="-0.00135">
        <ele>72</ele>
        <time>2016-04-20T11:43:21Z</time>
      </trkpt>
      <trkpt lat="47.21895" lon="-0.00135">
        <ele>72</ele>
        <time>2016-04-20T11:43:24Z</time>
      </trkpt>
      <trkpt lat="47.21895" lon="-0.00135">
        <ele>72</ele>
        <time>2016-04-20T11:43:27Z</time>
      </trkpt>
      <trkpt lat="47.21895" lon="-0.00135">
        <ele>72</ele>
        <time>2016-04-20T11:43:30Z</time>
      </trkpt>
      <trkpt lat="47.21895" lon="-0.00135">
        <ele>72</ele>
        <time>2016-04-20T11:43:33Z</time>
      </trkpt>
      <trkpt lat="47.21895" lon="-0.00135">
        <ele>72</ele>
        <time>2016-04-20T11:43:36Z</time>
      </trkpt>
      <trkpt lat="47.21895" lon="-0.00135">
        <ele>72</ele>
        <time>2016-04-20T11:43:39Z</time>
      </trkpt>
      <trkpt lat="47.21895" lon="-0.00135">
        <ele>72</ele>
        <time>2016-04-20T11:43:42Z</time>
      </trkpt>
      <trkpt lat="47.21895" lon="-0.00135">
        <ele>72</ele>
        <time>2016-04-20T11:43:45Z</time>
      </trkpt>
      <trkpt lat="47.21895" lon="-0.00135">
        <ele>72</ele>
        <time>2016-04-20T11:43:48Z</time>
      </trkpt>
      <trkpt lat="47.21895" lon="-0.00135">
        <ele>72</ele>
        <time>2016-04-20T11:43:51Z</time>
      </trkpt>
      <trkpt lat="47.21895" lon="-0.00135">
        <ele>72</ele>
        <time>2016-04-20T11:43:54Z</time>
      </trkpt>
      <trkpt lat="47.21895" lon="-0.00135">
        <ele>72</ele>
        <time>2016-04-20T11:43:57Z</time>
      </trkpt>
      <trkpt lat="47.21895" lon="-0.00135">
        <ele>72</ele>
        <time>2016-04-20T11:44:02Z</time>
      </trkpt>
      <trkpt lat="47.21895" lon="-0.00135">
        <ele>72</ele>
        <time>2016-04-20T11:44:03Z</time>
      </trkpt>
      <trkpt lat="47.21895" lon="-0.00135">
        <ele>72</ele>
        <time>2016-04-20T11:44:07Z</time>
      </trkpt>
      <trkpt lat="47.21895" lon="-0.00135">
        <ele>72</ele>
        <time>2016-04-20T11:44:11Z</time>
      </trkpt>
      <trkpt lat="47.21895" lon="-0.00135">
        <ele>72</ele>
        <time>2016-04-20T11:44:12Z</time>
      </trkpt>
      <trkpt lat="47.21895" lon="-0.00135">
        <ele>72</ele>
        <time>2016-04-20T11:44:15Z</time>
      </trkpt>
      <trkpt lat="47.21895" lon="-0.00135">
        <ele>72</ele>
        <time>2016-04-20T11:44:20Z</time>
      </trkpt>
      <trkpt lat="47.21895" lon="-0.00135">
        <ele>72</ele>
        <time>2016-04-20T11:44:21Z</time>
      </trkpt>
      <trkpt lat="47.21895" lon="-0.00135">
        <ele>72</ele>
        <time>2016-04-20T11:44:25Z</time>
      </trkpt>
      <trkpt lat="47.21895" lon="-0.00135">
        <ele>72</ele>
        <time>2016-04-20T11:44:29Z</time>
      </trkpt>
      <trkpt lat="47.21895" lon="-0.00135">
        <ele>72</ele>
        <time>2016-04-20T11:44:30Z</time>
      </trkpt>
      <trkpt lat="47.21895" lon="-0.00135">
        <ele>72</ele>
        <time>2016-04-20T11:44:34Z</time>
      </trkpt>
      <trkpt lat="47.21895" lon="-0.00135">
        <ele>72</ele>
        <time>2016-04-20T11:44:36Z</time>
      </trkpt>
      <trkpt lat="47.21895" lon="-0.00135">
        <ele>72</ele>
        <time>2016-04-20T11:44:39Z</time>
      </trkpt>
      <trkpt lat="47.21895" lon="-0.00135">
        <ele>72</ele>
        <time>2016-04-20T11:44:43Z</time>
      </trkpt>
      <trkpt lat="47.21895" lon="-0.00135">
        <ele>72</ele>
        <time>2016-04-20T11:44:45Z</time>
      </trkpt>
      <trkpt lat="47.21895" lon="-0.00135">
        <ele>72</ele>
        <time>2016-04-20T11:44:48Z</time>
      </trkpt>
      <trkpt lat="47.21895" lon="-0.00135">
        <ele>72</ele>
        <time>2016-04-20T11:44:52Z</time>
      </trkpt>
      <trkpt lat="47.21895" lon="-0.00135">
        <ele>72</ele>
        <time>2016-04-20T11:44:54Z</time>
      </trkpt>
      <trkpt lat="47.21895" lon="-0.00135">
        <ele>72</ele>
        <time>2016-04-20T11:44:57Z</time>
      </trkpt>
      <trkpt lat="47.21895" lon="-0.00135">
        <ele>72</ele>
        <time>2016-04-20T11:45:00Z</time>
      </trkpt>
      <trkpt lat="47.21895" lon="-0.00135">
        <ele>72</ele>
        <time>2016-04-20T11:45:03Z</time>
      </trkpt>
      <trkpt lat="47.21895" lon="-0.00135">
        <ele>72</ele>
        <time>2016-04-20T11:45:07Z</time>
      </trkpt>
      <trkpt lat="47.21895" lon="-0.00135">
        <ele>72</ele>
        <time>2016-04-20T11:45:09Z</time>
      </trkpt>
      <trkpt lat="47.21895" lon="-0.00135">
        <ele>72</ele>
        <time>2016-04-20T11:45:12Z</time>
      </trkpt>
      <trkpt lat="47.21895" lon="-0.00135">
        <ele>72</ele>
        <time>2016-04-20T11:45:15Z</time>
      </trkpt>
      <trkpt lat="47.21895" lon="-0.00135">
        <ele>72</ele>
        <time>2016-04-20T11:45:19Z</time>
      </trkpt>
      <trkpt lat="47.21895" lon="-0.00135">
        <ele>72</ele>
        <time>2016-04-20T11:45:21Z</time>
      </trkpt>
      <trkpt lat="47.21895" lon="-0.00135">
        <ele>72</ele>
        <time>2016-04-20T11:45:24Z</time>
      </trkpt>
      <trkpt lat="47.21895" lon="-0.00135">
        <ele>72</ele>
        <time>2016-04-20T11:45:27Z</time>
      </trkpt>
      <trkpt lat="47.21895" lon="-0.00135">
        <ele>72</ele>
        <time>2016-04-20T11:45:32Z</time>
      </trkpt>
      <trkpt lat="47.21895" lon="-0.00135">
        <ele>72</ele>
        <time>2016-04-20T11:45:33Z</time>
      </trkpt>
      <trkpt lat="47.21895" lon="-0.00135">
        <ele>72</ele>
        <time>2016-04-20T11:45:36Z</time>
      </trkpt>
      <trkpt lat="47.21895" lon="-0.00135">
        <ele>72</ele>
        <time>2016-04-20T11:45:41Z</time>
      </trkpt>
      <trkpt lat="47.21895" lon="-0.00135">
        <ele>72</ele>
        <time>2016-04-20T11:45:42Z</time>
      </trkpt>
      <trkpt lat="47.21895" lon="-0.00135">
        <ele>72</ele>
        <time>2016-04-20T11:45:45Z</time>
      </trkpt>
      <trkpt lat="47.21895" lon="-0.00135">
        <ele>72</ele>
        <time>2016-04-20T11:45:50Z</time>
      </trkpt>
      <trkpt lat="47.21895" lon="-0.00135">
        <ele>72</ele>
        <time>2016-04-20T11:45:51Z</time>
      </trkpt>
      <trkpt lat="47.21895" lon="-0.00135">
        <ele>72</ele>
        <time>2016-04-20T11:45:55Z</time>
      </trkpt>
      <trkpt lat="47.21895" lon="-0.00135">
        <ele>72</ele>
        <time>2016-04-20T11:45:58Z</time>
      </trkpt>
      <trkpt lat="47.21895" lon="-0.00135">
        <ele>72</ele>
        <time>2016-04-20T11:46:00Z</time>
      </trkpt>
      <trkpt lat="47.21895" lon="-0.00135">
        <ele>72</ele>
        <time>2016-04-20T11:46:03Z</time>
      </trkpt>
      <trkpt lat="47.21895" lon="-0.00135">
        <ele>72</ele>
        <time>2016-04-20T11:46:06Z</time>
      </trkpt>
      <trkpt lat="47.21895" lon="-0.00135">
        <ele>72</ele>
        <time>2016-04-20T11:46:10Z</time>
      </trkpt>
      <trkpt lat="47.21895" lon="-0.00135">
        <ele>72</ele>
        <time>2016-04-20T11:46:12Z</time>
      </trkpt>
      <trkpt lat="47.21895" lon="-0.00135">
        <ele>72</ele>
        <time>2016-04-20T11:46:15Z</time>
      </trkpt>
      <trkpt lat="47.21895" lon="-0.00135">
        <ele>72</ele>
        <time>2016-04-20T11:46:19Z</time>
      </trkpt>
      <trkpt lat="47.21895" lon="-0.00135">
        <ele>72</ele>
        <time>2016-04-20T11:46:21Z</time>
      </trkpt>
      <trkpt lat="47.21895" lon="-0.00135">
        <ele>72</ele>
        <time>2016-04-20T11:46:26Z</time>
      </trkpt>
      <trkpt lat="47.21895" lon="-0.00135">
        <ele>72</ele>
        <time>2016-04-20T11:46:27Z</time>
      </trkpt>
      <trkpt lat="47.21895" lon="-0.00135">
        <ele>72</ele>
        <time>2016-04-20T11:46:30Z</time>
      </trkpt>
      <trkpt lat="47.21895" lon="-0.00135">
        <ele>72</ele>
        <time>2016-04-20T11:46:34Z</time>
      </trkpt>
      <trkpt lat="47.21895" lon="-0.00135">
        <ele>72</ele>
        <time>2016-04-20T11:46:36Z</time>
      </trkpt>
      <trkpt lat="47.21895" lon="-0.00135">
        <ele>72</ele>
        <time>2016-04-20T11:46:39Z</time>
      </trkpt>
      <trkpt lat="47.21895" lon="-0.00135">
        <ele>72</ele>
        <time>2016-04-20T11:46:42Z</time>
      </trkpt>
      <trkpt lat="47.21895" lon="-0.00135">
        <ele>72</ele>
        <time>2016-04-20T11:46:45Z</time>
      </trkpt>
      <trkpt lat="47.21895" lon="-0.00135">
        <ele>72</ele>
        <time>2016-04-20T11:46:48Z</time>
      </trkpt>
      <trkpt lat="47.21895" lon="-0.00135">
        <ele>72</ele>
        <time>2016-04-20T11:46:51Z</time>
      </trkpt>
      <trkpt lat="47.21895" lon="-0.00135">
        <ele>72</ele>
        <time>2016-04-20T11:46:54Z</time>
      </trkpt>
      <trkpt lat="47.21895" lon="-0.00135">
        <ele>72</ele>
        <time>2016-04-20T11:46:58Z</time>
      </trkpt>
      <trkpt lat="47.21895" lon="-0.00135">
        <ele>72</ele>
        <time>2016-04-20T11:47:02Z</time>
      </trkpt>
      <trkpt lat="47.21895" lon="-0.00135">
        <ele>72</ele>
        <time>2016-04-20T11:47:03Z</time>
      </trkpt>
      <trkpt lat="47.21895" lon="-0.00135">
        <ele>72</ele>
        <time>2016-04-20T11:47:06Z</time>
      </trkpt>
      <trkpt lat="47.21895" lon="-0.00135">
        <ele>72</ele>
        <time>2016-04-20T11:47:09Z</time>
      </trkpt>
      <trkpt lat="47.21895" lon="-0.00135">
        <ele>72</ele>
        <time>2016-04-20T11:47:12Z</time>
      </trkpt>
      <trkpt lat="47.21895" lon="-0.00135">
        <ele>72</ele>
        <time>2016-04-20T11:47:15Z</time>
      </trkpt>
      <trkpt lat="47.21895" lon="-0.00135">
        <ele>72</ele>
        <time>2016-04-20T11:47:18Z</time>
      </trkpt>
      <trkpt lat="47.21895" lon="-0.00135">
        <ele>72</ele>
        <time>2016-04-20T11:47:21Z</time>
      </trkpt>
      <trkpt lat="47.21895" lon="-0.00135">
        <ele>72</ele>
        <time>2016-04-20T11:47:24Z</time>
      </trkpt>
      <trkpt lat="47.21895" lon="-0.00135">
        <ele>72</ele>
        <time>2016-04-20T11:47:27Z</time>
      </trkpt>
      <trkpt lat="47.21895" lon="-0.00135">
        <ele>72</ele>
        <time>2016-04-20T11:47:30Z</time>
      </trkpt>
      <trkpt lat="47.21895" lon="-0.00135">
        <ele>72</ele>
        <time>2016-04-20T11:47:33Z</time>
      </trkpt>
      <trkpt lat="47.21895" lon="-0.00135">
        <ele>72</ele>
        <time>2016-04-20T11:47:36Z</time>
      </trkpt>
      <trkpt lat="47.21895" lon="-0.00135">
        <ele>72</ele>
        <time>2016-04-20T11:47:39Z</time>
      </trkpt>
      <trkpt lat="47.21895" lon="-0.00135">
        <ele>72</ele>
        <time>2016-04-20T11:47:42Z</time>
      </trkpt>
      <trkpt lat="47.21895" lon="-0.00135">
        <ele>72</ele>
        <time>2016-04-20T11:47:46Z</time>
      </trkpt>
      <trkpt lat="47.21895" lon="-0.00135">
        <ele>72</ele>
        <time>2016-04-20T11:47:49Z</time>
      </trkpt>
      <trkpt lat="47.21895" lon="-0.00135">
        <ele>72</ele>
        <time>2016-04-20T11:47:51Z</time>
      </trkpt>
      <trkpt lat="47.21895" lon="-0.00135">
        <ele>72</ele>
        <time>2016-04-20T11:47:54Z</time>
      </trkpt>
      <trkpt lat="47.21895" lon="-0.00135">
        <ele>72</ele>
        <time>2016-04-20T11:47:57Z</time>
      </trkpt>
      <trkpt lat="47.21895" lon="-0.00135">
        <ele>72</ele>
        <time>2016-04-20T11:48:00Z</time>
      </trkpt>
      <trkpt lat="47.21895" lon="-0.00135">
        <ele>72</ele>
        <time>2016-04-20T11:48:03Z</time>
      </trkpt>
      <trkpt lat="47.21895" lon="-0.00135">
        <ele>72</ele>
        <time>2016-04-20T11:48:06Z</time>
      </trkpt>
      <trkpt lat="47.21895" lon="-0.00135">
        <ele>72</ele>
        <time>2016-04-20T11:48:09Z</time>
      </trkpt>
      <trkpt lat="47.21895" lon="-0.00135">
        <ele>72</ele>
        <time>2016-04-20T11:48:14Z</time>
      </trkpt>
      <trkpt lat="47.21895" lon="-0.00135">
        <ele>72</ele>
        <time>2016-04-20T11:48:15Z</time>
      </trkpt>
      <trkpt lat="47.21895" lon="-0.00135">
        <ele>72</ele>
        <time>2016-04-20T11:48:18Z</time>
      </trkpt>
      <trkpt lat="47.21895" lon="-0.00135">
        <ele>72</ele>
        <time>2016-04-20T11:48:23Z</time>
      </trkpt>
      <trkpt lat="47.21895" lon="-0.00135">
        <ele>72</ele>
        <time>2016-04-20T11:48:24Z</time>
      </trkpt>
      <trkpt lat="47.21895" lon="-0.00135">
        <ele>72</ele>
        <time>2016-04-20T11:48:27Z</time>
      </trkpt>
      <trkpt lat="47.21895" lon="-0.00135">
        <ele>72</ele>
        <time>2016-04-20T11:48:30Z</time>
      </trkpt>
      <trkpt lat="47.21895" lon="-0.00135">
        <ele>72</ele>
        <time>2016-04-20T11:48:33Z</time>
      </trkpt>
      <trkpt lat="47.21895" lon="-0.00135">
        <ele>72</ele>
        <time>2016-04-20T11:48:37Z</time>
      </trkpt>
      <trkpt lat="47.21895" lon="-0.00135">
        <ele>72</ele>
        <time>2016-04-20T11:48:39Z</time>
      </trkpt>
      <trkpt lat="47.21895" lon="-0.00135">
        <ele>72</ele>
        <time>2016-04-20T11:48:42Z</time>
      </trkpt>
      <trkpt lat="47.21895" lon="-0.00135">
        <ele>73</ele>
        <time>2016-04-20T11:48:45Z</time>
      </trkpt>
      <trkpt lat="47.21895" lon="-0.00135">
        <ele>72</ele>
        <time>2016-04-20T11:48:48Z</time>
      </trkpt>
      <trkpt lat="47.21895" lon="-0.00134">
        <ele>72</ele>
        <time>2016-04-20T11:48:51Z</time>
      </trkpt>
      <trkpt lat="47.21894" lon="-0.00132">
        <ele>74</ele>
        <time>2016-04-20T11:48:55Z</time>
      </trkpt>
      <trkpt lat="47.21893" lon="-0.00135">
        <ele>75</ele>
        <time>2016-04-20T11:49:08Z</time>
      </trkpt>
      <trkpt lat="47.21893" lon="-0.00135">
        <ele>75</ele>
        <time>2016-04-20T11:49:11Z</time>
      </trkpt>
      <trkpt lat="47.21893" lon="-0.00135">
        <ele>75</ele>
        <time>2016-04-20T11:49:14Z</time>
      </trkpt>
      <trkpt lat="47.21894" lon="-0.00137">
        <ele>76</ele>
        <time>2016-04-20T11:49:18Z</time>
      </trkpt>
      <trkpt lat="47.21895" lon="-0.00135">
        <ele>76</ele>
        <time>2016-04-20T11:49:30Z</time>
      </trkpt>
      <trkpt lat="47.21896" lon="-0.00133">
        <ele>75</ele>
        <time>2016-04-20T11:49:37Z</time>
      </trkpt>
      <trkpt lat="47.21895" lon="-0.00133">
        <ele>74</ele>
        <time>2016-04-20T11:49:40Z</time>
      </trkpt>
      <trkpt lat="47.21894" lon="-0.00134">
        <ele>73</ele>
        <time>2016-04-20T11:49:43Z</time>
      </trkpt>
      <trkpt lat="47.21893" lon="-0.00136">
        <ele>73</ele>
        <time>2016-04-20T11:49:54Z</time>
      </trkpt>
      <trkpt lat="47.21893" lon="-0.00136">
        <ele>72</ele>
        <time>2016-04-20T11:49:57Z</time>
      </trkpt>
      <trkpt lat="47.21893" lon="-0.00136">
        <ele>72</ele>
        <time>2016-04-20T11:50:00Z</time>
      </trkpt>
      <trkpt lat="47.21894" lon="-0.00136">
        <ele>72</ele>
        <time>2016-04-20T11:50:03Z</time>
      </trkpt>
      <trkpt lat="47.21894" lon="-0.00136">
        <ele>72</ele>
        <time>2016-04-20T11:50:07Z</time>
      </trkpt>
      <trkpt lat="47.21894" lon="-0.00136">
        <ele>72</ele>
        <time>2016-04-20T11:50:11Z</time>
      </trkpt>
      <trkpt lat="47.21894" lon="-0.00136">
        <ele>72</ele>
        <time>2016-04-20T11:50:12Z</time>
      </trkpt>
      <trkpt lat="47.21894" lon="-0.00136">
        <ele>72</ele>
        <time>2016-04-20T11:50:15Z</time>
      </trkpt>
      <trkpt lat="47.21894" lon="-0.00136">
        <ele>72</ele>
        <time>2016-04-20T11:50:18Z</time>
      </trkpt>
      <trkpt lat="47.21894" lon="-0.00136">
        <ele>72</ele>
        <time>2016-04-20T11:50:21Z</time>
      </trkpt>
      <trkpt lat="47.21894" lon="-0.00136">
        <ele>72</ele>
        <time>2016-04-20T11:50:24Z</time>
      </trkpt>
      <trkpt lat="47.21894" lon="-0.00136">
        <ele>72</ele>
        <time>2016-04-20T11:50:28Z</time>
      </trkpt>
      <trkpt lat="47.21894" lon="-0.00136">
        <ele>72</ele>
        <time>2016-04-20T11:50:30Z</time>
      </trkpt>
      <trkpt lat="47.21894" lon="-0.00136">
        <ele>72</ele>
        <time>2016-04-20T11:50:35Z</time>
      </trkpt>
      <trkpt lat="47.21894" lon="-0.00136">
        <ele>72</ele>
        <time>2016-04-20T11:50:37Z</time>
      </trkpt>
      <trkpt lat="47.21894" lon="-0.00136">
        <ele>72</ele>
        <time>2016-04-20T11:50:40Z</time>
      </trkpt>
      <trkpt lat="47.21894" lon="-0.00136">
        <ele>72</ele>
        <time>2016-04-20T11:50:42Z</time>
      </trkpt>
      <trkpt lat="47.21894" lon="-0.00136">
        <ele>72</ele>
        <time>2016-04-20T11:50:45Z</time>
      </trkpt>
      <trkpt lat="47.21894" lon="-0.00136">
        <ele>72</ele>
        <time>2016-04-20T11:50:48Z</time>
      </trkpt>
      <trkpt lat="47.21894" lon="-0.00136">
        <ele>72</ele>
        <time>2016-04-20T11:50:51Z</time>
      </trkpt>
      <trkpt lat="47.21892" lon="-0.00135">
        <ele>72</ele>
        <time>2016-04-20T11:50:58Z</time>
      </trkpt>
      <trkpt lat="47.21893" lon="-0.00136">
        <ele>73</ele>
        <time>2016-04-20T11:51:07Z</time>
      </trkpt>
      <trkpt lat="47.21894" lon="-0.00136">
        <ele>73</ele>
        <time>2016-04-20T11:51:14Z</time>
      </trkpt>
      <trkpt lat="47.21894" lon="-0.00136">
        <ele>73</ele>
        <time>2016-04-20T11:51:17Z</time>
      </trkpt>
      <trkpt lat="47.21894" lon="-0.00135">
        <ele>73</ele>
        <time>2016-04-20T11:51:21Z</time>
      </trkpt>
      <trkpt lat="47.21894" lon="-0.00133">
        <ele>74</ele>
        <time>2016-04-20T11:51:29Z</time>
      </trkpt>
      <trkpt lat="47.21894" lon="-0.00133">
        <ele>74</ele>
        <time>2016-04-20T11:51:32Z</time>
      </trkpt>
      <trkpt lat="47.21894" lon="-0.00134">
        <ele>74</ele>
        <time>2016-04-20T11:51:35Z</time>
      </trkpt>
      <trkpt lat="47.21894" lon="-0.00134">
        <ele>74</ele>
        <time>2016-04-20T11:51:37Z</time>
      </trkpt>
      <trkpt lat="47.21894" lon="-0.00134">
        <ele>74</ele>
        <time>2016-04-20T11:51:40Z</time>
      </trkpt>
      <trkpt lat="47.21894" lon="-0.00134">
        <ele>74</ele>
        <time>2016-04-20T11:51:43Z</time>
      </trkpt>
      <trkpt lat="47.21894" lon="-0.00134">
        <ele>74</ele>
        <time>2016-04-20T11:51:48Z</time>
      </trkpt>
      <trkpt lat="47.21894" lon="-0.00134">
        <ele>74</ele>
        <time>2016-04-20T11:51:50Z</time>
      </trkpt>
      <trkpt lat="47.21894" lon="-0.00134">
        <ele>74</ele>
        <time>2016-04-20T11:51:53Z</time>
      </trkpt>
      <trkpt lat="47.21893" lon="-0.00135">
        <ele>74</ele>
        <time>2016-04-20T11:51:59Z</time>
      </trkpt>
      <trkpt lat="47.21893" lon="-0.00135">
        <ele>74</ele>
        <time>2016-04-20T11:52:02Z</time>
      </trkpt>
      <trkpt lat="47.21893" lon="-0.00135">
        <ele>74</ele>
        <time>2016-04-20T11:52:05Z</time>
      </trkpt>
      <trkpt lat="47.21892" lon="-0.00135">
        <ele>75</ele>
        <time>2016-04-20T11:52:10Z</time>
      </trkpt>
      <trkpt lat="47.21893" lon="-0.00135">
        <ele>74</ele>
        <time>2016-04-20T11:52:16Z</time>
      </trkpt>
      <trkpt lat="47.21893" lon="-0.00135">
        <ele>74</ele>
        <time>2016-04-20T11:52:20Z</time>
      </trkpt>
      <trkpt lat="47.21893" lon="-0.00135">
        <ele>74</ele>
        <time>2016-04-20T11:52:23Z</time>
      </trkpt>
      <trkpt lat="47.21894" lon="-0.00135">
        <ele>74</ele>
        <time>2016-04-20T11:52:25Z</time>
      </trkpt>
      <trkpt lat="47.21893" lon="-0.00135">
        <ele>74</ele>
        <time>2016-04-20T11:52:29Z</time>
      </trkpt>
      <trkpt lat="47.21894" lon="-0.00135">
        <ele>74</ele>
        <time>2016-04-20T11:52:32Z</time>
      </trkpt>
      <trkpt lat="47.21893" lon="-0.00135">
        <ele>75</ele>
        <time>2016-04-20T11:52:34Z</time>
      </trkpt>
      <trkpt lat="47.21893" lon="-0.00135">
        <ele>75</ele>
        <time>2016-04-20T11:52:38Z</time>
      </trkpt>
      <trkpt lat="47.21893" lon="-0.00135">
        <ele>75</ele>
        <time>2016-04-20T11:52:40Z</time>
      </trkpt>
      <trkpt lat="47.21893" lon="-0.00135">
        <ele>75</ele>
        <time>2016-04-20T11:52:44Z</time>
      </trkpt>
      <trkpt lat="47.21893" lon="-0.00135">
        <ele>75</ele>
        <time>2016-04-20T11:52:46Z</time>
      </trkpt>
      <trkpt lat="47.21892" lon="-0.00137">
        <ele>75</ele>
        <time>2016-04-20T11:52:49Z</time>
      </trkpt>
      <trkpt lat="47.2189" lon="-0.0014">
        <ele>74</ele>
        <time>2016-04-20T11:53:00Z</time>
      </trkpt>
      <trkpt lat="47.21891" lon="-0.00141">
        <ele>73</ele>
        <time>2016-04-20T11:53:12Z</time>
      </trkpt>
      <trkpt lat="47.21891" lon="-0.00142">
        <ele>74</ele>
        <time>2016-04-20T11:53:14Z</time>
      </trkpt>
      <trkpt lat="47.21891" lon="-0.0014">
        <ele>74</ele>
        <time>2016-04-20T11:53:24Z</time>
      </trkpt>
      <trkpt lat="47.2189" lon="-0.0014">
        <ele>73</ele>
        <time>2016-04-20T11:53:28Z</time>
      </trkpt>
      <trkpt lat="47.2189" lon="-0.0014">
        <ele>73</ele>
        <time>2016-04-20T11:53:30Z</time>
      </trkpt>
      <trkpt lat="47.2189" lon="-0.0014">
        <ele>73</ele>
        <time>2016-04-20T11:53:33Z</time>
      </trkpt>
      <trkpt lat="47.2189" lon="-0.0014">
        <ele>73</ele>
        <time>2016-04-20T11:53:35Z</time>
      </trkpt>
      <trkpt lat="47.21891" lon="-0.0014">
        <ele>72</ele>
        <time>2016-04-20T11:53:39Z</time>
      </trkpt>
      <trkpt lat="47.21891" lon="-0.0014">
        <ele>72</ele>
        <time>2016-04-20T11:53:41Z</time>
      </trkpt>
      <trkpt lat="47.21891" lon="-0.00139">
        <ele>71</ele>
        <time>2016-04-20T11:53:45Z</time>
      </trkpt>
      <trkpt lat="47.21891" lon="-0.00139">
        <ele>72</ele>
        <time>2016-04-20T11:53:48Z</time>
      </trkpt>
      <trkpt lat="47.21891" lon="-0.00139">
        <ele>72</ele>
        <time>2016-04-20T11:53:52Z</time>
      </trkpt>
      <trkpt lat="47.21891" lon="-0.00139">
        <ele>71</ele>
        <time>2016-04-20T11:53:53Z</time>
      </trkpt>
      <trkpt lat="47.21891" lon="-0.0014">
        <ele>72</ele>
        <time>2016-04-20T11:53:56Z</time>
      </trkpt>
      <trkpt lat="47.21891" lon="-0.0014">
        <ele>72</ele>
        <time>2016-04-20T11:53:59Z</time>
      </trkpt>
      <trkpt lat="47.21891" lon="-0.0014">
        <ele>72</ele>
        <time>2016-04-20T11:54:02Z</time>
      </trkpt>
      <trkpt lat="47.21892" lon="-0.0014">
        <ele>72</ele>
        <time>2016-04-20T11:54:06Z</time>
      </trkpt>
      <trkpt lat="47.21892" lon="-0.0014">
        <ele>72</ele>
        <time>2016-04-20T11:54:08Z</time>
      </trkpt>
      <trkpt lat="47.21892" lon="-0.0014">
        <ele>72</ele>
        <time>2016-04-20T11:54:11Z</time>
      </trkpt>
      <trkpt lat="47.21892" lon="-0.0014">
        <ele>71</ele>
        <time>2016-04-20T11:54:14Z</time>
      </trkpt>
      <trkpt lat="47.21893" lon="-0.00138">
        <ele>72</ele>
        <time>2016-04-20T11:54:23Z</time>
      </trkpt>
      <trkpt lat="47.21893" lon="-0.00139">
        <ele>72</ele>
        <time>2016-04-20T11:54:26Z</time>
      </trkpt>
      <trkpt lat="47.21893" lon="-0.00139">
        <ele>72</ele>
        <time>2016-04-20T11:54:29Z</time>
      </trkpt>
      <trkpt lat="47.21893" lon="-0.00139">
        <ele>73</ele>
        <time>2016-04-20T11:54:32Z</time>
      </trkpt>
      <trkpt lat="47.21893" lon="-0.00139">
        <ele>73</ele>
        <time>2016-04-20T11:54:35Z</time>
      </trkpt>
      <trkpt lat="47.21893" lon="-0.00139">
        <ele>73</ele>
        <time>2016-04-20T11:54:38Z</time>
      </trkpt>
      <trkpt lat="47.21893" lon="-0.00139">
        <ele>73</ele>
        <time>2016-04-20T11:54:41Z</time>
      </trkpt>
      <trkpt lat="47.21893" lon="-0.00139">
        <ele>73</ele>
        <time>2016-04-20T11:54:44Z</time>
      </trkpt>
      <trkpt lat="47.21893" lon="-0.00139">
        <ele>73</ele>
        <time>2016-04-20T11:54:47Z</time>
      </trkpt>
      <trkpt lat="47.21893" lon="-0.00139">
        <ele>73</ele>
        <time>2016-04-20T11:54:50Z</time>
      </trkpt>
      <trkpt lat="47.21893" lon="-0.00139">
        <ele>73</ele>
        <time>2016-04-20T11:54:53Z</time>
      </trkpt>
      <trkpt lat="47.21893" lon="-0.00139">
        <ele>73</ele>
        <time>2016-04-20T11:54:56Z</time>
      </trkpt>
      <trkpt lat="47.21893" lon="-0.00139">
        <ele>73</ele>
        <time>2016-04-20T11:54:59Z</time>
      </trkpt>
      <trkpt lat="47.21893" lon="-0.00139">
        <ele>73</ele>
        <time>2016-04-20T11:55:02Z</time>
      </trkpt>
      <trkpt lat="47.21893" lon="-0.00139">
        <ele>73</ele>
        <time>2016-04-20T11:55:06Z</time>
      </trkpt>
      <trkpt lat="47.21893" lon="-0.00139">
        <ele>73</ele>
        <time>2016-04-20T11:55:08Z</time>
      </trkpt>
      <trkpt lat="47.21893" lon="-0.00139">
        <ele>73</ele>
        <time>2016-04-20T11:55:13Z</time>
      </trkpt>
      <trkpt lat="47.21893" lon="-0.00138">
        <ele>73</ele>
        <time>2016-04-20T11:55:20Z</time>
      </trkpt>
      <trkpt lat="47.21893" lon="-0.00138">
        <ele>73</ele>
        <time>2016-04-20T11:55:23Z</time>
      </trkpt>
      <trkpt lat="47.21893" lon="-0.00138">
        <ele>73</ele>
        <time>2016-04-20T11:55:26Z</time>
      </trkpt>
      <trkpt lat="47.21893" lon="-0.00138">
        <ele>73</ele>
        <time>2016-04-20T11:55:30Z</time>
      </trkpt>
      <trkpt lat="47.21893" lon="-0.00138">
        <ele>74</ele>
        <time>2016-04-20T11:55:37Z</time>
      </trkpt>
      <trkpt lat="47.21893" lon="-0.00138">
        <ele>73</ele>
        <time>2016-04-20T11:55:38Z</time>
      </trkpt>
      <trkpt lat="47.21894" lon="-0.00138">
        <ele>73</ele>
        <time>2016-04-20T11:55:41Z</time>
      </trkpt>
      <trkpt lat="47.21894" lon="-0.00138">
        <ele>73</ele>
        <time>2016-04-20T11:55:44Z</time>
      </trkpt>
      <trkpt lat="47.21894" lon="-0.00138">
        <ele>73</ele>
        <time>2016-04-20T11:55:47Z</time>
      </trkpt>
      <trkpt lat="47.21894" lon="-0.00138">
        <ele>72</ele>
        <time>2016-04-20T11:55:51Z</time>
      </trkpt>
      <trkpt lat="47.21893" lon="-0.00137">
        <ele>72</ele>
        <time>2016-04-20T11:55:53Z</time>
      </trkpt>
      <trkpt lat="47.21893" lon="-0.00137">
        <ele>73</ele>
        <time>2016-04-20T11:55:56Z</time>
      </trkpt>
      <trkpt lat="47.21893" lon="-0.00137">
        <ele>73</ele>
        <time>2016-04-20T11:55:59Z</time>
      </trkpt>
      <trkpt lat="47.21893" lon="-0.00137">
        <ele>74</ele>
        <time>2016-04-20T11:56:02Z</time>
      </trkpt>
      <trkpt lat="47.21894" lon="-0.00137">
        <ele>73</ele>
        <time>2016-04-20T11:56:05Z</time>
      </trkpt>
      <trkpt lat="47.21894" lon="-0.00137">
        <ele>73</ele>
        <time>2016-04-20T11:56:08Z</time>
      </trkpt>
      <trkpt lat="47.21894" lon="-0.00137">
        <ele>73</ele>
        <time>2016-04-20T11:56:11Z</time>
      </trkpt>
      <trkpt lat="47.21894" lon="-0.00137">
        <ele>73</ele>
        <time>2016-04-20T11:56:15Z</time>
      </trkpt>
      <trkpt lat="47.21894" lon="-0.00137">
        <ele>73</ele>
        <time>2016-04-20T11:56:19Z</time>
      </trkpt>
      <trkpt lat="47.21894" lon="-0.00137">
        <ele>73</ele>
        <time>2016-04-20T11:56:20Z</time>
      </trkpt>
      <trkpt lat="47.21894" lon="-0.00137">
        <ele>73</ele>
        <time>2016-04-20T11:56:23Z</time>
      </trkpt>
      <trkpt lat="47.21894" lon="-0.00137">
        <ele>73</ele>
        <time>2016-04-20T11:56:26Z</time>
      </trkpt>
      <trkpt lat="47.21894" lon="-0.00137">
        <ele>73</ele>
        <time>2016-04-20T11:56:29Z</time>
      </trkpt>
      <trkpt lat="47.21894" lon="-0.00137">
        <ele>73</ele>
        <time>2016-04-20T11:56:32Z</time>
      </trkpt>
      <trkpt lat="47.21894" lon="-0.00137">
        <ele>73</ele>
        <time>2016-04-20T11:56:35Z</time>
      </trkpt>
      <trkpt lat="47.21893" lon="-0.00138">
        <ele>73</ele>
        <time>2016-04-20T11:56:38Z</time>
      </trkpt>
      <trkpt lat="47.21891" lon="-0.00141">
        <ele>73</ele>
        <time>2016-04-20T11:56:52Z</time>
      </trkpt>
      <trkpt lat="47.21891" lon="-0.00141">
        <ele>73</ele>
        <time>2016-04-20T11:56:55Z</time>
      </trkpt>
      <trkpt lat="47.21891" lon="-0.00141">
        <ele>73</ele>
        <time>2016-04-20T11:56:58Z</time>
      </trkpt>
      <trkpt lat="47.21891" lon="-0.00141">
        <ele>74</ele>
        <time>2016-04-20T11:57:02Z</time>
      </trkpt>
      <trkpt lat="47.21891" lon="-0.00141">
        <ele>74</ele>
        <time>2016-04-20T11:57:04Z</time>
      </trkpt>
      <trkpt lat="47.21891" lon="-0.00141">
        <ele>74</ele>
        <time>2016-04-20T11:57:07Z</time>
      </trkpt>
      <trkpt lat="47.21891" lon="-0.00141">
        <ele>74</ele>
        <time>2016-04-20T11:57:10Z</time>
      </trkpt>
      <trkpt lat="47.21891" lon="-0.00141">
        <ele>74</ele>
        <time>2016-04-20T11:57:13Z</time>
      </trkpt>
      <trkpt lat="47.21891" lon="-0.00141">
        <ele>74</ele>
        <time>2016-04-20T11:57:16Z</time>
      </trkpt>
      <trkpt lat="47.2189" lon="-0.00141">
        <ele>75</ele>
        <time>2016-04-20T11:57:19Z</time>
      </trkpt>
      <trkpt lat="47.2189" lon="-0.00142">
        <ele>74</ele>
        <time>2016-04-20T11:57:22Z</time>
      </trkpt>
      <trkpt lat="47.2189" lon="-0.00141">
        <ele>74</ele>
        <time>2016-04-20T11:57:25Z</time>
      </trkpt>
      <trkpt lat="47.2189" lon="-0.00142">
        <ele>74</ele>
        <time>2016-04-20T11:57:28Z</time>
      </trkpt>
      <trkpt lat="47.2189" lon="-0.00142">
        <ele>74</ele>
        <time>2016-04-20T11:57:31Z</time>
      </trkpt>
      <trkpt lat="47.2189" lon="-0.00142">
        <ele>74</ele>
        <time>2016-04-20T11:57:34Z</time>
      </trkpt>
      <trkpt lat="47.2189" lon="-0.00142">
        <ele>75</ele>
        <time>2016-04-20T11:57:37Z</time>
      </trkpt>
      <trkpt lat="47.2189" lon="-0.00142">
        <ele>75</ele>
        <time>2016-04-20T11:57:40Z</time>
      </trkpt>
      <trkpt lat="47.2189" lon="-0.00142">
        <ele>75</ele>
        <time>2016-04-20T11:57:43Z</time>
      </trkpt>
      <trkpt lat="47.2189" lon="-0.00142">
        <ele>75</ele>
        <time>2016-04-20T11:57:46Z</time>
      </trkpt>
      <trkpt lat="47.2189" lon="-0.00142">
        <ele>75</ele>
        <time>2016-04-20T11:57:49Z</time>
      </trkpt>
      <trkpt lat="47.2189" lon="-0.0014">
        <ele>76</ele>
        <time>2016-04-20T11:57:55Z</time>
      </trkpt>
      <trkpt lat="47.2189" lon="-0.0014">
        <ele>75</ele>
        <time>2016-04-20T11:57:58Z</time>
      </trkpt>
      <trkpt lat="47.2189" lon="-0.0014">
        <ele>75</ele>
        <time>2016-04-20T11:58:01Z</time>
      </trkpt>
      <trkpt lat="47.2189" lon="-0.0014">
        <ele>75</ele>
        <time>2016-04-20T11:58:04Z</time>
      </trkpt>
      <trkpt lat="47.2189" lon="-0.0014">
        <ele>75</ele>
        <time>2016-04-20T11:58:07Z</time>
      </trkpt>
      <trkpt lat="47.2189" lon="-0.0014">
        <ele>75</ele>
        <time>2016-04-20T11:58:10Z</time>
      </trkpt>
      <trkpt lat="47.2189" lon="-0.0014">
        <ele>75</ele>
        <time>2016-04-20T11:58:13Z</time>
      </trkpt>
      <trkpt lat="47.2189" lon="-0.0014">
        <ele>75</ele>
        <time>2016-04-20T11:58:16Z</time>
      </trkpt>
      <trkpt lat="47.2189" lon="-0.0014">
        <ele>75</ele>
        <time>2016-04-20T11:58:19Z</time>
      </trkpt>
      <trkpt lat="47.2189" lon="-0.0014">
        <ele>75</ele>
        <time>2016-04-20T11:58:22Z</time>
      </trkpt>
      <trkpt lat="47.2189" lon="-0.0014">
        <ele>75</ele>
        <time>2016-04-20T11:58:27Z</time>
      </trkpt>
      <trkpt lat="47.2189" lon="-0.0014">
        <ele>75</ele>
        <time>2016-04-20T11:58:30Z</time>
      </trkpt>
      <trkpt lat="47.2189" lon="-0.0014">
        <ele>75</ele>
        <time>2016-04-20T11:58:31Z</time>
      </trkpt>
      <trkpt lat="47.2189" lon="-0.0014">
        <ele>75</ele>
        <time>2016-04-20T11:58:34Z</time>
      </trkpt>
      <trkpt lat="47.2189" lon="-0.0014">
        <ele>75</ele>
        <time>2016-04-20T11:58:37Z</time>
      </trkpt>
      <trkpt lat="47.2189" lon="-0.0014">
        <ele>75</ele>
        <time>2016-04-20T11:58:41Z</time>
      </trkpt>
      <trkpt lat="47.2189" lon="-0.0014">
        <ele>75</ele>
        <time>2016-04-20T11:58:43Z</time>
      </trkpt>
      <trkpt lat="47.2189" lon="-0.0014">
        <ele>75</ele>
        <time>2016-04-20T11:58:47Z</time>
      </trkpt>
      <trkpt lat="47.2189" lon="-0.0014">
        <ele>75</ele>
        <time>2016-04-20T11:58:49Z</time>
      </trkpt>
      <trkpt lat="47.2189" lon="-0.0014">
        <ele>75</ele>
        <time>2016-04-20T11:58:52Z</time>
      </trkpt>
      <trkpt lat="47.2189" lon="-0.0014">
        <ele>75</ele>
        <time>2016-04-20T11:58:55Z</time>
      </trkpt>
      <trkpt lat="47.2189" lon="-0.0014">
        <ele>75</ele>
        <time>2016-04-20T11:58:58Z</time>
      </trkpt>
      <trkpt lat="47.2189" lon="-0.0014">
        <ele>75</ele>
        <time>2016-04-20T11:59:01Z</time>
      </trkpt>
      <trkpt lat="47.2189" lon="-0.0014">
        <ele>75</ele>
        <time>2016-04-20T11:59:04Z</time>
      </trkpt>
      <trkpt lat="47.2189" lon="-0.0014">
        <ele>75</ele>
        <time>2016-04-20T11:59:07Z</time>
      </trkpt>
      <trkpt lat="47.2189" lon="-0.0014">
        <ele>75</ele>
        <time>2016-04-20T11:59:10Z</time>
      </trkpt>
      <trkpt lat="47.2189" lon="-0.0014">
        <ele>75</ele>
        <time>2016-04-20T11:59:13Z</time>
      </trkpt>
      <trkpt lat="47.2189" lon="-0.0014">
        <ele>75</ele>
        <time>2016-04-20T11:59:16Z</time>
      </trkpt>
      <trkpt lat="47.2189" lon="-0.0014">
        <ele>75</ele>
        <time>2016-04-20T11:59:19Z</time>
      </trkpt>
      <trkpt lat="47.2189" lon="-0.0014">
        <ele>75</ele>
        <time>2016-04-20T11:59:23Z</time>
      </trkpt>
      <trkpt lat="47.2189" lon="-0.0014">
        <ele>75</ele>
        <time>2016-04-20T11:59:25Z</time>
      </trkpt>
      <trkpt lat="47.2189" lon="-0.0014">
        <ele>75</ele>
        <time>2016-04-20T11:59:28Z</time>
      </trkpt>
      <trkpt lat="47.2189" lon="-0.0014">
        <ele>75</ele>
        <time>2016-04-20T11:59:32Z</time>
      </trkpt>
      <trkpt lat="47.2189" lon="-0.0014">
        <ele>75</ele>
        <time>2016-04-20T11:59:34Z</time>
      </trkpt>
      <trkpt lat="47.2189" lon="-0.0014">
        <ele>75</ele>
        <time>2016-04-20T11:59:37Z</time>
      </trkpt>
      <trkpt lat="47.2189" lon="-0.0014">
        <ele>75</ele>
        <time>2016-04-20T11:59:40Z</time>
      </trkpt>
      <trkpt lat="47.2189" lon="-0.0014">
        <ele>75</ele>
        <time>2016-04-20T11:59:43Z</time>
      </trkpt>
      <trkpt lat="47.2189" lon="-0.0014">
        <ele>75</ele>
        <time>2016-04-20T11:59:46Z</time>
      </trkpt>
      <trkpt lat="47.2189" lon="-0.0014">
        <ele>75</ele>
        <time>2016-04-20T11:59:51Z</time>
      </trkpt>
      <trkpt lat="47.2189" lon="-0.0014">
        <ele>75</ele>
        <time>2016-04-20T11:59:56Z</time>
      </trkpt>
      <trkpt lat="47.2189" lon="-0.00141">
        <ele>74</ele>
        <time>2016-04-20T11:59:58Z</time>
      </trkpt>
      <trkpt lat="47.2189" lon="-0.00141">
        <ele>74</ele>
        <time>2016-04-20T12:00:01Z</time>
      </trkpt>
      <trkpt lat="47.2189" lon="-0.00141">
        <ele>74</ele>
        <time>2016-04-20T12:00:04Z</time>
      </trkpt>
      <trkpt lat="47.2189" lon="-0.00141">
        <ele>74</ele>
        <time>2016-04-20T12:00:07Z</time>
      </trkpt>
      <trkpt lat="47.2189" lon="-0.00141">
        <ele>74</ele>
        <time>2016-04-20T12:00:10Z</time>
      </trkpt>
      <trkpt lat="47.21891" lon="-0.00141">
        <ele>75</ele>
        <time>2016-04-20T12:00:13Z</time>
      </trkpt>
      <trkpt lat="47.21891" lon="-0.00141">
        <ele>75</ele>
        <time>2016-04-20T12:00:16Z</time>
      </trkpt>
      <trkpt lat="47.21891" lon="-0.00141">
        <ele>75</ele>
        <time>2016-04-20T12:00:19Z</time>
      </trkpt>
      <trkpt lat="47.21891" lon="-0.00139">
        <ele>74</ele>
        <time>2016-04-20T12:00:22Z</time>
      </trkpt>
      <trkpt lat="47.21893" lon="-0.00138">
        <ele>75</ele>
        <time>2016-04-20T12:00:36Z</time>
      </trkpt>
      <trkpt lat="47.21892" lon="-0.0014">
        <ele>75</ele>
        <time>2016-04-20T12:00:45Z</time>
      </trkpt>
      <trkpt lat="47.21891" lon="-0.0014">
        <ele>74</ele>
        <time>2016-04-20T12:00:48Z</time>
      </trkpt>
      <trkpt lat="47.21892" lon="-0.0014">
        <ele>74</ele>
        <time>2016-04-20T12:00:51Z</time>
      </trkpt>
      <trkpt lat="47.21892" lon="-0.0014">
        <ele>74</ele>
        <time>2016-04-20T12:00:54Z</time>
      </trkpt>
      <trkpt lat="47.21892" lon="-0.0014">
        <ele>74</ele>
        <time>2016-04-20T12:00:57Z</time>
      </trkpt>
      <trkpt lat="47.21891" lon="-0.0014">
        <ele>74</ele>
        <time>2016-04-20T12:01:00Z</time>
      </trkpt>
      <trkpt lat="47.21891" lon="-0.00141">
        <ele>74</ele>
        <time>2016-04-20T12:01:04Z</time>
      </trkpt>
      <trkpt lat="47.21891" lon="-0.00141">
        <ele>73</ele>
        <time>2016-04-20T12:01:09Z</time>
      </trkpt>
      <trkpt lat="47.21891" lon="-0.00141">
        <ele>74</ele>
        <time>2016-04-20T12:01:12Z</time>
      </trkpt>
      <trkpt lat="47.21892" lon="-0.0014">
        <ele>74</ele>
        <time>2016-04-20T12:01:15Z</time>
      </trkpt>
      <trkpt lat="47.21892" lon="-0.0014">
        <ele>74</ele>
        <time>2016-04-20T12:01:18Z</time>
      </trkpt>
      <trkpt lat="47.21892" lon="-0.0014">
        <ele>75</ele>
        <time>2016-04-20T12:01:21Z</time>
      </trkpt>
      <trkpt lat="47.21892" lon="-0.0014">
        <ele>75</ele>
        <time>2016-04-20T12:01:24Z</time>
      </trkpt>
      <trkpt lat="47.21892" lon="-0.0014">
        <ele>75</ele>
        <time>2016-04-20T12:01:27Z</time>
      </trkpt>
      <trkpt lat="47.21892" lon="-0.00141">
        <ele>75</ele>
        <time>2016-04-20T12:01:31Z</time>
      </trkpt>
      <trkpt lat="47.21892" lon="-0.00141">
        <ele>75</ele>
        <time>2016-04-20T12:01:33Z</time>
      </trkpt>
      <trkpt lat="47.21892" lon="-0.00141">
        <ele>75</ele>
        <time>2016-04-20T12:01:36Z</time>
      </trkpt>
      <trkpt lat="47.21892" lon="-0.00141">
        <ele>75</ele>
        <time>2016-04-20T12:01:39Z</time>
      </trkpt>
      <trkpt lat="47.21892" lon="-0.00141">
        <ele>75</ele>
        <time>2016-04-20T12:01:42Z</time>
      </trkpt>
      <trkpt lat="47.21892" lon="-0.00141">
        <ele>75</ele>
        <time>2016-04-20T12:01:45Z</time>
      </trkpt>
      <trkpt lat="47.21892" lon="-0.0014">
        <ele>75</ele>
        <time>2016-04-20T12:01:50Z</time>
      </trkpt>
      <trkpt lat="47.21892" lon="-0.0014">
        <ele>75</ele>
        <time>2016-04-20T12:01:51Z</time>
      </trkpt>
      <trkpt lat="47.21892" lon="-0.0014">
        <ele>75</ele>
        <time>2016-04-20T12:01:54Z</time>
      </trkpt>
      <trkpt lat="47.21892" lon="-0.00141">
        <ele>74</ele>
        <time>2016-04-20T12:01:57Z</time>
      </trkpt>
      <trkpt lat="47.21892" lon="-0.00141">
        <ele>74</ele>
        <time>2016-04-20T12:02:00Z</time>
      </trkpt>
      <trkpt lat="47.21892" lon="-0.00141">
        <ele>74</ele>
        <time>2016-04-20T12:02:03Z</time>
      </trkpt>
      <trkpt lat="47.21892" lon="-0.00141">
        <ele>74</ele>
        <time>2016-04-20T12:02:06Z</time>
      </trkpt>
      <trkpt lat="47.21892" lon="-0.00141">
        <ele>74</ele>
        <time>2016-04-20T12:02:09Z</time>
      </trkpt>
      <trkpt lat="47.21892" lon="-0.00141">
        <ele>74</ele>
        <time>2016-04-20T12:02:12Z</time>
      </trkpt>
      <trkpt lat="47.21892" lon="-0.00141">
        <ele>74</ele>
        <time>2016-04-20T12:02:15Z</time>
      </trkpt>
      <trkpt lat="47.21892" lon="-0.00141">
        <ele>74</ele>
        <time>2016-04-20T12:02:18Z</time>
      </trkpt>
      <trkpt lat="47.21892" lon="-0.00141">
        <ele>74</ele>
        <time>2016-04-20T12:02:21Z</time>
      </trkpt>
      <trkpt lat="47.21892" lon="-0.00141">
        <ele>74</ele>
        <time>2016-04-20T12:02:24Z</time>
      </trkpt>
      <trkpt lat="47.21892" lon="-0.00141">
        <ele>74</ele>
        <time>2016-04-20T12:02:27Z</time>
      </trkpt>
      <trkpt lat="47.21892" lon="-0.00141">
        <ele>75</ele>
        <time>2016-04-20T12:02:30Z</time>
      </trkpt>
      <trkpt lat="47.21892" lon="-0.0014">
        <ele>75</ele>
        <time>2016-04-20T12:02:33Z</time>
      </trkpt>
      <trkpt lat="47.21892" lon="-0.0014">
        <ele>75</ele>
        <time>2016-04-20T12:02:36Z</time>
      </trkpt>
      <trkpt lat="47.21892" lon="-0.0014">
        <ele>76</ele>
        <time>2016-04-20T12:02:39Z</time>
      </trkpt>
      <trkpt lat="47.21892" lon="-0.0014">
        <ele>76</ele>
        <time>2016-04-20T12:02:42Z</time>
      </trkpt>
      <trkpt lat="47.21892" lon="-0.0014">
        <ele>76</ele>
        <time>2016-04-20T12:02:45Z</time>
      </trkpt>
      <trkpt lat="47.21892" lon="-0.0014">
        <ele>76</ele>
        <time>2016-04-20T12:02:48Z</time>
      </trkpt>
      <trkpt lat="47.21892" lon="-0.0014">
        <ele>76</ele>
        <time>2016-04-20T12:02:51Z</time>
      </trkpt>
      <trkpt lat="47.21892" lon="-0.0014">
        <ele>76</ele>
        <time>2016-04-20T12:02:54Z</time>
      </trkpt>
      <trkpt lat="47.21892" lon="-0.0014">
        <ele>76</ele>
        <time>2016-04-20T12:02:57Z</time>
      </trkpt>
      <trkpt lat="47.21892" lon="-0.0014">
        <ele>76</ele>
        <time>2016-04-20T12:03:00Z</time>
      </trkpt>
      <trkpt lat="47.21892" lon="-0.0014">
        <ele>76</ele>
        <time>2016-04-20T12:03:03Z</time>
      </trkpt>
      <trkpt lat="47.21892" lon="-0.0014">
        <ele>76</ele>
        <time>2016-04-20T12:03:06Z</time>
      </trkpt>
      <trkpt lat="47.21892" lon="-0.0014">
        <ele>76</ele>
        <time>2016-04-20T12:03:09Z</time>
      </trkpt>
      <trkpt lat="47.21892" lon="-0.0014">
        <ele>76</ele>
        <time>2016-04-20T12:03:12Z</time>
      </trkpt>
      <trkpt lat="47.21892" lon="-0.0014">
        <ele>76</ele>
        <time>2016-04-20T12:03:15Z</time>
      </trkpt>
      <trkpt lat="47.21892" lon="-0.0014">
        <ele>75</ele>
        <time>2016-04-20T12:03:18Z</time>
      </trkpt>
      <trkpt lat="47.21892" lon="-0.0014">
        <ele>75</ele>
        <time>2016-04-20T12:03:21Z</time>
      </trkpt>
      <trkpt lat="47.21892" lon="-0.0014">
        <ele>75</ele>
        <time>2016-04-20T12:03:24Z</time>
      </trkpt>
      <trkpt lat="47.21892" lon="-0.0014">
        <ele>74</ele>
        <time>2016-04-20T12:03:27Z</time>
      </trkpt>
      <trkpt lat="47.21894" lon="-0.00139">
        <ele>75</ele>
        <time>2016-04-20T12:03:30Z</time>
      </trkpt>
      <trkpt lat="47.21895" lon="-0.00137">
        <ele>75</ele>
        <time>2016-04-20T12:03:44Z</time>
      </trkpt>
      <trkpt lat="47.21895" lon="-0.00137">
        <ele>75</ele>
        <time>2016-04-20T12:03:47Z</time>
      </trkpt>
      <trkpt lat="47.21895" lon="-0.00137">
        <ele>75</ele>
        <time>2016-04-20T12:03:50Z</time>
      </trkpt>
      <trkpt lat="47.21895" lon="-0.00137">
        <ele>75</ele>
        <time>2016-04-20T12:03:53Z</time>
      </trkpt>
      <trkpt lat="47.21895" lon="-0.00137">
        <ele>75</ele>
        <time>2016-04-20T12:03:56Z</time>
      </trkpt>
      <trkpt lat="47.21895" lon="-0.00137">
        <ele>75</ele>
        <time>2016-04-20T12:03:59Z</time>
      </trkpt>
      <trkpt lat="47.21895" lon="-0.00137">
        <ele>75</ele>
        <time>2016-04-20T12:04:02Z</time>
      </trkpt>
      <trkpt lat="47.21895" lon="-0.00137">
        <ele>75</ele>
        <time>2016-04-20T12:04:05Z</time>
      </trkpt>
      <trkpt lat="47.21895" lon="-0.00137">
        <ele>75</ele>
        <time>2016-04-20T12:04:08Z</time>
      </trkpt>
      <trkpt lat="47.21895" lon="-0.00137">
        <ele>75</ele>
        <time>2016-04-20T12:04:11Z</time>
      </trkpt>
      <trkpt lat="47.21895" lon="-0.00137">
        <ele>75</ele>
        <time>2016-04-20T12:04:14Z</time>
      </trkpt>
      <trkpt lat="47.21896" lon="-0.00137">
        <ele>76</ele>
        <time>2016-04-20T12:04:17Z</time>
      </trkpt>
      <trkpt lat="47.21896" lon="-0.00137">
        <ele>75</ele>
        <time>2016-04-20T12:04:20Z</time>
      </trkpt>
      <trkpt lat="47.21896" lon="-0.00137">
        <ele>75</ele>
        <time>2016-04-20T12:04:23Z</time>
      </trkpt>
      <trkpt lat="47.21896" lon="-0.00137">
        <ele>75</ele>
        <time>2016-04-20T12:04:26Z</time>
      </trkpt>
      <trkpt lat="47.21896" lon="-0.00137">
        <ele>75</ele>
        <time>2016-04-20T12:04:29Z</time>
      </trkpt>
      <trkpt lat="47.21896" lon="-0.00137">
        <ele>76</ele>
        <time>2016-04-20T12:04:32Z</time>
      </trkpt>
      <trkpt lat="47.21896" lon="-0.00137">
        <ele>76</ele>
        <time>2016-04-20T12:04:35Z</time>
      </trkpt>
      <trkpt lat="47.21896" lon="-0.00137">
        <ele>76</ele>
        <time>2016-04-20T12:04:38Z</time>
      </trkpt>
      <trkpt lat="47.21896" lon="-0.00137">
        <ele>76</ele>
        <time>2016-04-20T12:04:41Z</time>
      </trkpt>
      <trkpt lat="47.21896" lon="-0.00137">
        <ele>76</ele>
        <time>2016-04-20T12:04:45Z</time>
      </trkpt>
      <trkpt lat="47.21896" lon="-0.00137">
        <ele>76</ele>
        <time>2016-04-20T12:04:47Z</time>
      </trkpt>
      <trkpt lat="47.21896" lon="-0.00137">
        <ele>76</ele>
        <time>2016-04-20T12:04:50Z</time>
      </trkpt>
      <trkpt lat="47.21896" lon="-0.00137">
        <ele>76</ele>
        <time>2016-04-20T12:04:53Z</time>
      </trkpt>
      <trkpt lat="47.21894" lon="-0.00137">
        <ele>74</ele>
        <time>2016-04-20T12:05:02Z</time>
      </trkpt>
      <trkpt lat="47.21894" lon="-0.00139">
        <ele>73</ele>
        <time>2016-04-20T12:05:05Z</time>
      </trkpt>
      <trkpt lat="47.21889" lon="-0.00144">
        <ele>71</ele>
        <time>2016-04-20T12:05:16Z</time>
      </trkpt>
      <trkpt lat="47.2188" lon="-0.00154">
        <ele>70</ele>
        <time>2016-04-20T12:05:27Z</time>
      </trkpt>
      <trkpt lat="47.21868" lon="-0.00157">
        <ele>70</ele>
        <time>2016-04-20T12:05:38Z</time>
      </trkpt>
      <trkpt lat="47.21863" lon="-0.00149">
        <ele>68</ele>
        <time>2016-04-20T12:05:49Z</time>
      </trkpt>
      <trkpt lat="47.21856" lon="-0.00132">
        <ele>68</ele>
        <time>2016-04-20T12:06:00Z</time>
      </trkpt>
      <trkpt lat="47.21848" lon="-0.00116">
        <ele>68</ele>
        <time>2016-04-20T12:06:11Z</time>
      </trkpt>
      <trkpt lat="47.21839" lon="-0.00096">
        <ele>68</ele>
        <time>2016-04-20T12:06:28Z</time>
      </trkpt>
      <trkpt lat="47.21836" lon="-0.00089">
        <ele>68</ele>
        <time>2016-04-20T12:06:33Z</time>
      </trkpt>
      <trkpt lat="47.21825" lon="-0.00065">
        <ele>67</ele>
        <time>2016-04-20T12:06:48Z</time>
      </trkpt>
      <trkpt lat="47.21819" lon="-0.00052">
        <ele>67</ele>
        <time>2016-04-20T12:06:57Z</time>
      </trkpt>
      <trkpt lat="47.21808" lon="-0.00032">
        <ele>68</ele>
        <time>2016-04-20T12:07:11Z</time>
      </trkpt>
      <trkpt lat="47.21796" lon="-0.00029">
        <ele>66</ele>
        <time>2016-04-20T12:07:21Z</time>
      </trkpt>
      <trkpt lat="47.21789" lon="-0.0004">
        <ele>66</ele>
        <time>2016-04-20T12:07:28Z</time>
      </trkpt>
      <trkpt lat="47.21778" lon="-0.00055">
        <ele>64</ele>
        <time>2016-04-20T12:07:39Z</time>
      </trkpt>
      <trkpt lat="47.21768" lon="-0.00058">
        <ele>64</ele>
        <time>2016-04-20T12:07:50Z</time>
      </trkpt>
      <trkpt lat="47.21761" lon="-0.00035">
        <ele>63</ele>
        <time>2016-04-20T12:08:01Z</time>
      </trkpt>
      <trkpt lat="47.21759" lon="-0.00019">
        <ele>59</ele>
        <time>2016-04-20T12:08:12Z</time>
      </trkpt>
      <trkpt lat="47.21758" lon="-0">
        <ele>60</ele>
        <time>2016-04-20T12:08:27Z</time>
      </trkpt>
      <trkpt lat="47.2176" lon="0.00012">
        <ele>61</ele>
        <time>2016-04-20T12:08:35Z</time>
      </trkpt>
      <trkpt lat="47.2176" lon="0.0003">
        <ele>61</ele>
        <time>2016-04-20T12:08:45Z</time>
      </trkpt>
      <trkpt lat="47.21757" lon="0.00048">
        <ele>60</ele>
        <time>2016-04-20T12:08:56Z</time>
      </trkpt>
      <trkpt lat="47.2175" lon="0.00082">
        <ele>61</ele>
        <time>2016-04-20T12:09:17Z</time>
      </trkpt>
      <trkpt lat="47.2175" lon="0.00083">
        <ele>60</ele>
        <time>2016-04-20T12:09:18Z</time>
      </trkpt>
      <trkpt lat="47.21745" lon="0.00097">
        <ele>63</ele>
        <time>2016-04-20T12:09:30Z</time>
      </trkpt>
      <trkpt lat="47.21731" lon="0.00114">
        <ele>65</ele>
        <time>2016-04-20T12:09:45Z</time>
      </trkpt>
      <trkpt lat="47.21722" lon="0.00138">
        <ele>62</ele>
        <time>2016-04-20T12:10:01Z</time>
      </trkpt>
      <trkpt lat="47.21722" lon="0.0014">
        <ele>62</ele>
        <time>2016-04-20T12:10:02Z</time>
      </trkpt>
      <trkpt lat="47.21721" lon="0.00153">
        <ele>62</ele>
        <time>2016-04-20T12:10:13Z</time>
      </trkpt>
      <trkpt lat="47.21732" lon="0.00171">
        <ele>69</ele>
        <time>2016-04-20T12:10:29Z</time>
      </trkpt>
      <trkpt lat="47.21737" lon="0.00179">
        <ele>69</ele>
        <time>2016-04-20T12:10:36Z</time>
      </trkpt>
      <trkpt lat="47.21744" lon="0.00203">
        <ele>69</ele>
        <time>2016-04-20T12:10:52Z</time>
      </trkpt>
      <trkpt lat="47.21745" lon="0.00208">
        <ele>70</ele>
        <time>2016-04-20T12:10:57Z</time>
      </trkpt>
      <trkpt lat="47.21752" lon="0.00236">
        <ele>73</ele>
        <time>2016-04-20T12:11:11Z</time>
      </trkpt>
      <trkpt lat="47.21756" lon="0.00252">
        <ele>70</ele>
        <time>2016-04-20T12:11:22Z</time>
      </trkpt>
      <trkpt lat="47.2176" lon="0.00269">
        <ele>72</ele>
        <time>2016-04-20T12:11:31Z</time>
      </trkpt>
      <trkpt lat="47.21763" lon="0.0028">
        <ele>74</ele>
        <time>2016-04-20T12:11:41Z</time>
      </trkpt>
      <trkpt lat="47.21766" lon="0.00297">
        <ele>69</ele>
        <time>2016-04-20T12:11:52Z</time>
      </trkpt>
      <trkpt lat="47.21774" lon="0.00323">
        <ele>70</ele>
        <time>2016-04-20T12:12:06Z</time>
      </trkpt>
      <trkpt lat="47.21775" lon="0.00331">
        <ele>69</ele>
        <time>2016-04-20T12:12:14Z</time>
      </trkpt>
      <trkpt lat="47.21779" lon="0.0035">
        <ele>68</ele>
        <time>2016-04-20T12:12:26Z</time>
      </trkpt>
      <trkpt lat="47.21783" lon="0.00376">
        <ele>67</ele>
        <time>2016-04-20T12:12:42Z</time>
      </trkpt>
      <trkpt lat="47.21783" lon="0.0038">
        <ele>68</ele>
        <time>2016-04-20T12:12:47Z</time>
      </trkpt>
      <trkpt lat="47.21788" lon="0.00413">
        <ele>69</ele>
        <time>2016-04-20T12:13:07Z</time>
      </trkpt>
      <trkpt lat="47.21789" lon="0.00414">
        <ele>69</ele>
        <time>2016-04-20T12:13:09Z</time>
      </trkpt>
      <trkpt lat="47.21785" lon="0.00427">
        <ele>66</ele>
        <time>2016-04-20T12:13:22Z</time>
      </trkpt>
      <trkpt lat="47.2178" lon="0.00439">
        <ele>65</ele>
        <time>2016-04-20T12:13:31Z</time>
      </trkpt>
      <trkpt lat="47.21779" lon="0.00446">
        <ele>65</ele>
        <time>2016-04-20T12:13:49Z</time>
      </trkpt>
      <trkpt lat="47.21779" lon="0.00448">
        <ele>64</ele>
        <time>2016-04-20T12:13:53Z</time>
      </trkpt>
      <trkpt lat="47.21778" lon="0.00451">
        <ele>64</ele>
        <time>2016-04-20T12:14:05Z</time>
      </trkpt>
      <trkpt lat="47.21771" lon="0.00463">
        <ele>61</ele>
        <time>2016-04-20T12:14:17Z</time>
      </trkpt>
      <trkpt lat="47.21763" lon="0.00476">
        <ele>61</ele>
        <time>2016-04-20T12:14:27Z</time>
      </trkpt>
      <trkpt lat="47.21758" lon="0.00488">
        <ele>63</ele>
        <time>2016-04-20T12:14:37Z</time>
      </trkpt>
      <trkpt lat="47.2175" lon="0.00501">
        <ele>64</ele>
        <time>2016-04-20T12:14:49Z</time>
      </trkpt>
      <trkpt lat="47.21742" lon="0.00513">
        <ele>65</ele>
        <time>2016-04-20T12:14:59Z</time>
      </trkpt>
      <trkpt lat="47.2173" lon="0.00533">
        <ele>65</ele>
        <time>2016-04-20T12:15:14Z</time>
      </trkpt>
      <trkpt lat="47.21724" lon="0.00542">
        <ele>66</ele>
        <time>2016-04-20T12:15:21Z</time>
      </trkpt>
      <trkpt lat="47.21716" lon="0.00558">
        <ele>67</ele>
        <time>2016-04-20T12:15:32Z</time>
      </trkpt>
      <trkpt lat="47.21705" lon="0.00576">
        <ele>67</ele>
        <time>2016-04-20T12:15:45Z</time>
      </trkpt>
      <trkpt lat="47.2169" lon="0.00598">
        <ele>68</ele>
        <time>2016-04-20T12:16:04Z</time>
      </trkpt>
      <trkpt lat="47.21683" lon="0.00613">
        <ele>67</ele>
        <time>2016-04-20T12:16:15Z</time>
      </trkpt>
      <trkpt lat="47.21682" lon="0.00614">
        <ele>67</ele>
        <time>2016-04-20T12:16:16Z</time>
      </trkpt>
      <trkpt lat="47.21674" lon="0.00627">
        <ele>67</ele>
        <time>2016-04-20T12:16:27Z</time>
      </trkpt>
      <trkpt lat="47.2166" lon="0.00652">
        <ele>69</ele>
        <time>2016-04-20T12:16:46Z</time>
      </trkpt>
      <trkpt lat="47.21658" lon="0.00655">
        <ele>69</ele>
        <time>2016-04-20T12:16:49Z</time>
      </trkpt>
      <trkpt lat="47.21652" lon="0.00669">
        <ele>69</ele>
        <time>2016-04-20T12:17:00Z</time>
      </trkpt>
      <trkpt lat="47.21643" lon="0.00672">
        <ele>68</ele>
        <time>2016-04-20T12:17:11Z</time>
      </trkpt>
      <trkpt lat="47.21634" lon="0.00661">
        <ele>68</ele>
        <time>2016-04-20T12:17:22Z</time>
      </trkpt>
      <trkpt lat="47.21625" lon="0.0065">
        <ele>68</ele>
        <time>2016-04-20T12:17:33Z</time>
      </trkpt>
      <trkpt lat="47.21616" lon="0.00639">
        <ele>69</ele>
        <time>2016-04-20T12:17:44Z</time>
      </trkpt>
      <trkpt lat="47.21602" lon="0.00648">
        <ele>70</ele>
        <time>2016-04-20T12:18:01Z</time>
      </trkpt>
      <trkpt lat="47.21598" lon="0.00654">
        <ele>69</ele>
        <time>2016-04-20T12:18:07Z</time>
      </trkpt>
      <trkpt lat="47.2159" lon="0.00667">
        <ele>69</ele>
        <time>2016-04-20T12:18:18Z</time>
      </trkpt>
      <trkpt lat="47.21578" lon="0.00691">
        <ele>69</ele>
        <time>2016-04-20T12:18:35Z</time>
      </trkpt>
      <trkpt lat="47.21575" lon="0.00695">
        <ele>68</ele>
        <time>2016-04-20T12:18:39Z</time>
      </trkpt>
      <trkpt lat="47.21563" lon="0.00702">
        <ele>67</ele>
        <time>2016-04-20T12:18:51Z</time>
      </trkpt>
      <trkpt lat="47.21561" lon="0.00711">
        <ele>67</ele>
        <time>2016-04-20T12:19:01Z</time>
      </trkpt>
      <trkpt lat="47.21571" lon="0.00741">
        <ele>66</ele>
        <time>2016-04-20T12:19:20Z</time>
      </trkpt>
      <trkpt lat="47.21572" lon="0.00743">
        <ele>66</ele>
        <time>2016-04-20T12:19:23Z</time>
      </trkpt>
      <trkpt lat="47.21577" lon="0.00761">
        <ele>65</ele>
        <time>2016-04-20T12:19:34Z</time>
      </trkpt>
      <trkpt lat="47.21583" lon="0.00782">
        <ele>64</ele>
        <time>2016-04-20T12:19:45Z</time>
      </trkpt>
      <trkpt lat="47.21586" lon="0.00794">
        <ele>62</ele>
        <time>2016-04-20T12:20:01Z</time>
      </trkpt>
      <trkpt lat="47.2159" lon="0.00809">
        <ele>61</ele>
        <time>2016-04-20T12:20:12Z</time>
      </trkpt>
      <trkpt lat="47.21596" lon="0.00835">
        <ele>63</ele>
        <time>2016-04-20T12:20:26Z</time>
      </trkpt>
      <trkpt lat="47.21601" lon="0.00855">
        <ele>60</ele>
        <time>2016-04-20T12:20:37Z</time>
      </trkpt>
      <trkpt lat="47.21602" lon="0.00862">
        <ele>59</ele>
        <time>2016-04-20T12:20:41Z</time>
      </trkpt>
      <trkpt lat="47.21609" lon="0.00881">
        <ele>58</ele>
        <time>2016-04-20T12:20:55Z</time>
      </trkpt>
      <trkpt lat="47.21614" lon="0.00884">
        <ele>56</ele>
        <time>2016-04-20T12:21:02Z</time>
      </trkpt>
      <trkpt lat="47.21634" lon="0.00889">
        <ele>57</ele>
        <time>2016-04-20T12:21:20Z</time>
      </trkpt>
      <trkpt lat="47.21641" lon="0.00895">
        <ele>57</ele>
        <time>2016-04-20T12:21:25Z</time>
      </trkpt>
      <trkpt lat="47.21656" lon="0.00914">
        <ele>58</ele>
        <time>2016-04-20T12:21:43Z</time>
      </trkpt>
      <trkpt lat="47.21658" lon="0.00916">
        <ele>58</ele>
        <time>2016-04-20T12:21:46Z</time>
      </trkpt>
      <trkpt lat="47.21666" lon="0.00929">
        <ele>56</ele>
        <time>2016-04-20T12:21:57Z</time>
      </trkpt>
      <trkpt lat="47.2168" lon="0.00945">
        <ele>56</ele>
        <time>2016-04-20T12:22:13Z</time>
      </trkpt>
      <trkpt lat="47.21694" lon="0.00961">
        <ele>59</ele>
        <time>2016-04-20T12:22:28Z</time>
      </trkpt>
      <trkpt lat="47.21701" lon="0.00969">
        <ele>58</ele>
        <time>2016-04-20T12:22:35Z</time>
      </trkpt>
      <trkpt lat="47.21717" lon="0.00983">
        <ele>58</ele>
        <time>2016-04-20T12:22:49Z</time>
      </trkpt>
      <trkpt lat="47.2172" lon="0.00987">
        <ele>59</ele>
        <time>2016-04-20T12:22:52Z</time>
      </trkpt>
      <trkpt lat="47.21729" lon="0.00995">
        <ele>57</ele>
        <time>2016-04-20T12:23:03Z</time>
      </trkpt>
      <trkpt lat="47.21751" lon="0.01016">
        <ele>57</ele>
        <time>2016-04-20T12:23:23Z</time>
      </trkpt>
      <trkpt lat="47.21753" lon="0.01018">
        <ele>58</ele>
        <time>2016-04-20T12:23:25Z</time>
      </trkpt>
      <trkpt lat="47.21762" lon="0.01029">
        <ele>57</ele>
        <time>2016-04-20T12:23:36Z</time>
      </trkpt>
      <trkpt lat="47.21771" lon="0.01039">
        <ele>56</ele>
        <time>2016-04-20T12:23:47Z</time>
      </trkpt>
      <trkpt lat="47.21788" lon="0.01057">
        <ele>56</ele>
        <time>2016-04-20T12:24:04Z</time>
      </trkpt>
      <trkpt lat="47.21795" lon="0.01061">
        <ele>56</ele>
        <time>2016-04-20T12:24:10Z</time>
      </trkpt>
      <trkpt lat="47.21805" lon="0.0107">
        <ele>59</ele>
        <time>2016-04-20T12:24:20Z</time>
      </trkpt>
      <trkpt lat="47.21812" lon="0.01074">
        <ele>58</ele>
        <time>2016-04-20T12:24:31Z</time>
      </trkpt>
      <trkpt lat="47.21806" lon="0.01092">
        <ele>57</ele>
        <time>2016-04-20T12:24:52Z</time>
      </trkpt>
      <trkpt lat="47.21804" lon="0.01095">
        <ele>57</ele>
        <time>2016-04-20T12:24:54Z</time>
      </trkpt>
      <trkpt lat="47.21792" lon="0.01114">
        <ele>58</ele>
        <time>2016-04-20T12:25:09Z</time>
      </trkpt>
      <trkpt lat="47.21787" lon="0.01122">
        <ele>59</ele>
        <time>2016-04-20T12:25:15Z</time>
      </trkpt>
      <trkpt lat="47.21779" lon="0.01136">
        <ele>58</ele>
        <time>2016-04-20T12:25:26Z</time>
      </trkpt>
      <trkpt lat="47.21772" lon="0.0115">
        <ele>57</ele>
        <time>2016-04-20T12:25:37Z</time>
      </trkpt>
      <trkpt lat="47.21763" lon="0.01164">
        <ele>58</ele>
        <time>2016-04-20T12:25:49Z</time>
      </trkpt>
      <trkpt lat="47.21756" lon="0.01178">
        <ele>57</ele>
        <time>2016-04-20T12:25:59Z</time>
      </trkpt>
      <trkpt lat="47.21747" lon="0.01191">
        <ele>56</ele>
        <time>2016-04-20T12:26:10Z</time>
      </trkpt>
      <trkpt lat="47.21737" lon="0.01203">
        <ele>56</ele>
        <time>2016-04-20T12:26:23Z</time>
      </trkpt>
      <trkpt lat="47.21729" lon="0.01212">
        <ele>56</ele>
        <time>2016-04-20T12:26:32Z</time>
      </trkpt>
      <trkpt lat="47.2172" lon="0.01223">
        <ele>55</ele>
        <time>2016-04-20T12:26:43Z</time>
      </trkpt>
      <trkpt lat="47.2171" lon="0.01233">
        <ele>58</ele>
        <time>2016-04-20T12:26:54Z</time>
      </trkpt>
      <trkpt lat="47.21701" lon="0.01237">
        <ele>56</ele>
        <time>2016-04-20T12:27:05Z</time>
      </trkpt>
      <trkpt lat="47.21693" lon="0.01244">
        <ele>56</ele>
        <time>2016-04-20T12:27:16Z</time>
      </trkpt>
      <trkpt lat="47.21679" lon="0.01254">
        <ele>55</ele>
        <time>2016-04-20T12:27:31Z</time>
      </trkpt>
      <trkpt lat="47.21673" lon="0.01259">
        <ele>56</ele>
        <time>2016-04-20T12:27:38Z</time>
      </trkpt>
      <trkpt lat="47.21657" lon="0.01272">
        <ele>58</ele>
        <time>2016-04-20T12:27:57Z</time>
      </trkpt>
      <trkpt lat="47.21655" lon="0.01274">
        <ele>58</ele>
        <time>2016-04-20T12:28:00Z</time>
      </trkpt>
      <trkpt lat="47.21645" lon="0.01284">
        <ele>59</ele>
        <time>2016-04-20T12:28:11Z</time>
      </trkpt>
      <trkpt lat="47.21634" lon="0.01294">
        <ele>60</ele>
        <time>2016-04-20T12:28:22Z</time>
      </trkpt>
      <trkpt lat="47.21623" lon="0.01303">
        <ele>59</ele>
        <time>2016-04-20T12:28:34Z</time>
      </trkpt>
      <trkpt lat="47.21611" lon="0.01308">
        <ele>61</ele>
        <time>2016-04-20T12:28:45Z</time>
      </trkpt>
      <trkpt lat="47.21601" lon="0.01313">
        <ele>61</ele>
        <time>2016-04-20T12:28:55Z</time>
      </trkpt>
      <trkpt lat="47.2159" lon="0.0132">
        <ele>64</ele>
        <time>2016-04-20T12:29:06Z</time>
      </trkpt>
      <trkpt lat="47.21579" lon="0.0133">
        <ele>65</ele>
        <time>2016-04-20T12:29:17Z</time>
      </trkpt>
      <trkpt lat="47.21569" lon="0.01338">
        <ele>66</ele>
        <time>2016-04-20T12:29:28Z</time>
      </trkpt>
      <trkpt lat="47.2156" lon="0.01349">
        <ele>65</ele>
        <time>2016-04-20T12:29:40Z</time>
      </trkpt>
      <trkpt lat="47.21554" lon="0.01359">
        <ele>63</ele>
        <time>2016-04-20T12:29:51Z</time>
      </trkpt>
      <trkpt lat="47.21546" lon="0.01372">
        <ele>68</ele>
        <time>2016-04-20T12:30:01Z</time>
      </trkpt>
      <trkpt lat="47.21534" lon="0.01386">
        <ele>68</ele>
        <time>2016-04-20T12:30:13Z</time>
      </trkpt>
      <trkpt lat="47.21523" lon="0.01408">
        <ele>73</ele>
        <time>2016-04-20T12:30:31Z</time>
      </trkpt>
      <trkpt lat="47.21521" lon="0.01412">
        <ele>68</ele>
        <time>2016-04-20T12:30:35Z</time>
      </trkpt>
      <trkpt lat="47.21515" lon="0.01424">
        <ele>62</ele>
        <time>2016-04-20T12:30:45Z</time>
      </trkpt>
      <trkpt lat="47.21508" lon="0.01441">
        <ele>64</ele>
        <time>2016-04-20T12:30:58Z</time>
      </trkpt>
      <trkpt lat="47.21512" lon="0.0145">
        <ele>71</ele>
        <time>2016-04-20T12:31:07Z</time>
      </trkpt>
      <trkpt lat="47.21529" lon="0.0145">
        <ele>74</ele>
        <time>2016-04-20T12:31:20Z</time>
      </trkpt>
      <trkpt lat="47.21541" lon="0.01452">
        <ele>75</ele>
        <time>2016-04-20T12:31:29Z</time>
      </trkpt>
      <trkpt lat="47.21556" lon="0.01455">
        <ele>78</ele>
        <time>2016-04-20T12:31:40Z</time>
      </trkpt>
      <trkpt lat="47.21574" lon="0.01459">
        <ele>78</ele>
        <time>2016-04-20T12:31:52Z</time>
      </trkpt>
      <trkpt lat="47.216" lon="0.01465">
        <ele>81</ele>
        <time>2016-04-20T12:32:10Z</time>
      </trkpt>
      <trkpt lat="47.21612" lon="0.01463">
        <ele>77</ele>
        <time>2016-04-20T12:32:23Z</time>
      </trkpt>
      <trkpt lat="47.21612" lon="0.01463">
        <ele>78</ele>
        <time>2016-04-20T12:32:27Z</time>
      </trkpt>
      <trkpt lat="47.21611" lon="0.01465">
        <ele>78</ele>
        <time>2016-04-20T12:32:36Z</time>
      </trkpt>
      <trkpt lat="47.21611" lon="0.01465">
        <ele>78</ele>
        <time>2016-04-20T12:32:39Z</time>
      </trkpt>
      <trkpt lat="47.21611" lon="0.01465">
        <ele>78</ele>
        <time>2016-04-20T12:32:42Z</time>
      </trkpt>
      <trkpt lat="47.21611" lon="0.01465">
        <ele>78</ele>
        <time>2016-04-20T12:32:45Z</time>
      </trkpt>
      <trkpt lat="47.21611" lon="0.01465">
        <ele>78</ele>
        <time>2016-04-20T12:32:48Z</time>
      </trkpt>
      <trkpt lat="47.21611" lon="0.01465">
        <ele>78</ele>
        <time>2016-04-20T12:32:51Z</time>
      </trkpt>
      <trkpt lat="47.21611" lon="0.01465">
        <ele>78</ele>
        <time>2016-04-20T12:32:54Z</time>
      </trkpt>
      <trkpt lat="47.21611" lon="0.01465">
        <ele>78</ele>
        <time>2016-04-20T12:32:57Z</time>
      </trkpt>
      <trkpt lat="47.21611" lon="0.01465">
        <ele>78</ele>
        <time>2016-04-20T12:33:00Z</time>
      </trkpt>
      <trkpt lat="47.21611" lon="0.01465">
        <ele>78</ele>
        <time>2016-04-20T12:33:03Z</time>
      </trkpt>
      <trkpt lat="47.21611" lon="0.01465">
        <ele>78</ele>
        <time>2016-04-20T12:33:06Z</time>
      </trkpt>
      <trkpt lat="47.21611" lon="0.01465">
        <ele>78</ele>
        <time>2016-04-20T12:33:09Z</time>
      </trkpt>
      <trkpt lat="47.21611" lon="0.01466">
        <ele>77</ele>
        <time>2016-04-20T12:33:12Z</time>
      </trkpt>
      <trkpt lat="47.21611" lon="0.01466">
        <ele>77</ele>
        <time>2016-04-20T12:33:15Z</time>
      </trkpt>
      <trkpt lat="47.21611" lon="0.01466">
        <ele>77</ele>
        <time>2016-04-20T12:33:18Z</time>
      </trkpt>
      <trkpt lat="47.21611" lon="0.01466">
        <ele>77</ele>
        <time>2016-04-20T12:33:21Z</time>
      </trkpt>
      <trkpt lat="47.21611" lon="0.01466">
        <ele>77</ele>
        <time>2016-04-20T12:33:24Z</time>
      </trkpt>
      <trkpt lat="47.21611" lon="0.01466">
        <ele>77</ele>
        <time>2016-04-20T12:33:27Z</time>
      </trkpt>
      <trkpt lat="47.21611" lon="0.01466">
        <ele>77</ele>
        <time>2016-04-20T12:33:30Z</time>
      </trkpt>
      <trkpt lat="47.21611" lon="0.01466">
        <ele>77</ele>
        <time>2016-04-20T12:33:35Z</time>
      </trkpt>
      <trkpt lat="47.21611" lon="0.01466">
        <ele>77</ele>
        <time>2016-04-20T12:33:36Z</time>
      </trkpt>
      <trkpt lat="47.21611" lon="0.01466">
        <ele>77</ele>
        <time>2016-04-20T12:33:39Z</time>
      </trkpt>
      <trkpt lat="47.21611" lon="0.01466">
        <ele>77</ele>
        <time>2016-04-20T12:33:42Z</time>
      </trkpt>
      <trkpt lat="47.21611" lon="0.01466">
        <ele>77</ele>
        <time>2016-04-20T12:33:45Z</time>
      </trkpt>
      <trkpt lat="47.21611" lon="0.01466">
        <ele>77</ele>
        <time>2016-04-20T12:33:48Z</time>
      </trkpt>
      <trkpt lat="47.21611" lon="0.01466">
        <ele>77</ele>
        <time>2016-04-20T12:33:51Z</time>
      </trkpt>
      <trkpt lat="47.21611" lon="0.01466">
        <ele>77</ele>
        <time>2016-04-20T12:33:54Z</time>
      </trkpt>
      <trkpt lat="47.21611" lon="0.01466">
        <ele>77</ele>
        <time>2016-04-20T12:33:59Z</time>
      </trkpt>
      <trkpt lat="47.21611" lon="0.01466">
        <ele>77</ele>
        <time>2016-04-20T12:34:01Z</time>
      </trkpt>
      <trkpt lat="47.21611" lon="0.01466">
        <ele>77</ele>
        <time>2016-04-20T12:34:03Z</time>
      </trkpt>
      <trkpt lat="47.21611" lon="0.01466">
        <ele>77</ele>
        <time>2016-04-20T12:34:08Z</time>
      </trkpt>
      <trkpt lat="47.21611" lon="0.01466">
        <ele>77</ele>
        <time>2016-04-20T12:34:09Z</time>
      </trkpt>
      <trkpt lat="47.21611" lon="0.01466">
        <ele>77</ele>
        <time>2016-04-20T12:34:13Z</time>
      </trkpt>
      <trkpt lat="47.21611" lon="0.01466">
        <ele>77</ele>
        <time>2016-04-20T12:34:16Z</time>
      </trkpt>
      <trkpt lat="47.21611" lon="0.01466">
        <ele>77</ele>
        <time>2016-04-20T12:34:19Z</time>
      </trkpt>
      <trkpt lat="47.21611" lon="0.01466">
        <ele>77</ele>
        <time>2016-04-20T12:34:21Z</time>
      </trkpt>
      <trkpt lat="47.21611" lon="0.01466">
        <ele>77</ele>
        <time>2016-04-20T12:34:25Z</time>
      </trkpt>
      <trkpt lat="47.21611" lon="0.01466">
        <ele>77</ele>
        <time>2016-04-20T12:34:27Z</time>
      </trkpt>
      <trkpt lat="47.21611" lon="0.01466">
        <ele>77</ele>
        <time>2016-04-20T12:34:30Z</time>
      </trkpt>
      <trkpt lat="47.21611" lon="0.01466">
        <ele>77</ele>
        <time>2016-04-20T12:34:33Z</time>
      </trkpt>
      <trkpt lat="47.21611" lon="0.01466">
        <ele>77</ele>
        <time>2016-04-20T12:34:36Z</time>
      </trkpt>
      <trkpt lat="47.21611" lon="0.01466">
        <ele>77</ele>
        <time>2016-04-20T12:34:39Z</time>
      </trkpt>
      <trkpt lat="47.21611" lon="0.01466">
        <ele>77</ele>
        <time>2016-04-20T12:34:42Z</time>
      </trkpt>
      <trkpt lat="47.21611" lon="0.01466">
        <ele>77</ele>
        <time>2016-04-20T12:34:45Z</time>
      </trkpt>
      <trkpt lat="47.21611" lon="0.01466">
        <ele>77</ele>
        <time>2016-04-20T12:34:48Z</time>
      </trkpt>
      <trkpt lat="47.21611" lon="0.01466">
        <ele>77</ele>
        <time>2016-04-20T12:34:51Z</time>
      </trkpt>
      <trkpt lat="47.21611" lon="0.01466">
        <ele>77</ele>
        <time>2016-04-20T12:34:54Z</time>
      </trkpt>
      <trkpt lat="47.21611" lon="0.01466">
        <ele>77</ele>
        <time>2016-04-20T12:34:57Z</time>
      </trkpt>
      <trkpt lat="47.21611" lon="0.01466">
        <ele>77</ele>
        <time>2016-04-20T12:35:00Z</time>
      </trkpt>
      <trkpt lat="47.21611" lon="0.01466">
        <ele>77</ele>
        <time>2016-04-20T12:35:03Z</time>
      </trkpt>
      <trkpt lat="47.21611" lon="0.01466">
        <ele>77</ele>
        <time>2016-04-20T12:35:06Z</time>
      </trkpt>
      <trkpt lat="47.21611" lon="0.01466">
        <ele>77</ele>
        <time>2016-04-20T12:35:09Z</time>
      </trkpt>
      <trkpt lat="47.21611" lon="0.01466">
        <ele>77</ele>
        <time>2016-04-20T12:35:13Z</time>
      </trkpt>
      <trkpt lat="47.21611" lon="0.01466">
        <ele>77</ele>
        <time>2016-04-20T12:35:15Z</time>
      </trkpt>
      <trkpt lat="47.21611" lon="0.01466">
        <ele>77</ele>
        <time>2016-04-20T12:35:18Z</time>
      </trkpt>
      <trkpt lat="47.21611" lon="0.01466">
        <ele>77</ele>
        <time>2016-04-20T12:35:21Z</time>
      </trkpt>
      <trkpt lat="47.21611" lon="0.01466">
        <ele>77</ele>
        <time>2016-04-20T12:35:24Z</time>
      </trkpt>
      <trkpt lat="47.21611" lon="0.01466">
        <ele>77</ele>
        <time>2016-04-20T12:35:27Z</time>
      </trkpt>
      <trkpt lat="47.21611" lon="0.01466">
        <ele>77</ele>
        <time>2016-04-20T12:35:30Z</time>
      </trkpt>
      <trkpt lat="47.21611" lon="0.01466">
        <ele>77</ele>
        <time>2016-04-20T12:35:33Z</time>
      </trkpt>
      <trkpt lat="47.21611" lon="0.01466">
        <ele>77</ele>
        <time>2016-04-20T12:35:36Z</time>
      </trkpt>
      <trkpt lat="47.21611" lon="0.01466">
        <ele>77</ele>
        <time>2016-04-20T12:35:39Z</time>
      </trkpt>
      <trkpt lat="47.21611" lon="0.01466">
        <ele>77</ele>
        <time>2016-04-20T12:35:42Z</time>
      </trkpt>
      <trkpt lat="47.21611" lon="0.01466">
        <ele>77</ele>
        <time>2016-04-20T12:35:45Z</time>
      </trkpt>
      <trkpt lat="47.21612" lon="0.01467">
        <ele>75</ele>
        <time>2016-04-20T12:35:48Z</time>
      </trkpt>
      <trkpt lat="47.21621" lon="0.01468">
        <ele>75</ele>
        <time>2016-04-20T12:35:59Z</time>
      </trkpt>
      <trkpt lat="47.21632" lon="0.01468">
        <ele>76</ele>
        <time>2016-04-20T12:36:10Z</time>
      </trkpt>
      <trkpt lat="47.21644" lon="0.01469">
        <ele>74</ele>
        <time>2016-04-20T12:36:21Z</time>
      </trkpt>
      <trkpt lat="47.21663" lon="0.01468">
        <ele>71</ele>
        <time>2016-04-20T12:36:40Z</time>
      </trkpt>
      <trkpt lat="47.21667" lon="0.01467">
        <ele>72</ele>
        <time>2016-04-20T12:36:43Z</time>
      </trkpt>
      <trkpt lat="47.21681" lon="0.01469">
        <ele>72</ele>
        <time>2016-04-20T12:36:54Z</time>
      </trkpt>
      <trkpt lat="47.21696" lon="0.01467">
        <ele>75</ele>
        <time>2016-04-20T12:37:07Z</time>
      </trkpt>
      <trkpt lat="47.21706" lon="0.01466">
        <ele>75</ele>
        <time>2016-04-20T12:37:16Z</time>
      </trkpt>
      <trkpt lat="47.21718" lon="0.01467">
        <ele>73</ele>
        <time>2016-04-20T12:37:27Z</time>
      </trkpt>
      <trkpt lat="47.21731" lon="0.01467">
        <ele>74</ele>
        <time>2016-04-20T12:37:38Z</time>
      </trkpt>
      <trkpt lat="47.21743" lon="0.01465">
        <ele>74</ele>
        <time>2016-04-20T12:37:49Z</time>
      </trkpt>
      <trkpt lat="47.21756" lon="0.01465">
        <ele>74</ele>
        <time>2016-04-20T12:38:02Z</time>
      </trkpt>
      <trkpt lat="47.21765" lon="0.01459">
        <ele>75</ele>
        <time>2016-04-20T12:38:11Z</time>
      </trkpt>
      <trkpt lat="47.21772" lon="0.01453">
        <ele>72</ele>
        <time>2016-04-20T12:38:22Z</time>
      </trkpt>
      <trkpt lat="47.21775" lon="0.01452">
        <ele>71</ele>
        <time>2016-04-20T12:38:33Z</time>
      </trkpt>
      <trkpt lat="47.21788" lon="0.01438">
        <ele>72</ele>
        <time>2016-04-20T12:38:53Z</time>
      </trkpt>
      <trkpt lat="47.21788" lon="0.01438">
        <ele>72</ele>
        <time>2016-04-20T12:38:55Z</time>
      </trkpt>
      <trkpt lat="47.21788" lon="0.01437">
        <ele>73</ele>
        <time>2016-04-20T12:39:01Z</time>
      </trkpt>
      <trkpt lat="47.21788" lon="0.01436">
        <ele>72</ele>
        <time>2016-04-20T12:39:04Z</time>
      </trkpt>
      <trkpt lat="47.21791" lon="0.01436">
        <ele>72</ele>
        <time>2016-04-20T12:39:15Z</time>
      </trkpt>
      <trkpt lat="47.21801" lon="0.01441">
        <ele>74</ele>
        <time>2016-04-20T12:39:27Z</time>
      </trkpt>
      <trkpt lat="47.2181" lon="0.01443">
        <ele>74</ele>
        <time>2016-04-20T12:39:37Z</time>
      </trkpt>
      <trkpt lat="47.21822" lon="0.01443">
        <ele>72</ele>
        <time>2016-04-20T12:39:48Z</time>
      </trkpt>
      <trkpt lat="47.21835" lon="0.01443">
        <ele>72</ele>
        <time>2016-04-20T12:39:59Z</time>
      </trkpt>
      <trkpt lat="47.21846" lon="0.01446">
        <ele>71</ele>
        <time>2016-04-20T12:40:10Z</time>
      </trkpt>
      <trkpt lat="47.21855" lon="0.01448">
        <ele>71</ele>
        <time>2016-04-20T12:40:21Z</time>
      </trkpt>
      <trkpt lat="47.21864" lon="0.01447">
        <ele>70</ele>
        <time>2016-04-20T12:40:32Z</time>
      </trkpt>
      <trkpt lat="47.21876" lon="0.0145">
        <ele>72</ele>
        <time>2016-04-20T12:40:43Z</time>
      </trkpt>
      <trkpt lat="47.21889" lon="0.01456">
        <ele>71</ele>
        <time>2016-04-20T12:40:55Z</time>
      </trkpt>
      <trkpt lat="47.21901" lon="0.0146">
        <ele>71</ele>
        <time>2016-04-20T12:41:05Z</time>
      </trkpt>
      <trkpt lat="47.21913" lon="0.01466">
        <ele>69</ele>
        <time>2016-04-20T12:41:16Z</time>
      </trkpt>
      <trkpt lat="47.21926" lon="0.01471">
        <ele>70</ele>
        <time>2016-04-20T12:41:27Z</time>
      </trkpt>
      <trkpt lat="47.21938" lon="0.01475">
        <ele>71</ele>
        <time>2016-04-20T12:41:38Z</time>
      </trkpt>
      <trkpt lat="47.21952" lon="0.01479">
        <ele>70</ele>
        <time>2016-04-20T12:41:49Z</time>
      </trkpt>
      <trkpt lat="47.21964" lon="0.01484">
        <ele>69</ele>
        <time>2016-04-20T12:42:00Z</time>
      </trkpt>
      <trkpt lat="47.21976" lon="0.01487">
        <ele>71</ele>
        <time>2016-04-20T12:42:11Z</time>
      </trkpt>
      <trkpt lat="47.21989" lon="0.01488">
        <ele>71</ele>
        <time>2016-04-20T12:42:22Z</time>
      </trkpt>
      <trkpt lat="47.22001" lon="0.01487">
        <ele>71</ele>
        <time>2016-04-20T12:42:33Z</time>
      </trkpt>
      <trkpt lat="47.22012" lon="0.01495">
        <ele>72</ele>
        <time>2016-04-20T12:42:46Z</time>
      </trkpt>
      <trkpt lat="47.22011" lon="0.01501">
        <ele>71</ele>
        <time>2016-04-20T12:42:56Z</time>
      </trkpt>
      <trkpt lat="47.22014" lon="0.01517">
        <ele>72</ele>
        <time>2016-04-20T12:43:06Z</time>
      </trkpt>
      <trkpt lat="47.22019" lon="0.01535">
        <ele>69</ele>
        <time>2016-04-20T12:43:17Z</time>
      </trkpt>
      <trkpt lat="47.22023" lon="0.01556">
        <ele>69</ele>
        <time>2016-04-20T12:43:29Z</time>
      </trkpt>
      <trkpt lat="47.22029" lon="0.01572">
        <ele>66</ele>
        <time>2016-04-20T12:43:41Z</time>
      </trkpt>
      <trkpt lat="47.22034" lon="0.01592">
        <ele>63</ele>
        <time>2016-04-20T12:43:54Z</time>
      </trkpt>
      <trkpt lat="47.22036" lon="0.01603">
        <ele>63</ele>
        <time>2016-04-20T12:44:02Z</time>
      </trkpt>
      <trkpt lat="47.22038" lon="0.01623">
        <ele>64</ele>
        <time>2016-04-20T12:44:12Z</time>
      </trkpt>
      <trkpt lat="47.22042" lon="0.01647">
        <ele>59</ele>
        <time>2016-04-20T12:44:29Z</time>
      </trkpt>
      <trkpt lat="47.22043" lon="0.01658">
        <ele>59</ele>
        <time>2016-04-20T12:44:36Z</time>
      </trkpt>
      <trkpt lat="47.22045" lon="0.01679">
        <ele>63</ele>
        <time>2016-04-20T12:44:47Z</time>
      </trkpt>
      <trkpt lat="47.22044" lon="0.01697">
        <ele>64</ele>
        <time>2016-04-20T12:44:56Z</time>
      </trkpt>
      <trkpt lat="47.22041" lon="0.01726">
        <ele>64</ele>
        <time>2016-04-20T12:45:12Z</time>
      </trkpt>
      <trkpt lat="47.2204" lon="0.01751">
        <ele>66</ele>
        <time>2016-04-20T12:45:25Z</time>
      </trkpt>
      <trkpt lat="47.22038" lon="0.01757">
        <ele>66</ele>
        <time>2016-04-20T12:45:29Z</time>
      </trkpt>
      <trkpt lat="47.22035" lon="0.01793">
        <ele>65</ele>
        <time>2016-04-20T12:45:49Z</time>
      </trkpt>
      <trkpt lat="47.22036" lon="0.01796">
        <ele>65</ele>
        <time>2016-04-20T12:45:51Z</time>
      </trkpt>
      <trkpt lat="47.22032" lon="0.01815">
        <ele>65</ele>
        <time>2016-04-20T12:46:02Z</time>
      </trkpt>
      <trkpt lat="47.22027" lon="0.01841">
        <ele>65</ele>
        <time>2016-04-20T12:46:18Z</time>
      </trkpt>
      <trkpt lat="47.22025" lon="0.01863">
        <ele>67</ele>
        <time>2016-04-20T12:46:31Z</time>
      </trkpt>
      <trkpt lat="47.22021" lon="0.01885">
        <ele>69</ele>
        <time>2016-04-20T12:46:42Z</time>
      </trkpt>
      <trkpt lat="47.22019" lon="0.01893">
        <ele>67</ele>
        <time>2016-04-20T12:46:46Z</time>
      </trkpt>
      <trkpt lat="47.22013" lon="0.01931">
        <ele>69</ele>
        <time>2016-04-20T12:47:07Z</time>
      </trkpt>
      <trkpt lat="47.22012" lon="0.01941">
        <ele>67</ele>
        <time>2016-04-20T12:47:13Z</time>
      </trkpt>
      <trkpt lat="47.22005" lon="0.0196">
        <ele>65</ele>
        <time>2016-04-20T12:47:25Z</time>
      </trkpt>
      <trkpt lat="47.22" lon="0.01974">
        <ele>67</ele>
        <time>2016-04-20T12:47:33Z</time>
      </trkpt>
      <trkpt lat="47.21997" lon="0.01986">
        <ele>65</ele>
        <time>2016-04-20T12:47:49Z</time>
      </trkpt>
      <trkpt lat="47.21997" lon="0.01987">
        <ele>66</ele>
        <time>2016-04-20T12:47:52Z</time>
      </trkpt>
      <trkpt lat="47.21997" lon="0.0199">
        <ele>67</ele>
        <time>2016-04-20T12:48:03Z</time>
      </trkpt>
      <trkpt lat="47.21997" lon="0.01991">
        <ele>66</ele>
        <time>2016-04-20T12:48:07Z</time>
      </trkpt>
      <trkpt lat="47.21997" lon="0.0199">
        <ele>66</ele>
        <time>2016-04-20T12:48:09Z</time>
      </trkpt>
      <trkpt lat="47.21998" lon="0.01991">
        <ele>67</ele>
        <time>2016-04-20T12:48:14Z</time>
      </trkpt>
      <trkpt lat="47.21998" lon="0.01991">
        <ele>67</ele>
        <time>2016-04-20T12:48:15Z</time>
      </trkpt>
      <trkpt lat="47.21998" lon="0.01991">
        <ele>67</ele>
        <time>2016-04-20T12:48:18Z</time>
      </trkpt>
      <trkpt lat="47.21998" lon="0.0199">
        <ele>67</ele>
        <time>2016-04-20T12:48:21Z</time>
      </trkpt>
      <trkpt lat="47.21998" lon="0.0199">
        <ele>67</ele>
        <time>2016-04-20T12:48:24Z</time>
      </trkpt>
      <trkpt lat="47.21998" lon="0.0199">
        <ele>67</ele>
        <time>2016-04-20T12:48:27Z</time>
      </trkpt>
      <trkpt lat="47.21998" lon="0.0199">
        <ele>67</ele>
        <time>2016-04-20T12:48:31Z</time>
      </trkpt>
      <trkpt lat="47.21998" lon="0.0199">
        <ele>67</ele>
        <time>2016-04-20T12:48:33Z</time>
      </trkpt>
      <trkpt lat="47.21998" lon="0.01991">
        <ele>67</ele>
        <time>2016-04-20T12:48:36Z</time>
      </trkpt>
      <trkpt lat="47.21998" lon="0.01991">
        <ele>67</ele>
        <time>2016-04-20T12:48:39Z</time>
      </trkpt>
      <trkpt lat="47.21998" lon="0.01991">
        <ele>67</ele>
        <time>2016-04-20T12:48:42Z</time>
      </trkpt>
      <trkpt lat="47.21998" lon="0.01991">
        <ele>67</ele>
        <time>2016-04-20T12:48:45Z</time>
      </trkpt>
      <trkpt lat="47.21998" lon="0.01991">
        <ele>67</ele>
        <time>2016-04-20T12:48:48Z</time>
      </trkpt>
      <trkpt lat="47.21998" lon="0.01991">
        <ele>67</ele>
        <time>2016-04-20T12:48:51Z</time>
      </trkpt>
      <trkpt lat="47.21998" lon="0.01991">
        <ele>67</ele>
        <time>2016-04-20T12:48:54Z</time>
      </trkpt>
      <trkpt lat="47.21998" lon="0.01991">
        <ele>67</ele>
        <time>2016-04-20T12:48:57Z</time>
      </trkpt>
      <trkpt lat="47.21997" lon="0.0199">
        <ele>67</ele>
        <time>2016-04-20T12:49:01Z</time>
      </trkpt>
      <trkpt lat="47.21993" lon="0.01995">
        <ele>66</ele>
        <time>2016-04-20T12:49:11Z</time>
      </trkpt>
      <trkpt lat="47.21989" lon="0.02013">
        <ele>65</ele>
        <time>2016-04-20T12:49:22Z</time>
      </trkpt>
      <trkpt lat="47.21982" lon="0.02043">
        <ele>65</ele>
        <time>2016-04-20T12:49:39Z</time>
      </trkpt>
      <trkpt lat="47.2198" lon="0.02051">
        <ele>65</ele>
        <time>2016-04-20T12:49:44Z</time>
      </trkpt>
      <trkpt lat="47.21975" lon="0.02075">
        <ele>64</ele>
        <time>2016-04-20T12:49:58Z</time>
      </trkpt>
      <trkpt lat="47.21972" lon="0.02087">
        <ele>63</ele>
        <time>2016-04-20T12:50:06Z</time>
      </trkpt>
      <trkpt lat="47.21966" lon="0.02105">
        <ele>63</ele>
        <time>2016-04-20T12:50:17Z</time>
      </trkpt>
      <trkpt lat="47.21959" lon="0.02129">
        <ele>62</ele>
        <time>2016-04-20T12:50:31Z</time>
      </trkpt>
      <trkpt lat="47.21954" lon="0.02144">
        <ele>60</ele>
        <time>2016-04-20T12:50:42Z</time>
      </trkpt>
      <trkpt lat="47.21951" lon="0.02154">
        <ele>61</ele>
        <time>2016-04-20T12:50:50Z</time>
      </trkpt>
      <trkpt lat="47.21947" lon="0.0217">
        <ele>60</ele>
        <time>2016-04-20T12:51:02Z</time>
      </trkpt>
      <trkpt lat="47.21942" lon="0.02193">
        <ele>58</ele>
        <time>2016-04-20T12:51:19Z</time>
      </trkpt>
      <trkpt lat="47.2194" lon="0.02202">
        <ele>57</ele>
        <time>2016-04-20T12:51:24Z</time>
      </trkpt>
      <trkpt lat="47.21933" lon="0.02229">
        <ele>59</ele>
        <time>2016-04-20T12:51:38Z</time>
      </trkpt>
      <trkpt lat="47.21933" lon="0.02243">
        <ele>62</ele>
        <time>2016-04-20T12:51:46Z</time>
      </trkpt>
      <trkpt lat="47.2193" lon="0.02259">
        <ele>61</ele>
        <time>2016-04-20T12:51:56Z</time>
      </trkpt>
      <trkpt lat="47.21923" lon="0.02274">
        <ele>57</ele>
        <time>2016-04-20T12:52:07Z</time>
      </trkpt>
      <trkpt lat="47.21915" lon="0.02296">
        <ele>60</ele>
        <time>2016-04-20T12:52:19Z</time>
      </trkpt>
      <trkpt lat="47.21908" lon="0.02313">
        <ele>58</ele>
        <time>2016-04-20T12:52:30Z</time>
      </trkpt>
      <trkpt lat="47.219" lon="0.02326">
        <ele>56</ele>
        <time>2016-04-20T12:52:41Z</time>
      </trkpt>
      <trkpt lat="47.2189" lon="0.02351">
        <ele>55</ele>
        <time>2016-04-20T12:52:58Z</time>
      </trkpt>
      <trkpt lat="47.21882" lon="0.0237">
        <ele>55</ele>
        <time>2016-04-20T12:53:11Z</time>
      </trkpt>
      <trkpt lat="47.21878" lon="0.02377">
        <ele>56</ele>
        <time>2016-04-20T12:53:16Z</time>
      </trkpt>
      <trkpt lat="47.2187" lon="0.02388">
        <ele>59</ele>
        <time>2016-04-20T12:53:24Z</time>
      </trkpt>
      <trkpt lat="47.21859" lon="0.02419">
        <ele>56</ele>
        <time>2016-04-20T12:53:44Z</time>
      </trkpt>
      <trkpt lat="47.21857" lon="0.02426">
        <ele>58</ele>
        <time>2016-04-20T12:53:49Z</time>
      </trkpt>
      <trkpt lat="47.21842" lon="0.02454">
        <ele>55</ele>
        <time>2016-04-20T12:54:07Z</time>
      </trkpt>
      <trkpt lat="47.21842" lon="0.02455">
        <ele>55</ele>
        <time>2016-04-20T12:54:08Z</time>
      </trkpt>
      <trkpt lat="47.21831" lon="0.02484">
        <ele>54</ele>
        <time>2016-04-20T12:54:29Z</time>
      </trkpt>
      <trkpt lat="47.2183" lon="0.02486">
        <ele>54</ele>
        <time>2016-04-20T12:54:30Z</time>
      </trkpt>
      <trkpt lat="47.21828" lon="0.02502">
        <ele>48</ele>
        <time>2016-04-20T12:54:41Z</time>
      </trkpt>
      <trkpt lat="47.21825" lon="0.02522">
        <ele>55</ele>
        <time>2016-04-20T12:54:52Z</time>
      </trkpt>
      <trkpt lat="47.21826" lon="0.02546">
        <ele>47</ele>
        <time>2016-04-20T12:55:11Z</time>
      </trkpt>
      <trkpt lat="47.21824" lon="0.02551">
        <ele>48</ele>
        <time>2016-04-20T12:55:14Z</time>
      </trkpt>
      <trkpt lat="47.21827" lon="0.02569">
        <ele>47</ele>
        <time>2016-04-20T12:55:25Z</time>
      </trkpt>
      <trkpt lat="47.21828" lon="0.02591">
        <ele>35</ele>
        <time>2016-04-20T12:55:37Z</time>
      </trkpt>
      <trkpt lat="47.21832" lon="0.02605">
        <ele>27</ele>
        <time>2016-04-20T12:55:55Z</time>
      </trkpt>
      <trkpt lat="47.21831" lon="0.02608">
        <ele>27</ele>
        <time>2016-04-20T12:56:03Z</time>
      </trkpt>
      <trkpt lat="47.21817" lon="0.02647">
        <ele>38</ele>
        <time>2016-04-20T12:56:25Z</time>
      </trkpt>
      <trkpt lat="47.21815" lon="0.02656">
        <ele>44</ele>
        <time>2016-04-20T12:56:28Z</time>
      </trkpt>
      <trkpt lat="47.21803" lon="0.02698">
        <ele>40</ele>
        <time>2016-04-20T12:56:47Z</time>
      </trkpt>
      <trkpt lat="47.21791" lon="0.02711">
        <ele>43</ele>
        <time>2016-04-20T12:56:56Z</time>
      </trkpt>
      <trkpt lat="47.21793" lon="0.02708">
        <ele>38</ele>
        <time>2016-04-20T12:57:04Z</time>
      </trkpt>
      <trkpt lat="47.21795" lon="0.02707">
        <ele>42</ele>
        <time>2016-04-20T12:57:15Z</time>
      </trkpt>
      <trkpt lat="47.21796" lon="0.02705">
        <ele>40</ele>
        <time>2016-04-20T12:57:18Z</time>
      </trkpt>
      <trkpt lat="47.21794" lon="0.02706">
        <ele>41</ele>
        <time>2016-04-20T12:57:28Z</time>
      </trkpt>
      <trkpt lat="47.21794" lon="0.02706">
        <ele>41</ele>
        <time>2016-04-20T12:57:30Z</time>
      </trkpt>
      <trkpt lat="47.21794" lon="0.02706">
        <ele>41</ele>
        <time>2016-04-20T12:57:34Z</time>
      </trkpt>
      <trkpt lat="47.21794" lon="0.02706">
        <ele>41</ele>
        <time>2016-04-20T12:57:36Z</time>
      </trkpt>
      <trkpt lat="47.21794" lon="0.02706">
        <ele>41</ele>
        <time>2016-04-20T12:57:39Z</time>
      </trkpt>
      <trkpt lat="47.21794" lon="0.02706">
        <ele>41</ele>
        <time>2016-04-20T12:57:44Z</time>
      </trkpt>
      <trkpt lat="47.21794" lon="0.02706">
        <ele>41</ele>
        <time>2016-04-20T12:57:45Z</time>
      </trkpt>
      <trkpt lat="47.21794" lon="0.02706">
        <ele>41</ele>
        <time>2016-04-20T12:57:48Z</time>
      </trkpt>
      <trkpt lat="47.21794" lon="0.02706">
        <ele>41</ele>
        <time>2016-04-20T12:57:51Z</time>
      </trkpt>
      <trkpt lat="47.21794" lon="0.02706">
        <ele>41</ele>
        <time>2016-04-20T12:57:55Z</time>
      </trkpt>
      <trkpt lat="47.21794" lon="0.02706">
        <ele>41</ele>
        <time>2016-04-20T12:57:59Z</time>
      </trkpt>
      <trkpt lat="47.21794" lon="0.02706">
        <ele>41</ele>
        <time>2016-04-20T12:58:00Z</time>
      </trkpt>
      <trkpt lat="47.21794" lon="0.02706">
        <ele>41</ele>
        <time>2016-04-20T12:58:03Z</time>
      </trkpt>
      <trkpt lat="47.21794" lon="0.02706">
        <ele>41</ele>
        <time>2016-04-20T12:58:08Z</time>
      </trkpt>
      <trkpt lat="47.21794" lon="0.02706">
        <ele>41</ele>
        <time>2016-04-20T12:58:09Z</time>
      </trkpt>
      <trkpt lat="47.21794" lon="0.02706">
        <ele>41</ele>
        <time>2016-04-20T12:58:12Z</time>
      </trkpt>
      <trkpt lat="47.21794" lon="0.02706">
        <ele>41</ele>
        <time>2016-04-20T12:58:15Z</time>
      </trkpt>
      <trkpt lat="47.21794" lon="0.02706">
        <ele>41</ele>
        <time>2016-04-20T12:58:18Z</time>
      </trkpt>
      <trkpt lat="47.21794" lon="0.02707">
        <ele>42</ele>
        <time>2016-04-20T12:58:22Z</time>
      </trkpt>
      <trkpt lat="47.21787" lon="0.02719">
        <ele>38</ele>
        <time>2016-04-20T12:58:31Z</time>
      </trkpt>
      <trkpt lat="47.21793" lon="0.02731">
        <ele>39</ele>
        <time>2016-04-20T12:58:41Z</time>
      </trkpt>
      <trkpt lat="47.21797" lon="0.02738">
        <ele>40</ele>
        <time>2016-04-20T12:58:48Z</time>
      </trkpt>
      <trkpt lat="47.21802" lon="0.02747">
        <ele>39</ele>
        <time>2016-04-20T12:58:57Z</time>
      </trkpt>
      <trkpt lat="47.218" lon="0.02759">
        <ele>40</ele>
        <time>2016-04-20T12:59:08Z</time>
      </trkpt>
      <trkpt lat="47.2179" lon="0.02769">
        <ele>43</ele>
        <time>2016-04-20T12:59:20Z</time>
      </trkpt>
      <trkpt lat="47.21782" lon="0.02776">
        <ele>40</ele>
        <time>2016-04-20T12:59:30Z</time>
      </trkpt>
      <trkpt lat="47.21774" lon="0.02784">
        <ele>38</ele>
        <time>2016-04-20T12:59:42Z</time>
      </trkpt>
      <trkpt lat="47.21772" lon="0.02807">
        <ele>40</ele>
        <time>2016-04-20T12:59:54Z</time>
      </trkpt>
      <trkpt lat="47.21765" lon="0.02809">
        <ele>37</ele>
        <time>2016-04-20T13:00:03Z</time>
      </trkpt>
      <trkpt lat="47.21759" lon="0.02823">
        <ele>40</ele>
        <time>2016-04-20T13:00:16Z</time>
      </trkpt>
      <trkpt lat="47.21735" lon="0.02824">
        <ele>45</ele>
        <time>2016-04-20T13:00:35Z</time>
      </trkpt>
      <trkpt lat="47.21741" lon="0.02828">
        <ele>50</ele>
        <time>2016-04-20T13:00:46Z</time>
      </trkpt>
      <trkpt lat="47.21742" lon="0.02829">
        <ele>51</ele>
        <time>2016-04-20T13:00:49Z</time>
      </trkpt>
      <trkpt lat="47.21749" lon="0.02831">
        <ele>56</ele>
        <time>2016-04-20T13:01:02Z</time>
      </trkpt>
      <trkpt lat="47.21751" lon="0.02835">
        <ele>53</ele>
        <time>2016-04-20T13:01:16Z</time>
      </trkpt>
      <trkpt lat="47.21754" lon="0.02837">
        <ele>55</ele>
        <time>2016-04-20T13:01:20Z</time>
      </trkpt>
      <trkpt lat="47.21774" lon="0.02851">
        <ele>60</ele>
        <time>2016-04-20T13:01:41Z</time>
      </trkpt>
      <trkpt lat="47.21781" lon="0.02856">
        <ele>62</ele>
        <time>2016-04-20T13:01:50Z</time>
      </trkpt>
      <trkpt lat="47.2178" lon="0.02858">
        <ele>59</ele>
        <time>2016-04-20T13:01:54Z</time>
      </trkpt>
      <trkpt lat="47.21779" lon="0.0287">
        <ele>58</ele>
        <time>2016-04-20T13:02:07Z</time>
      </trkpt>
      <trkpt lat="47.21779" lon="0.0288">
        <ele>61</ele>
        <time>2016-04-20T13:02:15Z</time>
      </trkpt>
      <trkpt lat="47.21774" lon="0.02903">
        <ele>60</ele>
        <time>2016-04-20T13:02:35Z</time>
      </trkpt>
      <trkpt lat="47.21772" lon="0.02909">
        <ele>59</ele>
        <time>2016-04-20T13:02:40Z</time>
      </trkpt>
      <trkpt lat="47.21765" lon="0.0293">
        <ele>54</ele>
        <time>2016-04-20T13:02:58Z</time>
      </trkpt>
      <trkpt lat="47.21765" lon="0.02931">
        <ele>54</ele>
        <time>2016-04-20T13:02:59Z</time>
      </trkpt>
      <trkpt lat="47.21762" lon="0.02959">
        <ele>61</ele>
        <time>2016-04-20T13:03:17Z</time>
      </trkpt>
      <trkpt lat="47.2176" lon="0.02968">
        <ele>61</ele>
        <time>2016-04-20T13:03:23Z</time>
      </trkpt>
      <trkpt lat="47.21756" lon="0.02985">
        <ele>62</ele>
        <time>2016-04-20T13:03:36Z</time>
      </trkpt>
      <trkpt lat="47.21754" lon="0.02994">
        <ele>64</ele>
        <time>2016-04-20T13:03:43Z</time>
      </trkpt>
      <trkpt lat="47.21753" lon="0.03002">
        <ele>65</ele>
        <time>2016-04-20T13:03:54Z</time>
      </trkpt>
      <trkpt lat="47.21752" lon="0.03005">
        <ele>64</ele>
        <time>2016-04-20T13:04:05Z</time>
      </trkpt>
      <trkpt lat="47.21747" lon="0.03028">
        <ele>63</ele>
        <time>2016-04-20T13:04:18Z</time>
      </trkpt>
      <trkpt lat="47.21743" lon="0.03043">
        <ele>63</ele>
        <time>2016-04-20T13:04:27Z</time>
      </trkpt>
      <trkpt lat="47.21734" lon="0.03082">
        <ele>67</ele>
        <time>2016-04-20T13:04:48Z</time>
      </trkpt>
      <trkpt lat="47.21731" lon="0.03094">
        <ele>65</ele>
        <time>2016-04-20T13:04:55Z</time>
      </trkpt>
      <trkpt lat="47.2173" lon="0.03102">
        <ele>66</ele>
        <time>2016-04-20T13:05:00Z</time>
      </trkpt>
      <trkpt lat="47.21727" lon="0.03117">
        <ele>68</ele>
        <time>2016-04-20T13:05:11Z</time>
      </trkpt>
      <trkpt lat="47.21722" lon="0.03133">
        <ele>68</ele>
        <time>2016-04-20T13:05:24Z</time>
      </trkpt>
      <trkpt lat="47.2172" lon="0.03148">
        <ele>68</ele>
        <time>2016-04-20T13:05:33Z</time>
      </trkpt>
      <trkpt lat="47.21713" lon="0.03171">
        <ele>70</ele>
        <time>2016-04-20T13:05:49Z</time>
      </trkpt>
      <trkpt lat="47.21711" lon="0.0318">
        <ele>69</ele>
        <time>2016-04-20T13:05:55Z</time>
      </trkpt>
      <trkpt lat="47.21708" lon="0.032">
        <ele>67</ele>
        <time>2016-04-20T13:06:06Z</time>
      </trkpt>
      <trkpt lat="47.21707" lon="0.03203">
        <ele>69</ele>
        <time>2016-04-20T13:06:17Z</time>
      </trkpt>
      <trkpt lat="47.21707" lon="0.03204">
        <ele>69</ele>
        <time>2016-04-20T13:06:23Z</time>
      </trkpt>
      <trkpt lat="47.21705" lon="0.0321">
        <ele>70</ele>
        <time>2016-04-20T13:06:28Z</time>
      </trkpt>
      <trkpt lat="47.21702" lon="0.03238">
        <ele>69</ele>
        <time>2016-04-20T13:06:44Z</time>
      </trkpt>
      <trkpt lat="47.21703" lon="0.03245">
        <ele>68</ele>
        <time>2016-04-20T13:06:48Z</time>
      </trkpt>
      <trkpt lat="47.21704" lon="0.0327">
        <ele>68</ele>
        <time>2016-04-20T13:07:04Z</time>
      </trkpt>
      <trkpt lat="47.21706" lon="0.03287">
        <ele>68</ele>
        <time>2016-04-20T13:07:13Z</time>
      </trkpt>
      <trkpt lat="47.21709" lon="0.03304">
        <ele>70</ele>
        <time>2016-04-20T13:07:21Z</time>
      </trkpt>
      <trkpt lat="47.21711" lon="0.0333">
        <ele>61</ele>
        <time>2016-04-20T13:07:38Z</time>
      </trkpt>
      <trkpt lat="47.21714" lon="0.03345">
        <ele>63</ele>
        <time>2016-04-20T13:07:46Z</time>
      </trkpt>
      <trkpt lat="47.21719" lon="0.03363">
        <ele>63</ele>
        <time>2016-04-20T13:08:02Z</time>
      </trkpt>
      <trkpt lat="47.21719" lon="0.03363">
        <ele>63</ele>
        <time>2016-04-20T13:08:05Z</time>
      </trkpt>
      <trkpt lat="47.21718" lon="0.03363">
        <ele>63</ele>
        <time>2016-04-20T13:08:08Z</time>
      </trkpt>
      <trkpt lat="47.21718" lon="0.03363">
        <ele>63</ele>
        <time>2016-04-20T13:08:15Z</time>
      </trkpt>
      <trkpt lat="47.2172" lon="0.03365">
        <ele>66</ele>
        <time>2016-04-20T13:08:26Z</time>
      </trkpt>
      <trkpt lat="47.2172" lon="0.03366">
        <ele>66</ele>
        <time>2016-04-20T13:08:31Z</time>
      </trkpt>
      <trkpt lat="47.2172" lon="0.03366">
        <ele>66</ele>
        <time>2016-04-20T13:08:34Z</time>
      </trkpt>
      <trkpt lat="47.2172" lon="0.03366">
        <ele>66</ele>
        <time>2016-04-20T13:08:37Z</time>
      </trkpt>
      <trkpt lat="47.2172" lon="0.03366">
        <ele>66</ele>
        <time>2016-04-20T13:08:40Z</time>
      </trkpt>
      <trkpt lat="47.2172" lon="0.03366">
        <ele>66</ele>
        <time>2016-04-20T13:08:43Z</time>
      </trkpt>
      <trkpt lat="47.2172" lon="0.03366">
        <ele>66</ele>
        <time>2016-04-20T13:08:46Z</time>
      </trkpt>
      <trkpt lat="47.2172" lon="0.03366">
        <ele>66</ele>
        <time>2016-04-20T13:08:49Z</time>
      </trkpt>
      <trkpt lat="47.21719" lon="0.03367">
        <ele>66</ele>
        <time>2016-04-20T13:08:55Z</time>
      </trkpt>
      <trkpt lat="47.21719" lon="0.03367">
        <ele>66</ele>
        <time>2016-04-20T13:08:58Z</time>
      </trkpt>
      <trkpt lat="47.2172" lon="0.03367">
        <ele>66</ele>
        <time>2016-04-20T13:09:01Z</time>
      </trkpt>
      <trkpt lat="47.2172" lon="0.03367">
        <ele>66</ele>
        <time>2016-04-20T13:09:04Z</time>
      </trkpt>
      <trkpt lat="47.2172" lon="0.03367">
        <ele>66</ele>
        <time>2016-04-20T13:09:07Z</time>
      </trkpt>
      <trkpt lat="47.2172" lon="0.03367">
        <ele>66</ele>
        <time>2016-04-20T13:09:10Z</time>
      </trkpt>
      <trkpt lat="47.2172" lon="0.03367">
        <ele>66</ele>
        <time>2016-04-20T13:09:13Z</time>
      </trkpt>
      <trkpt lat="47.2172" lon="0.03367">
        <ele>66</ele>
        <time>2016-04-20T13:09:16Z</time>
      </trkpt>
      <trkpt lat="47.2172" lon="0.03367">
        <ele>66</ele>
        <time>2016-04-20T13:09:19Z</time>
      </trkpt>
      <trkpt lat="47.2172" lon="0.03367">
        <ele>66</ele>
        <time>2016-04-20T13:09:22Z</time>
      </trkpt>
      <trkpt lat="47.2172" lon="0.03367">
        <ele>66</ele>
        <time>2016-04-20T13:09:25Z</time>
      </trkpt>
      <trkpt lat="47.2172" lon="0.03367">
        <ele>66</ele>
        <time>2016-04-20T13:09:28Z</time>
      </trkpt>
      <trkpt lat="47.2172" lon="0.03369">
        <ele>66</ele>
        <time>2016-04-20T13:09:31Z</time>
      </trkpt>
      <trkpt lat="47.21715" lon="0.03395">
        <ele>67</ele>
        <time>2016-04-20T13:09:52Z</time>
      </trkpt>
      <trkpt lat="47.21713" lon="0.03406">
        <ele>69</ele>
        <time>2016-04-20T13:09:59Z</time>
      </trkpt>
      <trkpt lat="47.2171" lon="0.03412">
        <ele>69</ele>
        <time>2016-04-20T13:10:05Z</time>
      </trkpt>
      <trkpt lat="47.21697" lon="0.03422">
        <ele>70</ele>
        <time>2016-04-20T13:10:16Z</time>
      </trkpt>
      <trkpt lat="47.21675" lon="0.03428">
        <ele>70</ele>
        <time>2016-04-20T13:10:35Z</time>
      </trkpt>
      <trkpt lat="47.21673" lon="0.03426">
        <ele>71</ele>
        <time>2016-04-20T13:10:37Z</time>
      </trkpt>
      <trkpt lat="47.2166" lon="0.03421">
        <ele>70</ele>
        <time>2016-04-20T13:10:48Z</time>
      </trkpt>
      <trkpt lat="47.21638" lon="0.03411">
        <ele>72</ele>
        <time>2016-04-20T13:11:08Z</time>
      </trkpt>
      <trkpt lat="47.21638" lon="0.03409">
        <ele>72</ele>
        <time>2016-04-20T13:11:10Z</time>
      </trkpt>
      <trkpt lat="47.21628" lon="0.03406">
        <ele>71</ele>
        <time>2016-04-20T13:11:21Z</time>
      </trkpt>
      <trkpt lat="47.21615" lon="0.03402">
        <ele>71</ele>
        <time>2016-04-20T13:11:34Z</time>
      </trkpt>
      <trkpt lat="47.21606" lon="0.03397">
        <ele>74</ele>
        <time>2016-04-20T13:11:43Z</time>
      </trkpt>
      <trkpt lat="47.21586" lon="0.03389">
        <ele>73</ele>
        <time>2016-04-20T13:12:00Z</time>
      </trkpt>
      <trkpt lat="47.2158" lon="0.03386">
        <ele>71</ele>
        <time>2016-04-20T13:12:05Z</time>
      </trkpt>
      <trkpt lat="47.21568" lon="0.03377">
        <ele>71</ele>
        <time>2016-04-20T13:12:16Z</time>
      </trkpt>
      <trkpt lat="47.21553" lon="0.0337">
        <ele>71</ele>
        <time>2016-04-20T13:12:31Z</time>
      </trkpt>
      <trkpt lat="47.21545" lon="0.03367">
        <ele>70</ele>
        <time>2016-04-20T13:12:38Z</time>
      </trkpt>
      <trkpt lat="47.21532" lon="0.03362">
        <ele>70</ele>
        <time>2016-04-20T13:12:49Z</time>
      </trkpt>
      <trkpt lat="47.21518" lon="0.03356">
        <ele>71</ele>
        <time>2016-04-20T13:13:01Z</time>
      </trkpt>
      <trkpt lat="47.21505" lon="0.03352">
        <ele>69</ele>
        <time>2016-04-20T13:13:13Z</time>
      </trkpt>
      <trkpt lat="47.21494" lon="0.03345">
        <ele>68</ele>
        <time>2016-04-20T13:13:23Z</time>
      </trkpt>
      <trkpt lat="47.21485" lon="0.03341">
        <ele>65</ele>
        <time>2016-04-20T13:13:33Z</time>
      </trkpt>
      <trkpt lat="47.21462" lon="0.03338">
        <ele>62</ele>
        <time>2016-04-20T13:13:53Z</time>
      </trkpt>
      <trkpt lat="47.21456" lon="0.03337">
        <ele>63</ele>
        <time>2016-04-20T13:14:01Z</time>
      </trkpt>
      <trkpt lat="47.21452" lon="0.03338">
        <ele>63</ele>
        <time>2016-04-20T13:14:06Z</time>
      </trkpt>
      <trkpt lat="47.21439" lon="0.0335">
        <ele>64</ele>
        <time>2016-04-20T13:14:21Z</time>
      </trkpt>
      <trkpt lat="47.21426" lon="0.03367">
        <ele>69</ele>
        <time>2016-04-20T13:14:35Z</time>
      </trkpt>
      <trkpt lat="47.21422" lon="0.03372">
        <ele>69</ele>
        <time>2016-04-20T13:14:46Z</time>
      </trkpt>
      <trkpt lat="47.21419" lon="0.03373">
        <ele>69</ele>
        <time>2016-04-20T13:14:50Z</time>
      </trkpt>
      <trkpt lat="47.21403" lon="0.03382">
        <ele>68</ele>
        <time>2016-04-20T13:15:02Z</time>
      </trkpt>
      <trkpt lat="47.21386" lon="0.0339">
        <ele>67</ele>
        <time>2016-04-20T13:15:15Z</time>
      </trkpt>
      <trkpt lat="47.21378" lon="0.03391">
        <ele>65</ele>
        <time>2016-04-20T13:15:23Z</time>
      </trkpt>
      <trkpt lat="47.21367" lon="0.03395">
        <ele>66</ele>
        <time>2016-04-20T13:15:34Z</time>
      </trkpt>
      <trkpt lat="47.21348" lon="0.03403">
        <ele>70</ele>
        <time>2016-04-20T13:15:51Z</time>
      </trkpt>
      <trkpt lat="47.21334" lon="0.0341">
        <ele>69</ele>
        <time>2016-04-20T13:16:01Z</time>
      </trkpt>
      <trkpt lat="47.21325" lon="0.03414">
        <ele>71</ele>
        <time>2016-04-20T13:16:08Z</time>
      </trkpt>
      <trkpt lat="47.21305" lon="0.03415">
        <ele>72</ele>
        <time>2016-04-20T13:16:24Z</time>
      </trkpt>
      <trkpt lat="47.21292" lon="0.03409">
        <ele>69</ele>
        <time>2016-04-20T13:16:35Z</time>
      </trkpt>
      <trkpt lat="47.21285" lon="0.03408">
        <ele>69</ele>
        <time>2016-04-20T13:16:40Z</time>
      </trkpt>
      <trkpt lat="47.2127" lon="0.03406">
        <ele>72</ele>
        <time>2016-04-20T13:16:51Z</time>
      </trkpt>
      <trkpt lat="47.21256" lon="0.03404">
        <ele>75</ele>
        <time>2016-04-20T13:17:03Z</time>
      </trkpt>
      <trkpt lat="47.21244" lon="0.03405">
        <ele>74</ele>
        <time>2016-04-20T13:17:13Z</time>
      </trkpt>
      <trkpt lat="47.21235" lon="0.03404">
        <ele>74</ele>
        <time>2016-04-20T13:17:24Z</time>
      </trkpt>
      <trkpt lat="47.2122" lon="0.03396">
        <ele>71</ele>
        <time>2016-04-20T13:17:42Z</time>
      </trkpt>
      <trkpt lat="47.21217" lon="0.03393">
        <ele>73</ele>
        <time>2016-04-20T13:17:46Z</time>
      </trkpt>
      <trkpt lat="47.21206" lon="0.0339">
        <ele>72</ele>
        <time>2016-04-20T13:18:01Z</time>
      </trkpt>
      <trkpt lat="47.21199" lon="0.03387">
        <ele>74</ele>
        <time>2016-04-20T13:18:08Z</time>
      </trkpt>
      <trkpt lat="47.21188" lon="0.03384">
        <ele>73</ele>
        <time>2016-04-20T13:18:20Z</time>
      </trkpt>
      <trkpt lat="47.21178" lon="0.03381">
        <ele>71</ele>
        <time>2016-04-20T13:18:30Z</time>
      </trkpt>
      <trkpt lat="47.21165" lon="0.03379">
        <ele>71</ele>
        <time>2016-04-20T13:18:42Z</time>
      </trkpt>
      <trkpt lat="47.21152" lon="0.03376">
        <ele>71</ele>
        <time>2016-04-20T13:18:54Z</time>
      </trkpt>
      <trkpt lat="47.21143" lon="0.03374">
        <ele>70</ele>
        <time>2016-04-20T13:19:04Z</time>
      </trkpt>
      <trkpt lat="47.21143" lon="0.03374">
        <ele>69</ele>
        <time>2016-04-20T13:19:14Z</time>
      </trkpt>
      <trkpt lat="47.21143" lon="0.03374">
        <ele>69</ele>
        <time>2016-04-20T13:19:17Z</time>
      </trkpt>
      <trkpt lat="47.21144" lon="0.03373">
        <ele>69</ele>
        <time>2016-04-20T13:19:22Z</time>
      </trkpt>
      <trkpt lat="47.21144" lon="0.03373">
        <ele>69</ele>
        <time>2016-04-20T13:19:23Z</time>
      </trkpt>
      <trkpt lat="47.21144" lon="0.03374">
        <ele>69</ele>
        <time>2016-04-20T13:19:26Z</time>
      </trkpt>
      <trkpt lat="47.21144" lon="0.03374">
        <ele>69</ele>
        <time>2016-04-20T13:19:29Z</time>
      </trkpt>
      <trkpt lat="47.21144" lon="0.03374">
        <ele>69</ele>
        <time>2016-04-20T13:19:32Z</time>
      </trkpt>
      <trkpt lat="47.21144" lon="0.03374">
        <ele>69</ele>
        <time>2016-04-20T13:19:35Z</time>
      </trkpt>
      <trkpt lat="47.21144" lon="0.03374">
        <ele>69</ele>
        <time>2016-04-20T13:19:38Z</time>
      </trkpt>
      <trkpt lat="47.21144" lon="0.03374">
        <ele>69</ele>
        <time>2016-04-20T13:19:41Z</time>
      </trkpt>
      <trkpt lat="47.21144" lon="0.03374">
        <ele>69</ele>
        <time>2016-04-20T13:19:44Z</time>
      </trkpt>
      <trkpt lat="47.21144" lon="0.03375">
        <ele>70</ele>
        <time>2016-04-20T13:19:47Z</time>
      </trkpt>
      <trkpt lat="47.21144" lon="0.03375">
        <ele>69</ele>
        <time>2016-04-20T13:19:50Z</time>
      </trkpt>
      <trkpt lat="47.21143" lon="0.03375">
        <ele>70</ele>
        <time>2016-04-20T13:19:53Z</time>
      </trkpt>
      <trkpt lat="47.21141" lon="0.03389">
        <ele>70</ele>
        <time>2016-04-20T13:20:02Z</time>
      </trkpt>
      <trkpt lat="47.21137" lon="0.03399">
        <ele>67</ele>
        <time>2016-04-20T13:20:07Z</time>
      </trkpt>
      <trkpt lat="47.21129" lon="0.03431">
        <ele>65</ele>
        <time>2016-04-20T13:20:25Z</time>
      </trkpt>
      <trkpt lat="47.21127" lon="0.03436">
        <ele>62</ele>
        <time>2016-04-20T13:20:29Z</time>
      </trkpt>
      <trkpt lat="47.21122" lon="0.03462">
        <ele>64</ele>
        <time>2016-04-20T13:20:47Z</time>
      </trkpt>
      <trkpt lat="47.2112" lon="0.03469">
        <ele>63</ele>
        <time>2016-04-20T13:20:51Z</time>
      </trkpt>
      <trkpt lat="47.21116" lon="0.03483">
        <ele>63</ele>
        <time>2016-04-20T13:21:02Z</time>
      </trkpt>
      <trkpt lat="47.21113" lon="0.035">
        <ele>65</ele>
        <time>2016-04-20T13:21:15Z</time>
      </trkpt>
      <trkpt lat="47.21095" lon="0.03519">
        <ele>68</ele>
        <time>2016-04-20T13:21:30Z</time>
      </trkpt>
      <trkpt lat="47.21091" lon="0.03525">
        <ele>68</ele>
        <time>2016-04-20T13:21:35Z</time>
      </trkpt>
      <trkpt lat="47.21085" lon="0.03552">
        <ele>68</ele>
        <time>2016-04-20T13:21:53Z</time>
      </trkpt>
      <trkpt lat="47.21083" lon="0.03558">
        <ele>67</ele>
        <time>2016-04-20T13:21:58Z</time>
      </trkpt>
      <trkpt lat="47.2108" lon="0.03576">
        <ele>71</ele>
        <time>2016-04-20T13:22:11Z</time>
      </trkpt>
      <trkpt lat="47.21074" lon="0.03596">
        <ele>71</ele>
        <time>2016-04-20T13:22:23Z</time>
      </trkpt>
      <trkpt lat="47.21067" lon="0.0361">
        <ele>69</ele>
        <time>2016-04-20T13:22:35Z</time>
      </trkpt>
      <trkpt lat="47.21061" lon="0.0362">
        <ele>71</ele>
        <time>2016-04-20T13:22:44Z</time>
      </trkpt>
      <trkpt lat="47.2105" lon="0.0364">
        <ele>70</ele>
        <time>2016-04-20T13:22:58Z</time>
      </trkpt>
      <trkpt lat="47.21045" lon="0.03648">
        <ele>69</ele>
        <time>2016-04-20T13:23:03Z</time>
      </trkpt>
      <trkpt lat="47.21036" lon="0.03661">
        <ele>70</ele>
        <time>2016-04-20T13:23:14Z</time>
      </trkpt>
      <trkpt lat="47.21027" lon="0.03675">
        <ele>69</ele>
        <time>2016-04-20T13:23:25Z</time>
      </trkpt>
      <trkpt lat="47.21016" lon="0.03689">
        <ele>69</ele>
        <time>2016-04-20T13:23:36Z</time>
      </trkpt>
      <trkpt lat="47.21008" lon="0.03704">
        <ele>69</ele>
        <time>2016-04-20T13:23:47Z</time>
      </trkpt>
      <trkpt lat="47.20996" lon="0.03721">
        <ele>68</ele>
        <time>2016-04-20T13:24:01Z</time>
      </trkpt>
      <trkpt lat="47.20989" lon="0.03732">
        <ele>66</ele>
        <time>2016-04-20T13:24:09Z</time>
      </trkpt>
      <trkpt lat="47.20983" lon="0.03748">
        <ele>67</ele>
        <time>2016-04-20T13:24:20Z</time>
      </trkpt>
      <trkpt lat="47.20975" lon="0.03764">
        <ele>66</ele>
        <time>2016-04-20T13:24:33Z</time>
      </trkpt>
      <trkpt lat="47.20969" lon="0.03776">
        <ele>66</ele>
        <time>2016-04-20T13:24:42Z</time>
      </trkpt>
      <trkpt lat="47.2096" lon="0.03789">
        <ele>67</ele>
        <time>2016-04-20T13:24:53Z</time>
      </trkpt>
      <trkpt lat="47.20951" lon="0.03804">
        <ele>67</ele>
        <time>2016-04-20T13:25:04Z</time>
      </trkpt>
      <trkpt lat="47.2094" lon="0.03818">
        <ele>71</ele>
        <time>2016-04-20T13:25:17Z</time>
      </trkpt>
      <trkpt lat="47.2093" lon="0.0381">
        <ele>72</ele>
        <time>2016-04-20T13:25:33Z</time>
      </trkpt>
      <trkpt lat="47.20928" lon="0.03806">
        <ele>71</ele>
        <time>2016-04-20T13:25:37Z</time>
      </trkpt>
      <trkpt lat="47.2092" lon="0.03793">
        <ele>75</ele>
        <time>2016-04-20T13:25:48Z</time>
      </trkpt>
      <trkpt lat="47.2091" lon="0.03782">
        <ele>74</ele>
        <time>2016-04-20T13:25:59Z</time>
      </trkpt>
      <trkpt lat="47.20899" lon="0.03771">
        <ele>75</ele>
        <time>2016-04-20T13:26:10Z</time>
      </trkpt>
      <trkpt lat="47.20888" lon="0.03764">
        <ele>73</ele>
        <time>2016-04-20T13:26:21Z</time>
      </trkpt>
      <trkpt lat="47.20878" lon="0.03755">
        <ele>73</ele>
        <time>2016-04-20T13:26:32Z</time>
      </trkpt>
      <trkpt lat="47.20866" lon="0.03748">
        <ele>73</ele>
        <time>2016-04-20T13:26:50Z</time>
      </trkpt>
      <trkpt lat="47.20865" lon="0.03749">
        <ele>74</ele>
        <time>2016-04-20T13:26:54Z</time>
      </trkpt>
      <trkpt lat="47.20862" lon="0.03747">
        <ele>76</ele>
        <time>2016-04-20T13:26:58Z</time>
      </trkpt>
      <trkpt lat="47.20861" lon="0.03742">
        <ele>74</ele>
        <time>2016-04-20T13:27:13Z</time>
      </trkpt>
      <trkpt lat="47.20859" lon="0.03737">
        <ele>75</ele>
        <time>2016-04-20T13:27:20Z</time>
      </trkpt>
      <trkpt lat="47.20855" lon="0.03732">
        <ele>74</ele>
        <time>2016-04-20T13:27:30Z</time>
      </trkpt>
      <trkpt lat="47.20855" lon="0.03729">
        <ele>73</ele>
        <time>2016-04-20T13:27:41Z</time>
      </trkpt>
      <trkpt lat="47.20854" lon="0.03729">
        <ele>73</ele>
        <time>2016-04-20T13:27:44Z</time>
      </trkpt>
      <trkpt lat="47.20854" lon="0.03729">
        <ele>73</ele>
        <time>2016-04-20T13:27:47Z</time>
      </trkpt>
      <trkpt lat="47.20854" lon="0.03729">
        <ele>73</ele>
        <time>2016-04-20T13:27:50Z</time>
      </trkpt>
      <trkpt lat="47.20854" lon="0.03729">
        <ele>73</ele>
        <time>2016-04-20T13:27:53Z</time>
      </trkpt>
      <trkpt lat="47.20854" lon="0.03729">
        <ele>73</ele>
        <time>2016-04-20T13:27:56Z</time>
      </trkpt>
      <trkpt lat="47.20854" lon="0.03729">
        <ele>73</ele>
        <time>2016-04-20T13:27:59Z</time>
      </trkpt>
      <trkpt lat="47.20854" lon="0.03729">
        <ele>73</ele>
        <time>2016-04-20T13:28:02Z</time>
      </trkpt>
      <trkpt lat="47.20854" lon="0.03729">
        <ele>73</ele>
        <time>2016-04-20T13:28:05Z</time>
      </trkpt>
      <trkpt lat="47.20854" lon="0.03729">
        <ele>73</ele>
        <time>2016-04-20T13:28:08Z</time>
      </trkpt>
      <trkpt lat="47.20854" lon="0.03729">
        <ele>73</ele>
        <time>2016-04-20T13:28:11Z</time>
      </trkpt>
      <trkpt lat="47.20854" lon="0.03729">
        <ele>73</ele>
        <time>2016-04-20T13:28:14Z</time>
      </trkpt>
      <trkpt lat="47.20854" lon="0.03729">
        <ele>73</ele>
        <time>2016-04-20T13:28:17Z</time>
      </trkpt>
      <trkpt lat="47.20854" lon="0.03729">
        <ele>73</ele>
        <time>2016-04-20T13:28:20Z</time>
      </trkpt>
      <trkpt lat="47.20854" lon="0.03729">
        <ele>73</ele>
        <time>2016-04-20T13:28:23Z</time>
      </trkpt>
      <trkpt lat="47.20854" lon="0.03729">
        <ele>73</ele>
        <time>2016-04-20T13:28:26Z</time>
      </trkpt>
      <trkpt lat="47.20854" lon="0.03729">
        <ele>73</ele>
        <time>2016-04-20T13:28:29Z</time>
      </trkpt>
      <trkpt lat="47.20854" lon="0.03729">
        <ele>73</ele>
        <time>2016-04-20T13:28:32Z</time>
      </trkpt>
      <trkpt lat="47.20854" lon="0.03729">
        <ele>73</ele>
        <time>2016-04-20T13:28:36Z</time>
      </trkpt>
      <trkpt lat="47.20853" lon="0.03729">
        <ele>74</ele>
        <time>2016-04-20T13:28:41Z</time>
      </trkpt>
      <trkpt lat="47.20853" lon="0.03728">
        <ele>74</ele>
        <time>2016-04-20T13:28:44Z</time>
      </trkpt>
      <trkpt lat="47.20853" lon="0.03728">
        <ele>75</ele>
        <time>2016-04-20T13:28:47Z</time>
      </trkpt>
      <trkpt lat="47.20852" lon="0.03728">
        <ele>75</ele>
        <time>2016-04-20T13:28:50Z</time>
      </trkpt>
      <trkpt lat="47.20852" lon="0.03727">
        <ele>75</ele>
        <time>2016-04-20T13:28:53Z</time>
      </trkpt>
      <trkpt lat="47.20853" lon="0.03727">
        <ele>75</ele>
        <time>2016-04-20T13:28:56Z</time>
      </trkpt>
      <trkpt lat="47.20853" lon="0.03727">
        <ele>75</ele>
        <time>2016-04-20T13:28:59Z</time>
      </trkpt>
      <trkpt lat="47.20853" lon="0.03727">
        <ele>75</ele>
        <time>2016-04-20T13:29:02Z</time>
      </trkpt>
      <trkpt lat="47.20853" lon="0.03727">
        <ele>75</ele>
        <time>2016-04-20T13:29:05Z</time>
      </trkpt>
      <trkpt lat="47.20853" lon="0.03726">
        <ele>75</ele>
        <time>2016-04-20T13:29:08Z</time>
      </trkpt>
      <trkpt lat="47.20853" lon="0.03726">
        <ele>75</ele>
        <time>2016-04-20T13:29:12Z</time>
      </trkpt>
      <trkpt lat="47.20853" lon="0.03726">
        <ele>75</ele>
        <time>2016-04-20T13:29:14Z</time>
      </trkpt>
      <trkpt lat="47.20853" lon="0.03726">
        <ele>75</ele>
        <time>2016-04-20T13:29:17Z</time>
      </trkpt>
      <trkpt lat="47.20853" lon="0.03726">
        <ele>75</ele>
        <time>2016-04-20T13:29:22Z</time>
      </trkpt>
      <trkpt lat="47.20853" lon="0.03726">
        <ele>75</ele>
        <time>2016-04-20T13:29:23Z</time>
      </trkpt>
      <trkpt lat="47.20853" lon="0.03726">
        <ele>75</ele>
        <time>2016-04-20T13:29:26Z</time>
      </trkpt>
      <trkpt lat="47.20853" lon="0.03726">
        <ele>75</ele>
        <time>2016-04-20T13:29:29Z</time>
      </trkpt>
      <trkpt lat="47.20853" lon="0.03726">
        <ele>75</ele>
        <time>2016-04-20T13:29:32Z</time>
      </trkpt>
      <trkpt lat="47.20853" lon="0.03726">
        <ele>75</ele>
        <time>2016-04-20T13:29:35Z</time>
      </trkpt>
      <trkpt lat="47.20853" lon="0.03726">
        <ele>75</ele>
        <time>2016-04-20T13:29:38Z</time>
      </trkpt>
      <trkpt lat="47.20853" lon="0.03726">
        <ele>75</ele>
        <time>2016-04-20T13:29:41Z</time>
      </trkpt>
      <trkpt lat="47.20853" lon="0.03726">
        <ele>75</ele>
        <time>2016-04-20T13:29:45Z</time>
      </trkpt>
      <trkpt lat="47.20853" lon="0.03726">
        <ele>75</ele>
        <time>2016-04-20T13:29:48Z</time>
      </trkpt>
      <trkpt lat="47.20853" lon="0.03726">
        <ele>75</ele>
        <time>2016-04-20T13:29:50Z</time>
      </trkpt>
      <trkpt lat="47.20853" lon="0.03726">
        <ele>75</ele>
        <time>2016-04-20T13:29:55Z</time>
      </trkpt>
      <trkpt lat="47.20853" lon="0.03726">
        <ele>75</ele>
        <time>2016-04-20T13:29:56Z</time>
      </trkpt>
      <trkpt lat="47.20853" lon="0.03726">
        <ele>75</ele>
        <time>2016-04-20T13:29:59Z</time>
      </trkpt>
      <trkpt lat="47.20853" lon="0.03726">
        <ele>75</ele>
        <time>2016-04-20T13:30:02Z</time>
      </trkpt>
      <trkpt lat="47.20853" lon="0.03726">
        <ele>75</ele>
        <time>2016-04-20T13:30:05Z</time>
      </trkpt>
      <trkpt lat="47.20853" lon="0.03726">
        <ele>75</ele>
        <time>2016-04-20T13:30:10Z</time>
      </trkpt>
      <trkpt lat="47.20853" lon="0.03726">
        <ele>75</ele>
        <time>2016-04-20T13:30:13Z</time>
      </trkpt>
      <trkpt lat="47.20853" lon="0.03726">
        <ele>75</ele>
        <time>2016-04-20T13:30:14Z</time>
      </trkpt>
      <trkpt lat="47.20853" lon="0.03726">
        <ele>75</ele>
        <time>2016-04-20T13:30:19Z</time>
      </trkpt>
      <trkpt lat="47.20853" lon="0.03726">
        <ele>75</ele>
        <time>2016-04-20T13:30:20Z</time>
      </trkpt>
      <trkpt lat="47.20853" lon="0.03726">
        <ele>75</ele>
        <time>2016-04-20T13:30:23Z</time>
      </trkpt>
      <trkpt lat="47.20853" lon="0.03726">
        <ele>75</ele>
        <time>2016-04-20T13:30:26Z</time>
      </trkpt>
      <trkpt lat="47.20853" lon="0.03726">
        <ele>75</ele>
        <time>2016-04-20T13:30:29Z</time>
      </trkpt>
      <trkpt lat="47.20853" lon="0.03726">
        <ele>75</ele>
        <time>2016-04-20T13:30:33Z</time>
      </trkpt>
      <trkpt lat="47.20853" lon="0.03726">
        <ele>75</ele>
        <time>2016-04-20T13:30:36Z</time>
      </trkpt>
      <trkpt lat="47.20853" lon="0.03726">
        <ele>75</ele>
        <time>2016-04-20T13:30:38Z</time>
      </trkpt>
      <trkpt lat="47.20853" lon="0.03726">
        <ele>75</ele>
        <time>2016-04-20T13:30:42Z</time>
      </trkpt>
      <trkpt lat="47.20853" lon="0.03726">
        <ele>75</ele>
        <time>2016-04-20T13:30:44Z</time>
      </trkpt>
      <trkpt lat="47.20853" lon="0.03726">
        <ele>75</ele>
        <time>2016-04-20T13:30:47Z</time>
      </trkpt>
      <trkpt lat="47.20853" lon="0.03726">
        <ele>75</ele>
        <time>2016-04-20T13:30:50Z</time>
      </trkpt>
      <trkpt lat="47.20853" lon="0.03726">
        <ele>75</ele>
        <time>2016-04-20T13:30:53Z</time>
      </trkpt>
      <trkpt lat="47.20853" lon="0.03726">
        <ele>75</ele>
        <time>2016-04-20T13:30:56Z</time>
      </trkpt>
      <trkpt lat="47.20853" lon="0.03726">
        <ele>75</ele>
        <time>2016-04-20T13:30:59Z</time>
      </trkpt>
      <trkpt lat="47.20853" lon="0.03726">
        <ele>75</ele>
        <time>2016-04-20T13:31:02Z</time>
      </trkpt>
      <trkpt lat="47.20853" lon="0.03726">
        <ele>75</ele>
        <time>2016-04-20T13:31:07Z</time>
      </trkpt>
      <trkpt lat="47.20853" lon="0.03726">
        <ele>75</ele>
        <time>2016-04-20T13:31:08Z</time>
      </trkpt>
      <trkpt lat="47.20853" lon="0.03726">
        <ele>75</ele>
        <time>2016-04-20T13:31:11Z</time>
      </trkpt>
      <trkpt lat="47.20853" lon="0.03726">
        <ele>75</ele>
        <time>2016-04-20T13:31:14Z</time>
      </trkpt>
      <trkpt lat="47.20853" lon="0.03726">
        <ele>75</ele>
        <time>2016-04-20T13:31:17Z</time>
      </trkpt>
      <trkpt lat="47.20853" lon="0.03726">
        <ele>75</ele>
        <time>2016-04-20T13:31:20Z</time>
      </trkpt>
      <trkpt lat="47.20853" lon="0.03725">
        <ele>75</ele>
        <time>2016-04-20T13:31:26Z</time>
      </trkpt>
      <trkpt lat="47.20852" lon="0.03727">
        <ele>75</ele>
        <time>2016-04-20T13:31:29Z</time>
      </trkpt>
      <trkpt lat="47.20852" lon="0.03728">
        <ele>76</ele>
        <time>2016-04-20T13:31:40Z</time>
      </trkpt>
      <trkpt lat="47.20852" lon="0.03728">
        <ele>76</ele>
        <time>2016-04-20T13:31:43Z</time>
      </trkpt>
      <trkpt lat="47.20852" lon="0.03728">
        <ele>76</ele>
        <time>2016-04-20T13:31:46Z</time>
      </trkpt>
      <trkpt lat="47.20852" lon="0.03728">
        <ele>76</ele>
        <time>2016-04-20T13:31:49Z</time>
      </trkpt>
      <trkpt lat="47.20852" lon="0.03728">
        <ele>76</ele>
        <time>2016-04-20T13:31:52Z</time>
      </trkpt>
      <trkpt lat="47.20852" lon="0.03728">
        <ele>76</ele>
        <time>2016-04-20T13:31:55Z</time>
      </trkpt>
      <trkpt lat="47.20852" lon="0.03728">
        <ele>76</ele>
        <time>2016-04-20T13:31:58Z</time>
      </trkpt>
      <trkpt lat="47.20852" lon="0.03728">
        <ele>76</ele>
        <time>2016-04-20T13:32:01Z</time>
      </trkpt>
      <trkpt lat="47.20852" lon="0.03728">
        <ele>76</ele>
        <time>2016-04-20T13:32:04Z</time>
      </trkpt>
      <trkpt lat="47.20852" lon="0.03728">
        <ele>76</ele>
        <time>2016-04-20T13:32:07Z</time>
      </trkpt>
      <trkpt lat="47.20852" lon="0.03728">
        <ele>76</ele>
        <time>2016-04-20T13:32:10Z</time>
      </trkpt>
      <trkpt lat="47.20852" lon="0.03728">
        <ele>76</ele>
        <time>2016-04-20T13:32:13Z</time>
      </trkpt>
      <trkpt lat="47.20852" lon="0.03728">
        <ele>76</ele>
        <time>2016-04-20T13:32:16Z</time>
      </trkpt>
      <trkpt lat="47.20852" lon="0.03728">
        <ele>76</ele>
        <time>2016-04-20T13:32:19Z</time>
      </trkpt>
      <trkpt lat="47.20852" lon="0.03728">
        <ele>76</ele>
        <time>2016-04-20T13:32:22Z</time>
      </trkpt>
      <trkpt lat="47.20852" lon="0.03728">
        <ele>76</ele>
        <time>2016-04-20T13:32:25Z</time>
      </trkpt>
      <trkpt lat="47.20852" lon="0.03728">
        <ele>76</ele>
        <time>2016-04-20T13:32:28Z</time>
      </trkpt>
      <trkpt lat="47.20852" lon="0.03728">
        <ele>76</ele>
        <time>2016-04-20T13:32:31Z</time>
      </trkpt>
      <trkpt lat="47.20852" lon="0.03728">
        <ele>76</ele>
        <time>2016-04-20T13:32:34Z</time>
      </trkpt>
      <trkpt lat="47.20852" lon="0.03728">
        <ele>76</ele>
        <time>2016-04-20T13:32:37Z</time>
      </trkpt>
      <trkpt lat="47.20852" lon="0.03728">
        <ele>76</ele>
        <time>2016-04-20T13:32:40Z</time>
      </trkpt>
      <trkpt lat="47.20852" lon="0.03728">
        <ele>76</ele>
        <time>2016-04-20T13:32:43Z</time>
      </trkpt>
      <trkpt lat="47.20852" lon="0.03728">
        <ele>76</ele>
        <time>2016-04-20T13:32:47Z</time>
      </trkpt>
      <trkpt lat="47.20852" lon="0.03728">
        <ele>76</ele>
        <time>2016-04-20T13:32:49Z</time>
      </trkpt>
      <trkpt lat="47.20852" lon="0.03728">
        <ele>76</ele>
        <time>2016-04-20T13:32:52Z</time>
      </trkpt>
      <trkpt lat="47.20852" lon="0.03728">
        <ele>76</ele>
        <time>2016-04-20T13:32:55Z</time>
      </trkpt>
      <trkpt lat="47.20852" lon="0.03728">
        <ele>76</ele>
        <time>2016-04-20T13:32:58Z</time>
      </trkpt>
      <trkpt lat="47.20852" lon="0.03728">
        <ele>76</ele>
        <time>2016-04-20T13:33:01Z</time>
      </trkpt>
      <trkpt lat="47.20852" lon="0.03728">
        <ele>76</ele>
        <time>2016-04-20T13:33:04Z</time>
      </trkpt>
      <trkpt lat="47.20852" lon="0.03728">
        <ele>76</ele>
        <time>2016-04-20T13:33:07Z</time>
      </trkpt>
      <trkpt lat="47.20852" lon="0.03728">
        <ele>76</ele>
        <time>2016-04-20T13:33:11Z</time>
      </trkpt>
      <trkpt lat="47.20852" lon="0.03728">
        <ele>76</ele>
        <time>2016-04-20T13:33:13Z</time>
      </trkpt>
      <trkpt lat="47.20852" lon="0.03728">
        <ele>76</ele>
        <time>2016-04-20T13:33:16Z</time>
      </trkpt>
      <trkpt lat="47.20852" lon="0.03728">
        <ele>76</ele>
        <time>2016-04-20T13:33:21Z</time>
      </trkpt>
      <trkpt lat="47.20852" lon="0.03728">
        <ele>76</ele>
        <time>2016-04-20T13:33:22Z</time>
      </trkpt>
      <trkpt lat="47.20852" lon="0.03728">
        <ele>76</ele>
        <time>2016-04-20T13:33:25Z</time>
      </trkpt>
      <trkpt lat="47.20852" lon="0.03728">
        <ele>76</ele>
        <time>2016-04-20T13:33:29Z</time>
      </trkpt>
      <trkpt lat="47.20852" lon="0.03728">
        <ele>76</ele>
        <time>2016-04-20T13:33:31Z</time>
      </trkpt>
      <trkpt lat="47.20852" lon="0.03728">
        <ele>76</ele>
        <time>2016-04-20T13:33:34Z</time>
      </trkpt>
      <trkpt lat="47.20852" lon="0.03728">
        <ele>76</ele>
        <time>2016-04-20T13:33:39Z</time>
      </trkpt>
      <trkpt lat="47.20852" lon="0.03728">
        <ele>76</ele>
        <time>2016-04-20T13:33:41Z</time>
      </trkpt>
      <trkpt lat="47.20852" lon="0.03728">
        <ele>76</ele>
        <time>2016-04-20T13:33:43Z</time>
      </trkpt>
      <trkpt lat="47.20852" lon="0.03728">
        <ele>76</ele>
        <time>2016-04-20T13:33:46Z</time>
      </trkpt>
      <trkpt lat="47.20852" lon="0.03728">
        <ele>76</ele>
        <time>2016-04-20T13:33:50Z</time>
      </trkpt>
      <trkpt lat="47.20852" lon="0.03728">
        <ele>76</ele>
        <time>2016-04-20T13:33:52Z</time>
      </trkpt>
      <trkpt lat="47.20852" lon="0.03728">
        <ele>76</ele>
        <time>2016-04-20T13:33:56Z</time>
      </trkpt>
      <trkpt lat="47.20852" lon="0.03728">
        <ele>76</ele>
        <time>2016-04-20T13:33:59Z</time>
      </trkpt>
      <trkpt lat="47.20853" lon="0.0373">
        <ele>72</ele>
        <time>2016-04-20T13:34:01Z</time>
      </trkpt>
      <trkpt lat="47.20864" lon="0.03745">
        <ele>73</ele>
        <time>2016-04-20T13:34:14Z</time>
      </trkpt>
      <trkpt lat="47.20875" lon="0.03753">
        <ele>73</ele>
        <time>2016-04-20T13:34:25Z</time>
      </trkpt>
      <trkpt lat="47.20892" lon="0.03762">
        <ele>68</ele>
        <time>2016-04-20T13:34:44Z</time>
      </trkpt>
      <trkpt lat="47.20893" lon="0.03763">
        <ele>70</ele>
        <time>2016-04-20T13:34:45Z</time>
      </trkpt>
      <trkpt lat="47.20904" lon="0.03772">
        <ele>70</ele>
        <time>2016-04-20T13:34:56Z</time>
      </trkpt>
      <trkpt lat="47.20916" lon="0.03787">
        <ele>68</ele>
        <time>2016-04-20T13:35:11Z</time>
      </trkpt>
      <trkpt lat="47.20923" lon="0.03795">
        <ele>69</ele>
        <time>2016-04-20T13:35:19Z</time>
      </trkpt>
      <trkpt lat="47.20946" lon="0.03816">
        <ele>67</ele>
        <time>2016-04-20T13:35:39Z</time>
      </trkpt>
      <trkpt lat="47.20947" lon="0.03816">
        <ele>67</ele>
        <time>2016-04-20T13:35:40Z</time>
      </trkpt>
      <trkpt lat="47.20961" lon="0.03827">
        <ele>66</ele>
        <time>2016-04-20T13:35:53Z</time>
      </trkpt>
      <trkpt lat="47.2097" lon="0.03835">
        <ele>66</ele>
        <time>2016-04-20T13:36:02Z</time>
      </trkpt>
      <trkpt lat="47.20981" lon="0.03846">
        <ele>64</ele>
        <time>2016-04-20T13:36:13Z</time>
      </trkpt>
      <trkpt lat="47.20991" lon="0.03857">
        <ele>65</ele>
        <time>2016-04-20T13:36:24Z</time>
      </trkpt>
      <trkpt lat="47.21002" lon="0.03869">
        <ele>65</ele>
        <time>2016-04-20T13:36:35Z</time>
      </trkpt>
      <trkpt lat="47.21016" lon="0.03884">
        <ele>66</ele>
        <time>2016-04-20T13:36:51Z</time>
      </trkpt>
      <trkpt lat="47.21021" lon="0.0389">
        <ele>63</ele>
        <time>2016-04-20T13:36:57Z</time>
      </trkpt>
      <trkpt lat="47.21032" lon="0.039">
        <ele>61</ele>
        <time>2016-04-20T13:37:08Z</time>
      </trkpt>
      <trkpt lat="47.21046" lon="0.03916">
        <ele>62</ele>
        <time>2016-04-20T13:37:22Z</time>
      </trkpt>
      <trkpt lat="47.21061" lon="0.03935">
        <ele>66</ele>
        <time>2016-04-20T13:37:36Z</time>
      </trkpt>
      <trkpt lat="47.21073" lon="0.03944">
        <ele>68</ele>
        <time>2016-04-20T13:37:46Z</time>
      </trkpt>
      <trkpt lat="47.21083" lon="0.03958">
        <ele>72</ele>
        <time>2016-04-20T13:37:58Z</time>
      </trkpt>
      <trkpt lat="47.21087" lon="0.03964">
        <ele>70</ele>
        <time>2016-04-20T13:38:03Z</time>
      </trkpt>
      <trkpt lat="47.21092" lon="0.0397">
        <ele>70</ele>
        <time>2016-04-20T13:38:14Z</time>
      </trkpt>
      <trkpt lat="47.21096" lon="0.03977">
        <ele>69</ele>
        <time>2016-04-20T13:38:25Z</time>
      </trkpt>
      <trkpt lat="47.21116" lon="0.04003">
        <ele>68</ele>
        <time>2016-04-20T13:38:43Z</time>
      </trkpt>
      <trkpt lat="47.21121" lon="0.0401">
        <ele>64</ele>
        <time>2016-04-20T13:38:47Z</time>
      </trkpt>
      <trkpt lat="47.2114" lon="0.04035">
        <ele>65</ele>
        <time>2016-04-20T13:39:06Z</time>
      </trkpt>
      <trkpt lat="47.21143" lon="0.04039">
        <ele>65</ele>
        <time>2016-04-20T13:39:09Z</time>
      </trkpt>
      <trkpt lat="47.21155" lon="0.0405">
        <ele>63</ele>
        <time>2016-04-20T13:39:20Z</time>
      </trkpt>
      <trkpt lat="47.21178" lon="0.04062">
        <ele>68</ele>
        <time>2016-04-20T13:39:38Z</time>
      </trkpt>
      <trkpt lat="47.21183" lon="0.04072">
        <ele>67</ele>
        <time>2016-04-20T13:39:45Z</time>
      </trkpt>
      <trkpt lat="47.21193" lon="0.04078">
        <ele>66</ele>
        <time>2016-04-20T13:39:54Z</time>
      </trkpt>
      <trkpt lat="47.21211" lon="0.04083">
        <ele>69</ele>
        <time>2016-04-20T13:40:05Z</time>
      </trkpt>
      <trkpt lat="47.21224" lon="0.04098">
        <ele>71</ele>
        <time>2016-04-20T13:40:18Z</time>
      </trkpt>
      <trkpt lat="47.21237" lon="0.04106">
        <ele>70</ele>
        <time>2016-04-20T13:40:28Z</time>
      </trkpt>
      <trkpt lat="47.21248" lon="0.04113">
        <ele>69</ele>
        <time>2016-04-20T13:40:38Z</time>
      </trkpt>
      <trkpt lat="47.2126" lon="0.04117">
        <ele>69</ele>
        <time>2016-04-20T13:40:48Z</time>
      </trkpt>
      <trkpt lat="47.2128" lon="0.04119">
        <ele>67</ele>
        <time>2016-04-20T13:41:04Z</time>
      </trkpt>
      <trkpt lat="47.21288" lon="0.04119">
        <ele>66</ele>
        <time>2016-04-20T13:41:10Z</time>
      </trkpt>
      <trkpt lat="47.2131" lon="0.04123">
        <ele>67</ele>
        <time>2016-04-20T13:41:28Z</time>
      </trkpt>
      <trkpt lat="47.21315" lon="0.04125">
        <ele>67</ele>
        <time>2016-04-20T13:41:32Z</time>
      </trkpt>
      <trkpt lat="47.21331" lon="0.04132">
        <ele>68</ele>
        <time>2016-04-20T13:41:44Z</time>
      </trkpt>
      <trkpt lat="47.21346" lon="0.04145">
        <ele>71</ele>
        <time>2016-04-20T13:41:58Z</time>
      </trkpt>
      <trkpt lat="47.21351" lon="0.04155">
        <ele>68</ele>
        <time>2016-04-20T13:42:06Z</time>
      </trkpt>
      <trkpt lat="47.21354" lon="0.04173">
        <ele>68</ele>
        <time>2016-04-20T13:42:16Z</time>
      </trkpt>
      <trkpt lat="47.21357" lon="0.04193">
        <ele>66</ele>
        <time>2016-04-20T13:42:27Z</time>
      </trkpt>
      <trkpt lat="47.21358" lon="0.04213">
        <ele>64</ele>
        <time>2016-04-20T13:42:39Z</time>
      </trkpt>
      <trkpt lat="47.21361" lon="0.04231">
        <ele>65</ele>
        <time>2016-04-20T13:42:49Z</time>
      </trkpt>
      <trkpt lat="47.21361" lon="0.04253">
        <ele>66</ele>
        <time>2016-04-20T13:43:01Z</time>
      </trkpt>
      <trkpt lat="47.21362" lon="0.04272">
        <ele>65</ele>
        <time>2016-04-20T13:43:11Z</time>
      </trkpt>
      <trkpt lat="47.21364" lon="0.04291">
        <ele>67</ele>
        <time>2016-04-20T13:43:22Z</time>
      </trkpt>
      <trkpt lat="47.21364" lon="0.04311">
        <ele>65</ele>
        <time>2016-04-20T13:43:33Z</time>
      </trkpt>
      <trkpt lat="47.21365" lon="0.0433">
        <ele>66</ele>
        <time>2016-04-20T13:43:44Z</time>
      </trkpt>
      <trkpt lat="47.21369" lon="0.0435">
        <ele>68</ele>
        <time>2016-04-20T13:43:55Z</time>
      </trkpt>
      <trkpt lat="47.21373" lon="0.04371">
        <ele>69</ele>
        <time>2016-04-20T13:44:07Z</time>
      </trkpt>
      <trkpt lat="47.21376" lon="0.04394">
        <ele>67</ele>
        <time>2016-04-20T13:44:21Z</time>
      </trkpt>
      <trkpt lat="47.21378" lon="0.04408">
        <ele>64</ele>
        <time>2016-04-20T13:44:29Z</time>
      </trkpt>
      <trkpt lat="47.21382" lon="0.04426">
        <ele>64</ele>
        <time>2016-04-20T13:44:39Z</time>
      </trkpt>
      <trkpt lat="47.21382" lon="0.04446">
        <ele>64</ele>
        <time>2016-04-20T13:44:50Z</time>
      </trkpt>
      <trkpt lat="47.21386" lon="0.04476">
        <ele>62</ele>
        <time>2016-04-20T13:45:06Z</time>
      </trkpt>
      <trkpt lat="47.21389" lon="0.04487">
        <ele>61</ele>
        <time>2016-04-20T13:45:13Z</time>
      </trkpt>
      <trkpt lat="47.21391" lon="0.04505">
        <ele>61</ele>
        <time>2016-04-20T13:45:23Z</time>
      </trkpt>
      <trkpt lat="47.21396" lon="0.04524">
        <ele>63</ele>
        <time>2016-04-20T13:45:34Z</time>
      </trkpt>
      <trkpt lat="47.21403" lon="0.04541">
        <ele>65</ele>
        <time>2016-04-20T13:45:45Z</time>
      </trkpt>
      <trkpt lat="47.21411" lon="0.04556">
        <ele>62</ele>
        <time>2016-04-20T13:45:56Z</time>
      </trkpt>
      <trkpt lat="47.21423" lon="0.04575">
        <ele>61</ele>
        <time>2016-04-20T13:46:10Z</time>
      </trkpt>
      <trkpt lat="47.21429" lon="0.04585">
        <ele>60</ele>
        <time>2016-04-20T13:46:18Z</time>
      </trkpt>
      <trkpt lat="47.2144" lon="0.046">
        <ele>62</ele>
        <time>2016-04-20T13:46:30Z</time>
      </trkpt>
      <trkpt lat="47.2145" lon="0.0461">
        <ele>62</ele>
        <time>2016-04-20T13:46:41Z</time>
      </trkpt>
      <trkpt lat="47.21469" lon="0.04625">
        <ele>62</ele>
        <time>2016-04-20T13:46:58Z</time>
      </trkpt>
      <trkpt lat="47.21474" lon="0.0463">
        <ele>59</ele>
        <time>2016-04-20T13:47:03Z</time>
      </trkpt>
      <trkpt lat="47.21488" lon="0.04644">
        <ele>59</ele>
        <time>2016-04-20T13:47:17Z</time>
      </trkpt>
      <trkpt lat="47.21499" lon="0.04658">
        <ele>57</ele>
        <time>2016-04-20T13:47:28Z</time>
      </trkpt>
      <trkpt lat="47.21514" lon="0.04672">
        <ele>57</ele>
        <time>2016-04-20T13:47:42Z</time>
      </trkpt>
      <trkpt lat="47.21522" lon="0.04679">
        <ele>60</ele>
        <time>2016-04-20T13:47:49Z</time>
      </trkpt>
      <trkpt lat="47.21532" lon="0.04687">
        <ele>61</ele>
        <time>2016-04-20T13:47:57Z</time>
      </trkpt>
      <trkpt lat="47.21553" lon="0.04703">
        <ele>64</ele>
        <time>2016-04-20T13:48:16Z</time>
      </trkpt>
      <trkpt lat="47.21554" lon="0.04704">
        <ele>65</ele>
        <time>2016-04-20T13:48:19Z</time>
      </trkpt>
      <trkpt lat="47.21567" lon="0.04716">
        <ele>64</ele>
        <time>2016-04-20T13:48:30Z</time>
      </trkpt>
      <trkpt lat="47.21579" lon="0.04728">
        <ele>65</ele>
        <time>2016-04-20T13:48:41Z</time>
      </trkpt>
      <trkpt lat="47.21593" lon="0.0474">
        <ele>65</ele>
        <time>2016-04-20T13:48:53Z</time>
      </trkpt>
      <trkpt lat="47.21604" lon="0.0475">
        <ele>66</ele>
        <time>2016-04-20T13:49:03Z</time>
      </trkpt>
      <trkpt lat="47.21615" lon="0.04762">
        <ele>66</ele>
        <time>2016-04-20T13:49:15Z</time>
      </trkpt>
      <trkpt lat="47.21622" lon="0.04774">
        <ele>66</ele>
        <time>2016-04-20T13:49:25Z</time>
      </trkpt>
      <trkpt lat="47.21625" lon="0.04777">
        <ele>67</ele>
        <time>2016-04-20T13:49:36Z</time>
      </trkpt>
      <trkpt lat="47.21625" lon="0.04777">
        <ele>67</ele>
        <time>2016-04-20T13:49:48Z</time>
      </trkpt>
      <trkpt lat="47.21626" lon="0.04778">
        <ele>66</ele>
        <time>2016-04-20T13:49:50Z</time>
      </trkpt>
      <trkpt lat="47.21626" lon="0.04778">
        <ele>65</ele>
        <time>2016-04-20T13:49:54Z</time>
      </trkpt>
      <trkpt lat="47.21626" lon="0.04779">
        <ele>65</ele>
        <time>2016-04-20T13:49:56Z</time>
      </trkpt>
      <trkpt lat="47.21627" lon="0.04781">
        <ele>68</ele>
        <time>2016-04-20T13:50:07Z</time>
      </trkpt>
      <trkpt lat="47.21627" lon="0.04781">
        <ele>68</ele>
        <time>2016-04-20T13:50:11Z</time>
      </trkpt>
      <trkpt lat="47.21628" lon="0.04781">
        <ele>67</ele>
        <time>2016-04-20T13:50:16Z</time>
      </trkpt>
      <trkpt lat="47.21628" lon="0.04781">
        <ele>68</ele>
        <time>2016-04-20T13:50:19Z</time>
      </trkpt>
      <trkpt lat="47.21628" lon="0.04782">
        <ele>68</ele>
        <time>2016-04-20T13:50:22Z</time>
      </trkpt>
      <trkpt lat="47.21628" lon="0.04782">
        <ele>68</ele>
        <time>2016-04-20T13:50:25Z</time>
      </trkpt>
      <trkpt lat="47.21628" lon="0.04783">
        <ele>68</ele>
        <time>2016-04-20T13:50:29Z</time>
      </trkpt>
      <trkpt lat="47.21629" lon="0.04784">
        <ele>68</ele>
        <time>2016-04-20T13:50:34Z</time>
      </trkpt>
      <trkpt lat="47.21629" lon="0.04783">
        <ele>67</ele>
        <time>2016-04-20T13:50:37Z</time>
      </trkpt>
      <trkpt lat="47.21629" lon="0.04782">
        <ele>65</ele>
        <time>2016-04-20T13:50:42Z</time>
      </trkpt>
      <trkpt lat="47.21629" lon="0.04783">
        <ele>64</ele>
        <time>2016-04-20T13:50:44Z</time>
      </trkpt>
      <trkpt lat="47.21629" lon="0.04783">
        <ele>63</ele>
        <time>2016-04-20T13:50:46Z</time>
      </trkpt>
      <trkpt lat="47.2163" lon="0.04782">
        <ele>64</ele>
        <time>2016-04-20T13:50:51Z</time>
      </trkpt>
      <trkpt lat="47.2163" lon="0.04782">
        <ele>64</ele>
        <time>2016-04-20T13:50:52Z</time>
      </trkpt>
      <trkpt lat="47.2163" lon="0.04782">
        <ele>63</ele>
        <time>2016-04-20T13:50:55Z</time>
      </trkpt>
      <trkpt lat="47.21631" lon="0.04782">
        <ele>63</ele>
        <time>2016-04-20T13:50:59Z</time>
      </trkpt>
      <trkpt lat="47.2163" lon="0.04782">
        <ele>64</ele>
        <time>2016-04-20T13:51:02Z</time>
      </trkpt>
      <trkpt lat="47.2163" lon="0.04782">
        <ele>65</ele>
        <time>2016-04-20T13:51:05Z</time>
      </trkpt>
      <trkpt lat="47.2163" lon="0.04783">
        <ele>65</ele>
        <time>2016-04-20T13:51:08Z</time>
      </trkpt>
      <trkpt lat="47.21629" lon="0.04782">
        <ele>64</ele>
        <time>2016-04-20T13:51:12Z</time>
      </trkpt>
      <trkpt lat="47.21628" lon="0.04782">
        <ele>64</ele>
        <time>2016-04-20T13:51:19Z</time>
      </trkpt>
      <trkpt lat="47.21626" lon="0.0478">
        <ele>66</ele>
        <time>2016-04-20T13:51:32Z</time>
      </trkpt>
      <trkpt lat="47.21626" lon="0.0478">
        <ele>67</ele>
        <time>2016-04-20T13:51:34Z</time>
      </trkpt>
      <trkpt lat="47.21626" lon="0.0478">
        <ele>67</ele>
        <time>2016-04-20T13:51:37Z</time>
      </trkpt>
      <trkpt lat="47.21626" lon="0.0478">
        <ele>67</ele>
        <time>2016-04-20T13:51:40Z</time>
      </trkpt>
      <trkpt lat="47.21626" lon="0.0478">
        <ele>67</ele>
        <time>2016-04-20T13:51:45Z</time>
      </trkpt>
      <trkpt lat="47.21626" lon="0.0478">
        <ele>66</ele>
        <time>2016-04-20T13:51:49Z</time>
      </trkpt>
      <trkpt lat="47.21628" lon="0.04781">
        <ele>65</ele>
        <time>2016-04-20T13:51:57Z</time>
      </trkpt>
      <trkpt lat="47.21627" lon="0.04781">
        <ele>66</ele>
        <time>2016-04-20T13:52:02Z</time>
      </trkpt>
      <trkpt lat="47.21627" lon="0.04781">
        <ele>66</ele>
        <time>2016-04-20T13:52:03Z</time>
      </trkpt>
      <trkpt lat="47.21627" lon="0.04782">
        <ele>65</ele>
        <time>2016-04-20T13:52:07Z</time>
      </trkpt>
      <trkpt lat="47.21627" lon="0.04782">
        <ele>65</ele>
        <time>2016-04-20T13:52:10Z</time>
      </trkpt>
      <trkpt lat="47.21627" lon="0.04782">
        <ele>65</ele>
        <time>2016-04-20T13:52:12Z</time>
      </trkpt>
      <trkpt lat="47.21628" lon="0.04781">
        <ele>65</ele>
        <time>2016-04-20T13:52:15Z</time>
      </trkpt>
      <trkpt lat="47.21629" lon="0.0478">
        <ele>65</ele>
        <time>2016-04-20T13:52:22Z</time>
      </trkpt>
      <trkpt lat="47.21629" lon="0.0478">
        <ele>66</ele>
        <time>2016-04-20T13:52:24Z</time>
      </trkpt>
      <trkpt lat="47.21629" lon="0.0478">
        <ele>66</ele>
        <time>2016-04-20T13:52:27Z</time>
      </trkpt>
      <trkpt lat="47.21628" lon="0.0478">
        <ele>66</ele>
        <time>2016-04-20T13:52:31Z</time>
      </trkpt>
      <trkpt lat="47.21628" lon="0.0478">
        <ele>66</ele>
        <time>2016-04-20T13:52:33Z</time>
      </trkpt>
      <trkpt lat="47.21628" lon="0.04781">
        <ele>67</ele>
        <time>2016-04-20T13:52:36Z</time>
      </trkpt>
      <trkpt lat="47.21628" lon="0.04781">
        <ele>66</ele>
        <time>2016-04-20T13:52:39Z</time>
      </trkpt>
      <trkpt lat="47.21627" lon="0.04781">
        <ele>67</ele>
        <time>2016-04-20T13:52:42Z</time>
      </trkpt>
      <trkpt lat="47.21627" lon="0.04781">
        <ele>65</ele>
        <time>2016-04-20T13:52:50Z</time>
      </trkpt>
      <trkpt lat="47.21627" lon="0.04781">
        <ele>65</ele>
        <time>2016-04-20T13:52:51Z</time>
      </trkpt>
      <trkpt lat="47.21634" lon="0.04782">
        <ele>66</ele>
        <time>2016-04-20T13:53:02Z</time>
      </trkpt>
      <trkpt lat="47.21641" lon="0.04783">
        <ele>68</ele>
        <time>2016-04-20T13:53:13Z</time>
      </trkpt>
      <trkpt lat="47.21648" lon="0.04785">
        <ele>70</ele>
        <time>2016-04-20T13:53:24Z</time>
      </trkpt>
      <trkpt lat="47.21653" lon="0.04785">
        <ele>71</ele>
        <time>2016-04-20T13:53:35Z</time>
      </trkpt>
      <trkpt lat="47.21656" lon="0.04785">
        <ele>71</ele>
        <time>2016-04-20T13:53:47Z</time>
      </trkpt>
      <trkpt lat="47.21668" lon="0.04779">
        <ele>74</ele>
        <time>2016-04-20T13:54:00Z</time>
      </trkpt>
      <trkpt lat="47.21688" lon="0.04771">
        <ele>77</ele>
        <time>2016-04-20T13:54:10Z</time>
      </trkpt>
      <trkpt lat="47.21706" lon="0.04765">
        <ele>79</ele>
        <time>2016-04-20T13:54:26Z</time>
      </trkpt>
      <trkpt lat="47.21708" lon="0.04758">
        <ele>81</ele>
        <time>2016-04-20T13:54:32Z</time>
      </trkpt>
      <trkpt lat="47.21712" lon="0.04736">
        <ele>76</ele>
        <time>2016-04-20T13:54:45Z</time>
      </trkpt>
      <trkpt lat="47.21712" lon="0.04729">
        <ele>76</ele>
        <time>2016-04-20T13:54:53Z</time>
      </trkpt>
      <trkpt lat="47.21712" lon="0.04715">
        <ele>77</ele>
        <time>2016-04-20T13:55:03Z</time>
      </trkpt>
      <trkpt lat="47.21713" lon="0.04699">
        <ele>78</ele>
        <time>2016-04-20T13:55:14Z</time>
      </trkpt>
      <trkpt lat="47.21714" lon="0.04683">
        <ele>77</ele>
        <time>2016-04-20T13:55:25Z</time>
      </trkpt>
      <trkpt lat="47.21716" lon="0.04664">
        <ele>76</ele>
        <time>2016-04-20T13:55:36Z</time>
      </trkpt>
      <trkpt lat="47.21718" lon="0.04642">
        <ele>75</ele>
        <time>2016-04-20T13:55:47Z</time>
      </trkpt>
      <trkpt lat="47.21721" lon="0.04621">
        <ele>77</ele>
        <time>2016-04-20T13:55:59Z</time>
      </trkpt>
      <trkpt lat="47.21724" lon="0.04605">
        <ele>77</ele>
        <time>2016-04-20T13:56:09Z</time>
      </trkpt>
      <trkpt lat="47.21729" lon="0.04585">
        <ele>78</ele>
        <time>2016-04-20T13:56:25Z</time>
      </trkpt>
      <trkpt lat="47.21729" lon="0.04577">
        <ele>78</ele>
        <time>2016-04-20T13:56:31Z</time>
      </trkpt>
      <trkpt lat="47.21729" lon="0.04559">
        <ele>77</ele>
        <time>2016-04-20T13:56:43Z</time>
      </trkpt>
      <trkpt lat="47.21728" lon="0.0454">
        <ele>75</ele>
        <time>2016-04-20T13:56:53Z</time>
      </trkpt>
      <trkpt lat="47.21722" lon="0.04516">
        <ele>77</ele>
        <time>2016-04-20T13:57:05Z</time>
      </trkpt>
      <trkpt lat="47.21718" lon="0.04503">
        <ele>75</ele>
        <time>2016-04-20T13:57:15Z</time>
      </trkpt>
      <trkpt lat="47.21716" lon="0.04484">
        <ele>74</ele>
        <time>2016-04-20T13:57:26Z</time>
      </trkpt>
      <trkpt lat="47.21716" lon="0.0447">
        <ele>73</ele>
        <time>2016-04-20T13:57:37Z</time>
      </trkpt>
      <trkpt lat="47.21717" lon="0.04457">
        <ele>73</ele>
        <time>2016-04-20T13:57:48Z</time>
      </trkpt>
      <trkpt lat="47.21716" lon="0.04423">
        <ele>76</ele>
        <time>2016-04-20T13:58:06Z</time>
      </trkpt>
      <trkpt lat="47.21719" lon="0.04405">
        <ele>76</ele>
        <time>2016-04-20T13:58:14Z</time>
      </trkpt>
      <trkpt lat="47.21721" lon="0.04389">
        <ele>76</ele>
        <time>2016-04-20T13:58:21Z</time>
      </trkpt>
      <trkpt lat="47.21723" lon="0.0437">
        <ele>76</ele>
        <time>2016-04-20T13:58:32Z</time>
      </trkpt>
      <trkpt lat="47.21725" lon="0.04341">
        <ele>74</ele>
        <time>2016-04-20T13:58:49Z</time>
      </trkpt>
      <trkpt lat="47.21725" lon="0.04332">
        <ele>74</ele>
        <time>2016-04-20T13:58:54Z</time>
      </trkpt>
      <trkpt lat="47.21727" lon="0.04311">
        <ele>74</ele>
        <time>2016-04-20T13:59:05Z</time>
      </trkpt>
      <trkpt lat="47.21731" lon="0.04288">
        <ele>74</ele>
        <time>2016-04-20T13:59:16Z</time>
      </trkpt>
      <trkpt lat="47.21733" lon="0.04266">
        <ele>75</ele>
        <time>2016-04-20T13:59:27Z</time>
      </trkpt>
      <trkpt lat="47.21736" lon="0.04251">
        <ele>73</ele>
        <time>2016-04-20T13:59:38Z</time>
      </trkpt>
      <trkpt lat="47.21741" lon="0.04235">
        <ele>72</ele>
        <time>2016-04-20T13:59:49Z</time>
      </trkpt>
      <trkpt lat="47.21743" lon="0.0422">
        <ele>71</ele>
        <time>2016-04-20T14:00:00Z</time>
      </trkpt>
      <trkpt lat="47.21744" lon="0.04206">
        <ele>71</ele>
        <time>2016-04-20T14:00:11Z</time>
      </trkpt>
      <trkpt lat="47.21748" lon="0.04185">
        <ele>71</ele>
        <time>2016-04-20T14:00:22Z</time>
      </trkpt>
      <trkpt lat="47.21753" lon="0.04165">
        <ele>69</ele>
        <time>2016-04-20T14:00:33Z</time>
      </trkpt>
      <trkpt lat="47.21757" lon="0.04145">
        <ele>68</ele>
        <time>2016-04-20T14:00:44Z</time>
      </trkpt>
      <trkpt lat="47.21761" lon="0.04128">
        <ele>67</ele>
        <time>2016-04-20T14:00:55Z</time>
      </trkpt>
      <trkpt lat="47.21763" lon="0.04109">
        <ele>67</ele>
        <time>2016-04-20T14:01:06Z</time>
      </trkpt>
      <trkpt lat="47.21764" lon="0.04089">
        <ele>69</ele>
        <time>2016-04-20T14:01:17Z</time>
      </trkpt>
      <trkpt lat="47.21767" lon="0.04072">
        <ele>66</ele>
        <time>2016-04-20T14:01:28Z</time>
      </trkpt>
      <trkpt lat="47.21768" lon="0.04054">
        <ele>66</ele>
        <time>2016-04-20T14:01:40Z</time>
      </trkpt>
      <trkpt lat="47.21765" lon="0.0405">
        <ele>65</ele>
        <time>2016-04-20T14:01:50Z</time>
      </trkpt>
      <trkpt lat="47.2175" lon="0.04018">
        <ele>72</ele>
        <time>2016-04-20T14:02:09Z</time>
      </trkpt>
      <trkpt lat="47.21748" lon="0.04013">
        <ele>72</ele>
        <time>2016-04-20T14:02:12Z</time>
      </trkpt>
      <trkpt lat="47.21741" lon="0.0398">
        <ele>71</ele>
        <time>2016-04-20T14:02:32Z</time>
      </trkpt>
      <trkpt lat="47.21744" lon="0.03975">
        <ele>72</ele>
        <time>2016-04-20T14:02:35Z</time>
      </trkpt>
      <trkpt lat="47.21751" lon="0.03955">
        <ele>73</ele>
        <time>2016-04-20T14:02:45Z</time>
      </trkpt>
      <trkpt lat="47.21758" lon="0.03931">
        <ele>69</ele>
        <time>2016-04-20T14:03:01Z</time>
      </trkpt>
      <trkpt lat="47.21761" lon="0.03913">
        <ele>69</ele>
        <time>2016-04-20T14:03:11Z</time>
      </trkpt>
      <trkpt lat="47.21763" lon="0.03902">
        <ele>68</ele>
        <time>2016-04-20T14:03:19Z</time>
      </trkpt>
      <trkpt lat="47.21766" lon="0.03881">
        <ele>69</ele>
        <time>2016-04-20T14:03:29Z</time>
      </trkpt>
      <trkpt lat="47.21767" lon="0.03868">
        <ele>68</ele>
        <time>2016-04-20T14:03:42Z</time>
      </trkpt>
      <trkpt lat="47.21771" lon="0.03851">
        <ele>70</ele>
        <time>2016-04-20T14:03:53Z</time>
      </trkpt>
      <trkpt lat="47.21778" lon="0.03822">
        <ele>70</ele>
        <time>2016-04-20T14:04:08Z</time>
      </trkpt>
      <trkpt lat="47.21779" lon="0.03822">
        <ele>68</ele>
        <time>2016-04-20T14:04:13Z</time>
      </trkpt>
      <trkpt lat="47.21779" lon="0.03819">
        <ele>69</ele>
        <time>2016-04-20T14:04:16Z</time>
      </trkpt>
      <trkpt lat="47.21789" lon="0.03809">
        <ele>72</ele>
        <time>2016-04-20T14:04:27Z</time>
      </trkpt>
      <trkpt lat="47.21805" lon="0.03809">
        <ele>68</ele>
        <time>2016-04-20T14:04:38Z</time>
      </trkpt>
      <trkpt lat="47.2182" lon="0.03813">
        <ele>69</ele>
        <time>2016-04-20T14:04:49Z</time>
      </trkpt>
      <trkpt lat="47.21833" lon="0.03816">
        <ele>67</ele>
        <time>2016-04-20T14:05:00Z</time>
      </trkpt>
      <trkpt lat="47.21844" lon="0.03822">
        <ele>68</ele>
        <time>2016-04-20T14:05:12Z</time>
      </trkpt>
      <trkpt lat="47.21859" lon="0.03829">
        <ele>66</ele>
        <time>2016-04-20T14:05:27Z</time>
      </trkpt>
      <trkpt lat="47.21867" lon="0.03834">
        <ele>64</ele>
        <time>2016-04-20T14:05:33Z</time>
      </trkpt>
      <trkpt lat="47.2188" lon="0.03843">
        <ele>64</ele>
        <time>2016-04-20T14:05:44Z</time>
      </trkpt>
      <trkpt lat="47.21891" lon="0.03851">
        <ele>62</ele>
        <time>2016-04-20T14:05:54Z</time>
      </trkpt>
      <trkpt lat="47.21907" lon="0.0386">
        <ele>62</ele>
        <time>2016-04-20T14:06:08Z</time>
      </trkpt>
      <trkpt lat="47.21918" lon="0.03866">
        <ele>65</ele>
        <time>2016-04-20T14:06:17Z</time>
      </trkpt>
      <trkpt lat="47.2193" lon="0.03872">
        <ele>62</ele>
        <time>2016-04-20T14:06:28Z</time>
      </trkpt>
      <trkpt lat="47.21953" lon="0.03877">
        <ele>62</ele>
        <time>2016-04-20T14:06:46Z</time>
      </trkpt>
      <trkpt lat="47.21961" lon="0.03876">
        <ele>59</ele>
        <time>2016-04-20T14:06:53Z</time>
      </trkpt>
      <trkpt lat="47.21966" lon="0.03874">
        <ele>59</ele>
        <time>2016-04-20T14:07:00Z</time>
      </trkpt>
      <trkpt lat="47.21991" lon="0.0388">
        <ele>56</ele>
        <time>2016-04-20T14:07:21Z</time>
      </trkpt>
      <trkpt lat="47.21992" lon="0.03881">
        <ele>55</ele>
        <time>2016-04-20T14:07:22Z</time>
      </trkpt>
      <trkpt lat="47.22003" lon="0.03884">
        <ele>54</ele>
        <time>2016-04-20T14:07:33Z</time>
      </trkpt>
      <trkpt lat="47.22014" lon="0.03887">
        <ele>50</ele>
        <time>2016-04-20T14:07:44Z</time>
      </trkpt>
      <trkpt lat="47.22026" lon="0.03883">
        <ele>47</ele>
        <time>2016-04-20T14:07:55Z</time>
      </trkpt>
      <trkpt lat="47.22038" lon="0.0388">
        <ele>50</ele>
        <time>2016-04-20T14:08:06Z</time>
      </trkpt>
      <trkpt lat="47.22063" lon="0.0388">
        <ele>48</ele>
        <time>2016-04-20T14:08:27Z</time>
      </trkpt>
      <trkpt lat="47.22062" lon="0.03882">
        <ele>48</ele>
        <time>2016-04-20T14:08:29Z</time>
      </trkpt>
      <trkpt lat="47.22063" lon="0.03882">
        <ele>47</ele>
        <time>2016-04-20T14:08:39Z</time>
      </trkpt>
      <trkpt lat="47.22065" lon="0.03882">
        <ele>47</ele>
        <time>2016-04-20T14:08:42Z</time>
      </trkpt>
      <trkpt lat="47.2207" lon="0.03884">
        <ele>46</ele>
        <time>2016-04-20T14:08:53Z</time>
      </trkpt>
      <trkpt lat="47.22071" lon="0.03884">
        <ele>47</ele>
        <time>2016-04-20T14:09:04Z</time>
      </trkpt>
      <trkpt lat="47.22071" lon="0.03884">
        <ele>47</ele>
        <time>2016-04-20T14:09:07Z</time>
      </trkpt>
      <trkpt lat="47.22071" lon="0.03883">
        <ele>48</ele>
        <time>2016-04-20T14:09:10Z</time>
      </trkpt>
      <trkpt lat="47.22071" lon="0.03883">
        <ele>47</ele>
        <time>2016-04-20T14:09:14Z</time>
      </trkpt>
      <trkpt lat="47.22071" lon="0.03883">
        <ele>47</ele>
        <time>2016-04-20T14:09:16Z</time>
      </trkpt>
      <trkpt lat="47.22071" lon="0.03884">
        <ele>47</ele>
        <time>2016-04-20T14:09:20Z</time>
      </trkpt>
      <trkpt lat="47.22071" lon="0.03884">
        <ele>47</ele>
        <time>2016-04-20T14:09:23Z</time>
      </trkpt>
      <trkpt lat="47.22071" lon="0.03884">
        <ele>47</ele>
        <time>2016-04-20T14:09:26Z</time>
      </trkpt>
      <trkpt lat="47.22071" lon="0.03884">
        <ele>47</ele>
        <time>2016-04-20T14:09:30Z</time>
      </trkpt>
      <trkpt lat="47.22071" lon="0.03884">
        <ele>47</ele>
        <time>2016-04-20T14:09:31Z</time>
      </trkpt>
      <trkpt lat="47.22071" lon="0.03884">
        <ele>47</ele>
        <time>2016-04-20T14:09:34Z</time>
      </trkpt>
      <trkpt lat="47.22071" lon="0.03884">
        <ele>47</ele>
        <time>2016-04-20T14:09:37Z</time>
      </trkpt>
      <trkpt lat="47.22071" lon="0.03884">
        <ele>47</ele>
        <time>2016-04-20T14:09:40Z</time>
      </trkpt>
      <trkpt lat="47.22071" lon="0.03884">
        <ele>47</ele>
        <time>2016-04-20T14:09:43Z</time>
      </trkpt>
      <trkpt lat="47.22071" lon="0.03884">
        <ele>47</ele>
        <time>2016-04-20T14:09:48Z</time>
      </trkpt>
      <trkpt lat="47.22071" lon="0.03884">
        <ele>47</ele>
        <time>2016-04-20T14:09:50Z</time>
      </trkpt>
      <trkpt lat="47.22071" lon="0.03884">
        <ele>47</ele>
        <time>2016-04-20T14:09:52Z</time>
      </trkpt>
      <trkpt lat="47.22071" lon="0.03884">
        <ele>47</ele>
        <time>2016-04-20T14:09:55Z</time>
      </trkpt>
      <trkpt lat="47.22071" lon="0.03884">
        <ele>47</ele>
        <time>2016-04-20T14:09:58Z</time>
      </trkpt>
      <trkpt lat="47.22071" lon="0.03884">
        <ele>47</ele>
        <time>2016-04-20T14:10:01Z</time>
      </trkpt>
      <trkpt lat="47.22071" lon="0.03884">
        <ele>47</ele>
        <time>2016-04-20T14:10:04Z</time>
      </trkpt>
      <trkpt lat="47.22071" lon="0.03884">
        <ele>47</ele>
        <time>2016-04-20T14:10:07Z</time>
      </trkpt>
      <trkpt lat="47.22071" lon="0.03884">
        <ele>47</ele>
        <time>2016-04-20T14:10:10Z</time>
      </trkpt>
      <trkpt lat="47.22071" lon="0.03884">
        <ele>47</ele>
        <time>2016-04-20T14:10:13Z</time>
      </trkpt>
      <trkpt lat="47.22071" lon="0.03884">
        <ele>47</ele>
        <time>2016-04-20T14:10:16Z</time>
      </trkpt>
      <trkpt lat="47.22071" lon="0.03884">
        <ele>47</ele>
        <time>2016-04-20T14:10:19Z</time>
      </trkpt>
      <trkpt lat="47.22071" lon="0.03884">
        <ele>47</ele>
        <time>2016-04-20T14:10:22Z</time>
      </trkpt>
      <trkpt lat="47.22071" lon="0.03884">
        <ele>47</ele>
        <time>2016-04-20T14:10:25Z</time>
      </trkpt>
      <trkpt lat="47.22071" lon="0.03884">
        <ele>47</ele>
        <time>2016-04-20T14:10:28Z</time>
      </trkpt>
      <trkpt lat="47.22071" lon="0.03884">
        <ele>47</ele>
        <time>2016-04-20T14:10:31Z</time>
      </trkpt>
      <trkpt lat="47.22071" lon="0.03884">
        <ele>47</ele>
        <time>2016-04-20T14:10:34Z</time>
      </trkpt>
      <trkpt lat="47.22071" lon="0.03884">
        <ele>47</ele>
        <time>2016-04-20T14:10:37Z</time>
      </trkpt>
      <trkpt lat="47.22071" lon="0.03884">
        <ele>47</ele>
        <time>2016-04-20T14:10:40Z</time>
      </trkpt>
      <trkpt lat="47.22071" lon="0.03884">
        <ele>47</ele>
        <time>2016-04-20T14:10:43Z</time>
      </trkpt>
      <trkpt lat="47.22071" lon="0.03884">
        <ele>47</ele>
        <time>2016-04-20T14:10:46Z</time>
      </trkpt>
      <trkpt lat="47.22071" lon="0.03884">
        <ele>47</ele>
        <time>2016-04-20T14:10:51Z</time>
      </trkpt>
      <trkpt lat="47.22071" lon="0.03884">
        <ele>47</ele>
        <time>2016-04-20T14:10:54Z</time>
      </trkpt>
      <trkpt lat="47.22071" lon="0.03884">
        <ele>47</ele>
        <time>2016-04-20T14:10:55Z</time>
      </trkpt>
      <trkpt lat="47.22071" lon="0.03884">
        <ele>47</ele>
        <time>2016-04-20T14:10:58Z</time>
      </trkpt>
      <trkpt lat="47.22071" lon="0.03884">
        <ele>47</ele>
        <time>2016-04-20T14:11:01Z</time>
      </trkpt>
      <trkpt lat="47.22071" lon="0.03884">
        <ele>47</ele>
        <time>2016-04-20T14:11:04Z</time>
      </trkpt>
      <trkpt lat="47.22071" lon="0.03884">
        <ele>47</ele>
        <time>2016-04-20T14:11:08Z</time>
      </trkpt>
      <trkpt lat="47.22071" lon="0.03884">
        <ele>47</ele>
        <time>2016-04-20T14:11:10Z</time>
      </trkpt>
      <trkpt lat="47.22071" lon="0.03883">
        <ele>47</ele>
        <time>2016-04-20T14:11:13Z</time>
      </trkpt>
      <trkpt lat="47.22071" lon="0.03883">
        <ele>47</ele>
        <time>2016-04-20T14:11:17Z</time>
      </trkpt>
      <trkpt lat="47.22071" lon="0.03883">
        <ele>47</ele>
        <time>2016-04-20T14:11:19Z</time>
      </trkpt>
      <trkpt lat="47.22071" lon="0.03883">
        <ele>47</ele>
        <time>2016-04-20T14:11:22Z</time>
      </trkpt>
      <trkpt lat="47.22062" lon="0.03879">
        <ele>46</ele>
        <time>2016-04-20T14:11:34Z</time>
      </trkpt>
      <trkpt lat="47.22058" lon="0.03879">
        <ele>45</ele>
        <time>2016-04-20T14:11:36Z</time>
      </trkpt>
      <trkpt lat="47.22044" lon="0.03879">
        <ele>45</ele>
        <time>2016-04-20T14:11:47Z</time>
      </trkpt>
      <trkpt lat="47.22042" lon="0.0388">
        <ele>41</ele>
        <time>2016-04-20T14:12:04Z</time>
      </trkpt>
      <trkpt lat="47.22051" lon="0.03876">
        <ele>44</ele>
        <time>2016-04-20T14:12:13Z</time>
      </trkpt>
      <trkpt lat="47.22059" lon="0.03871">
        <ele>40</ele>
        <time>2016-04-20T14:12:19Z</time>
      </trkpt>
      <trkpt lat="47.22069" lon="0.03856">
        <ele>45</ele>
        <time>2016-04-20T14:12:38Z</time>
      </trkpt>
      <trkpt lat="47.22069" lon="0.03856">
        <ele>45</ele>
        <time>2016-04-20T14:12:40Z</time>
      </trkpt>
      <trkpt lat="47.2207" lon="0.03855">
        <ele>45</ele>
        <time>2016-04-20T14:12:43Z</time>
      </trkpt>
      <trkpt lat="47.22071" lon="0.03852">
        <ele>46</ele>
        <time>2016-04-20T14:12:47Z</time>
      </trkpt>
      <trkpt lat="47.22084" lon="0.03838">
        <ele>42</ele>
        <time>2016-04-20T14:13:01Z</time>
      </trkpt>
      <trkpt lat="47.22098" lon="0.03816">
        <ele>47</ele>
        <time>2016-04-20T14:13:14Z</time>
      </trkpt>
      <trkpt lat="47.221" lon="0.03808">
        <ele>48</ele>
        <time>2016-04-20T14:13:19Z</time>
      </trkpt>
      <trkpt lat="47.22109" lon="0.03785">
        <ele>51</ele>
        <time>2016-04-20T14:13:30Z</time>
      </trkpt>
      <trkpt lat="47.22117" lon="0.03768">
        <ele>51</ele>
        <time>2016-04-20T14:13:44Z</time>
      </trkpt>
      <trkpt lat="47.22118" lon="0.03759">
        <ele>53</ele>
        <time>2016-04-20T14:13:54Z</time>
      </trkpt>
      <trkpt lat="47.22121" lon="0.03743">
        <ele>53</ele>
        <time>2016-04-20T14:14:03Z</time>
      </trkpt>
      <trkpt lat="47.22125" lon="0.03722">
        <ele>52</ele>
        <time>2016-04-20T14:14:15Z</time>
      </trkpt>
      <trkpt lat="47.22127" lon="0.03714">
        <ele>53</ele>
        <time>2016-04-20T14:14:32Z</time>
      </trkpt>
      <trkpt lat="47.22127" lon="0.03713">
        <ele>53</ele>
        <time>2016-04-20T14:14:36Z</time>
      </trkpt>
      <trkpt lat="47.22127" lon="0.03706">
        <ele>52</ele>
        <time>2016-04-20T14:14:41Z</time>
      </trkpt>
      <trkpt lat="47.2213" lon="0.03696">
        <ele>54</ele>
        <time>2016-04-20T14:14:55Z</time>
      </trkpt>
      <trkpt lat="47.2213" lon="0.03696">
        <ele>53</ele>
        <time>2016-04-20T14:15:01Z</time>
      </trkpt>
      <trkpt lat="47.2213" lon="0.03696">
        <ele>53</ele>
        <time>2016-04-20T14:15:04Z</time>
      </trkpt>
      <trkpt lat="47.2213" lon="0.03696">
        <ele>53</ele>
        <time>2016-04-20T14:15:07Z</time>
      </trkpt>
      <trkpt lat="47.2213" lon="0.03695">
        <ele>53</ele>
        <time>2016-04-20T14:15:10Z</time>
      </trkpt>
      <trkpt lat="47.2213" lon="0.03695">
        <ele>53</ele>
        <time>2016-04-20T14:15:13Z</time>
      </trkpt>
      <trkpt lat="47.2213" lon="0.03695">
        <ele>53</ele>
        <time>2016-04-20T14:15:16Z</time>
      </trkpt>
      <trkpt lat="47.2213" lon="0.03695">
        <ele>53</ele>
        <time>2016-04-20T14:15:19Z</time>
      </trkpt>
      <trkpt lat="47.2213" lon="0.03695">
        <ele>53</ele>
        <time>2016-04-20T14:15:22Z</time>
      </trkpt>
      <trkpt lat="47.2213" lon="0.03695">
        <ele>53</ele>
        <time>2016-04-20T14:15:25Z</time>
      </trkpt>
      <trkpt lat="47.2213" lon="0.03695">
        <ele>53</ele>
        <time>2016-04-20T14:15:28Z</time>
      </trkpt>
      <trkpt lat="47.2213" lon="0.03695">
        <ele>53</ele>
        <time>2016-04-20T14:15:31Z</time>
      </trkpt>
      <trkpt lat="47.2213" lon="0.03695">
        <ele>53</ele>
        <time>2016-04-20T14:15:34Z</time>
      </trkpt>
      <trkpt lat="47.2213" lon="0.03695">
        <ele>53</ele>
        <time>2016-04-20T14:15:37Z</time>
      </trkpt>
      <trkpt lat="47.2213" lon="0.03695">
        <ele>53</ele>
        <time>2016-04-20T14:15:40Z</time>
      </trkpt>
      <trkpt lat="47.2213" lon="0.03695">
        <ele>53</ele>
        <time>2016-04-20T14:15:43Z</time>
      </trkpt>
      <trkpt lat="47.2213" lon="0.03695">
        <ele>53</ele>
        <time>2016-04-20T14:15:46Z</time>
      </trkpt>
      <trkpt lat="47.2213" lon="0.03695">
        <ele>53</ele>
        <time>2016-04-20T14:15:49Z</time>
      </trkpt>
      <trkpt lat="47.22132" lon="0.03695">
        <ele>51</ele>
        <time>2016-04-20T14:15:52Z</time>
      </trkpt>
      <trkpt lat="47.22142" lon="0.03692">
        <ele>51</ele>
        <time>2016-04-20T14:16:06Z</time>
      </trkpt>
      <trkpt lat="47.22143" lon="0.03695">
        <ele>47</ele>
        <time>2016-04-20T14:16:17Z</time>
      </trkpt>
      <trkpt lat="47.22144" lon="0.03699">
        <ele>47</ele>
        <time>2016-04-20T14:16:27Z</time>
      </trkpt>
      <trkpt lat="47.22144" lon="0.037">
        <ele>48</ele>
        <time>2016-04-20T14:16:34Z</time>
      </trkpt>
      <trkpt lat="47.22144" lon="0.037">
        <ele>47</ele>
        <time>2016-04-20T14:16:37Z</time>
      </trkpt>
      <trkpt lat="47.22146" lon="0.03699">
        <ele>44</ele>
        <time>2016-04-20T14:16:46Z</time>
      </trkpt>
      <trkpt lat="47.22147" lon="0.03698">
        <ele>43</ele>
        <time>2016-04-20T14:16:49Z</time>
      </trkpt>
      <trkpt lat="47.22152" lon="0.03682">
        <ele>41</ele>
        <time>2016-04-20T14:17:00Z</time>
      </trkpt>
      <trkpt lat="47.22154" lon="0.03658">
        <ele>40</ele>
        <time>2016-04-20T14:17:12Z</time>
      </trkpt>
      <trkpt lat="47.22154" lon="0.03658">
        <ele>41</ele>
        <time>2016-04-20T14:17:24Z</time>
      </trkpt>
      <trkpt lat="47.22153" lon="0.03654">
        <ele>41</ele>
        <time>2016-04-20T14:17:28Z</time>
      </trkpt>
      <trkpt lat="47.22153" lon="0.03651">
        <ele>43</ele>
        <time>2016-04-20T14:17:38Z</time>
      </trkpt>
      <trkpt lat="47.22157" lon="0.03631">
        <ele>45</ele>
        <time>2016-04-20T14:17:54Z</time>
      </trkpt>
      <trkpt lat="47.22169" lon="0.03603">
        <ele>48</ele>
        <time>2016-04-20T14:18:08Z</time>
      </trkpt>
      <trkpt lat="47.2217" lon="0.03602">
        <ele>47</ele>
        <time>2016-04-20T14:18:09Z</time>
      </trkpt>
      <trkpt lat="47.22178" lon="0.03586">
        <ele>37</ele>
        <time>2016-04-20T14:18:30Z</time>
      </trkpt>
      <trkpt lat="47.22178" lon="0.03585">
        <ele>37</ele>
        <time>2016-04-20T14:18:34Z</time>
      </trkpt>
      <trkpt lat="47.22176" lon="0.03586">
        <ele>36</ele>
        <time>2016-04-20T14:18:43Z</time>
      </trkpt>
      <trkpt lat="47.22177" lon="0.03586">
        <ele>36</ele>
        <time>2016-04-20T14:18:46Z</time>
      </trkpt>
      <trkpt lat="47.22177" lon="0.03586">
        <ele>36</ele>
        <time>2016-04-20T14:18:49Z</time>
      </trkpt>
      <trkpt lat="47.22177" lon="0.03586">
        <ele>36</ele>
        <time>2016-04-20T14:18:54Z</time>
      </trkpt>
      <trkpt lat="47.22177" lon="0.03586">
        <ele>36</ele>
        <time>2016-04-20T14:18:55Z</time>
      </trkpt>
      <trkpt lat="47.22177" lon="0.03585">
        <ele>36</ele>
        <time>2016-04-20T14:18:58Z</time>
      </trkpt>
      <trkpt lat="47.22177" lon="0.03585">
        <ele>37</ele>
        <time>2016-04-20T14:19:01Z</time>
      </trkpt>
      <trkpt lat="47.22177" lon="0.03585">
        <ele>37</ele>
        <time>2016-04-20T14:19:04Z</time>
      </trkpt>
      <trkpt lat="47.22177" lon="0.03585">
        <ele>37</ele>
        <time>2016-04-20T14:19:07Z</time>
      </trkpt>
      <trkpt lat="47.22177" lon="0.03585">
        <ele>37</ele>
        <time>2016-04-20T14:19:10Z</time>
      </trkpt>
      <trkpt lat="47.22177" lon="0.03585">
        <ele>37</ele>
        <time>2016-04-20T14:19:15Z</time>
      </trkpt>
      <trkpt lat="47.22177" lon="0.03585">
        <ele>37</ele>
        <time>2016-04-20T14:19:16Z</time>
      </trkpt>
      <trkpt lat="47.22177" lon="0.03585">
        <ele>37</ele>
        <time>2016-04-20T14:19:19Z</time>
      </trkpt>
      <trkpt lat="47.22177" lon="0.03585">
        <ele>37</ele>
        <time>2016-04-20T14:19:22Z</time>
      </trkpt>
      <trkpt lat="47.22177" lon="0.03585">
        <ele>37</ele>
        <time>2016-04-20T14:19:26Z</time>
      </trkpt>
      <trkpt lat="47.22177" lon="0.03585">
        <ele>37</ele>
        <time>2016-04-20T14:19:28Z</time>
      </trkpt>
      <trkpt lat="47.22177" lon="0.03585">
        <ele>37</ele>
        <time>2016-04-20T14:19:31Z</time>
      </trkpt>
      <trkpt lat="47.22177" lon="0.03585">
        <ele>37</ele>
        <time>2016-04-20T14:19:35Z</time>
      </trkpt>
      <trkpt lat="47.22177" lon="0.03585">
        <ele>37</ele>
        <time>2016-04-20T14:19:37Z</time>
      </trkpt>
      <trkpt lat="47.22177" lon="0.03585">
        <ele>37</ele>
        <time>2016-04-20T14:19:40Z</time>
      </trkpt>
      <trkpt lat="47.22175" lon="0.03572">
        <ele>30</ele>
        <time>2016-04-20T14:19:46Z</time>
      </trkpt>
      <trkpt lat="47.22176" lon="0.03572">
        <ele>33</ele>
        <time>2016-04-20T14:19:54Z</time>
      </trkpt>
      <trkpt lat="47.22184" lon="0.03551">
        <ele>35</ele>
        <time>2016-04-20T14:20:14Z</time>
      </trkpt>
      <trkpt lat="47.22186" lon="0.03544">
        <ele>31</ele>
        <time>2016-04-20T14:20:23Z</time>
      </trkpt>
      <trkpt lat="47.22193" lon="0.03523">
        <ele>26</ele>
        <time>2016-04-20T14:20:37Z</time>
      </trkpt>
      <trkpt lat="47.22193" lon="0.03522">
        <ele>26</ele>
        <time>2016-04-20T14:20:38Z</time>
      </trkpt>
      <trkpt lat="47.22206" lon="0.03505">
        <ele>33</ele>
        <time>2016-04-20T14:20:50Z</time>
      </trkpt>
      <trkpt lat="47.22211" lon="0.03478">
        <ele>28</ele>
        <time>2016-04-20T14:21:05Z</time>
      </trkpt>
      <trkpt lat="47.2222" lon="0.03463">
        <ele>23</ele>
        <time>2016-04-20T14:21:21Z</time>
      </trkpt>
      <trkpt lat="47.2222" lon="0.03463">
        <ele>23</ele>
        <time>2016-04-20T14:21:22Z</time>
      </trkpt>
      <trkpt lat="47.22223" lon="0.03461">
        <ele>27</ele>
        <time>2016-04-20T14:21:28Z</time>
      </trkpt>
      <trkpt lat="47.22224" lon="0.03461">
        <ele>28</ele>
        <time>2016-04-20T14:21:36Z</time>
      </trkpt>
      <trkpt lat="47.22224" lon="0.03461">
        <ele>28</ele>
        <time>2016-04-20T14:21:39Z</time>
      </trkpt>
      <trkpt lat="47.22224" lon="0.03461">
        <ele>28</ele>
        <time>2016-04-20T14:21:42Z</time>
      </trkpt>
      <trkpt lat="47.22224" lon="0.03461">
        <ele>28</ele>
        <time>2016-04-20T14:21:47Z</time>
      </trkpt>
      <trkpt lat="47.22224" lon="0.03461">
        <ele>28</ele>
        <time>2016-04-20T14:21:48Z</time>
      </trkpt>
      <trkpt lat="47.22224" lon="0.03461">
        <ele>28</ele>
        <time>2016-04-20T14:21:51Z</time>
      </trkpt>
      <trkpt lat="47.2223" lon="0.03465">
        <ele>27</ele>
        <time>2016-04-20T14:22:00Z</time>
      </trkpt>
      <trkpt lat="47.22235" lon="0.03469">
        <ele>26</ele>
        <time>2016-04-20T14:22:05Z</time>
      </trkpt>
      <trkpt lat="47.2225" lon="0.03475">
        <ele>25</ele>
        <time>2016-04-20T14:22:19Z</time>
      </trkpt>
      <trkpt lat="47.22255" lon="0.03456">
        <ele>19</ele>
        <time>2016-04-20T14:22:33Z</time>
      </trkpt>
      <trkpt lat="47.22259" lon="0.0344">
        <ele>17</ele>
        <time>2016-04-20T14:22:43Z</time>
      </trkpt>
      <trkpt lat="47.22262" lon="0.03423">
        <ele>20</ele>
        <time>2016-04-20T14:22:55Z</time>
      </trkpt>
      <trkpt lat="47.22264" lon="0.03411">
        <ele>20</ele>
        <time>2016-04-20T14:23:01Z</time>
      </trkpt>
      <trkpt lat="47.2227" lon="0.03392">
        <ele>23</ele>
        <time>2016-04-20T14:23:11Z</time>
      </trkpt>
      <trkpt lat="47.22276" lon="0.03374">
        <ele>23</ele>
        <time>2016-04-20T14:23:22Z</time>
      </trkpt>
      <trkpt lat="47.22279" lon="0.03343">
        <ele>20</ele>
        <time>2016-04-20T14:23:42Z</time>
      </trkpt>
      <trkpt lat="47.2228" lon="0.03334">
        <ele>19</ele>
        <time>2016-04-20T14:23:49Z</time>
      </trkpt>
      <trkpt lat="47.2228" lon="0.03327">
        <ele>16</ele>
        <time>2016-04-20T14:23:55Z</time>
      </trkpt>
      <trkpt lat="47.22291" lon="0.03303">
        <ele>18</ele>
        <time>2016-04-20T14:24:10Z</time>
      </trkpt>
      <trkpt lat="47.22297" lon="0.03291">
        <ele>19</ele>
        <time>2016-04-20T14:24:17Z</time>
      </trkpt>
      <trkpt lat="47.22305" lon="0.03264">
        <ele>22</ele>
        <time>2016-04-20T14:24:37Z</time>
      </trkpt>
      <trkpt lat="47.22304" lon="0.03263">
        <ele>22</ele>
        <time>2016-04-20T14:24:39Z</time>
      </trkpt>
      <trkpt lat="47.22303" lon="0.03259">
        <ele>23</ele>
        <time>2016-04-20T14:24:50Z</time>
      </trkpt>
      <trkpt lat="47.22304" lon="0.03213">
        <ele>19</ele>
        <time>2016-04-20T14:25:09Z</time>
      </trkpt>
      <trkpt lat="47.22306" lon="0.03206">
        <ele>20</ele>
        <time>2016-04-20T14:25:12Z</time>
      </trkpt>
      <trkpt lat="47.22311" lon="0.03182">
        <ele>23</ele>
        <time>2016-04-20T14:25:23Z</time>
      </trkpt>
      <trkpt lat="47.22314" lon="0.03167">
        <ele>23</ele>
        <time>2016-04-20T14:25:34Z</time>
      </trkpt>
      <trkpt lat="47.2233" lon="0.03137">
        <ele>25</ele>
        <time>2016-04-20T14:25:53Z</time>
      </trkpt>
      <trkpt lat="47.22331" lon="0.03128">
        <ele>23</ele>
        <time>2016-04-20T14:25:58Z</time>
      </trkpt>
      <trkpt lat="47.22334" lon="0.03109">
        <ele>20</ele>
        <time>2016-04-20T14:26:09Z</time>
      </trkpt>
      <trkpt lat="47.22337" lon="0.03092">
        <ele>23</ele>
        <time>2016-04-20T14:26:21Z</time>
      </trkpt>
      <trkpt lat="47.22345" lon="0.03079">
        <ele>24</ele>
        <time>2016-04-20T14:26:31Z</time>
      </trkpt>
      <trkpt lat="47.22353" lon="0.03052">
        <ele>23</ele>
        <time>2016-04-20T14:26:48Z</time>
      </trkpt>
      <trkpt lat="47.22354" lon="0.03047">
        <ele>24</ele>
        <time>2016-04-20T14:26:51Z</time>
      </trkpt>
      <trkpt lat="47.22357" lon="0.03017">
        <ele>23</ele>
        <time>2016-04-20T14:27:10Z</time>
      </trkpt>
      <trkpt lat="47.22359" lon="0.03013">
        <ele>23</ele>
        <time>2016-04-20T14:27:13Z</time>
      </trkpt>
      <trkpt lat="47.22365" lon="0.02988">
        <ele>23</ele>
        <time>2016-04-20T14:27:28Z</time>
      </trkpt>
      <trkpt lat="47.22369" lon="0.02976">
        <ele>23</ele>
        <time>2016-04-20T14:27:35Z</time>
      </trkpt>
      <trkpt lat="47.22372" lon="0.02959">
        <ele>22</ele>
        <time>2016-04-20T14:27:46Z</time>
      </trkpt>
      <trkpt lat="47.22378" lon="0.02946">
        <ele>23</ele>
        <time>2016-04-20T14:27:57Z</time>
      </trkpt>
      <trkpt lat="47.22384" lon="0.02929">
        <ele>25</ele>
        <time>2016-04-20T14:28:11Z</time>
      </trkpt>
      <trkpt lat="47.22383" lon="0.02924">
        <ele>26</ele>
        <time>2016-04-20T14:28:19Z</time>
      </trkpt>
      <trkpt lat="47.22377" lon="0.02913">
        <ele>26</ele>
        <time>2016-04-20T14:28:30Z</time>
      </trkpt>
      <trkpt lat="47.22367" lon="0.029">
        <ele>26</ele>
        <time>2016-04-20T14:28:41Z</time>
      </trkpt>
      <trkpt lat="47.2235" lon="0.02892">
        <ele>25</ele>
        <time>2016-04-20T14:28:57Z</time>
      </trkpt>
    </trkseg>
  </trk>
</gpx>